<?xml version="1.0" encoding="utf-8"?>
<gpx xmlns:xsi="http://www.w3.org/2001/XMLSchema-instance" xmlns:xsd="http://www.w3.org/2001/XMLSchema" version="1.1" creator="Shapelink.com" xmlns="http://www.topografix.com/GPX/1/1" xmlns:gpxtpx="http://www.garmin.com/xmlschemas/TrackPointExtension/v1">
  <metadata>
    <name>Löpning 7.47 km, 2017-11-06</name>
    <desc></desc>
    <author><name>Bengt-Åke Forslund</name></author> 
    <time>2017-11-06T18:06:42Z</time>
  </metadata>
  <trk>
    <name>Löpning 7.47 km, 2017-11-06</name>
    <trkseg>
      <trkpt lat="62.637148119192" lon="17.966254298236">
        <ele>58.6</ele>
        <time>2017-11-06T18:06:42Z</time>
      </trkpt>
      <trkpt lat="62.637194135823" lon="17.966139801482">
        <ele>57.8</ele>
        <time>2017-11-06T18:07:15Z</time>
      </trkpt>
      <trkpt lat="62.637199081144" lon="17.966131754858">
        <ele>57.8</ele>
        <time>2017-11-06T18:07:16Z</time>
      </trkpt>
      <trkpt lat="62.637198159135" lon="17.966127731546">
        <ele>58.2</ele>
        <time>2017-11-06T18:07:17Z</time>
      </trkpt>
      <trkpt lat="62.637253563494" lon="17.966109207547">
        <ele>58.2</ele>
        <time>2017-11-06T18:07:18Z</time>
      </trkpt>
      <trkpt lat="62.637251048924" lon="17.966097556706">
        <ele>58.2</ele>
        <time>2017-11-06T18:07:19Z</time>
      </trkpt>
      <trkpt lat="62.637248366716" lon="17.966082553105">
        <ele>58.4</ele>
        <time>2017-11-06T18:07:20Z</time>
      </trkpt>
      <trkpt lat="62.637244762499" lon="17.966073668291">
        <ele>58.4</ele>
        <time>2017-11-06T18:07:21Z</time>
      </trkpt>
      <trkpt lat="62.637240320092" lon="17.96605950288">
        <ele>58.2</ele>
        <time>2017-11-06T18:07:22Z</time>
      </trkpt>
      <trkpt lat="62.637235123314" lon="17.96604525365">
        <ele>58</ele>
        <time>2017-11-06T18:07:23Z</time>
      </trkpt>
      <trkpt lat="62.637231519097" lon="17.966025556185">
        <ele>58</ele>
        <time>2017-11-06T18:07:24Z</time>
      </trkpt>
      <trkpt lat="62.637224981215" lon="17.966010636403">
        <ele>57.8</ele>
        <time>2017-11-06T18:07:25Z</time>
      </trkpt>
      <trkpt lat="62.637218610971" lon="17.965991441852">
        <ele>57.6</ele>
        <time>2017-11-06T18:07:26Z</time>
      </trkpt>
      <trkpt lat="62.637211737813" lon="17.965966128514">
        <ele>57.6</ele>
        <time>2017-11-06T18:07:27Z</time>
      </trkpt>
      <trkpt lat="62.637203188275" lon="17.965952298379">
        <ele>57.6</ele>
        <time>2017-11-06T18:07:28Z</time>
      </trkpt>
      <trkpt lat="62.637199081144" lon="17.965939054977">
        <ele>57.6</ele>
        <time>2017-11-06T18:07:29Z</time>
      </trkpt>
      <trkpt lat="62.63719857823" lon="17.965927320317">
        <ele>57.8</ele>
        <time>2017-11-06T18:07:30Z</time>
      </trkpt>
      <trkpt lat="62.637202266266" lon="17.965914412191">
        <ele>57.6</ele>
        <time>2017-11-06T18:07:31Z</time>
      </trkpt>
      <trkpt lat="62.637200925162" lon="17.965897229296">
        <ele>57.6</ele>
        <time>2017-11-06T18:07:32Z</time>
      </trkpt>
      <trkpt lat="62.637196147479" lon="17.965877364193">
        <ele>57.8</ele>
        <time>2017-11-06T18:07:33Z</time>
      </trkpt>
      <trkpt lat="62.637191956529" lon="17.965857079995">
        <ele>57.8</ele>
        <time>2017-11-06T18:07:34Z</time>
      </trkpt>
      <trkpt lat="62.63718684357" lon="17.965845010059">
        <ele>57.6</ele>
        <time>2017-11-06T18:07:35Z</time>
      </trkpt>
      <trkpt lat="62.637175779462" lon="17.965822462748">
        <ele>57.8</ele>
        <time>2017-11-06T18:07:36Z</time>
      </trkpt>
      <trkpt lat="62.63716085968" lon="17.965788013139">
        <ele>57.6</ele>
        <time>2017-11-06T18:07:37Z</time>
      </trkpt>
      <trkpt lat="62.637148370649" lon="17.96575775448">
        <ele>57.6</ele>
        <time>2017-11-06T18:07:38Z</time>
      </trkpt>
      <trkpt lat="62.637136887446" lon="17.965716180256">
        <ele>57.8</ele>
        <time>2017-11-06T18:07:39Z</time>
      </trkpt>
      <trkpt lat="62.637127415899" lon="17.965684077579">
        <ele>57.8</ele>
        <time>2017-11-06T18:07:40Z</time>
      </trkpt>
      <trkpt lat="62.637115848877" lon="17.965639150595">
        <ele>57.8</ele>
        <time>2017-11-06T18:07:41Z</time>
      </trkpt>
      <trkpt lat="62.637103443665" lon="17.965603024606">
        <ele>58</ele>
        <time>2017-11-06T18:07:42Z</time>
      </trkpt>
      <trkpt lat="62.637093888299" lon="17.965568574997">
        <ele>58</ele>
        <time>2017-11-06T18:07:43Z</time>
      </trkpt>
      <trkpt lat="62.637081734544" lon="17.965529096248">
        <ele>58</ele>
        <time>2017-11-06T18:07:44Z</time>
      </trkpt>
      <trkpt lat="62.637070502798" lon="17.96548953368">
        <ele>58</ele>
        <time>2017-11-06T18:07:45Z</time>
      </trkpt>
      <trkpt lat="62.637059941604" lon="17.965449552017">
        <ele>58.2</ele>
        <time>2017-11-06T18:07:46Z</time>
      </trkpt>
      <trkpt lat="62.637044938003" lon="17.965400769359">
        <ele>57.8</ele>
        <time>2017-11-06T18:07:47Z</time>
      </trkpt>
      <trkpt lat="62.637033622438" lon="17.965358608402">
        <ele>58</ele>
        <time>2017-11-06T18:07:48Z</time>
      </trkpt>
      <trkpt lat="62.637020546674" lon="17.965309071373">
        <ele>58</ele>
        <time>2017-11-06T18:07:49Z</time>
      </trkpt>
      <trkpt lat="62.637004285788" lon="17.96526406057">
        <ele>57.8</ele>
        <time>2017-11-06T18:07:50Z</time>
      </trkpt>
      <trkpt lat="62.636991126205" lon="17.965221229061">
        <ele>57.8</ele>
        <time>2017-11-06T18:07:51Z</time>
      </trkpt>
      <trkpt lat="62.636977212251" lon="17.965180660665">
        <ele>57.8</ele>
        <time>2017-11-06T18:07:52Z</time>
      </trkpt>
      <trkpt lat="62.636964555582" lon="17.965132883835">
        <ele>57.8</ele>
        <time>2017-11-06T18:07:53Z</time>
      </trkpt>
      <trkpt lat="62.63695215037" lon="17.96508636429">
        <ele>57.8</ele>
        <time>2017-11-06T18:07:54Z</time>
      </trkpt>
      <trkpt lat="62.636937482045" lon="17.965042526953">
        <ele>57.8</ele>
        <time>2017-11-06T18:07:55Z</time>
      </trkpt>
      <trkpt lat="62.636921724073" lon="17.964998186702">
        <ele>57.8</ele>
        <time>2017-11-06T18:07:56Z</time>
      </trkpt>
      <trkpt lat="62.636910576146" lon="17.964957115392">
        <ele>58</ele>
        <time>2017-11-06T18:07:57Z</time>
      </trkpt>
      <trkpt lat="62.636897835658" lon="17.964917469005">
        <ele>58.2</ele>
        <time>2017-11-06T18:07:58Z</time>
      </trkpt>
      <trkpt lat="62.636880317487" lon="17.964864914492">
        <ele>58</ele>
        <time>2017-11-06T18:07:59Z</time>
      </trkpt>
      <trkpt lat="62.636863050773" lon="17.964820406603">
        <ele>58.2</ele>
        <time>2017-11-06T18:08:00Z</time>
      </trkpt>
      <trkpt lat="62.636846789887" lon="17.964776317809">
        <ele>57.8</ele>
        <time>2017-11-06T18:08:01Z</time>
      </trkpt>
      <trkpt lat="62.636831870105" lon="17.964732564291">
        <ele>57.6</ele>
        <time>2017-11-06T18:08:02Z</time>
      </trkpt>
      <trkpt lat="62.636816447409" lon="17.964692331171">
        <ele>57.6</ele>
        <time>2017-11-06T18:08:03Z</time>
      </trkpt>
      <trkpt lat="62.636800689437" lon="17.964646398359">
        <ele>57.6</ele>
        <time>2017-11-06T18:08:04Z</time>
      </trkpt>
      <trkpt lat="62.636788032768" lon="17.964601136099">
        <ele>57.4</ele>
        <time>2017-11-06T18:08:05Z</time>
      </trkpt>
      <trkpt lat="62.636771352787" lon="17.964561741169">
        <ele>57.6</ele>
        <time>2017-11-06T18:08:06Z</time>
      </trkpt>
      <trkpt lat="62.636758360842" lon="17.96451890966">
        <ele>57.4</ele>
        <time>2017-11-06T18:08:07Z</time>
      </trkpt>
      <trkpt lat="62.636746542363" lon="17.964475742875">
        <ele>57.4</ele>
        <time>2017-11-06T18:08:08Z</time>
      </trkpt>
      <trkpt lat="62.636737070816" lon="17.964435006841">
        <ele>57.4</ele>
        <time>2017-11-06T18:08:09Z</time>
      </trkpt>
      <trkpt lat="62.636725168518" lon="17.964389912219">
        <ele>57.4</ele>
        <time>2017-11-06T18:08:10Z</time>
      </trkpt>
      <trkpt lat="62.636708656175" lon="17.96434456614">
        <ele>57.4</ele>
        <time>2017-11-06T18:08:11Z</time>
      </trkpt>
      <trkpt lat="62.636695161316" lon="17.964305003572">
        <ele>57.6</ele>
        <time>2017-11-06T18:08:12Z</time>
      </trkpt>
      <trkpt lat="62.63668309138" lon="17.964265692461">
        <ele>57.6</ele>
        <time>2017-11-06T18:08:13Z</time>
      </trkpt>
      <trkpt lat="62.636672362548" lon="17.964220430201">
        <ele>57.6</ele>
        <time>2017-11-06T18:08:14Z</time>
      </trkpt>
      <trkpt lat="62.636661885173" lon="17.964183466022">
        <ele>57.6</ele>
        <time>2017-11-06T18:08:15Z</time>
      </trkpt>
      <trkpt lat="62.636649647599" lon="17.964142897626">
        <ele>57.6</ele>
        <time>2017-11-06T18:08:16Z</time>
      </trkpt>
      <trkpt lat="62.636635901283" lon="17.964098222099">
        <ele>57.6</ele>
        <time>2017-11-06T18:08:17Z</time>
      </trkpt>
      <trkpt lat="62.636623663709" lon="17.964062179929">
        <ele>57.6</ele>
        <time>2017-11-06T18:08:18Z</time>
      </trkpt>
      <trkpt lat="62.636608743927" lon="17.964017085307">
        <ele>57.6</ele>
        <time>2017-11-06T18:08:19Z</time>
      </trkpt>
      <trkpt lat="62.636597596" lon="17.963972828875">
        <ele>57.6</ele>
        <time>2017-11-06T18:08:20Z</time>
      </trkpt>
      <trkpt lat="62.636584436417" lon="17.963934942687">
        <ele>57.4</ele>
        <time>2017-11-06T18:08:21Z</time>
      </trkpt>
      <trkpt lat="62.636574713413" lon="17.963894206653">
        <ele>57.4</ele>
        <time>2017-11-06T18:08:22Z</time>
      </trkpt>
      <trkpt lat="62.636562894934" lon="17.963848692936">
        <ele>57.4</ele>
        <time>2017-11-06T18:08:23Z</time>
      </trkpt>
      <trkpt lat="62.636547891333" lon="17.96380812454">
        <ele>57.2</ele>
        <time>2017-11-06T18:08:24Z</time>
      </trkpt>
      <trkpt lat="62.636529534972" lon="17.96377627332">
        <ele>57.2</ele>
        <time>2017-11-06T18:08:25Z</time>
      </trkpt>
      <trkpt lat="62.636507322937" lon="17.96376705323">
        <ele>57.2</ele>
        <time>2017-11-06T18:08:26Z</time>
      </trkpt>
      <trkpt lat="62.63648695492" lon="17.963775016035">
        <ele>57.2</ele>
        <time>2017-11-06T18:08:27Z</time>
      </trkpt>
      <trkpt lat="62.636468682378" lon="17.963793623853">
        <ele>57.2</ele>
        <time>2017-11-06T18:08:28Z</time>
      </trkpt>
      <trkpt lat="62.636448230542" lon="17.963823966331">
        <ele>57.2</ele>
        <time>2017-11-06T18:08:29Z</time>
      </trkpt>
      <trkpt lat="62.636430628552" lon="17.963850453135">
        <ele>57.4</ele>
        <time>2017-11-06T18:08:30Z</time>
      </trkpt>
      <trkpt lat="62.636413026562" lon="17.963879286871">
        <ele>57.2</ele>
        <time>2017-11-06T18:08:31Z</time>
      </trkpt>
      <trkpt lat="62.636400286074" lon="17.963905186942">
        <ele>57.4</ele>
        <time>2017-11-06T18:08:32Z</time>
      </trkpt>
      <trkpt lat="62.636386204482" lon="17.963932260479">
        <ele>57.4</ele>
        <time>2017-11-06T18:08:33Z</time>
      </trkpt>
      <trkpt lat="62.636367429026" lon="17.963958747283">
        <ele>57.4</ele>
        <time>2017-11-06T18:08:34Z</time>
      </trkpt>
      <trkpt lat="62.636350832864" lon="17.963985150268">
        <ele>57.4</ele>
        <time>2017-11-06T18:08:35Z</time>
      </trkpt>
      <trkpt lat="62.636334320521" lon="17.96401096652">
        <ele>57.4</ele>
        <time>2017-11-06T18:08:36Z</time>
      </trkpt>
      <trkpt lat="62.636315377427" lon="17.964037285686">
        <ele>57.4</ele>
        <time>2017-11-06T18:08:37Z</time>
      </trkpt>
      <trkpt lat="62.636299284179" lon="17.964059162445">
        <ele>57.4</ele>
        <time>2017-11-06T18:08:38Z</time>
      </trkpt>
      <trkpt lat="62.636280424904" lon="17.964083386136">
        <ele>57.4</ele>
        <time>2017-11-06T18:08:39Z</time>
      </trkpt>
      <trkpt lat="62.636262152362" lon="17.964103586515">
        <ele>57.4</ele>
        <time>2017-11-06T18:08:40Z</time>
      </trkpt>
      <trkpt lat="62.636242119621" lon="17.964125211817">
        <ele>57.4</ele>
        <time>2017-11-06T18:08:41Z</time>
      </trkpt>
      <trkpt lat="62.636222841251" lon="17.964146837119">
        <ele>57.6</ele>
        <time>2017-11-06T18:08:42Z</time>
      </trkpt>
      <trkpt lat="62.636204736347" lon="17.964169887344">
        <ele>57.6</ele>
        <time>2017-11-06T18:08:43Z</time>
      </trkpt>
      <trkpt lat="62.63618772109" lon="17.964189249533">
        <ele>57.6</ele>
        <time>2017-11-06T18:08:44Z</time>
      </trkpt>
      <trkpt lat="62.636168945634" lon="17.96421213212">
        <ele>57.8</ele>
        <time>2017-11-06T18:08:45Z</time>
      </trkpt>
      <trkpt lat="62.636149415807" lon="17.96422470497">
        <ele>57.8</ele>
        <time>2017-11-06T18:08:46Z</time>
      </trkpt>
      <trkpt lat="62.63612988598" lon="17.964247084643">
        <ele>57.8</ele>
        <time>2017-11-06T18:08:47Z</time>
      </trkpt>
      <trkpt lat="62.636113541275" lon="17.964266782108">
        <ele>57.8</ele>
        <time>2017-11-06T18:08:48Z</time>
      </trkpt>
      <trkpt lat="62.636091915973" lon="17.964284384098">
        <ele>57.8</ele>
        <time>2017-11-06T18:08:49Z</time>
      </trkpt>
      <trkpt lat="62.636073391974" lon="17.964304165382">
        <ele>57.6</ele>
        <time>2017-11-06T18:08:50Z</time>
      </trkpt>
      <trkpt lat="62.636054197423" lon="17.96432109682">
        <ele>57.6</ele>
        <time>2017-11-06T18:08:51Z</time>
      </trkpt>
      <trkpt lat="62.636037349804" lon="17.964339285543">
        <ele>57.8</ele>
        <time>2017-11-06T18:08:52Z</time>
      </trkpt>
      <trkpt lat="62.636023687307" lon="17.964356384619">
        <ele>57.6</ele>
        <time>2017-11-06T18:08:53Z</time>
      </trkpt>
      <trkpt lat="62.636003235471" lon="17.964372058772">
        <ele>57.8</ele>
        <time>2017-11-06T18:08:54Z</time>
      </trkpt>
      <trkpt lat="62.635982448359" lon="17.964391420961">
        <ele>57.8</ele>
        <time>2017-11-06T18:08:55Z</time>
      </trkpt>
      <trkpt lat="62.635965014007" lon="17.964407849485">
        <ele>58</ele>
        <time>2017-11-06T18:08:56Z</time>
      </trkpt>
      <trkpt lat="62.635946657646" lon="17.964424278009">
        <ele>58</ele>
        <time>2017-11-06T18:08:57Z</time>
      </trkpt>
      <trkpt lat="62.635929139475" lon="17.964437102316">
        <ele>58.2</ele>
        <time>2017-11-06T18:08:58Z</time>
      </trkpt>
      <trkpt lat="62.635907430354" lon="17.964454704306">
        <ele>58.2</ele>
        <time>2017-11-06T18:08:59Z</time>
      </trkpt>
      <trkpt lat="62.635883709577" lon="17.964471384287">
        <ele>58.4</ele>
        <time>2017-11-06T18:09:00Z</time>
      </trkpt>
      <trkpt lat="62.635857641868" lon="17.964486387888">
        <ele>58.4</ele>
        <time>2017-11-06T18:09:01Z</time>
      </trkpt>
      <trkpt lat="62.635838531136" lon="17.964498876919">
        <ele>58.4</ele>
        <time>2017-11-06T18:09:02Z</time>
      </trkpt>
      <trkpt lat="62.635814475083" lon="17.964512874692">
        <ele>58.4</ele>
        <time>2017-11-06T18:09:03Z</time>
      </trkpt>
      <trkpt lat="62.635791592496" lon="17.964527459198">
        <ele>58.4</ele>
        <time>2017-11-06T18:09:04Z</time>
      </trkpt>
      <trkpt lat="62.635770637746" lon="17.96454405536">
        <ele>58.6</ele>
        <time>2017-11-06T18:09:05Z</time>
      </trkpt>
      <trkpt lat="62.635749096263" lon="17.964562579359">
        <ele>58.6</ele>
        <time>2017-11-06T18:09:06Z</time>
      </trkpt>
      <trkpt lat="62.635728309151" lon="17.964579007883">
        <ele>58.6</ele>
        <time>2017-11-06T18:09:07Z</time>
      </trkpt>
      <trkpt lat="62.635708611686" lon="17.964592083647">
        <ele>58.8</ele>
        <time>2017-11-06T18:09:08Z</time>
      </trkpt>
      <trkpt lat="62.635685310004" lon="17.964609015085">
        <ele>58.6</ele>
        <time>2017-11-06T18:09:09Z</time>
      </trkpt>
      <trkpt lat="62.635665780177" lon="17.964621420297">
        <ele>58.8</ele>
        <time>2017-11-06T18:09:10Z</time>
      </trkpt>
      <trkpt lat="62.635647591454" lon="17.964637765002">
        <ele>58.8</ele>
        <time>2017-11-06T18:09:11Z</time>
      </trkpt>
      <trkpt lat="62.635627391075" lon="17.964653942069">
        <ele>58.8</ele>
        <time>2017-11-06T18:09:12Z</time>
      </trkpt>
      <trkpt lat="62.635614734406" lon="17.964667017833">
        <ele>58.8</ele>
        <time>2017-11-06T18:09:13Z</time>
      </trkpt>
      <trkpt lat="62.635599227891" lon="17.964683027262">
        <ele>58.8</ele>
        <time>2017-11-06T18:09:14Z</time>
      </trkpt>
      <trkpt lat="62.635576764399" lon="17.964698449958">
        <ele>58.8</ele>
        <time>2017-11-06T18:09:15Z</time>
      </trkpt>
      <trkpt lat="62.635562263712" lon="17.964708759695">
        <ele>59</ele>
        <time>2017-11-06T18:09:16Z</time>
      </trkpt>
      <trkpt lat="62.635542482428" lon="17.96472845716">
        <ele>59</ele>
        <time>2017-11-06T18:09:17Z</time>
      </trkpt>
      <trkpt lat="62.635518761651" lon="17.964745472417">
        <ele>59</ele>
        <time>2017-11-06T18:09:18Z</time>
      </trkpt>
      <trkpt lat="62.635496549616" lon="17.964763074407">
        <ele>59</ele>
        <time>2017-11-06T18:09:19Z</time>
      </trkpt>
      <trkpt lat="62.63547274502" lon="17.96477204304">
        <ele>59</ele>
        <time>2017-11-06T18:09:20Z</time>
      </trkpt>
      <trkpt lat="62.635446174397" lon="17.964781011673">
        <ele>59.2</ele>
        <time>2017-11-06T18:09:21Z</time>
      </trkpt>
      <trkpt lat="62.635426309294" lon="17.964788471564">
        <ele>59.2</ele>
        <time>2017-11-06T18:09:22Z</time>
      </trkpt>
      <trkpt lat="62.635399906309" lon="17.964799200396">
        <ele>59.2</ele>
        <time>2017-11-06T18:09:23Z</time>
      </trkpt>
      <trkpt lat="62.635372078401" lon="17.964803139889">
        <ele>59.4</ele>
        <time>2017-11-06T18:09:24Z</time>
      </trkpt>
      <trkpt lat="62.635346932701" lon="17.964811521789">
        <ele>59.4</ele>
        <time>2017-11-06T18:09:25Z</time>
      </trkpt>
      <trkpt lat="62.635320864992" lon="17.964825603381">
        <ele>59.4</ele>
        <time>2017-11-06T18:09:26Z</time>
      </trkpt>
      <trkpt lat="62.635300999889" lon="17.964833901462">
        <ele>59.6</ele>
        <time>2017-11-06T18:09:27Z</time>
      </trkpt>
      <trkpt lat="62.635283062623" lon="17.964844295018">
        <ele>59.6</ele>
        <time>2017-11-06T18:09:28Z</time>
      </trkpt>
      <trkpt lat="62.635255821448" lon="17.964855275307">
        <ele>59.6</ele>
        <time>2017-11-06T18:09:29Z</time>
      </trkpt>
      <trkpt lat="62.635233190318" lon="17.964864076302">
        <ele>59.6</ele>
        <time>2017-11-06T18:09:30Z</time>
      </trkpt>
      <trkpt lat="62.63520955336" lon="17.964871452374">
        <ele>59.6</ele>
        <time>2017-11-06T18:09:31Z</time>
      </trkpt>
      <trkpt lat="62.635186251678" lon="17.964877152066">
        <ele>59.6</ele>
        <time>2017-11-06T18:09:32Z</time>
      </trkpt>
      <trkpt lat="62.635165380747" lon="17.96488855145">
        <ele>59.6</ele>
        <time>2017-11-06T18:09:33Z</time>
      </trkpt>
      <trkpt lat="62.635144593635" lon="17.964897939178">
        <ele>59.6</ele>
        <time>2017-11-06T18:09:34Z</time>
      </trkpt>
      <trkpt lat="62.635122130143" lon="17.96490531525">
        <ele>59.6</ele>
        <time>2017-11-06T18:09:35Z</time>
      </trkpt>
      <trkpt lat="62.63509639771" lon="17.964913026598">
        <ele>59.6</ele>
        <time>2017-11-06T18:09:36Z</time>
      </trkpt>
      <trkpt lat="62.635072341657" lon="17.964924174525">
        <ele>59.8</ele>
        <time>2017-11-06T18:09:37Z</time>
      </trkpt>
      <trkpt lat="62.635049710527" lon="17.964935238633">
        <ele>60</ele>
        <time>2017-11-06T18:09:38Z</time>
      </trkpt>
      <trkpt lat="62.635024061913" lon="17.964944039628">
        <ele>60</ele>
        <time>2017-11-06T18:09:39Z</time>
      </trkpt>
      <trkpt lat="62.634997910385" lon="17.964950661329">
        <ele>60</ele>
        <time>2017-11-06T18:09:40Z</time>
      </trkpt>
      <trkpt lat="62.634969160468" lon="17.964956863935">
        <ele>60</ele>
        <time>2017-11-06T18:09:41Z</time>
      </trkpt>
      <trkpt lat="62.634945774967" lon="17.964961725437">
        <ele>60</ele>
        <time>2017-11-06T18:09:42Z</time>
      </trkpt>
      <trkpt lat="62.63492205419" lon="17.964967173672">
        <ele>59.8</ele>
        <time>2017-11-06T18:09:43Z</time>
      </trkpt>
      <trkpt lat="62.634896321757" lon="17.964972705726">
        <ele>60</ele>
        <time>2017-11-06T18:09:44Z</time>
      </trkpt>
      <trkpt lat="62.634873271532" lon="17.964978740694">
        <ele>60</ele>
        <time>2017-11-06T18:09:45Z</time>
      </trkpt>
      <trkpt lat="62.634847706737" lon="17.964982764006">
        <ele>60</ele>
        <time>2017-11-06T18:09:46Z</time>
      </trkpt>
      <trkpt lat="62.634821806666" lon="17.964988128422">
        <ele>60</ele>
        <time>2017-11-06T18:09:47Z</time>
      </trkpt>
      <trkpt lat="62.634798756441" lon="17.964992319372">
        <ele>60</ele>
        <time>2017-11-06T18:09:48Z</time>
      </trkpt>
      <trkpt lat="62.634770844714" lon="17.964999695444">
        <ele>60</ele>
        <time>2017-11-06T18:09:49Z</time>
      </trkpt>
      <trkpt lat="62.634745531376" lon="17.96500422167">
        <ele>60.2</ele>
        <time>2017-11-06T18:09:50Z</time>
      </trkpt>
      <trkpt lat="62.634721642961" lon="17.965013525579">
        <ele>60.2</ele>
        <time>2017-11-06T18:09:51Z</time>
      </trkpt>
      <trkpt lat="62.634697251632" lon="17.965017381253">
        <ele>60.2</ele>
        <time>2017-11-06T18:09:52Z</time>
      </trkpt>
      <trkpt lat="62.63467227357" lon="17.965024422049">
        <ele>60.4</ele>
        <time>2017-11-06T18:09:53Z</time>
      </trkpt>
      <trkpt lat="62.634648552793" lon="17.965029870284">
        <ele>60.4</ele>
        <time>2017-11-06T18:09:54Z</time>
      </trkpt>
      <trkpt lat="62.634626256939" lon="17.965034061234">
        <ele>60.4</ele>
        <time>2017-11-06T18:09:55Z</time>
      </trkpt>
      <trkpt lat="62.634601446515" lon="17.96503942565">
        <ele>60.4</ele>
        <time>2017-11-06T18:09:56Z</time>
      </trkpt>
      <trkpt lat="62.634576887548" lon="17.965041269668">
        <ele>60.4</ele>
        <time>2017-11-06T18:09:57Z</time>
      </trkpt>
      <trkpt lat="62.634555094608" lon="17.965042946048">
        <ele>60.4</ele>
        <time>2017-11-06T18:09:58Z</time>
      </trkpt>
      <trkpt lat="62.634526177053" lon="17.965046801722">
        <ele>60.4</ele>
        <time>2017-11-06T18:09:59Z</time>
      </trkpt>
      <trkpt lat="62.634501115172" lon="17.965047053179">
        <ele>60.6</ele>
        <time>2017-11-06T18:10:00Z</time>
      </trkpt>
      <trkpt lat="62.634476472386" lon="17.965047304636">
        <ele>60.6</ele>
        <time>2017-11-06T18:10:01Z</time>
      </trkpt>
      <trkpt lat="62.634453589799" lon="17.965049148654">
        <ele>60.6</ele>
        <time>2017-11-06T18:10:02Z</time>
      </trkpt>
      <trkpt lat="62.634431796859" lon="17.965052501414">
        <ele>60.8</ele>
        <time>2017-11-06T18:10:03Z</time>
      </trkpt>
      <trkpt lat="62.634406986435" lon="17.965055686536">
        <ele>60.8</ele>
        <time>2017-11-06T18:10:04Z</time>
      </trkpt>
      <trkpt lat="62.634381840735" lon="17.965057698192">
        <ele>60.6</ele>
        <time>2017-11-06T18:10:05Z</time>
      </trkpt>
      <trkpt lat="62.634361137442" lon="17.965059039296">
        <ele>60.8</ele>
        <time>2017-11-06T18:10:06Z</time>
      </trkpt>
      <trkpt lat="62.634338254855" lon="17.965059039296">
        <ele>60.8</ele>
        <time>2017-11-06T18:10:07Z</time>
      </trkpt>
      <trkpt lat="62.634317300105" lon="17.965060128943">
        <ele>60.8</ele>
        <time>2017-11-06T18:10:08Z</time>
      </trkpt>
      <trkpt lat="62.634291819129" lon="17.965061889142">
        <ele>61</ele>
        <time>2017-11-06T18:10:09Z</time>
      </trkpt>
      <trkpt lat="62.634272540759" lon="17.965063900798">
        <ele>61.2</ele>
        <time>2017-11-06T18:10:10Z</time>
      </trkpt>
      <trkpt lat="62.634242952652" lon="17.965064990445">
        <ele>61.2</ele>
        <time>2017-11-06T18:10:11Z</time>
      </trkpt>
      <trkpt lat="62.634217387857" lon="17.965067169739">
        <ele>61.2</ele>
        <time>2017-11-06T18:10:12Z</time>
      </trkpt>
      <trkpt lat="62.634192158338" lon="17.96506708592">
        <ele>61.4</ele>
        <time>2017-11-06T18:10:13Z</time>
      </trkpt>
      <trkpt lat="62.634164917163" lon="17.96506960049">
        <ele>61.4</ele>
        <time>2017-11-06T18:10:14Z</time>
      </trkpt>
      <trkpt lat="62.634142034576" lon="17.965066415368">
        <ele>61.6</ele>
        <time>2017-11-06T18:10:15Z</time>
      </trkpt>
      <trkpt lat="62.634118984351" lon="17.965063146427">
        <ele>61.6</ele>
        <time>2017-11-06T18:10:16Z</time>
      </trkpt>
      <trkpt lat="62.634092162271" lon="17.965060212762">
        <ele>61.6</ele>
        <time>2017-11-06T18:10:17Z</time>
      </trkpt>
      <trkpt lat="62.63407045315" lon="17.965057614373">
        <ele>61.6</ele>
        <time>2017-11-06T18:10:18Z</time>
      </trkpt>
      <trkpt lat="62.634044888355" lon="17.965052920509">
        <ele>61.6</ele>
        <time>2017-11-06T18:10:19Z</time>
      </trkpt>
      <trkpt lat="62.634019072103" lon="17.965053004328">
        <ele>61.6</ele>
        <time>2017-11-06T18:10:20Z</time>
      </trkpt>
      <trkpt lat="62.633994764593" lon="17.965053758699">
        <ele>61.6</ele>
        <time>2017-11-06T18:10:21Z</time>
      </trkpt>
      <trkpt lat="62.633970540902" lon="17.965049986844">
        <ele>61.6</ele>
        <time>2017-11-06T18:10:22Z</time>
      </trkpt>
      <trkpt lat="62.633946652487" lon="17.965046214989">
        <ele>62</ele>
        <time>2017-11-06T18:10:23Z</time>
      </trkpt>
      <trkpt lat="62.633921590606" lon="17.965043448962">
        <ele>62</ele>
        <time>2017-11-06T18:10:24Z</time>
      </trkpt>
      <trkpt lat="62.633897618372" lon="17.96505786583">
        <ele>62</ele>
        <time>2017-11-06T18:10:25Z</time>
      </trkpt>
      <trkpt lat="62.633880351658" lon="17.965079491132">
        <ele>62.2</ele>
        <time>2017-11-06T18:10:26Z</time>
      </trkpt>
      <trkpt lat="62.63386677298" lon="17.965117712596">
        <ele>62.2</ele>
        <time>2017-11-06T18:10:27Z</time>
      </trkpt>
      <trkpt lat="62.633857804347" lon="17.965157107526">
        <ele>62</ele>
        <time>2017-11-06T18:10:28Z</time>
      </trkpt>
      <trkpt lat="62.633855792691" lon="17.965204800537">
        <ele>62</ele>
        <time>2017-11-06T18:10:29Z</time>
      </trkpt>
      <trkpt lat="62.633856463243" lon="17.965249392245">
        <ele>62.2</ele>
        <time>2017-11-06T18:10:30Z</time>
      </trkpt>
      <trkpt lat="62.633861073288" lon="17.965293229582">
        <ele>62.2</ele>
        <time>2017-11-06T18:10:31Z</time>
      </trkpt>
      <trkpt lat="62.63386761117" lon="17.965331534865">
        <ele>62.2</ele>
        <time>2017-11-06T18:10:32Z</time>
      </trkpt>
      <trkpt lat="62.633871550663" lon="17.965369085777">
        <ele>62.6</ele>
        <time>2017-11-06T18:10:33Z</time>
      </trkpt>
      <trkpt lat="62.633875741613" lon="17.965409570354">
        <ele>62.8</ele>
        <time>2017-11-06T18:10:34Z</time>
      </trkpt>
      <trkpt lat="62.633880770753" lon="17.965448881465">
        <ele>63</ele>
        <time>2017-11-06T18:10:35Z</time>
      </trkpt>
      <trkpt lat="62.633884458789" lon="17.965491880612">
        <ele>63.2</ele>
        <time>2017-11-06T18:10:36Z</time>
      </trkpt>
      <trkpt lat="62.633888985015" lon="17.965536304682">
        <ele>63.4</ele>
        <time>2017-11-06T18:10:37Z</time>
      </trkpt>
      <trkpt lat="62.63389275687" lon="17.965576956897">
        <ele>63.6</ele>
        <time>2017-11-06T18:10:38Z</time>
      </trkpt>
      <trkpt lat="62.633894936164" lon="17.96562699684">
        <ele>63.8</ele>
        <time>2017-11-06T18:10:39Z</time>
      </trkpt>
      <trkpt lat="62.6338986242" lon="17.965668738702">
        <ele>64</ele>
        <time>2017-11-06T18:10:40Z</time>
      </trkpt>
      <trkpt lat="62.633904659168" lon="17.965713833324">
        <ele>64.2</ele>
        <time>2017-11-06T18:10:41Z</time>
      </trkpt>
      <trkpt lat="62.633906838462" lon="17.965761191059">
        <ele>64.2</ele>
        <time>2017-11-06T18:10:42Z</time>
      </trkpt>
      <trkpt lat="62.633908766299" lon="17.965802346188">
        <ele>64.4</ele>
        <time>2017-11-06T18:10:43Z</time>
      </trkpt>
      <trkpt lat="62.633909185394" lon="17.96584995538">
        <ele>64.8</ele>
        <time>2017-11-06T18:10:44Z</time>
      </trkpt>
      <trkpt lat="62.633909604489" lon="17.965896810201">
        <ele>64.8</ele>
        <time>2017-11-06T18:10:45Z</time>
      </trkpt>
      <trkpt lat="62.633908514842" lon="17.965937043321">
        <ele>64.8</ele>
        <time>2017-11-06T18:10:46Z</time>
      </trkpt>
      <trkpt lat="62.633903401883" lon="17.965981802667">
        <ele>65</ele>
        <time>2017-11-06T18:10:47Z</time>
      </trkpt>
      <trkpt lat="62.633898959476" lon="17.966023879805">
        <ele>65.4</ele>
        <time>2017-11-06T18:10:48Z</time>
      </trkpt>
      <trkpt lat="62.633890493757" lon="17.966068471513">
        <ele>65.4</ele>
        <time>2017-11-06T18:10:49Z</time>
      </trkpt>
      <trkpt lat="62.633880770753" lon="17.966107866443">
        <ele>65.6</ele>
        <time>2017-11-06T18:10:50Z</time>
      </trkpt>
      <trkpt lat="62.633873813776" lon="17.966144411527">
        <ele>65.8</ele>
        <time>2017-11-06T18:10:51Z</time>
      </trkpt>
      <trkpt lat="62.633863587858" lon="17.966177603851">
        <ele>66</ele>
        <time>2017-11-06T18:10:52Z</time>
      </trkpt>
      <trkpt lat="62.63385168556" lon="17.966210712356">
        <ele>66.2</ele>
        <time>2017-11-06T18:10:53Z</time>
      </trkpt>
      <trkpt lat="62.633838693615" lon="17.966238372626">
        <ele>66.4</ele>
        <time>2017-11-06T18:10:54Z</time>
      </trkpt>
      <trkpt lat="62.633823941471" lon="17.966265446163">
        <ele>66.6</ele>
        <time>2017-11-06T18:10:55Z</time>
      </trkpt>
      <trkpt lat="62.633802986721" lon="17.966286736189">
        <ele>66.8</ele>
        <time>2017-11-06T18:10:56Z</time>
      </trkpt>
      <trkpt lat="62.633780858505" lon="17.966306098378">
        <ele>66.8</ele>
        <time>2017-11-06T18:10:57Z</time>
      </trkpt>
      <trkpt lat="62.633761496316" lon="17.96632520911">
        <ele>66.8</ele>
        <time>2017-11-06T18:10:58Z</time>
      </trkpt>
      <trkpt lat="62.633731992028" lon="17.966328645689">
        <ele>67</ele>
        <time>2017-11-06T18:10:59Z</time>
      </trkpt>
      <trkpt lat="62.633703996482" lon="17.96633694377">
        <ele>67</ele>
        <time>2017-11-06T18:11:00Z</time>
      </trkpt>
      <trkpt lat="62.633681616809" lon="17.966343314014">
        <ele>67</ele>
        <time>2017-11-06T18:11:01Z</time>
      </trkpt>
      <trkpt lat="62.633655968195" lon="17.966351444457">
        <ele>67</ele>
        <time>2017-11-06T18:11:02Z</time>
      </trkpt>
      <trkpt lat="62.633634845807" lon="17.966358066158">
        <ele>67</ele>
        <time>2017-11-06T18:11:03Z</time>
      </trkpt>
      <trkpt lat="62.633611544125" lon="17.966369381723">
        <ele>67.2</ele>
        <time>2017-11-06T18:11:04Z</time>
      </trkpt>
      <trkpt lat="62.633583967674" lon="17.966378098899">
        <ele>67</ele>
        <time>2017-11-06T18:11:05Z</time>
      </trkpt>
      <trkpt lat="62.633558486698" lon="17.96637885327">
        <ele>67</ele>
        <time>2017-11-06T18:11:06Z</time>
      </trkpt>
      <trkpt lat="62.633533089541" lon="17.966380362012">
        <ele>67</ele>
        <time>2017-11-06T18:11:07Z</time>
      </trkpt>
      <trkpt lat="62.633509620221" lon="17.96638136784">
        <ele>67</ele>
        <time>2017-11-06T18:11:08Z</time>
      </trkpt>
      <trkpt lat="62.63348539653" lon="17.966379523822">
        <ele>66.8</ele>
        <time>2017-11-06T18:11:09Z</time>
      </trkpt>
      <trkpt lat="62.633463435952" lon="17.966377093071">
        <ele>66.8</ele>
        <time>2017-11-06T18:11:10Z</time>
      </trkpt>
      <trkpt lat="62.6334376197" lon="17.966371896293">
        <ele>66.6</ele>
        <time>2017-11-06T18:11:11Z</time>
      </trkpt>
      <trkpt lat="62.633415407665" lon="17.966367705343">
        <ele>66.4</ele>
        <time>2017-11-06T18:11:12Z</time>
      </trkpt>
      <trkpt lat="62.633393111811" lon="17.966363598212">
        <ele>66.4</ele>
        <time>2017-11-06T18:11:13Z</time>
      </trkpt>
      <trkpt lat="62.633367798473" lon="17.966363095298">
        <ele>66.4</ele>
        <time>2017-11-06T18:11:14Z</time>
      </trkpt>
      <trkpt lat="62.633344999705" lon="17.966365945144">
        <ele>66.4</ele>
        <time>2017-11-06T18:11:15Z</time>
      </trkpt>
      <trkpt lat="62.633325050783" lon="17.966368124438">
        <ele>66.4</ele>
        <time>2017-11-06T18:11:16Z</time>
      </trkpt>
      <trkpt lat="62.633297390513" lon="17.966369968456">
        <ele>66.4</ele>
        <time>2017-11-06T18:11:17Z</time>
      </trkpt>
      <trkpt lat="62.633274843202" lon="17.966368878809">
        <ele>66.6</ele>
        <time>2017-11-06T18:11:18Z</time>
      </trkpt>
      <trkpt lat="62.633248607855" lon="17.966372566845">
        <ele>66.6</ele>
        <time>2017-11-06T18:11:19Z</time>
      </trkpt>
      <trkpt lat="62.633224551802" lon="17.966371980112">
        <ele>66.6</ele>
        <time>2017-11-06T18:11:20Z</time>
      </trkpt>
      <trkpt lat="62.633199825197" lon="17.966374997596">
        <ele>66.4</ele>
        <time>2017-11-06T18:11:21Z</time>
      </trkpt>
      <trkpt lat="62.633177529343" lon="17.966378350356">
        <ele>66.4</ele>
        <time>2017-11-06T18:11:22Z</time>
      </trkpt>
      <trkpt lat="62.633154562937" lon="17.966375332872">
        <ele>66.4</ele>
        <time>2017-11-06T18:11:23Z</time>
      </trkpt>
      <trkpt lat="62.633130758341" lon="17.966375332872">
        <ele>66.4</ele>
        <time>2017-11-06T18:11:24Z</time>
      </trkpt>
      <trkpt lat="62.633109971229" lon="17.966381284021">
        <ele>66.2</ele>
        <time>2017-11-06T18:11:25Z</time>
      </trkpt>
      <trkpt lat="62.633085663719" lon="17.966384217686">
        <ele>66.2</ele>
        <time>2017-11-06T18:11:26Z</time>
      </trkpt>
      <trkpt lat="62.633064206055" lon="17.966386229342">
        <ele>66.2</ele>
        <time>2017-11-06T18:11:27Z</time>
      </trkpt>
      <trkpt lat="62.633042748391" lon="17.966389330645">
        <ele>66.2</ele>
        <time>2017-11-06T18:11:28Z</time>
      </trkpt>
      <trkpt lat="62.633016093949" lon="17.966387067532">
        <ele>66</ele>
        <time>2017-11-06T18:11:29Z</time>
      </trkpt>
      <trkpt lat="62.632993379" lon="17.966390755568">
        <ele>66</ele>
        <time>2017-11-06T18:11:30Z</time>
      </trkpt>
      <trkpt lat="62.632969490585" lon="17.966391509939">
        <ele>66</ele>
        <time>2017-11-06T18:11:31Z</time>
      </trkpt>
      <trkpt lat="62.632947446188" lon="17.966390336473">
        <ele>66</ele>
        <time>2017-11-06T18:11:32Z</time>
      </trkpt>
      <trkpt lat="62.632920205013" lon="17.966387402808">
        <ele>65.8</ele>
        <time>2017-11-06T18:11:33Z</time>
      </trkpt>
      <trkpt lat="62.632900256091" lon="17.966389414464">
        <ele>65.8</ele>
        <time>2017-11-06T18:11:34Z</time>
      </trkpt>
      <trkpt lat="62.63287267964" lon="17.966385977885">
        <ele>66</ele>
        <time>2017-11-06T18:11:35Z</time>
      </trkpt>
      <trkpt lat="62.632852060166" lon="17.966384888238">
        <ele>65.8</ele>
        <time>2017-11-06T18:11:36Z</time>
      </trkpt>
      <trkpt lat="62.632829177579" lon="17.966385055876">
        <ele>65.8</ele>
        <time>2017-11-06T18:11:37Z</time>
      </trkpt>
      <trkpt lat="62.632806714087" lon="17.966384133867">
        <ele>65.6</ele>
        <time>2017-11-06T18:11:38Z</time>
      </trkpt>
      <trkpt lat="62.632783496224" lon="17.966381786935">
        <ele>65.6</ele>
        <time>2017-11-06T18:11:39Z</time>
      </trkpt>
      <trkpt lat="62.632760781275" lon="17.966379020908">
        <ele>65.2</ele>
        <time>2017-11-06T18:11:40Z</time>
      </trkpt>
      <trkpt lat="62.63273521648" lon="17.96637298594">
        <ele>65.2</ele>
        <time>2017-11-06T18:11:41Z</time>
      </trkpt>
      <trkpt lat="62.632711914798" lon="17.966365693687">
        <ele>65.2</ele>
        <time>2017-11-06T18:11:42Z</time>
      </trkpt>
      <trkpt lat="62.632690876229" lon="17.966361335099">
        <ele>65</ele>
        <time>2017-11-06T18:11:43Z</time>
      </trkpt>
      <trkpt lat="62.632668412737" lon="17.96635035481">
        <ele>65</ele>
        <time>2017-11-06T18:11:44Z</time>
      </trkpt>
      <trkpt lat="62.632646619797" lon="17.966350522448">
        <ele>65</ele>
        <time>2017-11-06T18:11:45Z</time>
      </trkpt>
      <trkpt lat="62.632623988667" lon="17.966350606267">
        <ele>65</ele>
        <time>2017-11-06T18:11:46Z</time>
      </trkpt>
      <trkpt lat="62.632598340053" lon="17.966342140548">
        <ele>65</ele>
        <time>2017-11-06T18:11:47Z</time>
      </trkpt>
      <trkpt lat="62.632575792742" lon="17.966335770304">
        <ele>64.8</ele>
        <time>2017-11-06T18:11:48Z</time>
      </trkpt>
      <trkpt lat="62.632549222119" lon="17.966331579354">
        <ele>64.8</ele>
        <time>2017-11-06T18:11:49Z</time>
      </trkpt>
      <trkpt lat="62.632525501342" lon="17.96632520911">
        <ele>64.6</ele>
        <time>2017-11-06T18:11:50Z</time>
      </trkpt>
      <trkpt lat="62.63250303785" lon="17.966321940169">
        <ele>64.6</ele>
        <time>2017-11-06T18:11:51Z</time>
      </trkpt>
      <trkpt lat="62.632480155263" lon="17.966317833038">
        <ele>64.4</ele>
        <time>2017-11-06T18:11:52Z</time>
      </trkpt>
      <trkpt lat="62.632456183029" lon="17.966312468622">
        <ele>64.4</ele>
        <time>2017-11-06T18:11:53Z</time>
      </trkpt>
      <trkpt lat="62.632432797528" lon="17.966306517473">
        <ele>64.4</ele>
        <time>2017-11-06T18:11:54Z</time>
      </trkpt>
      <trkpt lat="62.632409412027" lon="17.966302494161">
        <ele>64.2</ele>
        <time>2017-11-06T18:11:55Z</time>
      </trkpt>
      <trkpt lat="62.632385942707" lon="17.966300566324">
        <ele>64.2</ele>
        <time>2017-11-06T18:11:56Z</time>
      </trkpt>
      <trkpt lat="62.63236389831" lon="17.966297716478">
        <ele>64.2</ele>
        <time>2017-11-06T18:11:57Z</time>
      </trkpt>
      <trkpt lat="62.632344117026" lon="17.966294531356">
        <ele>64.2</ele>
        <time>2017-11-06T18:11:58Z</time>
      </trkpt>
      <trkpt lat="62.632318971326" lon="17.966290172768">
        <ele>64.2</ele>
        <time>2017-11-06T18:11:59Z</time>
      </trkpt>
      <trkpt lat="62.632299525318" lon="17.966291178596">
        <ele>64</ele>
        <time>2017-11-06T18:12:00Z</time>
      </trkpt>
      <trkpt lat="62.632282929156" lon="17.966298219392">
        <ele>64</ele>
        <time>2017-11-06T18:12:01Z</time>
      </trkpt>
      <trkpt lat="62.632267003546" lon="17.966306182197">
        <ele>63.8</ele>
        <time>2017-11-06T18:12:02Z</time>
      </trkpt>
      <trkpt lat="62.632254179239" lon="17.96631179807">
        <ele>63.8</ele>
        <time>2017-11-06T18:12:03Z</time>
      </trkpt>
      <trkpt lat="62.632241103475" lon="17.966313977364">
        <ele>63.6</ele>
        <time>2017-11-06T18:12:04Z</time>
      </trkpt>
      <trkpt lat="62.632231380471" lon="17.96631347445">
        <ele>63.4</ele>
        <time>2017-11-06T18:12:05Z</time>
      </trkpt>
      <trkpt lat="62.632230123186" lon="17.966314731735">
        <ele>63.2</ele>
        <time>2017-11-06T18:12:06Z</time>
      </trkpt>
      <trkpt lat="62.632233224489" lon="17.966295453365">
        <ele>63</ele>
        <time>2017-11-06T18:12:07Z</time>
      </trkpt>
      <trkpt lat="62.632196930862" lon="17.966628550071">
        <ele>63.4</ele>
        <time>2017-11-06T18:13:09Z</time>
      </trkpt>
      <trkpt lat="62.632194751568" lon="17.966669118467">
        <ele>63.4</ele>
        <time>2017-11-06T18:13:10Z</time>
      </trkpt>
      <trkpt lat="62.6321887166" lon="17.966732066536">
        <ele>63.6</ele>
        <time>2017-11-06T18:13:11Z</time>
      </trkpt>
      <trkpt lat="62.632184190374" lon="17.9667786699">
        <ele>63.8</ele>
        <time>2017-11-06T18:13:12Z</time>
      </trkpt>
      <trkpt lat="62.632178993596" lon="17.966828374567">
        <ele>64</ele>
        <time>2017-11-06T18:13:13Z</time>
      </trkpt>
      <trkpt lat="62.632172539533" lon="17.966887215505">
        <ele>64</ele>
        <time>2017-11-06T18:13:14Z</time>
      </trkpt>
      <trkpt lat="62.632167845669" lon="17.966932813041">
        <ele>64</ele>
        <time>2017-11-06T18:13:15Z</time>
      </trkpt>
      <trkpt lat="62.632166169289" lon="17.966985619011">
        <ele>64.2</ele>
        <time>2017-11-06T18:13:16Z</time>
      </trkpt>
      <trkpt lat="62.632161559244" lon="17.967038760257">
        <ele>64.6</ele>
        <time>2017-11-06T18:13:17Z</time>
      </trkpt>
      <trkpt lat="62.63215686538" lon="17.967085950354">
        <ele>64.8</ele>
        <time>2017-11-06T18:13:18Z</time>
      </trkpt>
      <trkpt lat="62.632148567299" lon="17.967142863455">
        <ele>64.8</ele>
        <time>2017-11-06T18:13:19Z</time>
      </trkpt>
      <trkpt lat="62.632141526503" lon="17.967187455163">
        <ele>65</ele>
        <time>2017-11-06T18:13:20Z</time>
      </trkpt>
      <trkpt lat="62.632133479879" lon="17.967239087667">
        <ele>65.4</ele>
        <time>2017-11-06T18:13:21Z</time>
      </trkpt>
      <trkpt lat="62.632122751047" lon="17.96728242209">
        <ele>65.6</ele>
        <time>2017-11-06T18:13:22Z</time>
      </trkpt>
      <trkpt lat="62.632111686939" lon="17.9673234934">
        <ele>66</ele>
        <time>2017-11-06T18:13:23Z</time>
      </trkpt>
      <trkpt lat="62.6320965157" lon="17.967366995461">
        <ele>66.2</ele>
        <time>2017-11-06T18:13:24Z</time>
      </trkpt>
      <trkpt lat="62.632086541239" lon="17.967408653504">
        <ele>66.4</ele>
        <time>2017-11-06T18:13:25Z</time>
      </trkpt>
      <trkpt lat="62.63207723733" lon="17.967458525809">
        <ele>66.8</ele>
        <time>2017-11-06T18:13:26Z</time>
      </trkpt>
      <trkpt lat="62.632068603973" lon="17.967504207164">
        <ele>67</ele>
        <time>2017-11-06T18:13:27Z</time>
      </trkpt>
      <trkpt lat="62.632059719159" lon="17.967542512447">
        <ele>67</ele>
        <time>2017-11-06T18:13:28Z</time>
      </trkpt>
      <trkpt lat="62.632043961187" lon="17.967597749168">
        <ele>67.2</ele>
        <time>2017-11-06T18:13:29Z</time>
      </trkpt>
      <trkpt lat="62.632032394165" lon="17.967644603989">
        <ele>67.6</ele>
        <time>2017-11-06T18:13:30Z</time>
      </trkpt>
      <trkpt lat="62.632017139107" lon="17.96768307691">
        <ele>67.8</ele>
        <time>2017-11-06T18:13:31Z</time>
      </trkpt>
      <trkpt lat="62.632002806058" lon="17.967731189016">
        <ele>67.8</ele>
        <time>2017-11-06T18:13:32Z</time>
      </trkpt>
      <trkpt lat="62.631994005063" lon="17.967772008869">
        <ele>68.2</ele>
        <time>2017-11-06T18:13:33Z</time>
      </trkpt>
      <trkpt lat="62.631980929299" lon="17.967815175654">
        <ele>68.4</ele>
        <time>2017-11-06T18:13:34Z</time>
      </trkpt>
      <trkpt lat="62.631968104992" lon="17.967859683543">
        <ele>68.6</ele>
        <time>2017-11-06T18:13:35Z</time>
      </trkpt>
      <trkpt lat="62.631955196866" lon="17.967901676862">
        <ele>68.6</ele>
        <time>2017-11-06T18:13:36Z</time>
      </trkpt>
      <trkpt lat="62.631938349247" lon="17.967945011285">
        <ele>69</ele>
        <time>2017-11-06T18:13:37Z</time>
      </trkpt>
      <trkpt lat="62.631924602931" lon="17.967984490034">
        <ele>69.2</ele>
        <time>2017-11-06T18:13:38Z</time>
      </trkpt>
      <trkpt lat="62.631910018425" lon="17.968029752294">
        <ele>69.2</ele>
        <time>2017-11-06T18:13:39Z</time>
      </trkpt>
      <trkpt lat="62.631896104471" lon="17.96807032069">
        <ele>69.4</ele>
        <time>2017-11-06T18:13:40Z</time>
      </trkpt>
      <trkpt lat="62.63188277725" lon="17.968112565466">
        <ele>69.6</ele>
        <time>2017-11-06T18:13:41Z</time>
      </trkpt>
      <trkpt lat="62.631870288219" lon="17.968156067527">
        <ele>69.6</ele>
        <time>2017-11-06T18:13:42Z</time>
      </trkpt>
      <trkpt lat="62.631858050645" lon="17.968199569588">
        <ele>69.8</ele>
        <time>2017-11-06T18:13:43Z</time>
      </trkpt>
      <trkpt lat="62.631843214682" lon="17.968237874871">
        <ele>70</ele>
        <time>2017-11-06T18:13:44Z</time>
      </trkpt>
      <trkpt lat="62.631830138918" lon="17.968279197638">
        <ele>70.2</ele>
        <time>2017-11-06T18:13:45Z</time>
      </trkpt>
      <trkpt lat="62.631822176113" lon="17.968318341111">
        <ele>70.6</ele>
        <time>2017-11-06T18:13:46Z</time>
      </trkpt>
      <trkpt lat="62.631808765073" lon="17.968361759353">
        <ele>70.8</ele>
        <time>2017-11-06T18:13:47Z</time>
      </trkpt>
      <trkpt lat="62.631795940766" lon="17.968398136799">
        <ele>71</ele>
        <time>2017-11-06T18:13:48Z</time>
      </trkpt>
      <trkpt lat="62.63178387083" lon="17.968439794842">
        <ele>71.2</ele>
        <time>2017-11-06T18:13:49Z</time>
      </trkpt>
      <trkpt lat="62.631769537781" lon="17.968480949971">
        <ele>71.4</ele>
        <time>2017-11-06T18:13:50Z</time>
      </trkpt>
      <trkpt lat="62.631755959103" lon="17.968520344901">
        <ele>71.6</ele>
        <time>2017-11-06T18:13:51Z</time>
      </trkpt>
      <trkpt lat="62.63174531409" lon="17.968555045967">
        <ele>71.8</ele>
        <time>2017-11-06T18:13:52Z</time>
      </trkpt>
      <trkpt lat="62.631732489783" lon="17.96859418944">
        <ele>72</ele>
        <time>2017-11-06T18:13:53Z</time>
      </trkpt>
      <trkpt lat="62.631720587485" lon="17.968634925474">
        <ele>72.2</ele>
        <time>2017-11-06T18:13:54Z</time>
      </trkpt>
      <trkpt lat="62.631713714327" lon="17.968670632368">
        <ele>72.4</ele>
        <time>2017-11-06T18:13:55Z</time>
      </trkpt>
      <trkpt lat="62.631707008807" lon="17.968712206592">
        <ele>72.4</ele>
        <time>2017-11-06T18:13:56Z</time>
      </trkpt>
      <trkpt lat="62.631703320771" lon="17.968756546843">
        <ele>72.8</ele>
        <time>2017-11-06T18:13:57Z</time>
      </trkpt>
      <trkpt lat="62.631701476753" lon="17.968806419148">
        <ele>73</ele>
        <time>2017-11-06T18:13:58Z</time>
      </trkpt>
      <trkpt lat="62.631698794545" lon="17.968853776883">
        <ele>73</ele>
        <time>2017-11-06T18:13:59Z</time>
      </trkpt>
      <trkpt lat="62.631698040174" lon="17.968910522346">
        <ele>73.2</ele>
        <time>2017-11-06T18:14:00Z</time>
      </trkpt>
      <trkpt lat="62.63169753726" lon="17.968962825402">
        <ele>73.4</ele>
        <time>2017-11-06T18:14:01Z</time>
      </trkpt>
      <trkpt lat="62.6317025664" lon="17.969013200621">
        <ele>73.6</ele>
        <time>2017-11-06T18:14:02Z</time>
      </trkpt>
      <trkpt lat="62.631707176445" lon="17.969055445397">
        <ele>73.6</ele>
        <time>2017-11-06T18:14:03Z</time>
      </trkpt>
      <trkpt lat="62.631713798146" lon="17.969087799531">
        <ele>73.8</ele>
        <time>2017-11-06T18:14:04Z</time>
      </trkpt>
      <trkpt lat="62.631725365168" lon="17.969147143383">
        <ele>74</ele>
        <time>2017-11-06T18:14:05Z</time>
      </trkpt>
      <trkpt lat="62.631733495611" lon="17.969191651272">
        <ele>74</ele>
        <time>2017-11-06T18:14:06Z</time>
      </trkpt>
      <trkpt lat="62.631742045149" lon="17.96923624298">
        <ele>74.2</ele>
        <time>2017-11-06T18:14:07Z</time>
      </trkpt>
      <trkpt lat="62.63175201961" lon="17.969272955702">
        <ele>74.6</ele>
        <time>2017-11-06T18:14:08Z</time>
      </trkpt>
      <trkpt lat="62.631761994071" lon="17.969319475247">
        <ele>74.8</ele>
        <time>2017-11-06T18:14:09Z</time>
      </trkpt>
      <trkpt lat="62.631769956876" lon="17.969359373091">
        <ele>75.2</ele>
        <time>2017-11-06T18:14:10Z</time>
      </trkpt>
      <trkpt lat="62.631780434251" lon="17.969397678374">
        <ele>75.4</ele>
        <time>2017-11-06T18:14:11Z</time>
      </trkpt>
      <trkpt lat="62.631791833635" lon="17.969431373612">
        <ele>75.6</ele>
        <time>2017-11-06T18:14:12Z</time>
      </trkpt>
      <trkpt lat="62.63180147282" lon="17.969451909267">
        <ele>75.8</ele>
        <time>2017-11-06T18:14:13Z</time>
      </trkpt>
      <trkpt lat="62.631807926883" lon="17.969477138786">
        <ele>76</ele>
        <time>2017-11-06T18:14:14Z</time>
      </trkpt>
      <trkpt lat="62.631809938539" lon="17.969499853735">
        <ele>76</ele>
        <time>2017-11-06T18:14:15Z</time>
      </trkpt>
      <trkpt lat="62.631811950195" lon="17.969521311399">
        <ele>76</ele>
        <time>2017-11-06T18:14:16Z</time>
      </trkpt>
      <trkpt lat="62.63181236929" lon="17.969542517606">
        <ele>76.2</ele>
        <time>2017-11-06T18:14:17Z</time>
      </trkpt>
      <trkpt lat="62.6318115311" lon="17.969557605026">
        <ele>76.2</ele>
        <time>2017-11-06T18:14:18Z</time>
      </trkpt>
      <trkpt lat="62.631809519444" lon="17.969574704102">
        <ele>76.2</ele>
        <time>2017-11-06T18:14:19Z</time>
      </trkpt>
      <trkpt lat="62.631809435625" lon="17.969588366599">
        <ele>76.4</ele>
        <time>2017-11-06T18:14:20Z</time>
      </trkpt>
      <trkpt lat="62.631806418141" lon="17.969602783467">
        <ele>76.4</ele>
        <time>2017-11-06T18:14:21Z</time>
      </trkpt>
      <trkpt lat="62.631799628802" lon="17.96960420839">
        <ele>76.4</ele>
        <time>2017-11-06T18:14:22Z</time>
      </trkpt>
      <trkpt lat="62.631799544983" lon="17.969607728788">
        <ele>76.6</ele>
        <time>2017-11-06T18:14:23Z</time>
      </trkpt>
      <trkpt lat="62.631802646286" lon="17.969606387684">
        <ele>76.6</ele>
        <time>2017-11-06T18:14:24Z</time>
      </trkpt>
      <trkpt lat="62.63194061236" lon="17.969642513673">
        <ele>76.6</ele>
        <time>2017-11-06T18:15:31Z</time>
      </trkpt>
      <trkpt lat="62.631963662585" lon="17.96964192694">
        <ele>76.8</ele>
        <time>2017-11-06T18:15:32Z</time>
      </trkpt>
      <trkpt lat="62.631991825769" lon="17.969638238904">
        <ele>76.8</ele>
        <time>2017-11-06T18:15:33Z</time>
      </trkpt>
      <trkpt lat="62.632020408048" lon="17.969634969963">
        <ele>76.8</ele>
        <time>2017-11-06T18:15:34Z</time>
      </trkpt>
      <trkpt lat="62.632043039178" lon="17.969632790669">
        <ele>77</ele>
        <time>2017-11-06T18:15:35Z</time>
      </trkpt>
      <trkpt lat="62.632072040552" lon="17.969622480932">
        <ele>77.2</ele>
        <time>2017-11-06T18:15:36Z</time>
      </trkpt>
      <trkpt lat="62.632096934795" lon="17.969613093204">
        <ele>77.2</ele>
        <time>2017-11-06T18:15:37Z</time>
      </trkpt>
      <trkpt lat="62.632126271445" lon="17.969606303865">
        <ele>77.4</ele>
        <time>2017-11-06T18:15:38Z</time>
      </trkpt>
      <trkpt lat="62.632158793217" lon="17.969596413223">
        <ele>77.8</ele>
        <time>2017-11-06T18:15:39Z</time>
      </trkpt>
      <trkpt lat="62.632185866754" lon="17.969588701875">
        <ele>78</ele>
        <time>2017-11-06T18:15:40Z</time>
      </trkpt>
      <trkpt lat="62.63221637687" lon="17.969584510925">
        <ele>78</ele>
        <time>2017-11-06T18:15:41Z</time>
      </trkpt>
      <trkpt lat="62.632243282769" lon="17.969573698274">
        <ele>78.4</ele>
        <time>2017-11-06T18:15:42Z</time>
      </trkpt>
      <trkpt lat="62.632267757917" lon="17.969566154564">
        <ele>78.4</ele>
        <time>2017-11-06T18:15:43Z</time>
      </trkpt>
      <trkpt lat="62.632294244721" lon="17.969564897279">
        <ele>78.4</ele>
        <time>2017-11-06T18:15:44Z</time>
      </trkpt>
      <trkpt lat="62.632324754837" lon="17.969564310546">
        <ele>78.4</ele>
        <time>2017-11-06T18:15:45Z</time>
      </trkpt>
      <trkpt lat="62.632345039035" lon="17.969564394365">
        <ele>78.2</ele>
        <time>2017-11-06T18:15:46Z</time>
      </trkpt>
      <trkpt lat="62.632379572463" lon="17.969565148736">
        <ele>78</ele>
        <time>2017-11-06T18:15:47Z</time>
      </trkpt>
      <trkpt lat="62.632405723991" lon="17.969568333858">
        <ele>78</ele>
        <time>2017-11-06T18:15:48Z</time>
      </trkpt>
      <trkpt lat="62.632431959338" lon="17.9695698426">
        <ele>77.8</ele>
        <time>2017-11-06T18:15:49Z</time>
      </trkpt>
      <trkpt lat="62.632457859409" lon="17.969569758781">
        <ele>77.6</ele>
        <time>2017-11-06T18:15:50Z</time>
      </trkpt>
      <trkpt lat="62.632485352041" lon="17.96957151898">
        <ele>77.6</ele>
        <time>2017-11-06T18:15:51Z</time>
      </trkpt>
      <trkpt lat="62.632506893524" lon="17.969575458473">
        <ele>77.6</ele>
        <time>2017-11-06T18:15:52Z</time>
      </trkpt>
      <trkpt lat="62.632535978717" lon="17.969581241984">
        <ele>77.6</ele>
        <time>2017-11-06T18:15:53Z</time>
      </trkpt>
      <trkpt lat="62.632565147729" lon="17.969586522581">
        <ele>77.6</ele>
        <time>2017-11-06T18:15:54Z</time>
      </trkpt>
      <trkpt lat="62.632587192126" lon="17.969594401567">
        <ele>77.6</ele>
        <time>2017-11-06T18:15:55Z</time>
      </trkpt>
      <trkpt lat="62.632614098025" lon="17.969600101259">
        <ele>77.6</ele>
        <time>2017-11-06T18:15:56Z</time>
      </trkpt>
      <trkpt lat="62.632636980612" lon="17.969608147883">
        <ele>77.6</ele>
        <time>2017-11-06T18:15:57Z</time>
      </trkpt>
      <trkpt lat="62.632659108828" lon="17.969615775412">
        <ele>77.6</ele>
        <time>2017-11-06T18:15:58Z</time>
      </trkpt>
      <trkpt lat="62.63268743965" lon="17.969624157312">
        <ele>77.8</ele>
        <time>2017-11-06T18:15:59Z</time>
      </trkpt>
      <trkpt lat="62.632711328065" lon="17.969623654398">
        <ele>78</ele>
        <time>2017-11-06T18:16:00Z</time>
      </trkpt>
      <trkpt lat="62.632732450453" lon="17.969622983846">
        <ele>78</ele>
        <time>2017-11-06T18:16:01Z</time>
      </trkpt>
      <trkpt lat="62.632755919773" lon="17.969632455393">
        <ele>78</ele>
        <time>2017-11-06T18:16:02Z</time>
      </trkpt>
      <trkpt lat="62.632775952514" lon="17.969639328551">
        <ele>78</ele>
        <time>2017-11-06T18:16:03Z</time>
      </trkpt>
      <trkpt lat="62.632798164549" lon="17.969645950252">
        <ele>77.8</ele>
        <time>2017-11-06T18:16:04Z</time>
      </trkpt>
      <trkpt lat="62.63282238824" lon="17.969651398487">
        <ele>78</ele>
        <time>2017-11-06T18:16:05Z</time>
      </trkpt>
      <trkpt lat="62.632845522284" lon="17.96965701436">
        <ele>78</ele>
        <time>2017-11-06T18:16:06Z</time>
      </trkpt>
      <trkpt lat="62.632869913613" lon="17.969659109835">
        <ele>77.8</ele>
        <time>2017-11-06T18:16:07Z</time>
      </trkpt>
      <trkpt lat="62.632895646046" lon="17.969663049328">
        <ele>78</ele>
        <time>2017-11-06T18:16:08Z</time>
      </trkpt>
      <trkpt lat="62.632935124795" lon="17.969690877236">
        <ele>78</ele>
        <time>2017-11-06T18:16:09Z</time>
      </trkpt>
      <trkpt lat="62.632954403165" lon="17.969686267191">
        <ele>78.2</ele>
        <time>2017-11-06T18:16:10Z</time>
      </trkpt>
      <trkpt lat="62.632977369571" lon="17.969690625779">
        <ele>78.2</ele>
        <time>2017-11-06T18:16:11Z</time>
      </trkpt>
      <trkpt lat="62.633005868031" lon="17.969694481453">
        <ele>78.2</ele>
        <time>2017-11-06T18:16:12Z</time>
      </trkpt>
      <trkpt lat="62.633029924084" lon="17.969698504765">
        <ele>78.2</ele>
        <time>2017-11-06T18:16:13Z</time>
      </trkpt>
      <trkpt lat="62.63305289049" lon="17.969697918032">
        <ele>78.2</ele>
        <time>2017-11-06T18:16:14Z</time>
      </trkpt>
      <trkpt lat="62.633080969855" lon="17.969707389579">
        <ele>78.2</ele>
        <time>2017-11-06T18:16:15Z</time>
      </trkpt>
      <trkpt lat="62.633104271537" lon="17.969715603841">
        <ele>78.2</ele>
        <time>2017-11-06T18:16:16Z</time>
      </trkpt>
      <trkpt lat="62.633133021454" lon="17.969728679605">
        <ele>78.2</ele>
        <time>2017-11-06T18:16:17Z</time>
      </trkpt>
      <trkpt lat="62.63315598786" lon="17.969728679605">
        <ele>78.2</ele>
        <time>2017-11-06T18:16:18Z</time>
      </trkpt>
      <trkpt lat="62.633177948438" lon="17.969736810048">
        <ele>78.4</ele>
        <time>2017-11-06T18:16:19Z</time>
      </trkpt>
      <trkpt lat="62.63320208831" lon="17.969746197776">
        <ele>78.4</ele>
        <time>2017-11-06T18:16:20Z</time>
      </trkpt>
      <trkpt lat="62.633227820743" lon="17.969753825305">
        <ele>78.6</ele>
        <time>2017-11-06T18:16:21Z</time>
      </trkpt>
      <trkpt lat="62.633248859312" lon="17.969757261884">
        <ele>78.8</ele>
        <time>2017-11-06T18:16:22Z</time>
      </trkpt>
      <trkpt lat="62.633275178478" lon="17.969766733431">
        <ele>78.8</ele>
        <time>2017-11-06T18:16:23Z</time>
      </trkpt>
      <trkpt lat="62.633300827092" lon="17.969780647385">
        <ele>78.8</ele>
        <time>2017-11-06T18:16:24Z</time>
      </trkpt>
      <trkpt lat="62.63332278767" lon="17.969795734805">
        <ele>78.8</ele>
        <time>2017-11-06T18:16:25Z</time>
      </trkpt>
      <trkpt lat="62.633345083524" lon="17.969821802514">
        <ele>78.6</ele>
        <time>2017-11-06T18:16:26Z</time>
      </trkpt>
      <trkpt lat="62.633360925315" lon="17.969866226584">
        <ele>78.8</ele>
        <time>2017-11-06T18:16:27Z</time>
      </trkpt>
      <trkpt lat="62.633367379378" lon="17.969896652881">
        <ele>78.8</ele>
        <time>2017-11-06T18:16:28Z</time>
      </trkpt>
      <trkpt lat="62.63337727002" lon="17.969969910687">
        <ele>78.8</ele>
        <time>2017-11-06T18:16:29Z</time>
      </trkpt>
      <trkpt lat="62.633383053531" lon="17.970022549019">
        <ele>78.8</ele>
        <time>2017-11-06T18:16:30Z</time>
      </trkpt>
      <trkpt lat="62.633388920861" lon="17.970072840419">
        <ele>79</ele>
        <time>2017-11-06T18:16:31Z</time>
      </trkpt>
      <trkpt lat="62.633392860354" lon="17.970128747692">
        <ele>79</ele>
        <time>2017-11-06T18:16:32Z</time>
      </trkpt>
      <trkpt lat="62.633395458743" lon="17.970176105427">
        <ele>79.2</ele>
        <time>2017-11-06T18:16:33Z</time>
      </trkpt>
      <trkpt lat="62.633398979141" lon="17.970227654112">
        <ele>79.4</ele>
        <time>2017-11-06T18:16:34Z</time>
      </trkpt>
      <trkpt lat="62.633402499539" lon="17.970288674344">
        <ele>79.6</ele>
        <time>2017-11-06T18:16:35Z</time>
      </trkpt>
      <trkpt lat="62.633406858127" lon="17.970339133382">
        <ele>79.6</ele>
        <time>2017-11-06T18:16:36Z</time>
      </trkpt>
      <trkpt lat="62.633410043249" lon="17.970383808909">
        <ele>79.8</ele>
        <time>2017-11-06T18:16:37Z</time>
      </trkpt>
      <trkpt lat="62.63341331219" lon="17.970435441413">
        <ele>79.8</ele>
        <time>2017-11-06T18:16:38Z</time>
      </trkpt>
      <trkpt lat="62.633417335502" lon="17.970491600143">
        <ele>80</ele>
        <time>2017-11-06T18:16:39Z</time>
      </trkpt>
      <trkpt lat="62.633421777909" lon="17.970528983417">
        <ele>80.2</ele>
        <time>2017-11-06T18:16:40Z</time>
      </trkpt>
      <trkpt lat="62.633424795393" lon="17.970600983938">
        <ele>80.4</ele>
        <time>2017-11-06T18:16:41Z</time>
      </trkpt>
      <trkpt lat="62.633426052678" lon="17.9706511077">
        <ele>80.6</ele>
        <time>2017-11-06T18:16:42Z</time>
      </trkpt>
      <trkpt lat="62.633427980515" lon="17.970703326937">
        <ele>80.6</ele>
        <time>2017-11-06T18:16:43Z</time>
      </trkpt>
      <trkpt lat="62.633429489257" lon="17.970761832599">
        <ele>80.8</ele>
        <time>2017-11-06T18:16:44Z</time>
      </trkpt>
      <trkpt lat="62.633433177293" lon="17.970811956361">
        <ele>80.8</ele>
        <time>2017-11-06T18:16:45Z</time>
      </trkpt>
      <trkpt lat="62.633432925836" lon="17.970863421227">
        <ele>81</ele>
        <time>2017-11-06T18:16:46Z</time>
      </trkpt>
      <trkpt lat="62.633431333275" lon="17.970923435631">
        <ele>81.2</ele>
        <time>2017-11-06T18:16:47Z</time>
      </trkpt>
      <trkpt lat="62.633430495085" lon="17.970976576877">
        <ele>81.2</ele>
        <time>2017-11-06T18:16:48Z</time>
      </trkpt>
      <trkpt lat="62.633431081818" lon="17.971038267661">
        <ele>81.2</ele>
        <time>2017-11-06T18:16:49Z</time>
      </trkpt>
      <trkpt lat="62.633431584732" lon="17.971096857142">
        <ele>81.4</ele>
        <time>2017-11-06T18:16:50Z</time>
      </trkpt>
      <trkpt lat="62.633431584732" lon="17.971150920397">
        <ele>81.4</ele>
        <time>2017-11-06T18:16:51Z</time>
      </trkpt>
      <trkpt lat="62.633431081818" lon="17.971205318928">
        <ele>81.6</ele>
        <time>2017-11-06T18:16:52Z</time>
      </trkpt>
      <trkpt lat="62.633430495085" lon="17.971261393839">
        <ele>81.6</ele>
        <time>2017-11-06T18:16:53Z</time>
      </trkpt>
      <trkpt lat="62.633429405438" lon="17.971318390759">
        <ele>81.8</ele>
        <time>2017-11-06T18:16:54Z</time>
      </trkpt>
      <trkpt lat="62.633427226144" lon="17.971379578629">
        <ele>81.8</ele>
        <time>2017-11-06T18:16:55Z</time>
      </trkpt>
      <trkpt lat="62.633426136497" lon="17.971433725703">
        <ele>82</ele>
        <time>2017-11-06T18:16:56Z</time>
      </trkpt>
      <trkpt lat="62.633422867556" lon="17.971490722623">
        <ele>82</ele>
        <time>2017-11-06T18:16:57Z</time>
      </trkpt>
      <trkpt lat="62.633419682434" lon="17.971540008195">
        <ele>82.2</ele>
        <time>2017-11-06T18:16:58Z</time>
      </trkpt>
      <trkpt lat="62.633415407665" lon="17.971602788626">
        <ele>82.2</ele>
        <time>2017-11-06T18:16:59Z</time>
      </trkpt>
      <trkpt lat="62.63340995943" lon="17.971662132478">
        <ele>82.4</ele>
        <time>2017-11-06T18:17:00Z</time>
      </trkpt>
      <trkpt lat="62.633405684661" lon="17.971719967588">
        <ele>82.4</ele>
        <time>2017-11-06T18:17:01Z</time>
      </trkpt>
      <trkpt lat="62.633403421548" lon="17.971777299784">
        <ele>82.6</ele>
        <time>2017-11-06T18:17:02Z</time>
      </trkpt>
      <trkpt lat="62.633399649693" lon="17.971835302532">
        <ele>82.6</ele>
        <time>2017-11-06T18:17:03Z</time>
      </trkpt>
      <trkpt lat="62.633394620553" lon="17.97188827614">
        <ele>82.6</ele>
        <time>2017-11-06T18:17:04Z</time>
      </trkpt>
      <trkpt lat="62.633390513422" lon="17.971943345223">
        <ele>82.8</ele>
        <time>2017-11-06T18:17:05Z</time>
      </trkpt>
      <trkpt lat="62.633381209513" lon="17.971999839229">
        <ele>82.8</ele>
        <time>2017-11-06T18:17:06Z</time>
      </trkpt>
      <trkpt lat="62.633374839269" lon="17.972048621887">
        <ele>82.8</ele>
        <time>2017-11-06T18:17:07Z</time>
      </trkpt>
      <trkpt lat="62.633367127921" lon="17.972104864436">
        <ele>83</ele>
        <time>2017-11-06T18:17:08Z</time>
      </trkpt>
      <trkpt lat="62.633359751849" lon="17.972165968487">
        <ele>83</ele>
        <time>2017-11-06T18:17:09Z</time>
      </trkpt>
      <trkpt lat="62.633355560899" lon="17.972203519399">
        <ele>83.2</ele>
        <time>2017-11-06T18:17:10Z</time>
      </trkpt>
      <trkpt lat="62.633347011361" lon="17.972274765549">
        <ele>83.2</ele>
        <time>2017-11-06T18:17:11Z</time>
      </trkpt>
      <trkpt lat="62.633338545642" lon="17.972332684478">
        <ele>83.4</ele>
        <time>2017-11-06T18:17:12Z</time>
      </trkpt>
      <trkpt lat="62.633334354692" lon="17.972384400801">
        <ele>83.4</ele>
        <time>2017-11-06T18:17:13Z</time>
      </trkpt>
      <trkpt lat="62.633325972792" lon="17.972441816816">
        <ele>83.4</ele>
        <time>2017-11-06T18:17:14Z</time>
      </trkpt>
      <trkpt lat="62.633317674711" lon="17.972493114044">
        <ele>83.6</ele>
        <time>2017-11-06T18:17:15Z</time>
      </trkpt>
      <trkpt lat="62.633311472105" lon="17.972530832594">
        <ele>83.8</ele>
        <time>2017-11-06T18:17:16Z</time>
      </trkpt>
      <trkpt lat="62.633299234531" lon="17.972602916934">
        <ele>83.8</ele>
        <time>2017-11-06T18:17:17Z</time>
      </trkpt>
      <trkpt lat="62.633290182079" lon="17.972647508642">
        <ele>83.8</ele>
        <time>2017-11-06T18:17:18Z</time>
      </trkpt>
      <trkpt lat="62.633276268125" lon="17.972701571897">
        <ele>83.8</ele>
        <time>2017-11-06T18:17:19Z</time>
      </trkpt>
      <trkpt lat="62.633263192361" lon="17.972752701487">
        <ele>84</ele>
        <time>2017-11-06T18:17:20Z</time>
      </trkpt>
      <trkpt lat="62.633253385538" lon="17.972807686751">
        <ele>84</ele>
        <time>2017-11-06T18:17:21Z</time>
      </trkpt>
      <trkpt lat="62.633243830172" lon="17.972852949011">
        <ele>84.2</ele>
        <time>2017-11-06T18:17:22Z</time>
      </trkpt>
      <trkpt lat="62.633231257322" lon="17.972911789949">
        <ele>84.4</ele>
        <time>2017-11-06T18:17:23Z</time>
      </trkpt>
      <trkpt lat="62.633219187386" lon="17.972965517928">
        <ele>84.4</ele>
        <time>2017-11-06T18:17:24Z</time>
      </trkpt>
      <trkpt lat="62.633206782174" lon="17.973018240079">
        <ele>84.6</ele>
        <time>2017-11-06T18:17:25Z</time>
      </trkpt>
      <trkpt lat="62.633194879876" lon="17.973074398809">
        <ele>84.6</ele>
        <time>2017-11-06T18:17:26Z</time>
      </trkpt>
      <trkpt lat="62.633182977578" lon="17.973118236146">
        <ele>84.8</ele>
        <time>2017-11-06T18:17:27Z</time>
      </trkpt>
      <trkpt lat="62.633171997289" lon="17.973163330768">
        <ele>84.8</ele>
        <time>2017-11-06T18:17:28Z</time>
      </trkpt>
      <trkpt lat="62.633159843534" lon="17.973222590801">
        <ele>85</ele>
        <time>2017-11-06T18:17:29Z</time>
      </trkpt>
      <trkpt lat="62.633150874901" lon="17.973272379287">
        <ele>85.2</ele>
        <time>2017-11-06T18:17:30Z</time>
      </trkpt>
      <trkpt lat="62.633139056422" lon="17.973321664859">
        <ele>85.2</ele>
        <time>2017-11-06T18:17:31Z</time>
      </trkpt>
      <trkpt lat="62.633126148296" lon="17.973372375354">
        <ele>85.2</ele>
        <time>2017-11-06T18:17:32Z</time>
      </trkpt>
      <trkpt lat="62.63311240198" lon="17.973417553795">
        <ele>85.4</ele>
        <time>2017-11-06T18:17:33Z</time>
      </trkpt>
      <trkpt lat="62.633102511338" lon="17.973471533231">
        <ele>85.4</ele>
        <time>2017-11-06T18:17:34Z</time>
      </trkpt>
      <trkpt lat="62.633092033963" lon="17.973519812975">
        <ele>85.4</ele>
        <time>2017-11-06T18:17:35Z</time>
      </trkpt>
      <trkpt lat="62.633079628751" lon="17.97356884709">
        <ele>85.4</ele>
        <time>2017-11-06T18:17:36Z</time>
      </trkpt>
      <trkpt lat="62.633069402833" lon="17.973621820698">
        <ele>85.6</ele>
        <time>2017-11-06T18:17:37Z</time>
      </trkpt>
      <trkpt lat="62.633058506363" lon="17.973670770994">
        <ele>85.6</ele>
        <time>2017-11-06T18:17:38Z</time>
      </trkpt>
      <trkpt lat="62.633045011504" lon="17.973727348819">
        <ele>85.6</ele>
        <time>2017-11-06T18:17:39Z</time>
      </trkpt>
      <trkpt lat="62.63303361212" lon="17.973774706554">
        <ele>85.8</ele>
        <time>2017-11-06T18:17:40Z</time>
      </trkpt>
      <trkpt lat="62.63302103927" lon="17.973826255239">
        <ele>85.8</ele>
        <time>2017-11-06T18:17:41Z</time>
      </trkpt>
      <trkpt lat="62.633005868031" lon="17.973878474476">
        <ele>86</ele>
        <time>2017-11-06T18:17:42Z</time>
      </trkpt>
      <trkpt lat="62.632995558294" lon="17.973924491107">
        <ele>86.4</ele>
        <time>2017-11-06T18:17:43Z</time>
      </trkpt>
      <trkpt lat="62.632982566349" lon="17.973980063104">
        <ele>86.6</ele>
        <time>2017-11-06T18:17:44Z</time>
      </trkpt>
      <trkpt lat="62.63296990968" lon="17.974030354504">
        <ele>86.6</ele>
        <time>2017-11-06T18:17:45Z</time>
      </trkpt>
      <trkpt lat="62.632958677934" lon="17.974079891533">
        <ele>86.8</ele>
        <time>2017-11-06T18:17:46Z</time>
      </trkpt>
      <trkpt lat="62.632943674333" lon="17.974138983928">
        <ele>86.8</ele>
        <time>2017-11-06T18:17:47Z</time>
      </trkpt>
      <trkpt lat="62.632933699872" lon="17.974185838749">
        <ele>86.8</ele>
        <time>2017-11-06T18:17:48Z</time>
      </trkpt>
      <trkpt lat="62.632921127022" lon="17.974240907832">
        <ele>87</ele>
        <time>2017-11-06T18:17:49Z</time>
      </trkpt>
      <trkpt lat="62.63290704543" lon="17.974290863956">
        <ele>87</ele>
        <time>2017-11-06T18:17:50Z</time>
      </trkpt>
      <trkpt lat="62.632893047657" lon="17.974336210035">
        <ele>87</ele>
        <time>2017-11-06T18:17:51Z</time>
      </trkpt>
      <trkpt lat="62.632879636617" lon="17.974374682956">
        <ele>87</ele>
        <time>2017-11-06T18:17:52Z</time>
      </trkpt>
      <trkpt lat="62.632858346591" lon="17.974420615768">
        <ele>87</ele>
        <time>2017-11-06T18:17:53Z</time>
      </trkpt>
      <trkpt lat="62.632835464004" lon="17.974455400653">
        <ele>87</ele>
        <time>2017-11-06T18:17:54Z</time>
      </trkpt>
      <trkpt lat="62.632810485942" lon="17.97447828324">
        <ele>87.2</ele>
        <time>2017-11-06T18:17:55Z</time>
      </trkpt>
      <trkpt lat="62.632786429889" lon="17.974488844434">
        <ele>87.2</ele>
        <time>2017-11-06T18:17:56Z</time>
      </trkpt>
      <trkpt lat="62.632761703284" lon="17.974484402027">
        <ele>87.2</ele>
        <time>2017-11-06T18:17:57Z</time>
      </trkpt>
      <trkpt lat="62.63273940743" lon="17.974476103946">
        <ele>87.2</ele>
        <time>2017-11-06T18:17:58Z</time>
      </trkpt>
      <trkpt lat="62.632713088264" lon="17.974452131712">
        <ele>87.2</ele>
        <time>2017-11-06T18:17:59Z</time>
      </trkpt>
      <trkpt lat="62.632693809894" lon="17.974426147822">
        <ele>87.2</ele>
        <time>2017-11-06T18:18:00Z</time>
      </trkpt>
      <trkpt lat="62.632670508212" lon="17.974407959099">
        <ele>87.2</ele>
        <time>2017-11-06T18:18:01Z</time>
      </trkpt>
      <trkpt lat="62.632645027236" lon="17.974387842539">
        <ele>87.2</ele>
        <time>2017-11-06T18:18:02Z</time>
      </trkpt>
      <trkpt lat="62.632625329771" lon="17.974368815626">
        <ele>87.2</ele>
        <time>2017-11-06T18:18:03Z</time>
      </trkpt>
      <trkpt lat="62.632601860451" lon="17.974342915555">
        <ele>87.4</ele>
        <time>2017-11-06T18:18:04Z</time>
      </trkpt>
      <trkpt lat="62.632578391131" lon="17.974322715176">
        <ele>87.2</ele>
        <time>2017-11-06T18:18:05Z</time>
      </trkpt>
      <trkpt lat="62.632553580707" lon="17.974302179521">
        <ele>87.2</ele>
        <time>2017-11-06T18:18:06Z</time>
      </trkpt>
      <trkpt lat="62.632531703948" lon="17.974284745169">
        <ele>87</ele>
        <time>2017-11-06T18:18:07Z</time>
      </trkpt>
      <trkpt lat="62.632510413922" lon="17.974264209514">
        <ele>87</ele>
        <time>2017-11-06T18:18:08Z</time>
      </trkpt>
      <trkpt lat="62.632490045905" lon="17.974243673859">
        <ele>87</ele>
        <time>2017-11-06T18:18:09Z</time>
      </trkpt>
      <trkpt lat="62.632471689544" lon="17.974228837896">
        <ele>87</ele>
        <time>2017-11-06T18:18:10Z</time>
      </trkpt>
      <trkpt lat="62.632453668459" lon="17.97420754787">
        <ele>87</ele>
        <time>2017-11-06T18:18:11Z</time>
      </trkpt>
      <trkpt lat="62.632429444768" lon="17.974179384686">
        <ele>87.2</ele>
        <time>2017-11-06T18:18:12Z</time>
      </trkpt>
      <trkpt lat="62.632402287412" lon="17.974155747728">
        <ele>87.2</ele>
        <time>2017-11-06T18:18:13Z</time>
      </trkpt>
      <trkpt lat="62.63237982392" lon="17.974138397195">
        <ele>87</ele>
        <time>2017-11-06T18:18:14Z</time>
      </trkpt>
      <trkpt lat="62.632358450075" lon="17.97411869973">
        <ele>86.8</ele>
        <time>2017-11-06T18:18:15Z</time>
      </trkpt>
      <trkpt lat="62.632342273008" lon="17.974089614537">
        <ele>86.8</ele>
        <time>2017-11-06T18:18:16Z</time>
      </trkpt>
      <trkpt lat="62.632319222783" lon="17.974075197669">
        <ele>86.8</ele>
        <time>2017-11-06T18:18:17Z</time>
      </trkpt>
      <trkpt lat="62.632296424015" lon="17.974052734177">
        <ele>86.6</ele>
        <time>2017-11-06T18:18:18Z</time>
      </trkpt>
      <trkpt lat="62.632269015202" lon="17.974028678124">
        <ele>86.8</ele>
        <time>2017-11-06T18:18:19Z</time>
      </trkpt>
      <trkpt lat="62.632246384072" lon="17.974000598759">
        <ele>86.8</ele>
        <time>2017-11-06T18:18:20Z</time>
      </trkpt>
      <trkpt lat="62.632225345503" lon="17.973967490254">
        <ele>86.8</ele>
        <time>2017-11-06T18:18:21Z</time>
      </trkpt>
      <trkpt lat="62.632205731857" lon="17.973941925459">
        <ele>86.8</ele>
        <time>2017-11-06T18:18:22Z</time>
      </trkpt>
      <trkpt lat="62.63217865832" lon="17.973912421171">
        <ele>86.8</ele>
        <time>2017-11-06T18:18:23Z</time>
      </trkpt>
      <trkpt lat="62.632151081869" lon="17.973884760901">
        <ele>86.8</ele>
        <time>2017-11-06T18:18:24Z</time>
      </trkpt>
      <trkpt lat="62.632126439083" lon="17.973857938821">
        <ele>86.8</ele>
        <time>2017-11-06T18:18:25Z</time>
      </trkpt>
      <trkpt lat="62.63210154484" lon="17.973825417049">
        <ele>86.8</ele>
        <time>2017-11-06T18:18:26Z</time>
      </trkpt>
      <trkpt lat="62.63207807552" lon="17.973798930245">
        <ele>86.8</ele>
        <time>2017-11-06T18:18:27Z</time>
      </trkpt>
      <trkpt lat="62.632058042779" lon="17.973781495893">
        <ele>86.8</ele>
        <time>2017-11-06T18:18:28Z</time>
      </trkpt>
      <trkpt lat="62.632029879595" lon="17.973750650501">
        <ele>86.6</ele>
        <time>2017-11-06T18:18:29Z</time>
      </trkpt>
      <trkpt lat="62.632006745551" lon="17.973723409326">
        <ele>86.4</ele>
        <time>2017-11-06T18:18:30Z</time>
      </trkpt>
      <trkpt lat="62.631982270403" lon="17.97369709016">
        <ele>86.4</ele>
        <time>2017-11-06T18:18:31Z</time>
      </trkpt>
      <trkpt lat="62.631955951237" lon="17.973661718542">
        <ele>86.4</ele>
        <time>2017-11-06T18:18:32Z</time>
      </trkpt>
      <trkpt lat="62.631932565736" lon="17.973639338869">
        <ele>86.2</ele>
        <time>2017-11-06T18:18:33Z</time>
      </trkpt>
      <trkpt lat="62.631905324561" lon="17.973616037187">
        <ele>86.4</ele>
        <time>2017-11-06T18:18:34Z</time>
      </trkpt>
      <trkpt lat="62.63187523354" lon="17.973581671397">
        <ele>86.4</ele>
        <time>2017-11-06T18:18:35Z</time>
      </trkpt>
      <trkpt lat="62.631849836383" lon="17.973554514041">
        <ele>86.6</ele>
        <time>2017-11-06T18:18:36Z</time>
      </trkpt>
      <trkpt lat="62.631825612692" lon="17.973533140196">
        <ele>86.6</ele>
        <time>2017-11-06T18:18:37Z</time>
      </trkpt>
      <trkpt lat="62.631800550811" lon="17.973498271492">
        <ele>86.6</ele>
        <time>2017-11-06T18:18:38Z</time>
      </trkpt>
      <trkpt lat="62.631774483102" lon="17.973471449412">
        <ele>86.6</ele>
        <time>2017-11-06T18:18:39Z</time>
      </trkpt>
      <trkpt lat="62.63175704875" lon="17.973444962608">
        <ele>86.6</ele>
        <time>2017-11-06T18:18:40Z</time>
      </trkpt>
      <trkpt lat="62.631724275521" lon="17.973402550194">
        <ele>86.4</ele>
        <time>2017-11-06T18:18:41Z</time>
      </trkpt>
      <trkpt lat="62.631702147305" lon="17.973377991227">
        <ele>86.4</ele>
        <time>2017-11-06T18:18:42Z</time>
      </trkpt>
      <trkpt lat="62.631681695469" lon="17.973346978197">
        <ele>86.4</ele>
        <time>2017-11-06T18:18:43Z</time>
      </trkpt>
      <trkpt lat="62.631658309968" lon="17.973310014018">
        <ele>86.2</ele>
        <time>2017-11-06T18:18:44Z</time>
      </trkpt>
      <trkpt lat="62.631636768485" lon="17.973274558581">
        <ele>86.2</ele>
        <time>2017-11-06T18:18:45Z</time>
      </trkpt>
      <trkpt lat="62.631615143183" lon="17.973236756212">
        <ele>86.2</ele>
        <time>2017-11-06T18:18:46Z</time>
      </trkpt>
      <trkpt lat="62.631593014967" lon="17.973194008522">
        <ele>86.2</ele>
        <time>2017-11-06T18:18:47Z</time>
      </trkpt>
      <trkpt lat="62.631573988054" lon="17.97316232494">
        <ele>86.2</ele>
        <time>2017-11-06T18:18:48Z</time>
      </trkpt>
      <trkpt lat="62.631551608381" lon="17.973120666897">
        <ele>86</ele>
        <time>2017-11-06T18:18:49Z</time>
      </trkpt>
      <trkpt lat="62.631531659459" lon="17.973078589759">
        <ele>85.8</ele>
        <time>2017-11-06T18:18:50Z</time>
      </trkpt>
      <trkpt lat="62.631515398573" lon="17.973040955028">
        <ele>85.8</ele>
        <time>2017-11-06T18:18:51Z</time>
      </trkpt>
      <trkpt lat="62.631494360004" lon="17.972997369148">
        <ele>85.6</ele>
        <time>2017-11-06T18:18:52Z</time>
      </trkpt>
      <trkpt lat="62.631476338919" lon="17.972950346689">
        <ele>85.4</ele>
        <time>2017-11-06T18:18:53Z</time>
      </trkpt>
      <trkpt lat="62.63145613854" lon="17.972901731669">
        <ele>85.4</ele>
        <time>2017-11-06T18:18:54Z</time>
      </trkpt>
      <trkpt lat="62.631437614541" lon="17.972854122477">
        <ele>85.4</ele>
        <time>2017-11-06T18:18:55Z</time>
      </trkpt>
      <trkpt lat="62.631423197673" lon="17.972811793882">
        <ele>85.2</ele>
        <time>2017-11-06T18:18:56Z</time>
      </trkpt>
      <trkpt lat="62.631408864624" lon="17.972773488599">
        <ele>85</ele>
        <time>2017-11-06T18:18:57Z</time>
      </trkpt>
      <trkpt lat="62.631395369765" lon="17.972731160004">
        <ele>85</ele>
        <time>2017-11-06T18:18:58Z</time>
      </trkpt>
      <trkpt lat="62.631376259033" lon="17.972682712622">
        <ele>84.8</ele>
        <time>2017-11-06T18:18:59Z</time>
      </trkpt>
      <trkpt lat="62.631358992319" lon="17.972640467846">
        <ele>84.8</ele>
        <time>2017-11-06T18:19:00Z</time>
      </trkpt>
      <trkpt lat="62.631342647614" lon="17.972587829514">
        <ele>84.6</ele>
        <time>2017-11-06T18:19:01Z</time>
      </trkpt>
      <trkpt lat="62.631324291253" lon="17.972545920014">
        <ele>84.4</ele>
        <time>2017-11-06T18:19:02Z</time>
      </trkpt>
      <trkpt lat="62.631308030367" lon="17.972503423781">
        <ele>84.2</ele>
        <time>2017-11-06T18:19:03Z</time>
      </trkpt>
      <trkpt lat="62.631292272395" lon="17.972458580616">
        <ele>84.2</ele>
        <time>2017-11-06T18:19:04Z</time>
      </trkpt>
      <trkpt lat="62.631275760052" lon="17.97241382127">
        <ele>84</ele>
        <time>2017-11-06T18:19:05Z</time>
      </trkpt>
      <trkpt lat="62.631258493338" lon="17.972359506558">
        <ele>83.8</ele>
        <time>2017-11-06T18:19:06Z</time>
      </trkpt>
      <trkpt lat="62.631245585212" lon="17.972315417764">
        <ele>83.6</ele>
        <time>2017-11-06T18:19:07Z</time>
      </trkpt>
      <trkpt lat="62.631235610751" lon="17.972270742237">
        <ele>83.4</ele>
        <time>2017-11-06T18:19:08Z</time>
      </trkpt>
      <trkpt lat="62.631227815584" lon="17.972221456665">
        <ele>83</ele>
        <time>2017-11-06T18:19:09Z</time>
      </trkpt>
      <trkpt lat="62.631217086752" lon="17.972176278224">
        <ele>83</ele>
        <time>2017-11-06T18:19:10Z</time>
      </trkpt>
      <trkpt lat="62.631201244961" lon="17.972122801702">
        <ele>83</ele>
        <time>2017-11-06T18:19:11Z</time>
      </trkpt>
      <trkpt lat="62.631188253016" lon="17.972076952709">
        <ele>82.8</ele>
        <time>2017-11-06T18:19:12Z</time>
      </trkpt>
      <trkpt lat="62.631180290211" lon="17.972034037381">
        <ele>82.6</ele>
        <time>2017-11-06T18:19:13Z</time>
      </trkpt>
      <trkpt lat="62.631171656854" lon="17.971983410705">
        <ele>82.6</ele>
        <time>2017-11-06T18:19:14Z</time>
      </trkpt>
      <trkpt lat="62.631165621886" lon="17.97193270021">
        <ele>82.4</ele>
        <time>2017-11-06T18:19:15Z</time>
      </trkpt>
      <trkpt lat="62.631160341289" lon="17.971900597533">
        <ele>82.2</ele>
        <time>2017-11-06T18:19:16Z</time>
      </trkpt>
      <trkpt lat="62.63114684643" lon="17.971838236197">
        <ele>82.2</ele>
        <time>2017-11-06T18:19:17Z</time>
      </trkpt>
      <trkpt lat="62.631138632168" lon="17.971790375548">
        <ele>82.2</ele>
        <time>2017-11-06T18:19:18Z</time>
      </trkpt>
      <trkpt lat="62.631126226956" lon="17.971740922338">
        <ele>82.2</ele>
        <time>2017-11-06T18:19:19Z</time>
      </trkpt>
      <trkpt lat="62.631113235011" lon="17.971695743897">
        <ele>82</ele>
        <time>2017-11-06T18:19:20Z</time>
      </trkpt>
      <trkpt lat="62.63110326055" lon="17.971641764461">
        <ele>82</ele>
        <time>2017-11-06T18:19:21Z</time>
      </trkpt>
      <trkpt lat="62.631091693528" lon="17.971597088934">
        <ele>82</ele>
        <time>2017-11-06T18:19:22Z</time>
      </trkpt>
      <trkpt lat="62.631080880877" lon="17.971541768394">
        <ele>82</ele>
        <time>2017-11-06T18:19:23Z</time>
      </trkpt>
      <trkpt lat="62.631073420986" lon="17.971482256904">
        <ele>82</ele>
        <time>2017-11-06T18:19:24Z</time>
      </trkpt>
      <trkpt lat="62.631064536172" lon="17.971426265812">
        <ele>81.8</ele>
        <time>2017-11-06T18:19:25Z</time>
      </trkpt>
      <trkpt lat="62.631056657186" lon="17.971366502865">
        <ele>81.8</ele>
        <time>2017-11-06T18:19:26Z</time>
      </trkpt>
      <trkpt lat="62.631047437096" lon="17.971306656099">
        <ele>81.8</ele>
        <time>2017-11-06T18:19:27Z</time>
      </trkpt>
      <trkpt lat="62.631039306653" lon="17.971257454346">
        <ele>81.8</ele>
        <time>2017-11-06T18:19:28Z</time>
      </trkpt>
      <trkpt lat="62.631031008572" lon="17.971192075526">
        <ele>81.4</ele>
        <time>2017-11-06T18:19:29Z</time>
      </trkpt>
      <trkpt lat="62.631019190093" lon="17.971135665339">
        <ele>81.2</ele>
        <time>2017-11-06T18:19:30Z</time>
      </trkpt>
      <trkpt lat="62.631011311107" lon="17.971081266808">
        <ele>81</ele>
        <time>2017-11-06T18:19:31Z</time>
      </trkpt>
      <trkpt lat="62.631003767397" lon="17.971023683155">
        <ele>80.8</ele>
        <time>2017-11-06T18:19:32Z</time>
      </trkpt>
      <trkpt lat="62.630998822076" lon="17.970971212461">
        <ele>80.6</ele>
        <time>2017-11-06T18:19:33Z</time>
      </trkpt>
      <trkpt lat="62.630994128212" lon="17.970917484482">
        <ele>80.6</ele>
        <time>2017-11-06T18:19:34Z</time>
      </trkpt>
      <trkpt lat="62.630993122384" lon="17.970859733191">
        <ele>80.4</ele>
        <time>2017-11-06T18:19:35Z</time>
      </trkpt>
      <trkpt lat="62.630984991941" lon="17.970800640796">
        <ele>80.4</ele>
        <time>2017-11-06T18:19:36Z</time>
      </trkpt>
      <trkpt lat="62.630974849842" lon="17.970752109595">
        <ele>80.4</ele>
        <time>2017-11-06T18:19:37Z</time>
      </trkpt>
      <trkpt lat="62.630969485426" lon="17.970698213978">
        <ele>80.4</ele>
        <time>2017-11-06T18:19:38Z</time>
      </trkpt>
      <trkpt lat="62.63095993006" lon="17.970640462687">
        <ele>80.2</ele>
        <time>2017-11-06T18:19:39Z</time>
      </trkpt>
      <trkpt lat="62.630946351382" lon="17.970588997821">
        <ele>80.2</ele>
        <time>2017-11-06T18:19:40Z</time>
      </trkpt>
      <trkpt lat="62.630936293102" lon="17.970532252358">
        <ele>80.2</ele>
        <time>2017-11-06T18:19:41Z</time>
      </trkpt>
      <trkpt lat="62.630932018333" lon="17.970481290406">
        <ele>80.2</ele>
        <time>2017-11-06T18:19:42Z</time>
      </trkpt>
      <trkpt lat="62.630927324469" lon="17.970433765033">
        <ele>80</ele>
        <time>2017-11-06T18:19:43Z</time>
      </trkpt>
      <trkpt lat="62.630927827383" lon="17.970380204692">
        <ele>80</ele>
        <time>2017-11-06T18:19:44Z</time>
      </trkpt>
      <trkpt lat="62.630931263962" lon="17.970331422034">
        <ele>80</ele>
        <time>2017-11-06T18:19:45Z</time>
      </trkpt>
      <trkpt lat="62.630931683057" lon="17.970293619665">
        <ele>79.8</ele>
        <time>2017-11-06T18:19:46Z</time>
      </trkpt>
      <trkpt lat="62.630932688885" lon="17.97025967297">
        <ele>79.8</ele>
        <time>2017-11-06T18:19:47Z</time>
      </trkpt>
      <trkpt lat="62.630930258134" lon="17.970237293297">
        <ele>79.8</ele>
        <time>2017-11-06T18:19:48Z</time>
      </trkpt>
      <trkpt lat="62.630930258134" lon="17.970214578348">
        <ele>79.8</ele>
        <time>2017-11-06T18:19:49Z</time>
      </trkpt>
      <trkpt lat="62.630931096324" lon="17.970191947218">
        <ele>79.6</ele>
        <time>2017-11-06T18:19:50Z</time>
      </trkpt>
      <trkpt lat="62.6309314316" lon="17.970166801518">
        <ele>79.4</ele>
        <time>2017-11-06T18:19:51Z</time>
      </trkpt>
      <trkpt lat="62.630930425772" lon="17.970149367166">
        <ele>79.4</ele>
        <time>2017-11-06T18:19:52Z</time>
      </trkpt>
      <trkpt lat="62.630929839039" lon="17.970128496235">
        <ele>79.4</ele>
        <time>2017-11-06T18:19:53Z</time>
      </trkpt>
      <trkpt lat="62.630935454912" lon="17.97010293144">
        <ele>79.2</ele>
        <time>2017-11-06T18:19:54Z</time>
      </trkpt>
      <trkpt lat="62.630934532903" lon="17.970118605593">
        <ele>79.2</ele>
        <time>2017-11-06T18:19:55Z</time>
      </trkpt>
      <trkpt lat="62.630920870406" lon="17.969787855819">
        <ele>79</ele>
        <time>2017-11-06T18:22:07Z</time>
      </trkpt>
      <trkpt lat="62.630914583981" lon="17.969738486428">
        <ele>79.2</ele>
        <time>2017-11-06T18:22:08Z</time>
      </trkpt>
      <trkpt lat="62.630910057755" lon="17.969685680458">
        <ele>79</ele>
        <time>2017-11-06T18:22:09Z</time>
      </trkpt>
      <trkpt lat="62.630904860977" lon="17.969638657999">
        <ele>78.8</ele>
        <time>2017-11-06T18:22:10Z</time>
      </trkpt>
      <trkpt lat="62.630899077466" lon="17.969591048807">
        <ele>78.6</ele>
        <time>2017-11-06T18:22:11Z</time>
      </trkpt>
      <trkpt lat="62.630891366118" lon="17.969535728267">
        <ele>78.2</ele>
        <time>2017-11-06T18:22:12Z</time>
      </trkpt>
      <trkpt lat="62.630886253159" lon="17.969487029428">
        <ele>78</ele>
        <time>2017-11-06T18:22:13Z</time>
      </trkpt>
      <trkpt lat="62.630879715277" lon="17.969431960345">
        <ele>77.6</ele>
        <time>2017-11-06T18:22:14Z</time>
      </trkpt>
      <trkpt lat="62.630876194879" lon="17.969381166031">
        <ele>77.2</ele>
        <time>2017-11-06T18:22:15Z</time>
      </trkpt>
      <trkpt lat="62.630871501015" lon="17.969334059753">
        <ele>77</ele>
        <time>2017-11-06T18:22:16Z</time>
      </trkpt>
      <trkpt lat="62.630864460219" lon="17.969278739213">
        <ele>76.8</ele>
        <time>2017-11-06T18:22:17Z</time>
      </trkpt>
      <trkpt lat="62.630860520726" lon="17.969230543288">
        <ele>76.4</ele>
        <time>2017-11-06T18:22:18Z</time>
      </trkpt>
      <trkpt lat="62.630856413595" lon="17.969180251888">
        <ele>76.2</ele>
        <time>2017-11-06T18:22:19Z</time>
      </trkpt>
      <trkpt lat="62.630852474102" lon="17.969130128126">
        <ele>76</ele>
        <time>2017-11-06T18:22:20Z</time>
      </trkpt>
      <trkpt lat="62.630847696419" lon="17.969081764563">
        <ele>75.8</ele>
        <time>2017-11-06T18:22:21Z</time>
      </trkpt>
      <trkpt lat="62.630843924564" lon="17.969037508131">
        <ele>75.6</ele>
        <time>2017-11-06T18:22:22Z</time>
      </trkpt>
      <trkpt lat="62.630835794121" lon="17.968987132912">
        <ele>75.6</ele>
        <time>2017-11-06T18:22:23Z</time>
      </trkpt>
      <trkpt lat="62.630827998954" lon="17.968936254779">
        <ele>75.2</ele>
        <time>2017-11-06T18:22:24Z</time>
      </trkpt>
      <trkpt lat="62.630819449416" lon="17.96889007051">
        <ele>74.8</ele>
        <time>2017-11-06T18:22:25Z</time>
      </trkpt>
      <trkpt lat="62.630807295661" lon="17.968841706947">
        <ele>74.6</ele>
        <time>2017-11-06T18:22:26Z</time>
      </trkpt>
      <trkpt lat="62.630796818286" lon="17.968800132723">
        <ele>74.6</ele>
        <time>2017-11-06T18:22:27Z</time>
      </trkpt>
      <trkpt lat="62.630789861309" lon="17.968759648146">
        <ele>74.4</ele>
        <time>2017-11-06T18:22:28Z</time>
      </trkpt>
      <trkpt lat="62.630771421129" lon="17.968713128601">
        <ele>74</ele>
        <time>2017-11-06T18:22:29Z</time>
      </trkpt>
      <trkpt lat="62.630751388388" lon="17.96867130292">
        <ele>73.8</ele>
        <time>2017-11-06T18:22:30Z</time>
      </trkpt>
      <trkpt lat="62.630737893529" lon="17.968630399248">
        <ele>73.6</ele>
        <time>2017-11-06T18:22:31Z</time>
      </trkpt>
      <trkpt lat="62.630727919068" lon="17.968589327938">
        <ele>73.2</ele>
        <time>2017-11-06T18:22:32Z</time>
      </trkpt>
      <trkpt lat="62.630715010942" lon="17.968555967976">
        <ele>73</ele>
        <time>2017-11-06T18:22:33Z</time>
      </trkpt>
      <trkpt lat="62.630697241314" lon="17.968519003797">
        <ele>72.6</ele>
        <time>2017-11-06T18:22:34Z</time>
      </trkpt>
      <trkpt lat="62.63067913641" lon="17.968479525048">
        <ele>72</ele>
        <time>2017-11-06T18:22:35Z</time>
      </trkpt>
      <trkpt lat="62.630666395922" lon="17.968451948597">
        <ele>71.6</ele>
        <time>2017-11-06T18:22:36Z</time>
      </trkpt>
      <trkpt lat="62.630655750909" lon="17.96842571325">
        <ele>71.2</ele>
        <time>2017-11-06T18:22:37Z</time>
      </trkpt>
      <trkpt lat="62.630639909118" lon="17.968393191478">
        <ele>70.8</ele>
        <time>2017-11-06T18:22:38Z</time>
      </trkpt>
      <trkpt lat="62.63062213949" lon="17.968358238955">
        <ele>70.8</ele>
        <time>2017-11-06T18:22:39Z</time>
      </trkpt>
      <trkpt lat="62.63060705207" lon="17.968321945328">
        <ele>70.4</ele>
        <time>2017-11-06T18:22:40Z</time>
      </trkpt>
      <trkpt lat="62.630590623546" lon="17.968277269801">
        <ele>70</ele>
        <time>2017-11-06T18:22:41Z</time>
      </trkpt>
      <trkpt lat="62.630575452307" lon="17.968240389441">
        <ele>70</ele>
        <time>2017-11-06T18:22:42Z</time>
      </trkpt>
      <trkpt lat="62.630559526697" lon="17.968199485769">
        <ele>70</ele>
        <time>2017-11-06T18:22:43Z</time>
      </trkpt>
      <trkpt lat="62.630545109829" lon="17.968154223509">
        <ele>69.6</ele>
        <time>2017-11-06T18:22:44Z</time>
      </trkpt>
      <trkpt lat="62.630531866427" lon="17.968110134715">
        <ele>69.4</ele>
        <time>2017-11-06T18:22:45Z</time>
      </trkpt>
      <trkpt lat="62.630519712672" lon="17.968061352057">
        <ele>69.2</ele>
        <time>2017-11-06T18:22:46Z</time>
      </trkpt>
      <trkpt lat="62.630506050175" lon="17.968005360965">
        <ele>68.8</ele>
        <time>2017-11-06T18:22:47Z</time>
      </trkpt>
      <trkpt lat="62.630496746266" lon="17.967955823936">
        <ele>68.6</ele>
        <time>2017-11-06T18:22:48Z</time>
      </trkpt>
      <trkpt lat="62.630489202556" lon="17.967896480084">
        <ele>68.2</ele>
        <time>2017-11-06T18:22:49Z</time>
      </trkpt>
      <trkpt lat="62.630481491208" lon="17.967837220051">
        <ele>68</ele>
        <time>2017-11-06T18:22:50Z</time>
      </trkpt>
      <trkpt lat="62.630475288602" lon="17.967778882027">
        <ele>67.8</ele>
        <time>2017-11-06T18:22:51Z</time>
      </trkpt>
      <trkpt lat="62.630467325797" lon="17.967720376365">
        <ele>67.6</ele>
        <time>2017-11-06T18:22:52Z</time>
      </trkpt>
      <trkpt lat="62.63045953063" lon="17.967662038341">
        <ele>67.4</ele>
        <time>2017-11-06T18:22:53Z</time>
      </trkpt>
      <trkpt lat="62.630457686612" lon="17.967605292878">
        <ele>66.8</ele>
        <time>2017-11-06T18:22:54Z</time>
      </trkpt>
      <trkpt lat="62.630458273345" lon="17.967551732537">
        <ele>66.4</ele>
        <time>2017-11-06T18:22:55Z</time>
      </trkpt>
      <trkpt lat="62.630459865906" lon="17.967496663454">
        <ele>65.8</ele>
        <time>2017-11-06T18:22:56Z</time>
      </trkpt>
      <trkpt lat="62.630459949725" lon="17.96744419276">
        <ele>65.4</ele>
        <time>2017-11-06T18:22:57Z</time>
      </trkpt>
      <trkpt lat="62.630460955553" lon="17.967390800057">
        <ele>65.2</ele>
        <time>2017-11-06T18:22:58Z</time>
      </trkpt>
      <trkpt lat="62.630464224494" lon="17.96733438987">
        <ele>64.8</ele>
        <time>2017-11-06T18:22:59Z</time>
      </trkpt>
      <trkpt lat="62.630467577254" lon="17.96728074571">
        <ele>64.6</ele>
        <time>2017-11-06T18:23:00Z</time>
      </trkpt>
      <trkpt lat="62.630472354937" lon="17.967228358835">
        <ele>64.4</ele>
        <time>2017-11-06T18:23:01Z</time>
      </trkpt>
      <trkpt lat="62.630476797344" lon="17.967177815978">
        <ele>64.2</ele>
        <time>2017-11-06T18:23:02Z</time>
      </trkpt>
      <trkpt lat="62.630480904475" lon="17.96712987151">
        <ele>64</ele>
        <time>2017-11-06T18:23:03Z</time>
      </trkpt>
      <trkpt lat="62.630482329398" lon="17.967075808255">
        <ele>63.8</ele>
        <time>2017-11-06T18:23:04Z</time>
      </trkpt>
      <trkpt lat="62.630482580855" lon="17.967024846303">
        <ele>63.4</ele>
        <time>2017-11-06T18:23:05Z</time>
      </trkpt>
      <trkpt lat="62.630485179244" lon="17.966968519935">
        <ele>63</ele>
        <time>2017-11-06T18:23:06Z</time>
      </trkpt>
      <trkpt lat="62.630487107081" lon="17.966912025929">
        <ele>62.8</ele>
        <time>2017-11-06T18:23:07Z</time>
      </trkpt>
      <trkpt lat="62.630489370194" lon="17.966858130312">
        <ele>62.6</ele>
        <time>2017-11-06T18:23:08Z</time>
      </trkpt>
      <trkpt lat="62.630491046574" lon="17.966799121736">
        <ele>62.4</ele>
        <time>2017-11-06T18:23:09Z</time>
      </trkpt>
      <trkpt lat="62.630490627479" lon="17.966743214463">
        <ele>62.2</ele>
        <time>2017-11-06T18:23:10Z</time>
      </trkpt>
      <trkpt lat="62.630490878936" lon="17.96668311624">
        <ele>62</ele>
        <time>2017-11-06T18:23:11Z</time>
      </trkpt>
      <trkpt lat="62.630492639135" lon="17.966631483736">
        <ele>61.8</ele>
        <time>2017-11-06T18:23:12Z</time>
      </trkpt>
      <trkpt lat="62.63049389642" lon="17.966574654454">
        <ele>61.6</ele>
        <time>2017-11-06T18:23:13Z</time>
      </trkpt>
      <trkpt lat="62.63049473461" lon="17.966517406077">
        <ele>61.2</ele>
        <time>2017-11-06T18:23:14Z</time>
      </trkpt>
      <trkpt lat="62.630497332999" lon="17.966466527944">
        <ele>60.8</ele>
        <time>2017-11-06T18:23:15Z</time>
      </trkpt>
      <trkpt lat="62.630500350483" lon="17.96641908639">
        <ele>60.4</ele>
        <time>2017-11-06T18:23:16Z</time>
      </trkpt>
      <trkpt lat="62.630502194501" lon="17.966366196601">
        <ele>60.2</ele>
        <time>2017-11-06T18:23:17Z</time>
      </trkpt>
      <trkpt lat="62.630502613596" lon="17.966320096151">
        <ele>59.8</ele>
        <time>2017-11-06T18:23:18Z</time>
      </trkpt>
      <trkpt lat="62.630504625252" lon="17.966266284353">
        <ele>59.4</ele>
        <time>2017-11-06T18:23:19Z</time>
      </trkpt>
      <trkpt lat="62.630508061831" lon="17.9662170826">
        <ele>59.2</ele>
        <time>2017-11-06T18:23:20Z</time>
      </trkpt>
      <trkpt lat="62.630508900021" lon="17.966166623562">
        <ele>59</ele>
        <time>2017-11-06T18:23:21Z</time>
      </trkpt>
      <trkpt lat="62.630512839514" lon="17.96611985256">
        <ele>58.8</ele>
        <time>2017-11-06T18:23:22Z</time>
      </trkpt>
      <trkpt lat="62.630517198102" lon="17.966068555332">
        <ele>58.4</ele>
        <time>2017-11-06T18:23:23Z</time>
      </trkpt>
      <trkpt lat="62.630519712672" lon="17.966013821525">
        <ele>58.2</ele>
        <time>2017-11-06T18:23:24Z</time>
      </trkpt>
      <trkpt lat="62.630522981613" lon="17.965962859573">
        <ele>58</ele>
        <time>2017-11-06T18:23:25Z</time>
      </trkpt>
      <trkpt lat="62.630526082916" lon="17.96591114325">
        <ele>57.8</ele>
        <time>2017-11-06T18:23:26Z</time>
      </trkpt>
      <trkpt lat="62.630528848943" lon="17.965867138275">
        <ele>57.8</ele>
        <time>2017-11-06T18:23:27Z</time>
      </trkpt>
      <trkpt lat="62.630531447332" lon="17.965826653698">
        <ele>57.6</ele>
        <time>2017-11-06T18:23:28Z</time>
      </trkpt>
      <trkpt lat="62.630536057377" lon="17.965791533537">
        <ele>57.4</ele>
        <time>2017-11-06T18:23:29Z</time>
      </trkpt>
      <trkpt lat="62.630538907223" lon="17.965754066444">
        <ele>57.2</ele>
        <time>2017-11-06T18:23:30Z</time>
      </trkpt>
      <trkpt lat="62.630539913051" lon="17.965707798356">
        <ele>57</ele>
        <time>2017-11-06T18:23:31Z</time>
      </trkpt>
      <trkpt lat="62.630537985214" lon="17.965663961019">
        <ele>56.8</ele>
        <time>2017-11-06T18:23:32Z</time>
      </trkpt>
      <trkpt lat="62.630533458988" lon="17.965629176134">
        <ele>56.8</ele>
        <time>2017-11-06T18:23:33Z</time>
      </trkpt>
      <trkpt lat="62.630529519495" lon="17.965599839484">
        <ele>56.6</ele>
        <time>2017-11-06T18:23:34Z</time>
      </trkpt>
      <trkpt lat="62.630528765124" lon="17.965570419015">
        <ele>56.4</ele>
        <time>2017-11-06T18:23:35Z</time>
      </trkpt>
      <trkpt lat="62.630528681305" lon="17.965548458437">
        <ele>56</ele>
        <time>2017-11-06T18:23:36Z</time>
      </trkpt>
      <trkpt lat="62.630528765124" lon="17.965525911126">
        <ele>55.8</ele>
        <time>2017-11-06T18:23:37Z</time>
      </trkpt>
      <trkpt lat="62.630528178391" lon="17.965520630529">
        <ele>55.6</ele>
        <time>2017-11-06T18:23:38Z</time>
      </trkpt>
      <trkpt lat="62.630530441504" lon="17.965514092647">
        <ele>55.4</ele>
        <time>2017-11-06T18:23:40Z</time>
      </trkpt>
      <trkpt lat="62.630598334894" lon="17.965907119938">
        <ele>55.6</ele>
        <time>2017-11-06T18:24:19Z</time>
      </trkpt>
      <trkpt lat="62.630596742333" lon="17.96596394922">
        <ele>55.8</ele>
        <time>2017-11-06T18:24:20Z</time>
      </trkpt>
      <trkpt lat="62.630593473392" lon="17.96604441546">
        <ele>55.8</ele>
        <time>2017-11-06T18:24:21Z</time>
      </trkpt>
      <trkpt lat="62.630589282442" lon="17.966107950262">
        <ele>56</ele>
        <time>2017-11-06T18:24:22Z</time>
      </trkpt>
      <trkpt lat="62.630585594406" lon="17.966177855308">
        <ele>56.2</ele>
        <time>2017-11-06T18:24:23Z</time>
      </trkpt>
      <trkpt lat="62.630583834207" lon="17.96625396296">
        <ele>56.4</ele>
        <time>2017-11-06T18:24:24Z</time>
      </trkpt>
      <trkpt lat="62.630579475619" lon="17.966324873834">
        <ele>56.6</ele>
        <time>2017-11-06T18:24:25Z</time>
      </trkpt>
      <trkpt lat="62.630576793411" lon="17.966392096672">
        <ele>56.8</ele>
        <time>2017-11-06T18:24:26Z</time>
      </trkpt>
      <trkpt lat="62.63057436266" lon="17.966464097193">
        <ele>57</ele>
        <time>2017-11-06T18:24:27Z</time>
      </trkpt>
      <trkpt lat="62.6305710099" lon="17.966521261751">
        <ele>57.4</ele>
        <time>2017-11-06T18:24:28Z</time>
      </trkpt>
      <trkpt lat="62.630567321864" lon="17.966598375231">
        <ele>58</ele>
        <time>2017-11-06T18:24:29Z</time>
      </trkpt>
      <trkpt lat="62.630564136742" lon="17.966657216169">
        <ele>58.4</ele>
        <time>2017-11-06T18:24:30Z</time>
      </trkpt>
      <trkpt lat="62.630562460362" lon="17.966712117614">
        <ele>58.8</ele>
        <time>2017-11-06T18:24:31Z</time>
      </trkpt>
      <trkpt lat="62.630557766498" lon="17.966760145901">
        <ele>59.2</ele>
        <time>2017-11-06T18:24:32Z</time>
      </trkpt>
      <trkpt lat="62.630556006299" lon="17.966803396505">
        <ele>59.6</ele>
        <time>2017-11-06T18:24:33Z</time>
      </trkpt>
      <trkpt lat="62.630554078462" lon="17.966847820575">
        <ele>59.8</ele>
        <time>2017-11-06T18:24:34Z</time>
      </trkpt>
      <trkpt lat="62.630551480073" lon="17.966893585749">
        <ele>60.2</ele>
        <time>2017-11-06T18:24:35Z</time>
      </trkpt>
      <trkpt lat="62.630550390426" lon="17.966935830525">
        <ele>60.4</ele>
        <time>2017-11-06T18:24:36Z</time>
      </trkpt>
      <trkpt lat="62.630547372942" lon="17.966980841328">
        <ele>60.6</ele>
        <time>2017-11-06T18:24:37Z</time>
      </trkpt>
      <trkpt lat="62.630546786209" lon="17.96701923043">
        <ele>60.8</ele>
        <time>2017-11-06T18:24:38Z</time>
      </trkpt>
      <trkpt lat="62.630544858372" lon="17.967066755803">
        <ele>61</ele>
        <time>2017-11-06T18:24:39Z</time>
      </trkpt>
      <trkpt lat="62.630538571947" lon="17.967120148506">
        <ele>61.2</ele>
        <time>2017-11-06T18:24:40Z</time>
      </trkpt>
      <trkpt lat="62.630539493956" lon="17.967177061607">
        <ele>61.4</ele>
        <time>2017-11-06T18:24:41Z</time>
      </trkpt>
      <trkpt lat="62.63053915868" lon="17.967240344952">
        <ele>61.6</ele>
        <time>2017-11-06T18:24:42Z</time>
      </trkpt>
      <trkpt lat="62.630539577775" lon="17.967290384895">
        <ele>61.8</ele>
        <time>2017-11-06T18:24:43Z</time>
      </trkpt>
      <trkpt lat="62.630537398481" lon="17.967359116475">
        <ele>62</ele>
        <time>2017-11-06T18:24:44Z</time>
      </trkpt>
      <trkpt lat="62.630536141196" lon="17.967415945757">
        <ele>62.4</ele>
        <time>2017-11-06T18:24:45Z</time>
      </trkpt>
      <trkpt lat="62.630534716273" lon="17.967469589917">
        <ele>62.6</ele>
        <time>2017-11-06T18:24:46Z</time>
      </trkpt>
      <trkpt lat="62.630537230843" lon="17.967528263217">
        <ele>62.8</ele>
        <time>2017-11-06T18:24:47Z</time>
      </trkpt>
      <trkpt lat="62.63053580592" lon="17.967580398635">
        <ele>63.4</ele>
        <time>2017-11-06T18:24:48Z</time>
      </trkpt>
      <trkpt lat="62.630538571947" lon="17.967636473546">
        <ele>63.8</ele>
        <time>2017-11-06T18:24:49Z</time>
      </trkpt>
      <trkpt lat="62.630543098173" lon="17.967684418014">
        <ele>64.2</ele>
        <time>2017-11-06T18:24:50Z</time>
      </trkpt>
      <trkpt lat="62.630546031838" lon="17.967744851513">
        <ele>64.6</ele>
        <time>2017-11-06T18:24:51Z</time>
      </trkpt>
      <trkpt lat="62.630555503385" lon="17.967804698279">
        <ele>65</ele>
        <time>2017-11-06T18:24:52Z</time>
      </trkpt>
      <trkpt lat="62.630562125086" lon="17.967862701027">
        <ele>65.4</ele>
        <time>2017-11-06T18:24:53Z</time>
      </trkpt>
      <trkpt lat="62.630566483674" lon="17.967910310219">
        <ele>65.6</ele>
        <time>2017-11-06T18:24:54Z</time>
      </trkpt>
      <trkpt lat="62.630572434823" lon="17.967961775085">
        <ele>66</ele>
        <time>2017-11-06T18:24:55Z</time>
      </trkpt>
      <trkpt lat="62.630581654913" lon="17.968008378449">
        <ele>66.2</ele>
        <time>2017-11-06T18:24:56Z</time>
      </trkpt>
      <trkpt lat="62.630589198623" lon="17.968050036492">
        <ele>66.6</ele>
        <time>2017-11-06T18:24:57Z</time>
      </trkpt>
      <trkpt lat="62.630599005446" lon="17.968086497757">
        <ele>66.8</ele>
        <time>2017-11-06T18:24:58Z</time>
      </trkpt>
      <trkpt lat="62.630610907744" lon="17.968123042841">
        <ele>67</ele>
        <time>2017-11-06T18:24:59Z</time>
      </trkpt>
      <trkpt lat="62.630622726223" lon="17.968155564613">
        <ele>67.2</ele>
        <time>2017-11-06T18:25:00Z</time>
      </trkpt>
      <trkpt lat="62.630631527218" lon="17.968194288991">
        <ele>67.4</ele>
        <time>2017-11-06T18:25:01Z</time>
      </trkpt>
      <trkpt lat="62.63064141786" lon="17.968222535994">
        <ele>67.6</ele>
        <time>2017-11-06T18:25:02Z</time>
      </trkpt>
      <trkpt lat="62.630653823072" lon="17.968247011142">
        <ele>67.8</ele>
        <time>2017-11-06T18:25:03Z</time>
      </trkpt>
      <trkpt lat="62.630668575216" lon="17.968277605077">
        <ele>68</ele>
        <time>2017-11-06T18:25:04Z</time>
      </trkpt>
      <trkpt lat="62.630681064247" lon="17.96831171941">
        <ele>68.2</ele>
        <time>2017-11-06T18:25:05Z</time>
      </trkpt>
      <trkpt lat="62.630691625441" lon="17.968335440187">
        <ele>68.4</ele>
        <time>2017-11-06T18:25:06Z</time>
      </trkpt>
      <trkpt lat="62.630704785024" lon="17.968359328602">
        <ele>68.6</ele>
        <time>2017-11-06T18:25:07Z</time>
      </trkpt>
      <trkpt lat="62.630719034254" lon="17.968393778211">
        <ele>68.8</ele>
        <time>2017-11-06T18:25:08Z</time>
      </trkpt>
      <trkpt lat="62.630731271828" lon="17.968421270843">
        <ele>69.2</ele>
        <time>2017-11-06T18:25:09Z</time>
      </trkpt>
      <trkpt lat="62.630746526886" lon="17.968451864778">
        <ele>69.4</ele>
        <time>2017-11-06T18:25:10Z</time>
      </trkpt>
      <trkpt lat="62.630766894903" lon="17.968487655491">
        <ele>69.8</ele>
        <time>2017-11-06T18:25:11Z</time>
      </trkpt>
      <trkpt lat="62.63078307197" lon="17.968521686005">
        <ele>70.2</ele>
        <time>2017-11-06T18:25:12Z</time>
      </trkpt>
      <trkpt lat="62.630795896277" lon="17.968560913297">
        <ele>70.4</ele>
        <time>2017-11-06T18:25:13Z</time>
      </trkpt>
      <trkpt lat="62.630815258466" lon="17.968599889132">
        <ele>70.6</ele>
        <time>2017-11-06T18:25:14Z</time>
      </trkpt>
      <trkpt lat="62.630828669506" lon="17.968645905763">
        <ele>70.8</ele>
        <time>2017-11-06T18:25:15Z</time>
      </trkpt>
      <trkpt lat="62.63084006889" lon="17.968681109743">
        <ele>71.2</ele>
        <time>2017-11-06T18:25:16Z</time>
      </trkpt>
      <trkpt lat="62.630851887369" lon="17.968727964564">
        <ele>71.4</ele>
        <time>2017-11-06T18:25:17Z</time>
      </trkpt>
      <trkpt lat="62.630859263441" lon="17.968771215168">
        <ele>71.6</ele>
        <time>2017-11-06T18:25:18Z</time>
      </trkpt>
      <trkpt lat="62.630864460219" lon="17.968813208487">
        <ele>72</ele>
        <time>2017-11-06T18:25:19Z</time>
      </trkpt>
      <trkpt lat="62.630869321721" lon="17.968863499887">
        <ele>72.2</ele>
        <time>2017-11-06T18:25:20Z</time>
      </trkpt>
      <trkpt lat="62.630871668653" lon="17.968909013604">
        <ele>72.6</ele>
        <time>2017-11-06T18:25:21Z</time>
      </trkpt>
      <trkpt lat="62.630880385829" lon="17.968959472642">
        <ele>72.8</ele>
        <time>2017-11-06T18:25:22Z</time>
      </trkpt>
      <trkpt lat="62.630883319494" lon="17.969006914196">
        <ele>73</ele>
        <time>2017-11-06T18:25:23Z</time>
      </trkpt>
      <trkpt lat="62.630892120489" lon="17.969052260275">
        <ele>73.2</ele>
        <time>2017-11-06T18:25:24Z</time>
      </trkpt>
      <trkpt lat="62.630898239276" lon="17.969107496996">
        <ele>73.4</ele>
        <time>2017-11-06T18:25:25Z</time>
      </trkpt>
      <trkpt lat="62.630902597864" lon="17.969155860559">
        <ele>73.6</ele>
        <time>2017-11-06T18:25:26Z</time>
      </trkpt>
      <trkpt lat="62.630907710823" lon="17.969203218294">
        <ele>74</ele>
        <time>2017-11-06T18:25:27Z</time>
      </trkpt>
      <trkpt lat="62.630910560669" lon="17.969252503866">
        <ele>74</ele>
        <time>2017-11-06T18:25:28Z</time>
      </trkpt>
      <trkpt lat="62.630913242877" lon="17.969302040895">
        <ele>74.4</ele>
        <time>2017-11-06T18:25:29Z</time>
      </trkpt>
      <trkpt lat="62.630919864578" lon="17.969353421942">
        <ele>74.8</ele>
        <time>2017-11-06T18:25:30Z</time>
      </trkpt>
      <trkpt lat="62.630922714424" lon="17.969406647007">
        <ele>75.2</ele>
        <time>2017-11-06T18:25:31Z</time>
      </trkpt>
      <trkpt lat="62.630925815727" lon="17.969444533195">
        <ele>75.6</ele>
        <time>2017-11-06T18:25:32Z</time>
      </trkpt>
      <trkpt lat="62.630930509591" lon="17.969500021373">
        <ele>75.8</ele>
        <time>2017-11-06T18:25:33Z</time>
      </trkpt>
      <trkpt lat="62.630935371093" lon="17.969543439615">
        <ele>76.2</ele>
        <time>2017-11-06T18:25:34Z</time>
      </trkpt>
      <trkpt lat="62.630940484052" lon="17.969589875341">
        <ele>76.4</ele>
        <time>2017-11-06T18:25:35Z</time>
      </trkpt>
      <trkpt lat="62.630941741337" lon="17.969641843121">
        <ele>76.6</ele>
        <time>2017-11-06T18:25:36Z</time>
      </trkpt>
      <trkpt lat="62.630945177916" lon="17.969681405689">
        <ele>76.8</ele>
        <time>2017-11-06T18:25:37Z</time>
      </trkpt>
      <trkpt lat="62.630952134893" lon="17.969721890266">
        <ele>77</ele>
        <time>2017-11-06T18:25:38Z</time>
      </trkpt>
      <trkpt lat="62.630958924232" lon="17.969755501685">
        <ele>77.2</ele>
        <time>2017-11-06T18:25:39Z</time>
      </trkpt>
      <trkpt lat="62.630963450458" lon="17.969777546082">
        <ele>77.4</ele>
        <time>2017-11-06T18:25:40Z</time>
      </trkpt>
      <trkpt lat="62.630965462114" lon="17.969806463637">
        <ele>77.6</ele>
        <time>2017-11-06T18:25:41Z</time>
      </trkpt>
      <trkpt lat="62.630959175689" lon="17.969822640704">
        <ele>77.8</ele>
        <time>2017-11-06T18:25:42Z</time>
      </trkpt>
      <trkpt lat="62.630951129065" lon="17.969815683727">
        <ele>77.8</ele>
        <time>2017-11-06T18:25:43Z</time>
      </trkpt>
      <trkpt lat="62.630944088269" lon="17.96979699209">
        <ele>78</ele>
        <time>2017-11-06T18:25:44Z</time>
      </trkpt>
      <trkpt lat="62.630942411889" lon="17.969786011801">
        <ele>78.2</ele>
        <time>2017-11-06T18:25:45Z</time>
      </trkpt>
      <trkpt lat="62.630940567871" lon="17.969767571621">
        <ele>78.2</ele>
        <time>2017-11-06T18:25:46Z</time>
      </trkpt>
      <trkpt lat="62.630935706369" lon="17.969739576075">
        <ele>78.2</ele>
        <time>2017-11-06T18:25:47Z</time>
      </trkpt>
      <trkpt lat="62.630931263962" lon="17.969714262737">
        <ele>78.2</ele>
        <time>2017-11-06T18:25:48Z</time>
      </trkpt>
      <trkpt lat="62.630924306985" lon="17.969688530304">
        <ele>78.2</ele>
        <time>2017-11-06T18:25:49Z</time>
      </trkpt>
      <trkpt lat="62.630920283673" lon="17.969665982993">
        <ele>78.2</ele>
        <time>2017-11-06T18:25:50Z</time>
      </trkpt>
      <trkpt lat="62.630917350008" lon="17.969645195881">
        <ele>78</ele>
        <time>2017-11-06T18:25:51Z</time>
      </trkpt>
      <trkpt lat="62.630915673628" lon="17.96962264857">
        <ele>77.8</ele>
        <time>2017-11-06T18:25:52Z</time>
      </trkpt>
      <trkpt lat="62.630913578153" lon="17.969610997729">
        <ele>77.6</ele>
        <time>2017-11-06T18:25:53Z</time>
      </trkpt>
      <trkpt lat="62.630910895945" lon="17.969581912536">
        <ele>77.6</ele>
        <time>2017-11-06T18:25:54Z</time>
      </trkpt>
      <trkpt lat="62.630907627004" lon="17.969557437388">
        <ele>77.4</ele>
        <time>2017-11-06T18:25:55Z</time>
      </trkpt>
      <trkpt lat="62.630900250932" lon="17.969533632792">
        <ele>77.2</ele>
        <time>2017-11-06T18:25:56Z</time>
      </trkpt>
      <trkpt lat="62.630896646715" lon="17.96950530197">
        <ele>77</ele>
        <time>2017-11-06T18:25:57Z</time>
      </trkpt>
      <trkpt lat="62.630893880688" lon="17.969478396071">
        <ele>77</ele>
        <time>2017-11-06T18:25:58Z</time>
      </trkpt>
      <trkpt lat="62.630888935367" lon="17.969445455204">
        <ele>76.8</ele>
        <time>2017-11-06T18:25:59Z</time>
      </trkpt>
      <trkpt lat="62.630879966734" lon="17.969418214029">
        <ele>76.8</ele>
        <time>2017-11-06T18:26:00Z</time>
      </trkpt>
      <trkpt lat="62.630878960906" lon="17.96938879356">
        <ele>76.6</ele>
        <time>2017-11-06T18:26:01Z</time>
      </trkpt>
      <trkpt lat="62.630877955078" lon="17.969364066955">
        <ele>76.6</ele>
        <time>2017-11-06T18:26:02Z</time>
      </trkpt>
      <trkpt lat="62.630867645341" lon="17.969339759445">
        <ele>76.6</ele>
        <time>2017-11-06T18:26:03Z</time>
      </trkpt>
      <trkpt lat="62.630864711676" lon="17.969314362288">
        <ele>76.4</ele>
        <time>2017-11-06T18:26:04Z</time>
      </trkpt>
      <trkpt lat="62.63085767088" lon="17.969284858">
        <ele>76.4</ele>
        <time>2017-11-06T18:26:05Z</time>
      </trkpt>
      <trkpt lat="62.630855910681" lon="17.969265244354">
        <ele>76.2</ele>
        <time>2017-11-06T18:26:06Z</time>
      </trkpt>
      <trkpt lat="62.630851719731" lon="17.969230291831">
        <ele>76.2</ele>
        <time>2017-11-06T18:26:07Z</time>
      </trkpt>
      <trkpt lat="62.630850881541" lon="17.969200619905">
        <ele>76.2</ele>
        <time>2017-11-06T18:26:08Z</time>
      </trkpt>
      <trkpt lat="62.630847193505" lon="17.969171199436">
        <ele>75.8</ele>
        <time>2017-11-06T18:26:09Z</time>
      </trkpt>
      <trkpt lat="62.630843254012" lon="17.969141192234">
        <ele>75.6</ele>
        <time>2017-11-06T18:26:10Z</time>
      </trkpt>
      <trkpt lat="62.630840152709" lon="17.969110179204">
        <ele>75.6</ele>
        <time>2017-11-06T18:26:11Z</time>
      </trkpt>
      <trkpt lat="62.630836380854" lon="17.969064581668">
        <ele>75.4</ele>
        <time>2017-11-06T18:26:12Z</time>
      </trkpt>
      <trkpt lat="62.630836045578" lon="17.969026527842">
        <ele>75</ele>
        <time>2017-11-06T18:26:13Z</time>
      </trkpt>
      <trkpt lat="62.630830932619" lon="17.968983361057">
        <ele>74.8</ele>
        <time>2017-11-06T18:26:14Z</time>
      </trkpt>
      <trkpt lat="62.630829256239" lon="17.96894371467">
        <ele>74.6</ele>
        <time>2017-11-06T18:26:15Z</time>
      </trkpt>
      <trkpt lat="62.630821125796" lon="17.968896524573">
        <ele>74.4</ele>
        <time>2017-11-06T18:26:16Z</time>
      </trkpt>
      <trkpt lat="62.630813079172" lon="17.968855034168">
        <ele>74.2</ele>
        <time>2017-11-06T18:26:17Z</time>
      </trkpt>
      <trkpt lat="62.630803523806" lon="17.968822344758">
        <ele>74</ele>
        <time>2017-11-06T18:26:18Z</time>
      </trkpt>
      <trkpt lat="62.630790196585" lon="17.968782949828">
        <ele>73.8</ele>
        <time>2017-11-06T18:26:19Z</time>
      </trkpt>
      <trkpt lat="62.630777037002" lon="17.968747745848">
        <ele>73.6</ele>
        <time>2017-11-06T18:26:20Z</time>
      </trkpt>
      <trkpt lat="62.630765805256" lon="17.968715894628">
        <ele>73.4</ele>
        <time>2017-11-06T18:26:21Z</time>
      </trkpt>
      <trkpt lat="62.630752142759" lon="17.968679852458">
        <ele>73.2</ele>
        <time>2017-11-06T18:26:22Z</time>
      </trkpt>
      <trkpt lat="62.630737893529" lon="17.968649845256">
        <ele>73</ele>
        <time>2017-11-06T18:26:23Z</time>
      </trkpt>
      <trkpt lat="62.630722135557" lon="17.968622939357">
        <ele>72.8</ele>
        <time>2017-11-06T18:26:24Z</time>
      </trkpt>
      <trkpt lat="62.630710484716" lon="17.968591004318">
        <ele>72.6</ele>
        <time>2017-11-06T18:26:25Z</time>
      </trkpt>
      <trkpt lat="62.630696906038" lon="17.96855898546">
        <ele>72.6</ele>
        <time>2017-11-06T18:26:26Z</time>
      </trkpt>
      <trkpt lat="62.630688691776" lon="17.968529313534">
        <ele>72.2</ele>
        <time>2017-11-06T18:26:27Z</time>
      </trkpt>
      <trkpt lat="62.630676454202" lon="17.968504838386">
        <ele>72.2</ele>
        <time>2017-11-06T18:26:28Z</time>
      </trkpt>
      <trkpt lat="62.630659522764" lon="17.968465359637">
        <ele>72</ele>
        <time>2017-11-06T18:26:29Z</time>
      </trkpt>
      <trkpt lat="62.630646530819" lon="17.968432083494">
        <ele>71.8</ele>
        <time>2017-11-06T18:26:30Z</time>
      </trkpt>
      <trkpt lat="62.630630437571" lon="17.968401657197">
        <ele>71.6</ele>
        <time>2017-11-06T18:26:31Z</time>
      </trkpt>
      <trkpt lat="62.630614176685" lon="17.968367542864">
        <ele>71.2</ele>
        <time>2017-11-06T18:26:32Z</time>
      </trkpt>
      <trkpt lat="62.630599340722" lon="17.968326723011">
        <ele>70.6</ele>
        <time>2017-11-06T18:26:33Z</time>
      </trkpt>
      <trkpt lat="62.630588276614" lon="17.968298224551">
        <ele>70.4</ele>
        <time>2017-11-06T18:26:34Z</time>
      </trkpt>
      <trkpt lat="62.630577463963" lon="17.96825556068">
        <ele>70</ele>
        <time>2017-11-06T18:26:35Z</time>
      </trkpt>
      <trkpt lat="62.630560532525" lon="17.968220691976">
        <ele>69.6</ele>
        <time>2017-11-06T18:26:36Z</time>
      </trkpt>
      <trkpt lat="62.630548043494" lon="17.968180542675">
        <ele>69.2</ele>
        <time>2017-11-06T18:26:37Z</time>
      </trkpt>
      <trkpt lat="62.630535135368" lon="17.968139303727">
        <ele>69</ele>
        <time>2017-11-06T18:26:38Z</time>
      </trkpt>
      <trkpt lat="62.630526418192" lon="17.968089347603">
        <ele>69</ele>
        <time>2017-11-06T18:26:39Z</time>
      </trkpt>
      <trkpt lat="62.630516024636" lon="17.968043833886">
        <ele>68.8</ele>
        <time>2017-11-06T18:26:40Z</time>
      </trkpt>
      <trkpt lat="62.630509067659" lon="17.96799153083">
        <ele>68.6</ele>
        <time>2017-11-06T18:26:41Z</time>
      </trkpt>
      <trkpt lat="62.630499931388" lon="17.967943167267">
        <ele>68.2</ele>
        <time>2017-11-06T18:26:42Z</time>
      </trkpt>
      <trkpt lat="62.630494315515" lon="17.967897988826">
        <ele>68.2</ele>
        <time>2017-11-06T18:26:43Z</time>
      </trkpt>
      <trkpt lat="62.630488280547" lon="17.967846104865">
        <ele>67.8</ele>
        <time>2017-11-06T18:26:44Z</time>
      </trkpt>
      <trkpt lat="62.630483586683" lon="17.967789778497">
        <ele>67.2</ele>
        <time>2017-11-06T18:26:45Z</time>
      </trkpt>
      <trkpt lat="62.630475540059" lon="17.967747785178">
        <ele>67.2</ele>
        <time>2017-11-06T18:26:46Z</time>
      </trkpt>
      <trkpt lat="62.630471432928" lon="17.967695146846">
        <ele>67</ele>
        <time>2017-11-06T18:26:47Z</time>
      </trkpt>
      <trkpt lat="62.63046875072" lon="17.967646028912">
        <ele>66.8</ele>
        <time>2017-11-06T18:26:48Z</time>
      </trkpt>
      <trkpt lat="62.630468499263" lon="17.967593306761">
        <ele>66.6</ele>
        <time>2017-11-06T18:26:49Z</time>
      </trkpt>
      <trkpt lat="62.630464643589" lon="17.967544021189">
        <ele>66.4</ele>
        <time>2017-11-06T18:26:50Z</time>
      </trkpt>
      <trkpt lat="62.630468415444" lon="17.967489622658">
        <ele>65.8</ele>
        <time>2017-11-06T18:26:51Z</time>
      </trkpt>
      <trkpt lat="62.630470175643" lon="17.967446036778">
        <ele>65.8</ele>
        <time>2017-11-06T18:26:52Z</time>
      </trkpt>
      <trkpt lat="62.630471181471" lon="17.967395996835">
        <ele>65.4</ele>
        <time>2017-11-06T18:26:53Z</time>
      </trkpt>
      <trkpt lat="62.630471181471" lon="17.96733941901">
        <ele>65</ele>
        <time>2017-11-06T18:26:54Z</time>
      </trkpt>
      <trkpt lat="62.630471684385" lon="17.967288457058">
        <ele>64.8</ele>
        <time>2017-11-06T18:26:55Z</time>
      </trkpt>
      <trkpt lat="62.63047377986" lon="17.967241015504">
        <ele>64.4</ele>
        <time>2017-11-06T18:26:56Z</time>
      </trkpt>
      <trkpt lat="62.630476881163" lon="17.967185694964">
        <ele>64</ele>
        <time>2017-11-06T18:26:57Z</time>
      </trkpt>
      <trkpt lat="62.630475037145" lon="17.967142360541">
        <ele>63.6</ele>
        <time>2017-11-06T18:26:58Z</time>
      </trkpt>
      <trkpt lat="62.630478473724" lon="17.967088967838">
        <ele>63.4</ele>
        <time>2017-11-06T18:26:59Z</time>
      </trkpt>
      <trkpt lat="62.630480317742" lon="17.96704269975">
        <ele>63.2</ele>
        <time>2017-11-06T18:27:00Z</time>
      </trkpt>
      <trkpt lat="62.630480066285" lon="17.966994252368">
        <ele>62.8</ele>
        <time>2017-11-06T18:27:01Z</time>
      </trkpt>
      <trkpt lat="62.630478641362" lon="17.966948906289">
        <ele>62.6</ele>
        <time>2017-11-06T18:27:02Z</time>
      </trkpt>
      <trkpt lat="62.630478641362" lon="17.966900710364">
        <ele>62.6</ele>
        <time>2017-11-06T18:27:03Z</time>
      </trkpt>
      <trkpt lat="62.630480653018" lon="17.966848574946">
        <ele>62.4</ele>
        <time>2017-11-06T18:27:04Z</time>
      </trkpt>
      <trkpt lat="62.630485346882" lon="17.966801636306">
        <ele>62.2</ele>
        <time>2017-11-06T18:27:05Z</time>
      </trkpt>
      <trkpt lat="62.630487861452" lon="17.9667535242">
        <ele>62</ele>
        <time>2017-11-06T18:27:06Z</time>
      </trkpt>
      <trkpt lat="62.630491633307" lon="17.966697281651">
        <ele>61.8</ele>
        <time>2017-11-06T18:27:07Z</time>
      </trkpt>
      <trkpt lat="62.630490208384" lon="17.966648918088">
        <ele>61.6</ele>
        <time>2017-11-06T18:27:08Z</time>
      </trkpt>
      <trkpt lat="62.630493142049" lon="17.966601141258">
        <ele>61.4</ele>
        <time>2017-11-06T18:27:09Z</time>
      </trkpt>
      <trkpt lat="62.630497165361" lon="17.966552023324">
        <ele>61.2</ele>
        <time>2017-11-06T18:27:10Z</time>
      </trkpt>
      <trkpt lat="62.630501188673" lon="17.96649871444">
        <ele>61</ele>
        <time>2017-11-06T18:27:11Z</time>
      </trkpt>
      <trkpt lat="62.63050311651" lon="17.966455463836">
        <ele>60.6</ele>
        <time>2017-11-06T18:27:12Z</time>
      </trkpt>
      <trkpt lat="62.63050563108" lon="17.966411039766">
        <ele>60.4</ele>
        <time>2017-11-06T18:27:13Z</time>
      </trkpt>
      <trkpt lat="62.630505128166" lon="17.966354713398">
        <ele>60.2</ele>
        <time>2017-11-06T18:27:14Z</time>
      </trkpt>
      <trkpt lat="62.630504373795" lon="17.966312468622">
        <ele>60</ele>
        <time>2017-11-06T18:27:15Z</time>
      </trkpt>
      <trkpt lat="62.630508900021" lon="17.966274582434">
        <ele>59.8</ele>
        <time>2017-11-06T18:27:16Z</time>
      </trkpt>
      <trkpt lat="62.630509486754" lon="17.966225296862">
        <ele>59.4</ele>
        <time>2017-11-06T18:27:17Z</time>
      </trkpt>
      <trkpt lat="62.630511749867" lon="17.966184225552">
        <ele>59.2</ele>
        <time>2017-11-06T18:27:18Z</time>
      </trkpt>
      <trkpt lat="62.630508564745" lon="17.966141561681">
        <ele>58.8</ele>
        <time>2017-11-06T18:27:19Z</time>
      </trkpt>
      <trkpt lat="62.630510827858" lon="17.966100071276">
        <ele>58.4</ele>
        <time>2017-11-06T18:27:20Z</time>
      </trkpt>
      <trkpt lat="62.630512252781" lon="17.966054389921">
        <ele>58.2</ele>
        <time>2017-11-06T18:27:21Z</time>
      </trkpt>
      <trkpt lat="62.630510995496" lon="17.966016252276">
        <ele>57.8</ele>
        <time>2017-11-06T18:27:22Z</time>
      </trkpt>
      <trkpt lat="62.630508648564" lon="17.965974175138">
        <ele>57.8</ele>
        <time>2017-11-06T18:27:23Z</time>
      </trkpt>
      <trkpt lat="62.630508229469" lon="17.965926063032">
        <ele>57.6</ele>
        <time>2017-11-06T18:27:24Z</time>
      </trkpt>
      <trkpt lat="62.630507810374" lon="17.965881219867">
        <ele>57.4</ele>
        <time>2017-11-06T18:27:25Z</time>
      </trkpt>
      <trkpt lat="62.63050982203" lon="17.965832856304">
        <ele>57.4</ele>
        <time>2017-11-06T18:27:26Z</time>
      </trkpt>
      <trkpt lat="62.630513510066" lon="17.965788516053">
        <ele>57.2</ele>
        <time>2017-11-06T18:27:27Z</time>
      </trkpt>
      <trkpt lat="62.630516276093" lon="17.965751300417">
        <ele>57</ele>
        <time>2017-11-06T18:27:28Z</time>
      </trkpt>
      <trkpt lat="62.630513510066" lon="17.965707295442">
        <ele>56.8</ele>
        <time>2017-11-06T18:27:29Z</time>
      </trkpt>
      <trkpt lat="62.630512504238" lon="17.965669493073">
        <ele>56.8</ele>
        <time>2017-11-06T18:27:30Z</time>
      </trkpt>
      <trkpt lat="62.630513510066" lon="17.965624398451">
        <ele>56.6</ele>
        <time>2017-11-06T18:27:31Z</time>
      </trkpt>
      <trkpt lat="62.630509654392" lon="17.965583494779">
        <ele>56.6</ele>
        <time>2017-11-06T18:27:32Z</time>
      </trkpt>
      <trkpt lat="62.630508648564" lon="17.965554409586">
        <ele>56.4</ele>
        <time>2017-11-06T18:27:33Z</time>
      </trkpt>
      <trkpt lat="62.630510995496" lon="17.965527419868">
        <ele>56.2</ele>
        <time>2017-11-06T18:27:34Z</time>
      </trkpt>
      <trkpt lat="62.630515856998" lon="17.965510739887">
        <ele>56</ele>
        <time>2017-11-06T18:27:35Z</time>
      </trkpt>
      <trkpt lat="62.630520969957" lon="17.965492132069">
        <ele>55.8</ele>
        <time>2017-11-06T18:27:36Z</time>
      </trkpt>
      <trkpt lat="62.630520969957" lon="17.965477715201">
        <ele>55.8</ele>
        <time>2017-11-06T18:27:37Z</time>
      </trkpt>
      <trkpt lat="62.630526921106" lon="17.965457095727">
        <ele>55.6</ele>
        <time>2017-11-06T18:27:38Z</time>
      </trkpt>
      <trkpt lat="62.63053077678" lon="17.965475200631">
        <ele>55.4</ele>
        <time>2017-11-06T18:27:39Z</time>
      </trkpt>
      <trkpt lat="62.630527340201" lon="17.965468327473">
        <ele>55.4</ele>
        <time>2017-11-06T18:27:40Z</time>
      </trkpt>
      <trkpt lat="62.630784664531" lon="17.965413174571">
        <ele>54.8</ele>
        <time>2017-11-06T18:29:15Z</time>
      </trkpt>
      <trkpt lat="62.630810061688" lon="17.965426417973">
        <ele>54.8</ele>
        <time>2017-11-06T18:29:16Z</time>
      </trkpt>
      <trkpt lat="62.630837302863" lon="17.965445444886">
        <ele>55</ele>
        <time>2017-11-06T18:29:17Z</time>
      </trkpt>
      <trkpt lat="62.630861275097" lon="17.965466567274">
        <ele>55</ele>
        <time>2017-11-06T18:29:18Z</time>
      </trkpt>
      <trkpt lat="62.63088365477" lon="17.965485258911">
        <ele>55.2</ele>
        <time>2017-11-06T18:29:19Z</time>
      </trkpt>
      <trkpt lat="62.630912823782" lon="17.965501603616">
        <ele>55.4</ele>
        <time>2017-11-06T18:29:20Z</time>
      </trkpt>
      <trkpt lat="62.630938891491" lon="17.965504453462">
        <ele>55.4</ele>
        <time>2017-11-06T18:29:21Z</time>
      </trkpt>
      <trkpt lat="62.630965294476" lon="17.965497496485">
        <ele>55.8</ele>
        <time>2017-11-06T18:29:22Z</time>
      </trkpt>
      <trkpt lat="62.630993290022" lon="17.965485258911">
        <ele>56</ele>
        <time>2017-11-06T18:29:23Z</time>
      </trkpt>
      <trkpt lat="62.631021034111" lon="17.965461538134">
        <ele>56.2</ele>
        <time>2017-11-06T18:29:24Z</time>
      </trkpt>
      <trkpt lat="62.631046682725" lon="17.96543588952">
        <ele>56.4</ele>
        <time>2017-11-06T18:29:25Z</time>
      </trkpt>
      <trkpt lat="62.631071744606" lon="17.965406888146">
        <ele>56.6</ele>
        <time>2017-11-06T18:29:26Z</time>
      </trkpt>
      <trkpt lat="62.631097225582" lon="17.965376545668">
        <ele>56.8</ele>
        <time>2017-11-06T18:29:27Z</time>
      </trkpt>
      <trkpt lat="62.631120694902" lon="17.965351316149">
        <ele>56.8</ele>
        <time>2017-11-06T18:29:28Z</time>
      </trkpt>
      <trkpt lat="62.631148103715" lon="17.96531267559">
        <ele>56.8</ele>
        <time>2017-11-06T18:29:29Z</time>
      </trkpt>
      <trkpt lat="62.631174841976" lon="17.965294151591">
        <ele>57</ele>
        <time>2017-11-06T18:29:30Z</time>
      </trkpt>
      <trkpt lat="62.631205100635" lon="17.965291217926">
        <ele>56.8</ele>
        <time>2017-11-06T18:29:31Z</time>
      </trkpt>
      <trkpt lat="62.631235526932" lon="17.965309993382">
        <ele>56.8</ele>
        <time>2017-11-06T18:29:32Z</time>
      </trkpt>
      <trkpt lat="62.631258409519" lon="17.965336061091">
        <ele>57</ele>
        <time>2017-11-06T18:29:33Z</time>
      </trkpt>
      <trkpt lat="62.631278777536" lon="17.965366487388">
        <ele>57</ele>
        <time>2017-11-06T18:29:34Z</time>
      </trkpt>
      <trkpt lat="62.631305012883" lon="17.96540320011">
        <ele>57.2</ele>
        <time>2017-11-06T18:29:35Z</time>
      </trkpt>
      <trkpt lat="62.631328063108" lon="17.965431530932">
        <ele>57.2</ele>
        <time>2017-11-06T18:29:36Z</time>
      </trkpt>
      <trkpt lat="62.63135220298" lon="17.965460364668">
        <ele>57.4</ele>
        <time>2017-11-06T18:29:37Z</time>
      </trkpt>
      <trkpt lat="62.631373828282" lon="17.965484336902">
        <ele>57.6</ele>
        <time>2017-11-06T18:29:38Z</time>
      </trkpt>
      <trkpt lat="62.631398554887" lon="17.965514260285">
        <ele>57.8</ele>
        <time>2017-11-06T18:29:39Z</time>
      </trkpt>
      <trkpt lat="62.631423281492" lon="17.96554066327">
        <ele>57.8</ele>
        <time>2017-11-06T18:29:40Z</time>
      </trkpt>
      <trkpt lat="62.631449097744" lon="17.965569329368">
        <ele>57.8</ele>
        <time>2017-11-06T18:29:41Z</time>
      </trkpt>
      <trkpt lat="62.631476087462" lon="17.965595899991">
        <ele>57.8</ele>
        <time>2017-11-06T18:29:42Z</time>
      </trkpt>
      <trkpt lat="62.631499640601" lon="17.965616351827">
        <ele>58</ele>
        <time>2017-11-06T18:29:43Z</time>
      </trkpt>
      <trkpt lat="62.631525289215" lon="17.965639234414">
        <ele>58.2</ele>
        <time>2017-11-06T18:29:44Z</time>
      </trkpt>
      <trkpt lat="62.631549848182" lon="17.965663625743">
        <ele>58.2</ele>
        <time>2017-11-06T18:29:45Z</time>
      </trkpt>
      <trkpt lat="62.631573066045" lon="17.965683239389">
        <ele>58.4</ele>
        <time>2017-11-06T18:29:46Z</time>
      </trkpt>
      <trkpt lat="62.631600055763" lon="17.965706205795">
        <ele>58.8</ele>
        <time>2017-11-06T18:29:47Z</time>
      </trkpt>
      <trkpt lat="62.631623022169" lon="17.965727663459">
        <ele>59</ele>
        <time>2017-11-06T18:29:48Z</time>
      </trkpt>
      <trkpt lat="62.631644898928" lon="17.965750043132">
        <ele>59.2</ele>
        <time>2017-11-06T18:29:49Z</time>
      </trkpt>
      <trkpt lat="62.63166820061" lon="17.965774266823">
        <ele>59.4</ele>
        <time>2017-11-06T18:29:50Z</time>
      </trkpt>
      <trkpt lat="62.63168999355" lon="17.965794299564">
        <ele>59.6</ele>
        <time>2017-11-06T18:29:51Z</time>
      </trkpt>
      <trkpt lat="62.631711367395" lon="17.965813661753">
        <ele>59.6</ele>
        <time>2017-11-06T18:29:52Z</time>
      </trkpt>
      <trkpt lat="62.631735674905" lon="17.965837885444">
        <ele>59.8</ele>
        <time>2017-11-06T18:29:53Z</time>
      </trkpt>
      <trkpt lat="62.63175788694" lon="17.965859007832">
        <ele>60</ele>
        <time>2017-11-06T18:29:54Z</time>
      </trkpt>
      <trkpt lat="62.631780350432" lon="17.96588013022">
        <ele>60.2</ele>
        <time>2017-11-06T18:29:55Z</time>
      </trkpt>
      <trkpt lat="62.631805412313" lon="17.965899324771">
        <ele>60.4</ele>
        <time>2017-11-06T18:29:56Z</time>
      </trkpt>
      <trkpt lat="62.631829636004" lon="17.965914915105">
        <ele>60.6</ele>
        <time>2017-11-06T18:29:57Z</time>
      </trkpt>
      <trkpt lat="62.631851093668" lon="17.965928829059">
        <ele>60.6</ele>
        <time>2017-11-06T18:29:58Z</time>
      </trkpt>
      <trkpt lat="62.631878251024" lon="17.965945089945">
        <ele>60.6</ele>
        <time>2017-11-06T18:29:59Z</time>
      </trkpt>
      <trkpt lat="62.631901301249" lon="17.965966379971">
        <ele>60.8</ele>
        <time>2017-11-06T18:30:00Z</time>
      </trkpt>
      <trkpt lat="62.63192468675" lon="17.965987669997">
        <ele>60.8</ele>
        <time>2017-11-06T18:30:01Z</time>
      </trkpt>
      <trkpt lat="62.631948323708" lon="17.96601088786">
        <ele>61</ele>
        <time>2017-11-06T18:30:02Z</time>
      </trkpt>
      <trkpt lat="62.631971122476" lon="17.966029830954">
        <ele>61</ele>
        <time>2017-11-06T18:30:03Z</time>
      </trkpt>
      <trkpt lat="62.631994005063" lon="17.966043912546">
        <ele>61</ele>
        <time>2017-11-06T18:30:04Z</time>
      </trkpt>
      <trkpt lat="62.632021246238" lon="17.966064448201">
        <ele>61.2</ele>
        <time>2017-11-06T18:30:05Z</time>
      </trkpt>
      <trkpt lat="62.632047565404" lon="17.966081798734">
        <ele>61.4</ele>
        <time>2017-11-06T18:30:06Z</time>
      </trkpt>
      <trkpt lat="62.632073297837" lon="17.966095880326">
        <ele>61.4</ele>
        <time>2017-11-06T18:30:07Z</time>
      </trkpt>
      <trkpt lat="62.632098443537" lon="17.96611398523">
        <ele>61.4</ele>
        <time>2017-11-06T18:30:08Z</time>
      </trkpt>
      <trkpt lat="62.632122751047" lon="17.966139801482">
        <ele>61.6</ele>
        <time>2017-11-06T18:30:09Z</time>
      </trkpt>
      <trkpt lat="62.632146052729" lon="17.966170898331">
        <ele>61.8</ele>
        <time>2017-11-06T18:30:10Z</time>
      </trkpt>
      <trkpt lat="62.632170527877" lon="17.966209455071">
        <ele>61.8</ele>
        <time>2017-11-06T18:30:11Z</time>
      </trkpt>
      <trkpt lat="62.632190225342" lon="17.966254298236">
        <ele>62</ele>
        <time>2017-11-06T18:30:12Z</time>
      </trkpt>
      <trkpt lat="62.632202462916" lon="17.966306266016">
        <ele>62</ele>
        <time>2017-11-06T18:30:13Z</time>
      </trkpt>
      <trkpt lat="62.632207743513" lon="17.966364687859">
        <ele>62</ele>
        <time>2017-11-06T18:30:14Z</time>
      </trkpt>
      <trkpt lat="62.632205899495" lon="17.966420846589">
        <ele>62.2</ele>
        <time>2017-11-06T18:30:15Z</time>
      </trkpt>
      <trkpt lat="62.632203049649" lon="17.966471808541">
        <ele>62.4</ele>
        <time>2017-11-06T18:30:16Z</time>
      </trkpt>
      <trkpt lat="62.632201121812" lon="17.966529392194">
        <ele>62.6</ele>
        <time>2017-11-06T18:30:17Z</time>
      </trkpt>
      <trkpt lat="62.63219961307" lon="17.966580354146">
        <ele>62.6</ele>
        <time>2017-11-06T18:30:18Z</time>
      </trkpt>
      <trkpt lat="62.632198020509" lon="17.966630477908">
        <ele>62.8</ele>
        <time>2017-11-06T18:30:19Z</time>
      </trkpt>
      <trkpt lat="62.632193829559" lon="17.966678338557">
        <ele>63</ele>
        <time>2017-11-06T18:30:20Z</time>
      </trkpt>
      <trkpt lat="62.632188297505" lon="17.966730390156">
        <ele>63.2</ele>
        <time>2017-11-06T18:30:21Z</time>
      </trkpt>
      <trkpt lat="62.632185112383" lon="17.966776406787">
        <ele>63.2</ele>
        <time>2017-11-06T18:30:22Z</time>
      </trkpt>
      <trkpt lat="62.632179831786" lon="17.9668289613">
        <ele>63.4</ele>
        <time>2017-11-06T18:30:23Z</time>
      </trkpt>
      <trkpt lat="62.632175221741" lon="17.966882186365">
        <ele>63.6</ele>
        <time>2017-11-06T18:30:24Z</time>
      </trkpt>
      <trkpt lat="62.632171198429" lon="17.966932729222">
        <ele>63.8</ele>
        <time>2017-11-06T18:30:25Z</time>
      </trkpt>
      <trkpt lat="62.632163067986" lon="17.966986289563">
        <ele>64</ele>
        <time>2017-11-06T18:30:26Z</time>
      </trkpt>
      <trkpt lat="62.632156194828" lon="17.967034234031">
        <ele>64.2</ele>
        <time>2017-11-06T18:30:27Z</time>
      </trkpt>
      <trkpt lat="62.632151249507" lon="17.967076981721">
        <ele>64.4</ele>
        <time>2017-11-06T18:30:28Z</time>
      </trkpt>
      <trkpt lat="62.632140772132" lon="17.96713154789">
        <ele>64.6</ele>
        <time>2017-11-06T18:30:29Z</time>
      </trkpt>
      <trkpt lat="62.632130378576" lon="17.967174211761">
        <ele>65</ele>
        <time>2017-11-06T18:30:30Z</time>
      </trkpt>
      <trkpt lat="62.632117218993" lon="17.967220479849">
        <ele>65.2</ele>
        <time>2017-11-06T18:30:31Z</time>
      </trkpt>
      <trkpt lat="62.632105232876" lon="17.967263730453">
        <ele>65.4</ele>
        <time>2017-11-06T18:30:32Z</time>
      </trkpt>
      <trkpt lat="62.632093749673" lon="17.96730253865">
        <ele>65.8</ele>
        <time>2017-11-06T18:30:33Z</time>
      </trkpt>
      <trkpt lat="62.632080841547" lon="17.96734696272">
        <ele>66</ele>
        <time>2017-11-06T18:30:34Z</time>
      </trkpt>
      <trkpt lat="62.632065837946" lon="17.967397170301">
        <ele>66.2</ele>
        <time>2017-11-06T18:30:35Z</time>
      </trkpt>
      <trkpt lat="62.632052343087" lon="17.967441342914">
        <ele>66.4</ele>
        <time>2017-11-06T18:30:36Z</time>
      </trkpt>
      <trkpt lat="62.632038429133" lon="17.967483755328">
        <ele>66.6</ele>
        <time>2017-11-06T18:30:37Z</time>
      </trkpt>
      <trkpt lat="62.632024263722" lon="17.96752214443">
        <ele>66.8</ele>
        <time>2017-11-06T18:30:38Z</time>
      </trkpt>
      <trkpt lat="62.632010098311" lon="17.967572687287">
        <ele>67</ele>
        <time>2017-11-06T18:30:39Z</time>
      </trkpt>
      <trkpt lat="62.631997441642" lon="17.967615770253">
        <ele>67.2</ele>
        <time>2017-11-06T18:30:40Z</time>
      </trkpt>
      <trkpt lat="62.631983862964" lon="17.967660864875">
        <ele>67.4</ele>
        <time>2017-11-06T18:30:41Z</time>
      </trkpt>
      <trkpt lat="62.631970200467" lon="17.967707049144">
        <ele>67.4</ele>
        <time>2017-11-06T18:30:42Z</time>
      </trkpt>
      <trkpt lat="62.631958717264" lon="17.967745522065">
        <ele>67.6</ele>
        <time>2017-11-06T18:30:43Z</time>
      </trkpt>
      <trkpt lat="62.631943881301" lon="17.96779204161">
        <ele>67.8</ele>
        <time>2017-11-06T18:30:44Z</time>
      </trkpt>
      <trkpt lat="62.631930805537" lon="17.967837387689">
        <ele>68</ele>
        <time>2017-11-06T18:30:45Z</time>
      </trkpt>
      <trkpt lat="62.631918232687" lon="17.967875944429">
        <ele>68</ele>
        <time>2017-11-06T18:30:46Z</time>
      </trkpt>
      <trkpt lat="62.631901720344" lon="17.9679186083">
        <ele>68.2</ele>
        <time>2017-11-06T18:30:47Z</time>
      </trkpt>
      <trkpt lat="62.631887890209" lon="17.967952471176">
        <ele>68.4</ele>
        <time>2017-11-06T18:30:48Z</time>
      </trkpt>
      <trkpt lat="62.631874143893" lon="17.967986753147">
        <ele>68.6</ele>
        <time>2017-11-06T18:30:49Z</time>
      </trkpt>
      <trkpt lat="62.63185763155" lon="17.968029919932">
        <ele>68.8</ele>
        <time>2017-11-06T18:30:50Z</time>
      </trkpt>
      <trkpt lat="62.631844471967" lon="17.968064369541">
        <ele>69</ele>
        <time>2017-11-06T18:30:51Z</time>
      </trkpt>
      <trkpt lat="62.631833659316" lon="17.968102926281">
        <ele>69.2</ele>
        <time>2017-11-06T18:30:52Z</time>
      </trkpt>
      <trkpt lat="62.631820499733" lon="17.968140225736">
        <ele>69.6</ele>
        <time>2017-11-06T18:30:53Z</time>
      </trkpt>
      <trkpt lat="62.631806921055" lon="17.968181297046">
        <ele>69.8</ele>
        <time>2017-11-06T18:30:54Z</time>
      </trkpt>
      <trkpt lat="62.631793342377" lon="17.968222955089">
        <ele>70</ele>
        <time>2017-11-06T18:30:55Z</time>
      </trkpt>
      <trkpt lat="62.631782110631" lon="17.968264194037">
        <ele>70.2</ele>
        <time>2017-11-06T18:30:56Z</time>
      </trkpt>
      <trkpt lat="62.631771717075" lon="17.968306522632">
        <ele>70.6</ele>
        <time>2017-11-06T18:30:57Z</time>
      </trkpt>
      <trkpt lat="62.631761407338" lon="17.968347091028">
        <ele>70.6</ele>
        <time>2017-11-06T18:30:58Z</time>
      </trkpt>
      <trkpt lat="62.63175034323" lon="17.968398639713">
        <ele>70.8</ele>
        <time>2017-11-06T18:30:59Z</time>
      </trkpt>
      <trkpt lat="62.631740117312" lon="17.968447757647">
        <ele>71</ele>
        <time>2017-11-06T18:31:00Z</time>
      </trkpt>
      <trkpt lat="62.631730059032" lon="17.968494863925">
        <ele>71.2</ele>
        <time>2017-11-06T18:31:01Z</time>
      </trkpt>
      <trkpt lat="62.631723604969" lon="17.968543646583">
        <ele>71.4</ele>
        <time>2017-11-06T18:31:02Z</time>
      </trkpt>
      <trkpt lat="62.63171597744" lon="17.96858748392">
        <ele>71.6</ele>
        <time>2017-11-06T18:31:03Z</time>
      </trkpt>
      <trkpt lat="62.631708852825" lon="17.968631740352">
        <ele>71.8</ele>
        <time>2017-11-06T18:31:04Z</time>
      </trkpt>
      <trkpt lat="62.631703656047" lon="17.968688150539">
        <ele>71.8</ele>
        <time>2017-11-06T18:31:05Z</time>
      </trkpt>
      <trkpt lat="62.631702817857" lon="17.968739531586">
        <ele>72</ele>
        <time>2017-11-06T18:31:06Z</time>
      </trkpt>
      <trkpt lat="62.631701560572" lon="17.968789655348">
        <ele>72</ele>
        <time>2017-11-06T18:31:07Z</time>
      </trkpt>
      <trkpt lat="62.631702147305" lon="17.96883642635">
        <ele>72.4</ele>
        <time>2017-11-06T18:31:08Z</time>
      </trkpt>
      <trkpt lat="62.63170172821" lon="17.96888587956">
        <ele>72.6</ele>
        <time>2017-11-06T18:31:09Z</time>
      </trkpt>
      <trkpt lat="62.631705248608" lon="17.968928208155">
        <ele>72.8</ele>
        <time>2017-11-06T18:31:10Z</time>
      </trkpt>
      <trkpt lat="62.631707260264" lon="17.968979589202">
        <ele>73</ele>
        <time>2017-11-06T18:31:11Z</time>
      </trkpt>
      <trkpt lat="62.631708852825" lon="17.969024097091">
        <ele>73.2</ele>
        <time>2017-11-06T18:31:12Z</time>
      </trkpt>
      <trkpt lat="62.631712205585" lon="17.969067515333">
        <ele>73.6</ele>
        <time>2017-11-06T18:31:13Z</time>
      </trkpt>
      <trkpt lat="62.631716731811" lon="17.969118812561">
        <ele>73.8</ele>
        <time>2017-11-06T18:31:14Z</time>
      </trkpt>
      <trkpt lat="62.631723604969" lon="17.969165164468">
        <ele>74</ele>
        <time>2017-11-06T18:31:15Z</time>
      </trkpt>
      <trkpt lat="62.631730394308" lon="17.969209672357">
        <ele>74.4</ele>
        <time>2017-11-06T18:31:16Z</time>
      </trkpt>
      <trkpt lat="62.631738021837" lon="17.969258455015">
        <ele>74.6</ele>
        <time>2017-11-06T18:31:17Z</time>
      </trkpt>
      <trkpt lat="62.631746068461" lon="17.96929910723">
        <ele>74.8</ele>
        <time>2017-11-06T18:31:18Z</time>
      </trkpt>
      <trkpt lat="62.631756545836" lon="17.969343866576">
        <ele>75</ele>
        <time>2017-11-06T18:31:19Z</time>
      </trkpt>
      <trkpt lat="62.631765346831" lon="17.969395331442">
        <ele>75.2</ele>
        <time>2017-11-06T18:31:20Z</time>
      </trkpt>
      <trkpt lat="62.631769537781" lon="17.969446041937">
        <ele>75.4</ele>
        <time>2017-11-06T18:31:21Z</time>
      </trkpt>
      <trkpt lat="62.631766771754" lon="17.969494740776">
        <ele>75.4</ele>
        <time>2017-11-06T18:31:22Z</time>
      </trkpt>
      <trkpt lat="62.631761491157" lon="17.969545367452">
        <ele>75.6</ele>
        <time>2017-11-06T18:31:23Z</time>
      </trkpt>
      <trkpt lat="62.631748750669" lon="17.96958995916">
        <ele>75.8</ele>
        <time>2017-11-06T18:31:24Z</time>
      </trkpt>
      <trkpt lat="62.631730981041" lon="17.96962600133">
        <ele>75.8</ele>
        <time>2017-11-06T18:31:25Z</time>
      </trkpt>
      <trkpt lat="62.63171262468" lon="17.969655421799">
        <ele>76</ele>
        <time>2017-11-06T18:31:26Z</time>
      </trkpt>
      <trkpt lat="62.631691753749" lon="17.969681824784">
        <ele>76</ele>
        <time>2017-11-06T18:31:27Z</time>
      </trkpt>
      <trkpt lat="62.631671804827" lon="17.969703533905">
        <ele>76.2</ele>
        <time>2017-11-06T18:31:28Z</time>
      </trkpt>
      <trkpt lat="62.631647497317" lon="17.969730858899">
        <ele>76.4</ele>
        <time>2017-11-06T18:31:29Z</time>
      </trkpt>
      <trkpt lat="62.63162377654" lon="17.969747203604">
        <ele>76.6</ele>
        <time>2017-11-06T18:31:30Z</time>
      </trkpt>
      <trkpt lat="62.631600558677" lon="17.969767487802">
        <ele>76.6</ele>
        <time>2017-11-06T18:31:31Z</time>
      </trkpt>
      <trkpt lat="62.631578849556" lon="17.969790202751">
        <ele>76.8</ele>
        <time>2017-11-06T18:31:32Z</time>
      </trkpt>
      <trkpt lat="62.63155588315" lon="17.96980956494">
        <ele>76.8</ele>
        <time>2017-11-06T18:31:33Z</time>
      </trkpt>
      <trkpt lat="62.63153241383" lon="17.969826161102">
        <ele>77</ele>
        <time>2017-11-06T18:31:34Z</time>
      </trkpt>
      <trkpt lat="62.631506178483" lon="17.969842170531">
        <ele>77.2</ele>
        <time>2017-11-06T18:31:35Z</time>
      </trkpt>
      <trkpt lat="62.631482709163" lon="17.969852731725">
        <ele>77.4</ele>
        <time>2017-11-06T18:31:36Z</time>
      </trkpt>
      <trkpt lat="62.631458820748" lon="17.969861616539">
        <ele>77.4</ele>
        <time>2017-11-06T18:31:37Z</time>
      </trkpt>
      <trkpt lat="62.631436776351" lon="17.969871507181">
        <ele>77.6</ele>
        <time>2017-11-06T18:31:38Z</time>
      </trkpt>
      <trkpt lat="62.631410624823" lon="17.969890282637">
        <ele>77.6</ele>
        <time>2017-11-06T18:31:39Z</time>
      </trkpt>
      <trkpt lat="62.631388161331" lon="17.969906543523">
        <ele>77.6</ele>
        <time>2017-11-06T18:31:40Z</time>
      </trkpt>
      <trkpt lat="62.631363015631" lon="17.969921714762">
        <ele>77.6</ele>
        <time>2017-11-06T18:31:41Z</time>
      </trkpt>
      <trkpt lat="62.63133795375" lon="17.969935712535">
        <ele>77.6</ele>
        <time>2017-11-06T18:31:42Z</time>
      </trkpt>
      <trkpt lat="62.631315657896" lon="17.969945184082">
        <ele>77.6</ele>
        <time>2017-11-06T18:31:43Z</time>
      </trkpt>
      <trkpt lat="62.631290596015" lon="17.969955577638">
        <ele>77.8</ele>
        <time>2017-11-06T18:31:44Z</time>
      </trkpt>
      <trkpt lat="62.631264276849" lon="17.96996882104">
        <ele>77.8</ele>
        <time>2017-11-06T18:31:45Z</time>
      </trkpt>
      <trkpt lat="62.631242148633" lon="17.96997887932">
        <ele>77.8</ele>
        <time>2017-11-06T18:31:46Z</time>
      </trkpt>
      <trkpt lat="62.631217170571" lon="17.969991200713">
        <ele>77.8</ele>
        <time>2017-11-06T18:31:47Z</time>
      </trkpt>
      <trkpt lat="62.631192611604" lon="17.97000737778">
        <ele>77.8</ele>
        <time>2017-11-06T18:31:48Z</time>
      </trkpt>
      <trkpt lat="62.631165454248" lon="17.97001995063">
        <ele>77.8</ele>
        <time>2017-11-06T18:31:49Z</time>
      </trkpt>
      <trkpt lat="62.631139470358" lon="17.97002749434">
        <ele>77.8</ele>
        <time>2017-11-06T18:31:50Z</time>
      </trkpt>
      <trkpt lat="62.631113654106" lon="17.970035373326">
        <ele>77.8</ele>
        <time>2017-11-06T18:31:51Z</time>
      </trkpt>
      <trkpt lat="62.631089765691" lon="17.97004844909">
        <ele>78</ele>
        <time>2017-11-06T18:31:52Z</time>
      </trkpt>
      <trkpt lat="62.631065206724" lon="17.970060602845">
        <ele>78</ele>
        <time>2017-11-06T18:31:53Z</time>
      </trkpt>
      <trkpt lat="62.631027739631" lon="17.970074349161">
        <ele>78.4</ele>
        <time>2017-11-06T18:31:55Z</time>
      </trkpt>
      <trkpt lat="62.631013741858" lon="17.970077450464">
        <ele>78.4</ele>
        <time>2017-11-06T18:31:56Z</time>
      </trkpt>
      <trkpt lat="62.631001755741" lon="17.970077618102">
        <ele>78.6</ele>
        <time>2017-11-06T18:31:57Z</time>
      </trkpt>
      <trkpt lat="62.630989518167" lon="17.970075187351">
        <ele>78.6</ele>
        <time>2017-11-06T18:31:58Z</time>
      </trkpt>
      <trkpt lat="62.630976274765" lon="17.970073427152">
        <ele>78.8</ele>
        <time>2017-11-06T18:31:59Z</time>
      </trkpt>
      <trkpt lat="62.630967557589" lon="17.970070828763">
        <ele>79</ele>
        <time>2017-11-06T18:32:00Z</time>
      </trkpt>
      <trkpt lat="62.630959008051" lon="17.970062782139">
        <ele>78.8</ele>
        <time>2017-11-06T18:32:01Z</time>
      </trkpt>
      <trkpt lat="62.630949787961" lon="17.970049454918">
        <ele>78.8</ele>
        <time>2017-11-06T18:32:02Z</time>
      </trkpt>
      <trkpt lat="62.630940986966" lon="17.970032355842">
        <ele>78.8</ele>
        <time>2017-11-06T18:32:03Z</time>
      </trkpt>
      <trkpt lat="62.630933778532" lon="17.970010646721">
        <ele>78.6</ele>
        <time>2017-11-06T18:32:04Z</time>
      </trkpt>
      <trkpt lat="62.630935454912" lon="17.970012323101">
        <ele>78.6</ele>
        <time>2017-11-06T18:32:05Z</time>
      </trkpt>
      <trkpt lat="62.630942830984" lon="17.970021710829">
        <ele>78.4</ele>
        <time>2017-11-06T18:32:06Z</time>
      </trkpt>
      <trkpt lat="62.630941238423" lon="17.970019447716">
        <ele>78.2</ele>
        <time>2017-11-06T18:32:07Z</time>
      </trkpt>
      <trkpt lat="62.630936544559" lon="17.970026488512">
        <ele>78.2</ele>
        <time>2017-11-06T18:32:08Z</time>
      </trkpt>
      <trkpt lat="62.63088700753" lon="17.969624827864">
        <ele>76.8</ele>
        <time>2017-11-06T18:32:47Z</time>
      </trkpt>
      <trkpt lat="62.630884995874" lon="17.969597921965">
        <ele>76.8</ele>
        <time>2017-11-06T18:32:48Z</time>
      </trkpt>
      <trkpt lat="62.630884073865" lon="17.969567411849">
        <ele>76.8</ele>
        <time>2017-11-06T18:32:49Z</time>
      </trkpt>
      <trkpt lat="62.630882648942" lon="17.969538997208">
        <ele>76.6</ele>
        <time>2017-11-06T18:32:50Z</time>
      </trkpt>
      <trkpt lat="62.630880637286" lon="17.969514270603">
        <ele>76.6</ele>
        <time>2017-11-06T18:32:51Z</time>
      </trkpt>
      <trkpt lat="62.630877955078" lon="17.969488370532">
        <ele>76.4</ele>
        <time>2017-11-06T18:32:52Z</time>
      </trkpt>
      <trkpt lat="62.630874853775" lon="17.96946171609">
        <ele>76.2</ele>
        <time>2017-11-06T18:32:53Z</time>
      </trkpt>
      <trkpt lat="62.630871752472" lon="17.969434810191">
        <ele>76.2</ele>
        <time>2017-11-06T18:32:54Z</time>
      </trkpt>
      <trkpt lat="62.630870662825" lon="17.969405138265">
        <ele>76</ele>
        <time>2017-11-06T18:32:55Z</time>
      </trkpt>
      <trkpt lat="62.630868651169" lon="17.969386949542">
        <ele>75.8</ele>
        <time>2017-11-06T18:32:56Z</time>
      </trkpt>
      <trkpt lat="62.63086605278" lon="17.969357445254">
        <ele>75.8</ele>
        <time>2017-11-06T18:32:57Z</time>
      </trkpt>
      <trkpt lat="62.630865298409" lon="17.969333556839">
        <ele>75.6</ele>
        <time>2017-11-06T18:32:58Z</time>
      </trkpt>
      <trkpt lat="62.630863370572" lon="17.969301957076">
        <ele>75.4</ele>
        <time>2017-11-06T18:32:59Z</time>
      </trkpt>
      <trkpt lat="62.630861191278" lon="17.969274464444">
        <ele>75.4</ele>
        <time>2017-11-06T18:33:00Z</time>
      </trkpt>
      <trkpt lat="62.630857922337" lon="17.969245295432">
        <ele>75.4</ele>
        <time>2017-11-06T18:33:01Z</time>
      </trkpt>
      <trkpt lat="62.630854401939" lon="17.969216377877">
        <ele>75.2</ele>
        <time>2017-11-06T18:33:02Z</time>
      </trkpt>
      <trkpt lat="62.630849205161" lon="17.969186538313">
        <ele>75</ele>
        <time>2017-11-06T18:33:03Z</time>
      </trkpt>
      <trkpt lat="62.63084342165" lon="17.969159045681">
        <ele>74.8</ele>
        <time>2017-11-06T18:33:04Z</time>
      </trkpt>
      <trkpt lat="62.630839985071" lon="17.969130463402">
        <ele>74.6</ele>
        <time>2017-11-06T18:33:05Z</time>
      </trkpt>
      <trkpt lat="62.630837386682" lon="17.969102803132">
        <ele>74.2</ele>
        <time>2017-11-06T18:33:06Z</time>
      </trkpt>
      <trkpt lat="62.630832860456" lon="17.969074975224">
        <ele>74</ele>
        <time>2017-11-06T18:33:07Z</time>
      </trkpt>
      <trkpt lat="62.630828418049" lon="17.969049158972">
        <ele>74</ele>
        <time>2017-11-06T18:33:08Z</time>
      </trkpt>
      <trkpt lat="62.630826490212" lon="17.96901998996">
        <ele>73.8</ele>
        <time>2017-11-06T18:33:09Z</time>
      </trkpt>
      <trkpt lat="62.630823472728" lon="17.968996101545">
        <ele>73.8</ele>
        <time>2017-11-06T18:33:10Z</time>
      </trkpt>
      <trkpt lat="62.630819700873" lon="17.968968944189">
        <ele>73.6</ele>
        <time>2017-11-06T18:33:11Z</time>
      </trkpt>
      <trkpt lat="62.630815174647" lon="17.968941367738">
        <ele>73.4</ele>
        <time>2017-11-06T18:33:12Z</time>
      </trkpt>
      <trkpt lat="62.630811402792" lon="17.968916808771">
        <ele>73.4</ele>
        <time>2017-11-06T18:33:13Z</time>
      </trkpt>
      <trkpt lat="62.630807798575" lon="17.968887891216">
        <ele>73.2</ele>
        <time>2017-11-06T18:33:14Z</time>
      </trkpt>
      <trkpt lat="62.630804361996" lon="17.968860398584">
        <ele>73.2</ele>
        <time>2017-11-06T18:33:15Z</time>
      </trkpt>
      <trkpt lat="62.630801763607" lon="17.968837096902">
        <ele>73</ele>
        <time>2017-11-06T18:33:16Z</time>
      </trkpt>
      <trkpt lat="62.630798829942" lon="17.968809939546">
        <ele>73</ele>
        <time>2017-11-06T18:33:17Z</time>
      </trkpt>
      <trkpt lat="62.63079480663" lon="17.968787476054">
        <ele>72.8</ele>
        <time>2017-11-06T18:33:18Z</time>
      </trkpt>
      <trkpt lat="62.630788855481" lon="17.968762246535">
        <ele>72.8</ele>
        <time>2017-11-06T18:33:19Z</time>
      </trkpt>
      <trkpt lat="62.630784413074" lon="17.968740118319">
        <ele>72.6</ele>
        <time>2017-11-06T18:33:20Z</time>
      </trkpt>
      <trkpt lat="62.63077552826" lon="17.968717487189">
        <ele>72.4</ele>
        <time>2017-11-06T18:33:21Z</time>
      </trkpt>
      <trkpt lat="62.630769912387" lon="17.968697454448">
        <ele>72.2</ele>
        <time>2017-11-06T18:33:22Z</time>
      </trkpt>
      <trkpt lat="62.630765721437" lon="17.968677002612">
        <ele>72</ele>
        <time>2017-11-06T18:33:23Z</time>
      </trkpt>
      <trkpt lat="62.630758093908" lon="17.968657137509">
        <ele>71.8</ele>
        <time>2017-11-06T18:33:24Z</time>
      </trkpt>
      <trkpt lat="62.630747784171" lon="17.968633500551">
        <ele>71.6</ele>
        <time>2017-11-06T18:33:25Z</time>
      </trkpt>
      <trkpt lat="62.630738731719" lon="17.968611288516">
        <ele>71.4</ele>
        <time>2017-11-06T18:33:26Z</time>
      </trkpt>
      <trkpt lat="62.630730852733" lon="17.968595111449">
        <ele>71.2</ele>
        <time>2017-11-06T18:33:27Z</time>
      </trkpt>
      <trkpt lat="62.63072439867" lon="17.968576000717">
        <ele>71</ele>
        <time>2017-11-06T18:33:28Z</time>
      </trkpt>
      <trkpt lat="62.630715430037" lon="17.968552950492">
        <ele>71</ele>
        <time>2017-11-06T18:33:29Z</time>
      </trkpt>
      <trkpt lat="62.630707886327" lon="17.968533923579">
        <ele>70.8</ele>
        <time>2017-11-06T18:33:30Z</time>
      </trkpt>
      <trkpt lat="62.630701683721" lon="17.968516992141">
        <ele>70.8</ele>
        <time>2017-11-06T18:33:31Z</time>
      </trkpt>
      <trkpt lat="62.630698079504" lon="17.968497881409">
        <ele>70.4</ele>
        <time>2017-11-06T18:33:32Z</time>
      </trkpt>
      <trkpt lat="62.630693972373" lon="17.968481620523">
        <ele>70.4</ele>
        <time>2017-11-06T18:33:33Z</time>
      </trkpt>
      <trkpt lat="62.630687350672" lon="17.968465443456">
        <ele>70.2</ele>
        <time>2017-11-06T18:33:34Z</time>
      </trkpt>
      <trkpt lat="62.630682321532" lon="17.968447254733">
        <ele>70</ele>
        <time>2017-11-06T18:33:35Z</time>
      </trkpt>
      <trkpt lat="62.630675280736" lon="17.968431915856">
        <ele>69.8</ele>
        <time>2017-11-06T18:33:36Z</time>
      </trkpt>
      <trkpt lat="62.63066823994" lon="17.968412553667">
        <ele>69.8</ele>
        <time>2017-11-06T18:33:37Z</time>
      </trkpt>
      <trkpt lat="62.630662204972" lon="17.968391179822">
        <ele>69.6</ele>
        <time>2017-11-06T18:33:38Z</time>
      </trkpt>
      <trkpt lat="62.630657259651" lon="17.96836955452">
        <ele>69.4</ele>
        <time>2017-11-06T18:33:39Z</time>
      </trkpt>
      <trkpt lat="62.63065147614" lon="17.968350862883">
        <ele>69.2</ele>
        <time>2017-11-06T18:33:40Z</time>
      </trkpt>
      <trkpt lat="62.630644686801" lon="17.968327561201">
        <ele>69</ele>
        <time>2017-11-06T18:33:41Z</time>
      </trkpt>
      <trkpt lat="62.630636723996" lon="17.968303169872">
        <ele>69</ele>
        <time>2017-11-06T18:33:42Z</time>
      </trkpt>
      <trkpt lat="62.630628425915" lon="17.968281125475">
        <ele>68.8</ele>
        <time>2017-11-06T18:33:43Z</time>
      </trkpt>
      <trkpt lat="62.63062046311" lon="17.968265870417">
        <ele>68.6</ele>
        <time>2017-11-06T18:33:44Z</time>
      </trkpt>
      <trkpt lat="62.63061040483" lon="17.968241898183">
        <ele>68.4</ele>
        <time>2017-11-06T18:33:45Z</time>
      </trkpt>
      <trkpt lat="62.630602609663" lon="17.968222452175">
        <ele>68.2</ele>
        <time>2017-11-06T18:33:46Z</time>
      </trkpt>
      <trkpt lat="62.630594646858" lon="17.968203928176">
        <ele>68</ele>
        <time>2017-11-06T18:33:47Z</time>
      </trkpt>
      <trkpt lat="62.630588276614" lon="17.968181213227">
        <ele>68</ele>
        <time>2017-11-06T18:33:48Z</time>
      </trkpt>
      <trkpt lat="62.630578721248" lon="17.968153636776">
        <ele>67.8</ele>
        <time>2017-11-06T18:33:49Z</time>
      </trkpt>
      <trkpt lat="62.630570339348" lon="17.968127401429">
        <ele>67.8</ele>
        <time>2017-11-06T18:33:50Z</time>
      </trkpt>
      <trkpt lat="62.630562628" lon="17.968100663168">
        <ele>67.6</ele>
        <time>2017-11-06T18:33:51Z</time>
      </trkpt>
      <trkpt lat="62.630557263584" lon="17.968076104201">
        <ele>67.6</ele>
        <time>2017-11-06T18:33:52Z</time>
      </trkpt>
      <trkpt lat="62.63055089334" lon="17.96804601318">
        <ele>67.4</ele>
        <time>2017-11-06T18:33:53Z</time>
      </trkpt>
      <trkpt lat="62.630543433449" lon="17.968019694014">
        <ele>67.2</ele>
        <time>2017-11-06T18:33:54Z</time>
      </trkpt>
      <trkpt lat="62.630536392653" lon="17.967992871934">
        <ele>67.2</ele>
        <time>2017-11-06T18:33:55Z</time>
      </trkpt>
      <trkpt lat="62.630532034065" lon="17.967961691266">
        <ele>67</ele>
        <time>2017-11-06T18:33:56Z</time>
      </trkpt>
      <trkpt lat="62.630526166735" lon="17.967930762055">
        <ele>66.8</ele>
        <time>2017-11-06T18:33:57Z</time>
      </trkpt>
      <trkpt lat="62.63052155669" lon="17.967903772337">
        <ele>66.6</ele>
        <time>2017-11-06T18:33:58Z</time>
      </trkpt>
      <trkpt lat="62.630515773179" lon="17.967868065443">
        <ele>66.6</ele>
        <time>2017-11-06T18:33:59Z</time>
      </trkpt>
      <trkpt lat="62.63051149841" lon="17.967837806784">
        <ele>66.4</ele>
        <time>2017-11-06T18:34:00Z</time>
      </trkpt>
      <trkpt lat="62.630506050175" lon="17.967810146514">
        <ele>66.2</ele>
        <time>2017-11-06T18:34:01Z</time>
      </trkpt>
      <trkpt lat="62.630501943044" lon="17.967779133484">
        <ele>66.2</ele>
        <time>2017-11-06T18:34:02Z</time>
      </trkpt>
      <trkpt lat="62.630497919732" lon="17.967750635024">
        <ele>66</ele>
        <time>2017-11-06T18:34:03Z</time>
      </trkpt>
      <trkpt lat="62.630493477325" lon="17.967718616166">
        <ele>65.6</ele>
        <time>2017-11-06T18:34:04Z</time>
      </trkpt>
      <trkpt lat="62.630491046574" lon="17.967682573996">
        <ele>65.4</ele>
        <time>2017-11-06T18:34:05Z</time>
      </trkpt>
      <trkpt lat="62.630488783461" lon="17.967649633129">
        <ele>65.2</ele>
        <time>2017-11-06T18:34:06Z</time>
      </trkpt>
      <trkpt lat="62.630486604167" lon="17.967616608443">
        <ele>65</ele>
        <time>2017-11-06T18:34:07Z</time>
      </trkpt>
      <trkpt lat="62.630484508692" lon="17.967584589585">
        <ele>64.8</ele>
        <time>2017-11-06T18:34:08Z</time>
      </trkpt>
      <trkpt lat="62.63048383814" lon="17.967550559071">
        <ele>64.6</ele>
        <time>2017-11-06T18:34:09Z</time>
      </trkpt>
      <trkpt lat="62.630482245579" lon="17.967519713679">
        <ele>64.4</ele>
        <time>2017-11-06T18:34:10Z</time>
      </trkpt>
      <trkpt lat="62.630481742665" lon="17.967486521355">
        <ele>64.2</ele>
        <time>2017-11-06T18:34:11Z</time>
      </trkpt>
      <trkpt lat="62.630478892819" lon="17.967462716759">
        <ele>64.2</ele>
        <time>2017-11-06T18:34:12Z</time>
      </trkpt>
      <trkpt lat="62.63047713262" lon="17.967436481412">
        <ele>64</ele>
        <time>2017-11-06T18:34:13Z</time>
      </trkpt>
      <trkpt lat="62.630478222267" lon="17.967406558029">
        <ele>63.8</ele>
        <time>2017-11-06T18:34:14Z</time>
      </trkpt>
      <trkpt lat="62.630477719353" lon="17.967375964094">
        <ele>63.6</ele>
        <time>2017-11-06T18:34:15Z</time>
      </trkpt>
      <trkpt lat="62.630477384077" lon="17.967346543625">
        <ele>63.4</ele>
        <time>2017-11-06T18:34:16Z</time>
      </trkpt>
      <trkpt lat="62.630475791516" lon="17.96731678788">
        <ele>63.4</ele>
        <time>2017-11-06T18:34:17Z</time>
      </trkpt>
      <trkpt lat="62.630474115136" lon="17.967288457058">
        <ele>63.2</ele>
        <time>2017-11-06T18:34:18Z</time>
      </trkpt>
      <trkpt lat="62.630470594738" lon="17.967253169259">
        <ele>63.2</ele>
        <time>2017-11-06T18:34:19Z</time>
      </trkpt>
      <trkpt lat="62.6304704271" lon="17.967218887288">
        <ele>63</ele>
        <time>2017-11-06T18:34:20Z</time>
      </trkpt>
      <trkpt lat="62.63046958891" lon="17.967183264213">
        <ele>62.8</ele>
        <time>2017-11-06T18:34:21Z</time>
      </trkpt>
      <trkpt lat="62.6304704271" lon="17.967150490984">
        <ele>62.6</ele>
        <time>2017-11-06T18:34:22Z</time>
      </trkpt>
      <trkpt lat="62.630471013833" lon="17.967116544289">
        <ele>62.4</ele>
        <time>2017-11-06T18:34:23Z</time>
      </trkpt>
      <trkpt lat="62.630471768204" lon="17.967083268146">
        <ele>62.2</ele>
        <time>2017-11-06T18:34:24Z</time>
      </trkpt>
      <trkpt lat="62.630471600566" lon="17.967049572908">
        <ele>62</ele>
        <time>2017-11-06T18:34:25Z</time>
      </trkpt>
      <trkpt lat="62.630471684385" lon="17.967015710032">
        <ele>61.6</ele>
        <time>2017-11-06T18:34:26Z</time>
      </trkpt>
      <trkpt lat="62.630473193127" lon="17.966983858812">
        <ele>61.4</ele>
        <time>2017-11-06T18:34:27Z</time>
      </trkpt>
      <trkpt lat="62.630474115136" lon="17.966956282361">
        <ele>61.4</ele>
        <time>2017-11-06T18:34:28Z</time>
      </trkpt>
      <trkpt lat="62.630473863679" lon="17.966923341494">
        <ele>61.2</ele>
        <time>2017-11-06T18:34:29Z</time>
      </trkpt>
      <trkpt lat="62.630474785688" lon="17.966893921025">
        <ele>61</ele>
        <time>2017-11-06T18:34:30Z</time>
      </trkpt>
      <trkpt lat="62.630475623878" lon="17.966862991814">
        <ele>60.8</ele>
        <time>2017-11-06T18:34:31Z</time>
      </trkpt>
      <trkpt lat="62.630478054629" lon="17.966829548033">
        <ele>60.8</ele>
        <time>2017-11-06T18:34:32Z</time>
      </trkpt>
      <trkpt lat="62.630481072113" lon="17.966800043745">
        <ele>60.6</ele>
        <time>2017-11-06T18:34:33Z</time>
      </trkpt>
      <trkpt lat="62.63048299995" lon="17.966766432326">
        <ele>60.4</ele>
        <time>2017-11-06T18:34:34Z</time>
      </trkpt>
      <trkpt lat="62.630486604167" lon="17.966734497287">
        <ele>60.2</ele>
        <time>2017-11-06T18:34:35Z</time>
      </trkpt>
      <trkpt lat="62.630488448185" lon="17.966690324674">
        <ele>60.2</ele>
        <time>2017-11-06T18:34:36Z</time>
      </trkpt>
      <trkpt lat="62.630490376022" lon="17.966652522305">
        <ele>60</ele>
        <time>2017-11-06T18:34:37Z</time>
      </trkpt>
      <trkpt lat="62.630492555316" lon="17.966618240334">
        <ele>60</ele>
        <time>2017-11-06T18:34:38Z</time>
      </trkpt>
      <trkpt lat="62.630495405162" lon="17.966576582291">
        <ele>59.8</ele>
        <time>2017-11-06T18:34:39Z</time>
      </trkpt>
      <trkpt lat="62.630496830085" lon="17.966535008067">
        <ele>59.8</ele>
        <time>2017-11-06T18:34:40Z</time>
      </trkpt>
      <trkpt lat="62.630498506465" lon="17.96649536168">
        <ele>59.6</ele>
        <time>2017-11-06T18:34:41Z</time>
      </trkpt>
      <trkpt lat="62.630501272492" lon="17.966457894587">
        <ele>59.4</ele>
        <time>2017-11-06T18:34:42Z</time>
      </trkpt>
      <trkpt lat="62.630504373795" lon="17.966422690607">
        <ele>59.4</ele>
        <time>2017-11-06T18:34:43Z</time>
      </trkpt>
      <trkpt lat="62.630506720727" lon="17.966378098899">
        <ele>59.2</ele>
        <time>2017-11-06T18:34:44Z</time>
      </trkpt>
      <trkpt lat="62.63050814565" lon="17.966338703969">
        <ele>59</ele>
        <time>2017-11-06T18:34:45Z</time>
      </trkpt>
      <trkpt lat="62.630509989668" lon="17.966301572152">
        <ele>59</ele>
        <time>2017-11-06T18:34:46Z</time>
      </trkpt>
      <trkpt lat="62.630514432075" lon="17.966267625457">
        <ele>58.6</ele>
        <time>2017-11-06T18:34:47Z</time>
      </trkpt>
      <trkpt lat="62.630516443731" lon="17.966236444789">
        <ele>58.2</ele>
        <time>2017-11-06T18:34:48Z</time>
      </trkpt>
      <trkpt lat="62.630518287749" lon="17.966191350167">
        <ele>58</ele>
        <time>2017-11-06T18:34:49Z</time>
      </trkpt>
      <trkpt lat="62.63052155669" lon="17.966147009916">
        <ele>57.8</ele>
        <time>2017-11-06T18:34:50Z</time>
      </trkpt>
      <trkpt lat="62.630523568346" lon="17.966105351873">
        <ele>57.6</ele>
        <time>2017-11-06T18:34:51Z</time>
      </trkpt>
      <trkpt lat="62.630524155079" lon="17.966061430717">
        <ele>57.4</ele>
        <time>2017-11-06T18:34:52Z</time>
      </trkpt>
      <trkpt lat="62.630525077088" lon="17.96602346071">
        <ele>57.2</ele>
        <time>2017-11-06T18:34:53Z</time>
      </trkpt>
      <trkpt lat="62.63052658583" lon="17.965978952821">
        <ele>57</ele>
        <time>2017-11-06T18:34:54Z</time>
      </trkpt>
      <trkpt lat="62.63052574764" lon="17.965926565946">
        <ele>56.8</ele>
        <time>2017-11-06T18:34:55Z</time>
      </trkpt>
      <trkpt lat="62.630527172563" lon="17.965876442184">
        <ele>56.8</ele>
        <time>2017-11-06T18:34:56Z</time>
      </trkpt>
      <trkpt lat="62.630529184219" lon="17.965833694494">
        <ele>56.6</ele>
        <time>2017-11-06T18:34:57Z</time>
      </trkpt>
      <trkpt lat="62.630528513667" lon="17.96579966398">
        <ele>56.6</ele>
        <time>2017-11-06T18:34:58Z</time>
      </trkpt>
      <trkpt lat="62.630527172563" lon="17.965753814987">
        <ele>56.2</ele>
        <time>2017-11-06T18:34:59Z</time>
      </trkpt>
      <trkpt lat="62.63052658583" lon="17.965710564383">
        <ele>56.2</ele>
        <time>2017-11-06T18:35:00Z</time>
      </trkpt>
      <trkpt lat="62.630527256382" lon="17.965670331263">
        <ele>56</ele>
        <time>2017-11-06T18:35:01Z</time>
      </trkpt>
      <trkpt lat="62.630527675477" lon="17.965628086487">
        <ele>55.8</ele>
        <time>2017-11-06T18:35:02Z</time>
      </trkpt>
      <trkpt lat="62.63052993859" lon="17.965589110652">
        <ele>55.8</ele>
        <time>2017-11-06T18:35:03Z</time>
      </trkpt>
      <trkpt lat="62.630531782608" lon="17.965550470093">
        <ele>55.6</ele>
        <time>2017-11-06T18:35:04Z</time>
      </trkpt>
      <trkpt lat="62.630540918879" lon="17.965514008828">
        <ele>55.2</ele>
        <time>2017-11-06T18:35:06Z</time>
      </trkpt>
      <trkpt lat="62.630546283295" lon="17.965494730458">
        <ele>55.2</ele>
        <time>2017-11-06T18:35:07Z</time>
      </trkpt>
      <trkpt lat="62.630548546408" lon="17.965494143725">
        <ele>55</ele>
        <time>2017-11-06T18:35:08Z</time>
      </trkpt>
      <trkpt lat="62.630763374505" lon="17.965463130695">
        <ele>55</ele>
        <time>2017-11-06T18:35:34Z</time>
      </trkpt>
      <trkpt lat="62.630791537689" lon="17.96548115178">
        <ele>55.2</ele>
        <time>2017-11-06T18:35:35Z</time>
      </trkpt>
      <trkpt lat="62.630820874339" lon="17.965500681607">
        <ele>55.2</ele>
        <time>2017-11-06T18:35:36Z</time>
      </trkpt>
      <trkpt lat="62.630847109686" lon="17.965513254457">
        <ele>55.4</ele>
        <time>2017-11-06T18:35:37Z</time>
      </trkpt>
      <trkpt lat="62.630870662825" lon="17.96551635576">
        <ele>55.4</ele>
        <time>2017-11-06T18:35:38Z</time>
      </trkpt>
      <trkpt lat="62.630903519873" lon="17.96550965024">
        <ele>55.6</ele>
        <time>2017-11-06T18:35:39Z</time>
      </trkpt>
      <trkpt lat="62.630932605066" lon="17.965490874784">
        <ele>55.8</ele>
        <time>2017-11-06T18:35:40Z</time>
      </trkpt>
      <trkpt lat="62.630963031363" lon="17.965464471799">
        <ele>56.2</ele>
        <time>2017-11-06T18:35:41Z</time>
      </trkpt>
      <trkpt lat="62.630991026909" lon="17.965435302787">
        <ele>56.2</ele>
        <time>2017-11-06T18:35:42Z</time>
      </trkpt>
      <trkpt lat="62.631016004971" lon="17.965404541214">
        <ele>56.2</ele>
        <time>2017-11-06T18:35:43Z</time>
      </trkpt>
      <trkpt lat="62.63104374906" lon="17.965368415225">
        <ele>56.4</ele>
        <time>2017-11-06T18:35:44Z</time>
      </trkpt>
      <trkpt lat="62.631070990235" lon="17.965335390539">
        <ele>56.6</ele>
        <time>2017-11-06T18:35:45Z</time>
      </trkpt>
      <trkpt lat="62.631094543374" lon="17.96530261731">
        <ele>56.6</ele>
        <time>2017-11-06T18:35:46Z</time>
      </trkpt>
      <trkpt lat="62.631123209472" lon="17.965278225981">
        <ele>56.6</ele>
        <time>2017-11-06T18:35:47Z</time>
      </trkpt>
      <trkpt lat="62.631149025724" lon="17.965271855737">
        <ele>56.6</ele>
        <time>2017-11-06T18:35:48Z</time>
      </trkpt>
      <trkpt lat="62.631182469505" lon="17.965286440243">
        <ele>56.8</ele>
        <time>2017-11-06T18:35:49Z</time>
      </trkpt>
      <trkpt lat="62.631209794499" lon="17.965312507952">
        <ele>56.8</ele>
        <time>2017-11-06T18:35:50Z</time>
      </trkpt>
      <trkpt lat="62.631233682914" lon="17.965343101887">
        <ele>56.8</ele>
        <time>2017-11-06T18:35:51Z</time>
      </trkpt>
      <trkpt lat="62.631256146406" lon="17.965376042754">
        <ele>57</ele>
        <time>2017-11-06T18:35:52Z</time>
      </trkpt>
      <trkpt lat="62.63128011864" lon="17.965403703024">
        <ele>57.2</ele>
        <time>2017-11-06T18:35:53Z</time>
      </trkpt>
      <trkpt lat="62.631306605444" lon="17.965432033846">
        <ele>57.4</ele>
        <time>2017-11-06T18:35:54Z</time>
      </trkpt>
      <trkpt lat="62.63133124823" lon="17.965460867582">
        <ele>57.6</ele>
        <time>2017-11-06T18:35:55Z</time>
      </trkpt>
      <trkpt lat="62.631353376446" lon="17.965484253083">
        <ele>57.8</ele>
        <time>2017-11-06T18:35:56Z</time>
      </trkpt>
      <trkpt lat="62.631377767775" lon="17.965513505914">
        <ele>57.8</ele>
        <time>2017-11-06T18:35:57Z</time>
      </trkpt>
      <trkpt lat="62.63139997981" lon="17.965539405985">
        <ele>58</ele>
        <time>2017-11-06T18:35:58Z</time>
      </trkpt>
      <trkpt lat="62.631426298976" lon="17.965568994092">
        <ele>58.2</ele>
        <time>2017-11-06T18:35:59Z</time>
      </trkpt>
      <trkpt lat="62.631452450504" lon="17.96559766019">
        <ele>58.2</ele>
        <time>2017-11-06T18:36:00Z</time>
      </trkpt>
      <trkpt lat="62.631477428566" lon="17.965623476442">
        <ele>58.4</ele>
        <time>2017-11-06T18:36:01Z</time>
      </trkpt>
      <trkpt lat="62.631502490447" lon="17.965646107572">
        <ele>58.4</ele>
        <time>2017-11-06T18:36:02Z</time>
      </trkpt>
      <trkpt lat="62.631525875948" lon="17.965669325435">
        <ele>58.6</ele>
        <time>2017-11-06T18:36:03Z</time>
      </trkpt>
      <trkpt lat="62.631549261449" lon="17.965694219678">
        <ele>58.6</ele>
        <time>2017-11-06T18:36:04Z</time>
      </trkpt>
      <trkpt lat="62.631577005538" lon="17.965718694826">
        <ele>58.8</ele>
        <time>2017-11-06T18:36:05Z</time>
      </trkpt>
      <trkpt lat="62.631601899781" lon="17.96574518163">
        <ele>58.8</ele>
        <time>2017-11-06T18:36:06Z</time>
      </trkpt>
      <trkpt lat="62.631625285282" lon="17.965767561303">
        <ele>58.8</ele>
        <time>2017-11-06T18:36:07Z</time>
      </trkpt>
      <trkpt lat="62.631650095706" lon="17.965788096958">
        <ele>59</ele>
        <time>2017-11-06T18:36:08Z</time>
      </trkpt>
      <trkpt lat="62.631676247234" lon="17.96581139864">
        <ele>59.2</ele>
        <time>2017-11-06T18:36:09Z</time>
      </trkpt>
      <trkpt lat="62.631699046002" lon="17.965830928467">
        <ele>59.4</ele>
        <time>2017-11-06T18:36:10Z</time>
      </trkpt>
      <trkpt lat="62.631723856426" lon="17.965853224321">
        <ele>59.4</ele>
        <time>2017-11-06T18:36:11Z</time>
      </trkpt>
      <trkpt lat="62.631746739013" lon="17.965874765804">
        <ele>59.6</ele>
        <time>2017-11-06T18:36:12Z</time>
      </trkpt>
      <trkpt lat="62.63176878341" lon="17.965890020862">
        <ele>59.8</ele>
        <time>2017-11-06T18:36:13Z</time>
      </trkpt>
      <trkpt lat="62.631795270214" lon="17.965910556517">
        <ele>60</ele>
        <time>2017-11-06T18:36:14Z</time>
      </trkpt>
      <trkpt lat="62.631819745362" lon="17.965924721928">
        <ele>60</ele>
        <time>2017-11-06T18:36:15Z</time>
      </trkpt>
      <trkpt lat="62.63184422051" lon="17.965938971158">
        <ele>60.2</ele>
        <time>2017-11-06T18:36:16Z</time>
      </trkpt>
      <trkpt lat="62.631873892436" lon="17.965958249528">
        <ele>60.2</ele>
        <time>2017-11-06T18:36:17Z</time>
      </trkpt>
      <trkpt lat="62.631896272109" lon="17.965971912025">
        <ele>60.2</ele>
        <time>2017-11-06T18:36:18Z</time>
      </trkpt>
      <trkpt lat="62.631921669266" lon="17.96598993311">
        <ele>60.4</ele>
        <time>2017-11-06T18:36:19Z</time>
      </trkpt>
      <trkpt lat="62.6319456415" lon="17.96600669691">
        <ele>60.4</ele>
        <time>2017-11-06T18:36:20Z</time>
      </trkpt>
      <trkpt lat="62.631967853535" lon="17.966020275588">
        <ele>60.6</ele>
        <time>2017-11-06T18:36:21Z</time>
      </trkpt>
      <trkpt lat="62.631989562656" lon="17.966036955569">
        <ele>60.6</ele>
        <time>2017-11-06T18:36:22Z</time>
      </trkpt>
      <trkpt lat="62.632013451071" lon="17.966055814844">
        <ele>60.6</ele>
        <time>2017-11-06T18:36:23Z</time>
      </trkpt>
      <trkpt lat="62.632037507124" lon="17.966071572816">
        <ele>60.8</ele>
        <time>2017-11-06T18:36:24Z</time>
      </trkpt>
      <trkpt lat="62.632063407195" lon="17.966090851186">
        <ele>60.8</ele>
        <time>2017-11-06T18:36:25Z</time>
      </trkpt>
      <trkpt lat="62.632087798524" lon="17.966107866443">
        <ele>60.8</ele>
        <time>2017-11-06T18:36:26Z</time>
      </trkpt>
      <trkpt lat="62.632112608948" lon="17.966126390442">
        <ele>61</ele>
        <time>2017-11-06T18:36:27Z</time>
      </trkpt>
      <trkpt lat="62.632134904802" lon="17.966146255545">
        <ele>61.2</ele>
        <time>2017-11-06T18:36:28Z</time>
      </trkpt>
      <trkpt lat="62.632159128493" lon="17.966180034602">
        <ele>61.2</ele>
        <time>2017-11-06T18:36:29Z</time>
      </trkpt>
      <trkpt lat="62.632175892293" lon="17.966224877767">
        <ele>61.4</ele>
        <time>2017-11-06T18:36:30Z</time>
      </trkpt>
      <trkpt lat="62.632186537306" lon="17.966275169167">
        <ele>61.6</ele>
        <time>2017-11-06T18:36:31Z</time>
      </trkpt>
      <trkpt lat="62.632192991369" lon="17.966333423372">
        <ele>61.8</ele>
        <time>2017-11-06T18:36:32Z</time>
      </trkpt>
      <trkpt lat="62.63219374574" lon="17.966388995369">
        <ele>62.2</ele>
        <time>2017-11-06T18:36:33Z</time>
      </trkpt>
      <trkpt lat="62.632193829559" lon="17.966446579022">
        <ele>62.4</ele>
        <time>2017-11-06T18:36:34Z</time>
      </trkpt>
      <trkpt lat="62.632190644437" lon="17.966503492123">
        <ele>62.4</ele>
        <time>2017-11-06T18:36:35Z</time>
      </trkpt>
      <trkpt lat="62.632187543134" lon="17.966560489043">
        <ele>62.6</ele>
        <time>2017-11-06T18:36:36Z</time>
      </trkpt>
      <trkpt lat="62.632186034392" lon="17.966613462651">
        <ele>62.8</ele>
        <time>2017-11-06T18:36:37Z</time>
      </trkpt>
      <trkpt lat="62.63218201108" lon="17.966664508422">
        <ele>62.8</ele>
        <time>2017-11-06T18:36:38Z</time>
      </trkpt>
      <trkpt lat="62.632174383551" lon="17.966722259713">
        <ele>63.2</ele>
        <time>2017-11-06T18:36:39Z</time>
      </trkpt>
      <trkpt lat="62.632167594212" lon="17.966776574425">
        <ele>63.2</ele>
        <time>2017-11-06T18:36:40Z</time>
      </trkpt>
      <trkpt lat="62.632159296131" lon="17.96683566682">
        <ele>63.4</ele>
        <time>2017-11-06T18:36:41Z</time>
      </trkpt>
      <trkpt lat="62.632153093525" lon="17.966890484446">
        <ele>63.8</ele>
        <time>2017-11-06T18:36:42Z</time>
      </trkpt>
      <trkpt lat="62.632146974738" lon="17.966941530217">
        <ele>64</ele>
        <time>2017-11-06T18:36:43Z</time>
      </trkpt>
      <trkpt lat="62.632138760476" lon="17.966999784422">
        <ele>64</ele>
        <time>2017-11-06T18:36:44Z</time>
      </trkpt>
      <trkpt lat="62.632131635861" lon="17.967052925668">
        <ele>64.2</ele>
        <time>2017-11-06T18:36:45Z</time>
      </trkpt>
      <trkpt lat="62.632123086323" lon="17.967099277575">
        <ele>64.4</ele>
        <time>2017-11-06T18:36:46Z</time>
      </trkpt>
      <trkpt lat="62.632113028043" lon="17.967155184848">
        <ele>64.6</ele>
        <time>2017-11-06T18:36:47Z</time>
      </trkpt>
      <trkpt lat="62.632102131573" lon="17.967202039669">
        <ele>64.6</ele>
        <time>2017-11-06T18:36:48Z</time>
      </trkpt>
      <trkpt lat="62.632088636714" lon="17.967249145947">
        <ele>64.8</ele>
        <time>2017-11-06T18:36:49Z</time>
      </trkpt>
      <trkpt lat="62.632076315321" lon="17.967296503682">
        <ele>65</ele>
        <time>2017-11-06T18:36:50Z</time>
      </trkpt>
      <trkpt lat="62.63206634086" lon="17.967343777598">
        <ele>65.2</ele>
        <time>2017-11-06T18:36:51Z</time>
      </trkpt>
      <trkpt lat="62.632056450218" lon="17.96739222498">
        <ele>65.4</ele>
        <time>2017-11-06T18:36:52Z</time>
      </trkpt>
      <trkpt lat="62.632043625911" lon="17.967440756181">
        <ele>65.6</ele>
        <time>2017-11-06T18:36:53Z</time>
      </trkpt>
      <trkpt lat="62.632027867939" lon="17.967489203563">
        <ele>66</ele>
        <time>2017-11-06T18:36:54Z</time>
      </trkpt>
      <trkpt lat="62.632013283433" lon="17.967533795271">
        <ele>66.2</ele>
        <time>2017-11-06T18:36:55Z</time>
      </trkpt>
      <trkpt lat="62.631998279832" lon="17.967579057531">
        <ele>66.6</ele>
        <time>2017-11-06T18:36:56Z</time>
      </trkpt>
      <trkpt lat="62.631982857136" lon="17.967626666723">
        <ele>66.8</ele>
        <time>2017-11-06T18:36:57Z</time>
      </trkpt>
      <trkpt lat="62.631972295942" lon="17.967667486576">
        <ele>67</ele>
        <time>2017-11-06T18:36:58Z</time>
      </trkpt>
      <trkpt lat="62.631957459979" lon="17.967717526519">
        <ele>67.2</ele>
        <time>2017-11-06T18:36:59Z</time>
      </trkpt>
      <trkpt lat="62.631943881301" lon="17.967764046064">
        <ele>67.4</ele>
        <time>2017-11-06T18:37:00Z</time>
      </trkpt>
      <trkpt lat="62.631932649555" lon="17.967810733247">
        <ele>67.4</ele>
        <time>2017-11-06T18:37:01Z</time>
      </trkpt>
      <trkpt lat="62.631917897411" lon="17.967857671887">
        <ele>67.6</ele>
        <time>2017-11-06T18:37:02Z</time>
      </trkpt>
      <trkpt lat="62.631904486371" lon="17.96790016812">
        <ele>67.8</ele>
        <time>2017-11-06T18:37:03Z</time>
      </trkpt>
      <trkpt lat="62.631891913521" lon="17.967946687665">
        <ele>68</ele>
        <time>2017-11-06T18:37:04Z</time>
      </trkpt>
      <trkpt lat="62.631875652635" lon="17.967996057056">
        <ele>68.2</ele>
        <time>2017-11-06T18:37:05Z</time>
      </trkpt>
      <trkpt lat="62.631862073957" lon="17.96803930766">
        <ele>68.4</ele>
        <time>2017-11-06T18:37:06Z</time>
      </trkpt>
      <trkpt lat="62.631848830555" lon="17.968088006499">
        <ele>68.8</ele>
        <time>2017-11-06T18:37:07Z</time>
      </trkpt>
      <trkpt lat="62.631836173886" lon="17.968131257103">
        <ele>69</ele>
        <time>2017-11-06T18:37:08Z</time>
      </trkpt>
      <trkpt lat="62.631823181941" lon="17.968177692829">
        <ele>69.2</ele>
        <time>2017-11-06T18:37:09Z</time>
      </trkpt>
      <trkpt lat="62.631809770901" lon="17.968222619813">
        <ele>69.4</ele>
        <time>2017-11-06T18:37:10Z</time>
      </trkpt>
      <trkpt lat="62.631796108404" lon="17.968269977548">
        <ele>69.6</ele>
        <time>2017-11-06T18:37:11Z</time>
      </trkpt>
      <trkpt lat="62.631783787011" lon="17.968318676387">
        <ele>69.8</ele>
        <time>2017-11-06T18:37:12Z</time>
      </trkpt>
      <trkpt lat="62.631770711247" lon="17.968363351914">
        <ele>69.8</ele>
        <time>2017-11-06T18:37:13Z</time>
      </trkpt>
      <trkpt lat="62.631758222216" lon="17.968415152056">
        <ele>70.2</ele>
        <time>2017-11-06T18:37:14Z</time>
      </trkpt>
      <trkpt lat="62.631744811176" lon="17.968463347981">
        <ele>70.4</ele>
        <time>2017-11-06T18:37:15Z</time>
      </trkpt>
      <trkpt lat="62.631735423448" lon="17.968505089843">
        <ele>70.6</ele>
        <time>2017-11-06T18:37:16Z</time>
      </trkpt>
      <trkpt lat="62.631723185874" lon="17.968558901641">
        <ele>70.8</ele>
        <time>2017-11-06T18:37:17Z</time>
      </trkpt>
      <trkpt lat="62.63171430106" lon="17.96861011505">
        <ele>71</ele>
        <time>2017-11-06T18:37:18Z</time>
      </trkpt>
      <trkpt lat="62.631704829513" lon="17.968655712586">
        <ele>71.2</ele>
        <time>2017-11-06T18:37:19Z</time>
      </trkpt>
      <trkpt lat="62.631695693242" lon="17.96870315414">
        <ele>71.4</ele>
        <time>2017-11-06T18:37:20Z</time>
      </trkpt>
      <trkpt lat="62.631689071541" lon="17.968754451368">
        <ele>71.6</ele>
        <time>2017-11-06T18:37:21Z</time>
      </trkpt>
      <trkpt lat="62.631684461496" lon="17.968804239854">
        <ele>71.8</ele>
        <time>2017-11-06T18:37:22Z</time>
      </trkpt>
      <trkpt lat="62.631683874763" lon="17.968855872358">
        <ele>72</ele>
        <time>2017-11-06T18:37:23Z</time>
      </trkpt>
      <trkpt lat="62.631686137876" lon="17.968907253405">
        <ele>72.2</ele>
        <time>2017-11-06T18:37:24Z</time>
      </trkpt>
      <trkpt lat="62.631690999378" lon="17.968955197873">
        <ele>72.4</ele>
        <time>2017-11-06T18:37:25Z</time>
      </trkpt>
      <trkpt lat="62.631695944699" lon="17.968999789581">
        <ele>72.8</ele>
        <time>2017-11-06T18:37:26Z</time>
      </trkpt>
      <trkpt lat="62.63170089002" lon="17.969042537271">
        <ele>72.8</ele>
        <time>2017-11-06T18:37:27Z</time>
      </trkpt>
      <trkpt lat="62.631704661875" lon="17.96908704516">
        <ele>73</ele>
        <time>2017-11-06T18:37:28Z</time>
      </trkpt>
      <trkpt lat="62.631707930816" lon="17.969144293537">
        <ele>73.2</ele>
        <time>2017-11-06T18:37:29Z</time>
      </trkpt>
      <trkpt lat="62.631713295232" lon="17.969195255489">
        <ele>73.6</ele>
        <time>2017-11-06T18:37:30Z</time>
      </trkpt>
      <trkpt lat="62.631718408191" lon="17.969245546889">
        <ele>73.6</ele>
        <time>2017-11-06T18:37:31Z</time>
      </trkpt>
      <trkpt lat="62.631724694616" lon="17.969294329547">
        <ele>73.8</ele>
        <time>2017-11-06T18:37:32Z</time>
      </trkpt>
      <trkpt lat="62.631730645765" lon="17.969339256531">
        <ele>73.8</ele>
        <time>2017-11-06T18:37:33Z</time>
      </trkpt>
      <trkpt lat="62.63173777038" lon="17.969388039189">
        <ele>74.2</ele>
        <time>2017-11-06T18:37:34Z</time>
      </trkpt>
      <trkpt lat="62.631744392081" lon="17.969435061648">
        <ele>74.2</ele>
        <time>2017-11-06T18:37:35Z</time>
      </trkpt>
      <trkpt lat="62.631748415393" lon="17.969479485718">
        <ele>74.4</ele>
        <time>2017-11-06T18:37:36Z</time>
      </trkpt>
      <trkpt lat="62.631749253583" lon="17.969526089082">
        <ele>74.6</ele>
        <time>2017-11-06T18:37:37Z</time>
      </trkpt>
      <trkpt lat="62.631744392081" lon="17.969572440989">
        <ele>74.8</ele>
        <time>2017-11-06T18:37:38Z</time>
      </trkpt>
      <trkpt lat="62.631732154507" lon="17.969621642742">
        <ele>75.2</ele>
        <time>2017-11-06T18:37:39Z</time>
      </trkpt>
      <trkpt lat="62.631716480354" lon="17.969659193654">
        <ele>75.4</ele>
        <time>2017-11-06T18:37:40Z</time>
      </trkpt>
      <trkpt lat="62.631695525604" lon="17.969690374322">
        <ele>75.4</ele>
        <time>2017-11-06T18:37:41Z</time>
      </trkpt>
      <trkpt lat="62.631673481207" lon="17.969716944945">
        <ele>75.6</ele>
        <time>2017-11-06T18:37:42Z</time>
      </trkpt>
      <trkpt lat="62.631654873389" lon="17.969738234971">
        <ele>75.8</ele>
        <time>2017-11-06T18:37:43Z</time>
      </trkpt>
      <trkpt lat="62.631632912811" lon="17.96976011173">
        <ele>76</ele>
        <time>2017-11-06T18:37:44Z</time>
      </trkpt>
      <trkpt lat="62.631609778767" lon="17.969774612417">
        <ele>76.2</ele>
        <time>2017-11-06T18:37:45Z</time>
      </trkpt>
      <trkpt lat="62.631591673863" lon="17.969787688181">
        <ele>76.2</ele>
        <time>2017-11-06T18:37:46Z</time>
      </trkpt>
      <trkpt lat="62.631564935602" lon="17.969809397302">
        <ele>76.4</ele>
        <time>2017-11-06T18:37:47Z</time>
      </trkpt>
      <trkpt lat="62.631541801558" lon="17.969820629048">
        <ele>76.4</ele>
        <time>2017-11-06T18:37:48Z</time>
      </trkpt>
      <trkpt lat="62.631517829324" lon="17.969830352052">
        <ele>76.4</ele>
        <time>2017-11-06T18:37:49Z</time>
      </trkpt>
      <trkpt lat="62.631494108547" lon="17.969840326513">
        <ele>76.4</ele>
        <time>2017-11-06T18:37:50Z</time>
      </trkpt>
      <trkpt lat="62.631469046666" lon="17.969853653734">
        <ele>76.6</ele>
        <time>2017-11-06T18:37:51Z</time>
      </trkpt>
      <trkpt lat="62.631448091916" lon="17.969867902964">
        <ele>76.6</ele>
        <time>2017-11-06T18:37:52Z</time>
      </trkpt>
      <trkpt lat="62.631424706415" lon="17.969879386167">
        <ele>76.8</ele>
        <time>2017-11-06T18:37:53Z</time>
      </trkpt>
      <trkpt lat="62.631399225439" lon="17.96989086937">
        <ele>76.8</ele>
        <time>2017-11-06T18:37:54Z</time>
      </trkpt>
      <trkpt lat="62.631375420843" lon="17.969905202419">
        <ele>76.8</ele>
        <time>2017-11-06T18:37:55Z</time>
      </trkpt>
      <trkpt lat="62.631350358962" lon="17.969922804409">
        <ele>76.8</ele>
        <time>2017-11-06T18:37:56Z</time>
      </trkpt>
      <trkpt lat="62.631325045624" lon="17.969943507702">
        <ele>77</ele>
        <time>2017-11-06T18:37:57Z</time>
      </trkpt>
      <trkpt lat="62.631303755598" lon="17.969957254018">
        <ele>77</ele>
        <time>2017-11-06T18:37:58Z</time>
      </trkpt>
      <trkpt lat="62.631275508595" lon="17.969973179628">
        <ele>77</ele>
        <time>2017-11-06T18:37:59Z</time>
      </trkpt>
      <trkpt lat="62.631251033447" lon="17.969987847953">
        <ele>77.2</ele>
        <time>2017-11-06T18:38:00Z</time>
      </trkpt>
      <trkpt lat="62.631228821412" lon="17.969998744423">
        <ele>77.2</ele>
        <time>2017-11-06T18:38:01Z</time>
      </trkpt>
      <trkpt lat="62.631202669884" lon="17.970012323101">
        <ele>77.2</ele>
        <time>2017-11-06T18:38:02Z</time>
      </trkpt>
      <trkpt lat="62.631180122573" lon="17.97002917072">
        <ele>77.2</ele>
        <time>2017-11-06T18:38:03Z</time>
      </trkpt>
      <trkpt lat="62.631155731244" lon="17.970048365271">
        <ele>77.2</ele>
        <time>2017-11-06T18:38:04Z</time>
      </trkpt>
      <trkpt lat="62.631133603028" lon="17.970061441035">
        <ele>77.2</ele>
        <time>2017-11-06T18:38:05Z</time>
      </trkpt>
      <trkpt lat="62.63110409874" lon="17.970075354989">
        <ele>77.2</ele>
        <time>2017-11-06T18:38:06Z</time>
      </trkpt>
      <trkpt lat="62.631079707411" lon="17.970085916183">
        <ele>77.2</ele>
        <time>2017-11-06T18:38:07Z</time>
      </trkpt>
      <trkpt lat="62.631055232263" lon="17.970091532056">
        <ele>77.2</ele>
        <time>2017-11-06T18:38:08Z</time>
      </trkpt>
      <trkpt lat="62.631017262256" lon="17.970098405214">
        <ele>77.4</ele>
        <time>2017-11-06T18:38:10Z</time>
      </trkpt>
      <trkpt lat="62.631001588103" lon="17.970102763802">
        <ele>77.6</ele>
        <time>2017-11-06T18:38:11Z</time>
      </trkpt>
      <trkpt lat="62.63098842852" lon="17.970110139874">
        <ele>77.8</ele>
        <time>2017-11-06T18:38:12Z</time>
      </trkpt>
      <trkpt lat="62.630977364412" lon="17.970119276145">
        <ele>78</ele>
        <time>2017-11-06T18:38:13Z</time>
      </trkpt>
      <trkpt lat="62.630966551761" lon="17.970126568398">
        <ele>78</ele>
        <time>2017-11-06T18:38:14Z</time>
      </trkpt>
      <trkpt lat="62.630957834585" lon="17.970131346081">
        <ele>78.2</ele>
        <time>2017-11-06T18:38:15Z</time>
      </trkpt>
      <trkpt lat="62.630948698314" lon="17.970131765176">
        <ele>78.2</ele>
        <time>2017-11-06T18:38:16Z</time>
      </trkpt>
      <trkpt lat="62.630936879835" lon="17.970128831511">
        <ele>78</ele>
        <time>2017-11-06T18:38:17Z</time>
      </trkpt>
      <trkpt lat="62.630930341953" lon="17.97012472438">
        <ele>77.8</ele>
        <time>2017-11-06T18:38:18Z</time>
      </trkpt>
      <trkpt lat="62.630927324469" lon="17.970113324996">
        <ele>77.8</ele>
        <time>2017-11-06T18:38:19Z</time>
      </trkpt>
      <trkpt lat="62.630926318641" lon="17.970102177069">
        <ele>77.8</ele>
        <time>2017-11-06T18:38:20Z</time>
      </trkpt>
      <trkpt lat="62.630927995021" lon="17.970089101305">
        <ele>77.8</ele>
        <time>2017-11-06T18:38:21Z</time>
      </trkpt>
      <trkpt lat="62.63092891703" lon="17.970077282826">
        <ele>78</ele>
        <time>2017-11-06T18:38:22Z</time>
      </trkpt>
      <trkpt lat="62.630931599238" lon="17.970068314193">
        <ele>78</ele>
        <time>2017-11-06T18:38:23Z</time>
      </trkpt>
      <trkpt lat="62.630934532903" lon="17.970064290881">
        <ele>78.2</ele>
        <time>2017-11-06T18:38:24Z</time>
      </trkpt>
      <trkpt lat="62.630932018333" lon="17.970068314193">
        <ele>78.2</ele>
        <time>2017-11-06T18:38:25Z</time>
      </trkpt>
      <trkpt lat="62.630866471875" lon="17.969592222273">
        <ele>76.2</ele>
        <time>2017-11-06T18:39:05Z</time>
      </trkpt>
      <trkpt lat="62.630863119115" lon="17.969572524808">
        <ele>76</ele>
        <time>2017-11-06T18:39:06Z</time>
      </trkpt>
      <trkpt lat="62.630860520726" lon="17.969538997208">
        <ele>75.8</ele>
        <time>2017-11-06T18:39:07Z</time>
      </trkpt>
      <trkpt lat="62.630858257613" lon="17.96951536025">
        <ele>75.8</ele>
        <time>2017-11-06T18:39:08Z</time>
      </trkpt>
      <trkpt lat="62.630854066663" lon="17.969491807111">
        <ele>75.4</ele>
        <time>2017-11-06T18:39:09Z</time>
      </trkpt>
      <trkpt lat="62.630851216817" lon="17.96946506885">
        <ele>75.4</ele>
        <time>2017-11-06T18:39:10Z</time>
      </trkpt>
      <trkpt lat="62.630848115514" lon="17.969436486571">
        <ele>75.2</ele>
        <time>2017-11-06T18:39:11Z</time>
      </trkpt>
      <trkpt lat="62.630845181849" lon="17.969410670319">
        <ele>75.2</ele>
        <time>2017-11-06T18:39:12Z</time>
      </trkpt>
      <trkpt lat="62.63084174527" lon="17.96938711718">
        <ele>75</ele>
        <time>2017-11-06T18:39:13Z</time>
      </trkpt>
      <trkpt lat="62.630839146881" lon="17.9693602951">
        <ele>75</ele>
        <time>2017-11-06T18:39:14Z</time>
      </trkpt>
      <trkpt lat="62.630837302863" lon="17.969332215735">
        <ele>74.8</ele>
        <time>2017-11-06T18:39:15Z</time>
      </trkpt>
      <trkpt lat="62.630835710302" lon="17.969303968732">
        <ele>74.8</ele>
        <time>2017-11-06T18:39:16Z</time>
      </trkpt>
      <trkpt lat="62.630833531008" lon="17.969275721729">
        <ele>74.6</ele>
        <time>2017-11-06T18:39:17Z</time>
      </trkpt>
      <trkpt lat="62.630831351714" lon="17.969248061459">
        <ele>74.4</ele>
        <time>2017-11-06T18:39:18Z</time>
      </trkpt>
      <trkpt lat="62.630826993126" lon="17.969215372049">
        <ele>74.4</ele>
        <time>2017-11-06T18:39:19Z</time>
      </trkpt>
      <trkpt lat="62.630822550719" lon="17.969186203037">
        <ele>74.2</ele>
        <time>2017-11-06T18:39:20Z</time>
      </trkpt>
      <trkpt lat="62.630819784692" lon="17.969156531111">
        <ele>74.2</ele>
        <time>2017-11-06T18:39:21Z</time>
      </trkpt>
      <trkpt lat="62.630817940674" lon="17.969139096759">
        <ele>74</ele>
        <time>2017-11-06T18:39:22Z</time>
      </trkpt>
      <trkpt lat="62.630814504095" lon="17.969099450372">
        <ele>73.8</ele>
        <time>2017-11-06T18:39:23Z</time>
      </trkpt>
      <trkpt lat="62.630810480783" lon="17.96906860498">
        <ele>73.6</ele>
        <time>2017-11-06T18:39:24Z</time>
      </trkpt>
      <trkpt lat="62.630807630937" lon="17.96903843014">
        <ele>73.6</ele>
        <time>2017-11-06T18:39:25Z</time>
      </trkpt>
      <trkpt lat="62.630806038376" lon="17.969009344947">
        <ele>73.4</ele>
        <time>2017-11-06T18:39:26Z</time>
      </trkpt>
      <trkpt lat="62.630807798575" lon="17.968982606686">
        <ele>73</ele>
        <time>2017-11-06T18:39:27Z</time>
      </trkpt>
      <trkpt lat="62.630808636765" lon="17.968960646108">
        <ele>72.8</ele>
        <time>2017-11-06T18:39:28Z</time>
      </trkpt>
      <trkpt lat="62.630808552946" lon="17.968931309458">
        <ele>72.6</ele>
        <time>2017-11-06T18:39:29Z</time>
      </trkpt>
      <trkpt lat="62.630806960385" lon="17.968907001948">
        <ele>72.6</ele>
        <time>2017-11-06T18:39:30Z</time>
      </trkpt>
      <trkpt lat="62.630803523806" lon="17.968879257859">
        <ele>72.2</ele>
        <time>2017-11-06T18:39:31Z</time>
      </trkpt>
      <trkpt lat="62.630798578485" lon="17.968858889842">
        <ele>72</ele>
        <time>2017-11-06T18:39:32Z</time>
      </trkpt>
      <trkpt lat="62.630793465526" lon="17.968834079418">
        <ele>72</ele>
        <time>2017-11-06T18:39:33Z</time>
      </trkpt>
      <trkpt lat="62.630788771662" lon="17.968809017537">
        <ele>71.8</ele>
        <time>2017-11-06T18:39:34Z</time>
      </trkpt>
      <trkpt lat="62.630784413074" lon="17.96878864952">
        <ele>71.6</ele>
        <time>2017-11-06T18:39:35Z</time>
      </trkpt>
      <trkpt lat="62.630778294287" lon="17.968769035874">
        <ele>71.6</ele>
        <time>2017-11-06T18:39:36Z</time>
      </trkpt>
      <trkpt lat="62.630767313998" lon="17.968748835495">
        <ele>71.4</ele>
        <time>2017-11-06T18:39:37Z</time>
      </trkpt>
      <trkpt lat="62.630761362849" lon="17.968726874917">
        <ele>71.2</ele>
        <time>2017-11-06T18:39:38Z</time>
      </trkpt>
      <trkpt lat="62.630750466379" lon="17.968696364801">
        <ele>71</ele>
        <time>2017-11-06T18:39:39Z</time>
      </trkpt>
      <trkpt lat="62.630743174126" lon="17.968676499698">
        <ele>71</ele>
        <time>2017-11-06T18:39:40Z</time>
      </trkpt>
      <trkpt lat="62.630733032027" lon="17.96864867179">
        <ele>70.8</ele>
        <time>2017-11-06T18:39:41Z</time>
      </trkpt>
      <trkpt lat="62.630723476661" lon="17.968618832226">
        <ele>70.8</ele>
        <time>2017-11-06T18:39:42Z</time>
      </trkpt>
      <trkpt lat="62.63071601677" lon="17.968601230236">
        <ele>70.8</ele>
        <time>2017-11-06T18:39:43Z</time>
      </trkpt>
      <trkpt lat="62.630704785024" lon="17.968575916898">
        <ele>70.6</ele>
        <time>2017-11-06T18:39:44Z</time>
      </trkpt>
      <trkpt lat="62.630698750056" lon="17.968554459234">
        <ele>70.6</ele>
        <time>2017-11-06T18:39:45Z</time>
      </trkpt>
      <trkpt lat="62.630690787251" lon="17.968537108701">
        <ele>70.4</ele>
        <time>2017-11-06T18:39:46Z</time>
      </trkpt>
      <trkpt lat="62.630683914093" lon="17.968521183091">
        <ele>70.2</ele>
        <time>2017-11-06T18:39:47Z</time>
      </trkpt>
      <trkpt lat="62.630675616012" lon="17.968499557789">
        <ele>70</ele>
        <time>2017-11-06T18:39:48Z</time>
      </trkpt>
      <trkpt lat="62.630665557732" lon="17.968474915003">
        <ele>69.6</ele>
        <time>2017-11-06T18:39:49Z</time>
      </trkpt>
      <trkpt lat="62.630655415633" lon="17.968456391004">
        <ele>69.6</ele>
        <time>2017-11-06T18:39:50Z</time>
      </trkpt>
      <trkpt lat="62.630644854439" lon="17.968428311639">
        <ele>69.2</ele>
        <time>2017-11-06T18:39:51Z</time>
      </trkpt>
      <trkpt lat="62.630635215254" lon="17.968404339405">
        <ele>69</ele>
        <time>2017-11-06T18:39:52Z</time>
      </trkpt>
      <trkpt lat="62.630626246621" lon="17.968375589488">
        <ele>68.8</ele>
        <time>2017-11-06T18:39:53Z</time>
      </trkpt>
      <trkpt lat="62.630613506133" lon="17.968343151535">
        <ele>68.6</ele>
        <time>2017-11-06T18:39:54Z</time>
      </trkpt>
      <trkpt lat="62.630605627147" lon="17.968321107138">
        <ele>68.2</ele>
        <time>2017-11-06T18:39:55Z</time>
      </trkpt>
      <trkpt lat="62.630595652686" lon="17.968291770488">
        <ele>68</ele>
        <time>2017-11-06T18:39:56Z</time>
      </trkpt>
      <trkpt lat="62.630587019329" lon="17.968267630616">
        <ele>67.8</ele>
        <time>2017-11-06T18:39:57Z</time>
      </trkpt>
      <trkpt lat="62.630574949393" lon="17.968236785224">
        <ele>67.6</ele>
        <time>2017-11-06T18:39:58Z</time>
      </trkpt>
      <trkpt lat="62.630562208905" lon="17.96819604919">
        <ele>67.4</ele>
        <time>2017-11-06T18:39:59Z</time>
      </trkpt>
      <trkpt lat="62.630551563892" lon="17.968161012848">
        <ele>67.4</ele>
        <time>2017-11-06T18:40:00Z</time>
      </trkpt>
      <trkpt lat="62.630544942191" lon="17.968127066153">
        <ele>67.2</ele>
        <time>2017-11-06T18:40:01Z</time>
      </trkpt>
      <trkpt lat="62.630534716273" lon="17.968097813322">
        <ele>67.2</ele>
        <time>2017-11-06T18:40:02Z</time>
      </trkpt>
      <trkpt lat="62.630525580002" lon="17.968064788636">
        <ele>67.2</ele>
        <time>2017-11-06T18:40:03Z</time>
      </trkpt>
      <trkpt lat="62.630518958301" lon="17.968025393706">
        <ele>66.8</ele>
        <time>2017-11-06T18:40:04Z</time>
      </trkpt>
      <trkpt lat="62.630512420419" lon="17.96798063436">
        <ele>66.8</ele>
        <time>2017-11-06T18:40:05Z</time>
      </trkpt>
      <trkpt lat="62.630503703243" lon="17.967943586362">
        <ele>66.6</ele>
        <time>2017-11-06T18:40:06Z</time>
      </trkpt>
      <trkpt lat="62.630498674103" lon="17.967899832844">
        <ele>66.4</ele>
        <time>2017-11-06T18:40:07Z</time>
      </trkpt>
      <trkpt lat="62.630492806773" lon="17.967862198113">
        <ele>66.2</ele>
        <time>2017-11-06T18:40:08Z</time>
      </trkpt>
      <trkpt lat="62.630487945271" lon="17.967820120975">
        <ele>65.8</ele>
        <time>2017-11-06T18:40:09Z</time>
      </trkpt>
      <trkpt lat="62.630482916131" lon="17.967785922823">
        <ele>65.6</ele>
        <time>2017-11-06T18:40:10Z</time>
      </trkpt>
      <trkpt lat="62.630478892819" lon="17.9677342065">
        <ele>65.4</ele>
        <time>2017-11-06T18:40:11Z</time>
      </trkpt>
      <trkpt lat="62.630479479552" lon="17.967694727751">
        <ele>65</ele>
        <time>2017-11-06T18:40:12Z</time>
      </trkpt>
      <trkpt lat="62.630478557543" lon="17.967660026685">
        <ele>64.8</ele>
        <time>2017-11-06T18:40:13Z</time>
      </trkpt>
      <trkpt lat="62.630478976638" lon="17.96761350714">
        <ele>64.6</ele>
        <time>2017-11-06T18:40:14Z</time>
      </trkpt>
      <trkpt lat="62.630478725181" lon="17.967574698943">
        <ele>64.4</ele>
        <time>2017-11-06T18:40:15Z</time>
      </trkpt>
      <trkpt lat="62.630479563371" lon="17.967539494963">
        <ele>64.2</ele>
        <time>2017-11-06T18:40:16Z</time>
      </trkpt>
      <trkpt lat="62.630478054629" lon="17.967502111689">
        <ele>64</ele>
        <time>2017-11-06T18:40:17Z</time>
      </trkpt>
      <trkpt lat="62.630478054629" lon="17.967461962388">
        <ele>64</ele>
        <time>2017-11-06T18:40:18Z</time>
      </trkpt>
      <trkpt lat="62.630480233923" lon="17.9674240762">
        <ele>63.8</ele>
        <time>2017-11-06T18:40:19Z</time>
      </trkpt>
      <trkpt lat="62.630480904475" lon="17.967390883876">
        <ele>63.6</ele>
        <time>2017-11-06T18:40:20Z</time>
      </trkpt>
      <trkpt lat="62.630480569199" lon="17.96735115367">
        <ele>63.2</ele>
        <time>2017-11-06T18:40:21Z</time>
      </trkpt>
      <trkpt lat="62.630479898647" lon="17.967317542251">
        <ele>63.2</ele>
        <time>2017-11-06T18:40:22Z</time>
      </trkpt>
      <trkpt lat="62.630479814828" lon="17.967281080986">
        <ele>63</ele>
        <time>2017-11-06T18:40:23Z</time>
      </trkpt>
      <trkpt lat="62.630479563371" lon="17.967236070183">
        <ele>62.8</ele>
        <time>2017-11-06T18:40:24Z</time>
      </trkpt>
      <trkpt lat="62.630479982466" lon="17.967192987217">
        <ele>62.8</ele>
        <time>2017-11-06T18:40:25Z</time>
      </trkpt>
      <trkpt lat="62.630485430701" lon="17.967156861228">
        <ele>62.6</ele>
        <time>2017-11-06T18:40:26Z</time>
      </trkpt>
      <trkpt lat="62.630486604167" lon="17.967119729411">
        <ele>62.4</ele>
        <time>2017-11-06T18:40:27Z</time>
      </trkpt>
      <trkpt lat="62.630488196728" lon="17.967082597594">
        <ele>62.2</ele>
        <time>2017-11-06T18:40:28Z</time>
      </trkpt>
      <trkpt lat="62.630490627479" lon="17.96703599423">
        <ele>62</ele>
        <time>2017-11-06T18:40:29Z</time>
      </trkpt>
      <trkpt lat="62.630492387678" lon="17.96699576111">
        <ele>61.6</ele>
        <time>2017-11-06T18:40:30Z</time>
      </trkpt>
      <trkpt lat="62.630495405162" lon="17.9669546898">
        <ele>61.2</ele>
        <time>2017-11-06T18:40:31Z</time>
      </trkpt>
      <trkpt lat="62.630495656619" lon="17.966917306526">
        <ele>60.8</ele>
        <time>2017-11-06T18:40:32Z</time>
      </trkpt>
      <trkpt lat="62.630495405162" lon="17.966878330691">
        <ele>60.6</ele>
        <time>2017-11-06T18:40:33Z</time>
      </trkpt>
      <trkpt lat="62.630497584456" lon="17.966836672648">
        <ele>60.2</ele>
        <time>2017-11-06T18:40:34Z</time>
      </trkpt>
      <trkpt lat="62.630498506465" lon="17.966789734008">
        <ele>60</ele>
        <time>2017-11-06T18:40:35Z</time>
      </trkpt>
      <trkpt lat="62.630500853397" lon="17.96675184782">
        <ele>59.8</ele>
        <time>2017-11-06T18:40:36Z</time>
      </trkpt>
      <trkpt lat="62.6305039547" lon="17.966708597216">
        <ele>59.6</ele>
        <time>2017-11-06T18:40:37Z</time>
      </trkpt>
      <trkpt lat="62.630505798718" lon="17.966672387408">
        <ele>59.4</ele>
        <time>2017-11-06T18:40:38Z</time>
      </trkpt>
      <trkpt lat="62.630508397107" lon="17.966627460424">
        <ele>59.2</ele>
        <time>2017-11-06T18:40:39Z</time>
      </trkpt>
      <trkpt lat="62.630510073487" lon="17.966590999159">
        <ele>59</ele>
        <time>2017-11-06T18:40:40Z</time>
      </trkpt>
      <trkpt lat="62.630514096799" lon="17.966541629768">
        <ele>58.8</ele>
        <time>2017-11-06T18:40:41Z</time>
      </trkpt>
      <trkpt lat="62.630515856998" lon="17.966505587598">
        <ele>58.6</ele>
        <time>2017-11-06T18:40:42Z</time>
      </trkpt>
      <trkpt lat="62.630517198102" lon="17.96647524512">
        <ele>58.4</ele>
        <time>2017-11-06T18:40:43Z</time>
      </trkpt>
      <trkpt lat="62.630520550862" lon="17.966432916525">
        <ele>58.2</ele>
        <time>2017-11-06T18:40:44Z</time>
      </trkpt>
      <trkpt lat="62.630522897794" lon="17.966394443604">
        <ele>58.2</ele>
        <time>2017-11-06T18:40:45Z</time>
      </trkpt>
      <trkpt lat="62.630524741812" lon="17.966362592384">
        <ele>58</ele>
        <time>2017-11-06T18:40:46Z</time>
      </trkpt>
      <trkpt lat="62.630527172563" lon="17.966326466395">
        <ele>57.8</ele>
        <time>2017-11-06T18:40:47Z</time>
      </trkpt>
      <trkpt lat="62.630530190047" lon="17.966286903827">
        <ele>57.8</ele>
        <time>2017-11-06T18:40:48Z</time>
      </trkpt>
      <trkpt lat="62.630531447332" lon="17.966245832517">
        <ele>57.4</ele>
        <time>2017-11-06T18:40:49Z</time>
      </trkpt>
      <trkpt lat="62.630532369341" lon="17.966208113967">
        <ele>57.2</ele>
        <time>2017-11-06T18:40:50Z</time>
      </trkpt>
      <trkpt lat="62.630539577775" lon="17.966169892503">
        <ele>57.2</ele>
        <time>2017-11-06T18:40:51Z</time>
      </trkpt>
      <trkpt lat="62.630542427621" lon="17.966134017971">
        <ele>57</ele>
        <time>2017-11-06T18:40:52Z</time>
      </trkpt>
      <trkpt lat="62.630541254155" lon="17.96609805962">
        <ele>57</ele>
        <time>2017-11-06T18:40:53Z</time>
      </trkpt>
      <trkpt lat="62.630545445105" lon="17.966062771821">
        <ele>57</ele>
        <time>2017-11-06T18:40:54Z</time>
      </trkpt>
      <trkpt lat="62.630544523096" lon="17.966025640004">
        <ele>57</ele>
        <time>2017-11-06T18:40:55Z</time>
      </trkpt>
      <trkpt lat="62.630543098173" lon="17.965985406884">
        <ele>56.6</ele>
        <time>2017-11-06T18:40:56Z</time>
      </trkpt>
      <trkpt lat="62.630541086517" lon="17.965952549836">
        <ele>56.6</ele>
        <time>2017-11-06T18:40:57Z</time>
      </trkpt>
      <trkpt lat="62.630542762897" lon="17.965921955901">
        <ele>56.4</ele>
        <time>2017-11-06T18:40:58Z</time>
      </trkpt>
      <trkpt lat="62.6305458642" lon="17.965877783288">
        <ele>56.2</ele>
        <time>2017-11-06T18:40:59Z</time>
      </trkpt>
      <trkpt lat="62.63054754058" lon="17.965843166041">
        <ele>56</ele>
        <time>2017-11-06T18:41:00Z</time>
      </trkpt>
      <trkpt lat="62.630550558064" lon="17.965808548794">
        <ele>55.8</ele>
        <time>2017-11-06T18:41:01Z</time>
      </trkpt>
      <trkpt lat="62.630549049322" lon="17.965771836072">
        <ele>55.6</ele>
        <time>2017-11-06T18:41:02Z</time>
      </trkpt>
      <trkpt lat="62.630548043494" lon="17.965733866065">
        <ele>55.4</ele>
        <time>2017-11-06T18:41:03Z</time>
      </trkpt>
      <trkpt lat="62.630546031838" lon="17.965695979877">
        <ele>55.4</ele>
        <time>2017-11-06T18:41:04Z</time>
      </trkpt>
      <trkpt lat="62.630546450933" lon="17.965649125056">
        <ele>55.2</ele>
        <time>2017-11-06T18:41:05Z</time>
      </trkpt>
      <trkpt lat="62.630548294951" lon="17.965606377366">
        <ele>55</ele>
        <time>2017-11-06T18:41:06Z</time>
      </trkpt>
      <trkpt lat="62.630551647711" lon="17.965569748463">
        <ele>55</ele>
        <time>2017-11-06T18:41:07Z</time>
      </trkpt>
      <trkpt lat="62.630556928308" lon="17.965533454836">
        <ele>54.8</ele>
        <time>2017-11-06T18:41:08Z</time>
      </trkpt>
      <trkpt lat="62.630558772326" lon="17.965498250856">
        <ele>54.8</ele>
        <time>2017-11-06T18:41:09Z</time>
      </trkpt>
      <trkpt lat="62.630564974932" lon="17.965473356613">
        <ele>54.6</ele>
        <time>2017-11-06T18:41:10Z</time>
      </trkpt>
      <trkpt lat="62.630572853918" lon="17.96545516789">
        <ele>54.4</ele>
        <time>2017-11-06T18:41:11Z</time>
      </trkpt>
      <trkpt lat="62.630572937737" lon="17.965458436831">
        <ele>54</ele>
        <time>2017-11-06T18:41:13Z</time>
      </trkpt>
      <trkpt lat="62.630814420276" lon="17.965464639437">
        <ele>54</ele>
        <time>2017-11-06T18:41:59Z</time>
      </trkpt>
      <trkpt lat="62.630842164365" lon="17.965481738513">
        <ele>54</ele>
        <time>2017-11-06T18:42:00Z</time>
      </trkpt>
      <trkpt lat="62.630876613974" lon="17.96550210653">
        <ele>54.2</ele>
        <time>2017-11-06T18:42:01Z</time>
      </trkpt>
      <trkpt lat="62.630902346407" lon="17.965513505914">
        <ele>54.2</ele>
        <time>2017-11-06T18:42:02Z</time>
      </trkpt>
      <trkpt lat="62.630929922858" lon="17.965517696864">
        <ele>54.2</ele>
        <time>2017-11-06T18:42:03Z</time>
      </trkpt>
      <trkpt lat="62.630960265336" lon="17.965513925009">
        <ele>54.6</ele>
        <time>2017-11-06T18:42:04Z</time>
      </trkpt>
      <trkpt lat="62.630993876755" lon="17.965498083218">
        <ele>54.8</ele>
        <time>2017-11-06T18:42:05Z</time>
      </trkpt>
      <trkpt lat="62.631022375215" lon="17.965473356613">
        <ele>54.8</ele>
        <time>2017-11-06T18:42:06Z</time>
      </trkpt>
      <trkpt lat="62.631052047141" lon="17.965441421574">
        <ele>55.2</ele>
        <time>2017-11-06T18:42:07Z</time>
      </trkpt>
      <trkpt lat="62.631079288316" lon="17.965410240906">
        <ele>55.4</ele>
        <time>2017-11-06T18:42:08Z</time>
      </trkpt>
      <trkpt lat="62.631105523663" lon="17.965368331406">
        <ele>55.6</ele>
        <time>2017-11-06T18:42:09Z</time>
      </trkpt>
      <trkpt lat="62.63113092082" lon="17.965332540693">
        <ele>55.6</ele>
        <time>2017-11-06T18:42:10Z</time>
      </trkpt>
      <trkpt lat="62.631158245814" lon="17.965305048061">
        <ele>55.6</ele>
        <time>2017-11-06T18:42:11Z</time>
      </trkpt>
      <trkpt lat="62.631190683767" lon="17.965296079428">
        <ele>55.8</ele>
        <time>2017-11-06T18:42:12Z</time>
      </trkpt>
      <trkpt lat="62.63121725439" lon="17.965306556803">
        <ele>55.8</ele>
        <time>2017-11-06T18:42:13Z</time>
      </trkpt>
      <trkpt lat="62.63124659104" lon="17.965327511553">
        <ele>56</ele>
        <time>2017-11-06T18:42:14Z</time>
      </trkpt>
      <trkpt lat="62.631270227998" lon="17.96535626147">
        <ele>56</ele>
        <time>2017-11-06T18:42:15Z</time>
      </trkpt>
      <trkpt lat="62.631291937119" lon="17.965381910084">
        <ele>56.2</ele>
        <time>2017-11-06T18:42:16Z</time>
      </trkpt>
      <trkpt lat="62.631316999" lon="17.965405295585">
        <ele>56.2</ele>
        <time>2017-11-06T18:42:17Z</time>
      </trkpt>
      <trkpt lat="62.631342312338" lon="17.965429686914">
        <ele>56.2</ele>
        <time>2017-11-06T18:42:18Z</time>
      </trkpt>
      <trkpt lat="62.631367206581" lon="17.965453910605">
        <ele>56.4</ele>
        <time>2017-11-06T18:42:19Z</time>
      </trkpt>
      <trkpt lat="62.631393777204" lon="17.965482157608">
        <ele>56.4</ele>
        <time>2017-11-06T18:42:20Z</time>
      </trkpt>
      <trkpt lat="62.631418922904" lon="17.965507387127">
        <ele>56.4</ele>
        <time>2017-11-06T18:42:21Z</time>
      </trkpt>
      <trkpt lat="62.631435938161" lon="17.965527838963">
        <ele>56.4</ele>
        <time>2017-11-06T18:42:22Z</time>
      </trkpt>
      <trkpt lat="62.631466448277" lon="17.965559606364">
        <ele>56.6</ele>
        <time>2017-11-06T18:42:23Z</time>
      </trkpt>
      <trkpt lat="62.631492767443" lon="17.965586596082">
        <ele>56.6</ele>
        <time>2017-11-06T18:42:24Z</time>
      </trkpt>
      <trkpt lat="62.631516236763" lon="17.965610735954">
        <ele>56.8</ele>
        <time>2017-11-06T18:42:25Z</time>
      </trkpt>
      <trkpt lat="62.63153744297" lon="17.965634289093">
        <ele>56.8</ele>
        <time>2017-11-06T18:42:26Z</time>
      </trkpt>
      <trkpt lat="62.631560996109" lon="17.965657506956">
        <ele>57</ele>
        <time>2017-11-06T18:42:27Z</time>
      </trkpt>
      <trkpt lat="62.63158270523" lon="17.965680892457">
        <ele>57.2</ele>
        <time>2017-11-06T18:42:28Z</time>
      </trkpt>
      <trkpt lat="62.631610281681" lon="17.965709307098">
        <ele>57.6</ele>
        <time>2017-11-06T18:42:29Z</time>
      </trkpt>
      <trkpt lat="62.631635092105" lon="17.965736632092">
        <ele>57.8</ele>
        <time>2017-11-06T18:42:30Z</time>
      </trkpt>
      <trkpt lat="62.631657471778" lon="17.965759849955">
        <ele>58</ele>
        <time>2017-11-06T18:42:31Z</time>
      </trkpt>
      <trkpt lat="62.631679348537" lon="17.965780804705">
        <ele>58.2</ele>
        <time>2017-11-06T18:42:32Z</time>
      </trkpt>
      <trkpt lat="62.631702985495" lon="17.965807878242">
        <ele>58.2</ele>
        <time>2017-11-06T18:42:33Z</time>
      </trkpt>
      <trkpt lat="62.631720755123" lon="17.96582145692">
        <ele>58.2</ele>
        <time>2017-11-06T18:42:34Z</time>
      </trkpt>
      <trkpt lat="62.631755540008" lon="17.96585246995">
        <ele>58.4</ele>
        <time>2017-11-06T18:42:35Z</time>
      </trkpt>
      <trkpt lat="62.63177967988" lon="17.965869317569">
        <ele>58.6</ele>
        <time>2017-11-06T18:42:36Z</time>
      </trkpt>
      <trkpt lat="62.631807507788" lon="17.965887171016">
        <ele>58.8</ele>
        <time>2017-11-06T18:42:37Z</time>
      </trkpt>
      <trkpt lat="62.63183164766" lon="17.965906784662">
        <ele>58.8</ele>
        <time>2017-11-06T18:42:38Z</time>
      </trkpt>
      <trkpt lat="62.631856374265" lon="17.965925476299">
        <ele>59</ele>
        <time>2017-11-06T18:42:39Z</time>
      </trkpt>
      <trkpt lat="62.631881771422" lon="17.965946011954">
        <ele>59</ele>
        <time>2017-11-06T18:42:40Z</time>
      </trkpt>
      <trkpt lat="62.631908844959" lon="17.96596646379">
        <ele>59.2</ele>
        <time>2017-11-06T18:42:41Z</time>
      </trkpt>
      <trkpt lat="62.631935750858" lon="17.965985239246">
        <ele>59.4</ele>
        <time>2017-11-06T18:42:42Z</time>
      </trkpt>
      <trkpt lat="62.631960812739" lon="17.966001416313">
        <ele>59.4</ele>
        <time>2017-11-06T18:42:43Z</time>
      </trkpt>
      <trkpt lat="62.631987886276" lon="17.966017844837">
        <ele>59.4</ele>
        <time>2017-11-06T18:42:44Z</time>
      </trkpt>
      <trkpt lat="62.632013870166" lon="17.966033854266">
        <ele>59.4</ele>
        <time>2017-11-06T18:42:45Z</time>
      </trkpt>
      <trkpt lat="62.632038345314" lon="17.966044750736">
        <ele>59.6</ele>
        <time>2017-11-06T18:42:46Z</time>
      </trkpt>
      <trkpt lat="62.632061060263" lon="17.966054557559">
        <ele>59.6</ele>
        <time>2017-11-06T18:42:47Z</time>
      </trkpt>
      <trkpt lat="62.632088301438" lon="17.966068387694">
        <ele>59.8</ele>
        <time>2017-11-06T18:42:48Z</time>
      </trkpt>
      <trkpt lat="62.632114872061" lon="17.966085151494">
        <ele>59.8</ele>
        <time>2017-11-06T18:42:49Z</time>
      </trkpt>
      <trkpt lat="62.632141023589" lon="17.966102082932">
        <ele>60</ele>
        <time>2017-11-06T18:42:50Z</time>
      </trkpt>
      <trkpt lat="62.63216608547" lon="17.966115493972">
        <ele>60</ele>
        <time>2017-11-06T18:42:51Z</time>
      </trkpt>
      <trkpt lat="62.632190644437" lon="17.966125384614">
        <ele>60.2</ele>
        <time>2017-11-06T18:42:52Z</time>
      </trkpt>
      <trkpt lat="62.63221637687" lon="17.966135107618">
        <ele>60.6</ele>
        <time>2017-11-06T18:42:53Z</time>
      </trkpt>
      <trkpt lat="62.632244204778" lon="17.966149775943">
        <ele>60.6</ele>
        <time>2017-11-06T18:42:54Z</time>
      </trkpt>
      <trkpt lat="62.632268512288" lon="17.966160253318">
        <ele>60.8</ele>
        <time>2017-11-06T18:42:55Z</time>
      </trkpt>
      <trkpt lat="62.632294915273" lon="17.966172071797">
        <ele>60.8</ele>
        <time>2017-11-06T18:42:56Z</time>
      </trkpt>
      <trkpt lat="62.632320731525" lon="17.966187829769">
        <ele>60.8</ele>
        <time>2017-11-06T18:42:57Z</time>
      </trkpt>
      <trkpt lat="62.63234713451" lon="17.966203252465">
        <ele>60.8</ele>
        <time>2017-11-06T18:42:58Z</time>
      </trkpt>
      <trkpt lat="62.63237898573" lon="17.966219345713">
        <ele>61</ele>
        <time>2017-11-06T18:42:59Z</time>
      </trkpt>
      <trkpt lat="62.632405640172" lon="17.966230996554">
        <ele>61.2</ele>
        <time>2017-11-06T18:43:00Z</time>
      </trkpt>
      <trkpt lat="62.632436234107" lon="17.966245497241">
        <ele>61.2</ele>
        <time>2017-11-06T18:43:01Z</time>
      </trkpt>
      <trkpt lat="62.632460373979" lon="17.966256561349">
        <ele>61.4</ele>
        <time>2017-11-06T18:43:02Z</time>
      </trkpt>
      <trkpt lat="62.63248795043" lon="17.966270642941">
        <ele>61.6</ele>
        <time>2017-11-06T18:43:03Z</time>
      </trkpt>
      <trkpt lat="62.632517538537" lon="17.966284640714">
        <ele>61.8</ele>
        <time>2017-11-06T18:43:04Z</time>
      </trkpt>
      <trkpt lat="62.632548467748" lon="17.96629168151">
        <ele>61.8</ele>
        <time>2017-11-06T18:43:05Z</time>
      </trkpt>
      <trkpt lat="62.632577972036" lon="17.966299979591">
        <ele>61.8</ele>
        <time>2017-11-06T18:43:06Z</time>
      </trkpt>
      <trkpt lat="62.632607895419" lon="17.966306349835">
        <ele>62</ele>
        <time>2017-11-06T18:43:07Z</time>
      </trkpt>
      <trkpt lat="62.632636058603" lon="17.966309451138">
        <ele>62.2</ele>
        <time>2017-11-06T18:43:08Z</time>
      </trkpt>
      <trkpt lat="62.632667658366" lon="17.966308529129">
        <ele>62.2</ele>
        <time>2017-11-06T18:43:09Z</time>
      </trkpt>
      <trkpt lat="62.632690960048" lon="17.966304757274">
        <ele>62.2</ele>
        <time>2017-11-06T18:43:10Z</time>
      </trkpt>
      <trkpt lat="62.632719039413" lon="17.966303080894">
        <ele>62.4</ele>
        <time>2017-11-06T18:43:11Z</time>
      </trkpt>
      <trkpt lat="62.632745442398" lon="17.966299895772">
        <ele>62.6</ele>
        <time>2017-11-06T18:43:12Z</time>
      </trkpt>
      <trkpt lat="62.632770755736" lon="17.966299476677">
        <ele>62.6</ele>
        <time>2017-11-06T18:43:13Z</time>
      </trkpt>
      <trkpt lat="62.632801349671" lon="17.966297045926">
        <ele>62.6</ele>
        <time>2017-11-06T18:43:14Z</time>
      </trkpt>
      <trkpt lat="62.632829345217" lon="17.966294279899">
        <ele>62.6</ele>
        <time>2017-11-06T18:43:15Z</time>
      </trkpt>
      <trkpt lat="62.632857676039" lon="17.966331411716">
        <ele>62.8</ele>
        <time>2017-11-06T18:43:16Z</time>
      </trkpt>
      <trkpt lat="62.632887096508" lon="17.966361167461">
        <ele>63</ele>
        <time>2017-11-06T18:43:17Z</time>
      </trkpt>
      <trkpt lat="62.632914337683" lon="17.966368711171">
        <ele>63</ele>
        <time>2017-11-06T18:43:18Z</time>
      </trkpt>
      <trkpt lat="62.632948619654" lon="17.966368543533">
        <ele>63</ele>
        <time>2017-11-06T18:43:19Z</time>
      </trkpt>
      <trkpt lat="62.632978794494" lon="17.966366783334">
        <ele>63.2</ele>
        <time>2017-11-06T18:43:20Z</time>
      </trkpt>
      <trkpt lat="62.63300846642" lon="17.966362340927">
        <ele>63.2</ele>
        <time>2017-11-06T18:43:21Z</time>
      </trkpt>
      <trkpt lat="62.633037886889" lon="17.966356725054">
        <ele>63.2</ele>
        <time>2017-11-06T18:43:22Z</time>
      </trkpt>
      <trkpt lat="62.633066636806" lon="17.966352450285">
        <ele>63.4</ele>
        <time>2017-11-06T18:43:23Z</time>
      </trkpt>
      <trkpt lat="62.633098739483" lon="17.966350857724">
        <ele>63.4</ele>
        <time>2017-11-06T18:43:24Z</time>
      </trkpt>
      <trkpt lat="62.633128411409" lon="17.966351695914">
        <ele>63.4</ele>
        <time>2017-11-06T18:43:25Z</time>
      </trkpt>
      <trkpt lat="62.633157328964" lon="17.966348510792">
        <ele>63.4</ele>
        <time>2017-11-06T18:43:26Z</time>
      </trkpt>
      <trkpt lat="62.633188761089" lon="17.966344236023">
        <ele>63.4</ele>
        <time>2017-11-06T18:43:27Z</time>
      </trkpt>
      <trkpt lat="62.63321466116" lon="17.96634448748">
        <ele>63.4</ele>
        <time>2017-11-06T18:43:28Z</time>
      </trkpt>
      <trkpt lat="62.63324902695" lon="17.966346499136">
        <ele>63.6</ele>
        <time>2017-11-06T18:43:29Z</time>
      </trkpt>
      <trkpt lat="62.633280291437" lon="17.966343397833">
        <ele>63.8</ele>
        <time>2017-11-06T18:43:30Z</time>
      </trkpt>
      <trkpt lat="62.633309292811" lon="17.966337949598">
        <ele>63.8</ele>
        <time>2017-11-06T18:43:31Z</time>
      </trkpt>
      <trkpt lat="62.633336785443" lon="17.9663428111">
        <ele>64</ele>
        <time>2017-11-06T18:43:32Z</time>
      </trkpt>
      <trkpt lat="62.633367798473" lon="17.966344403661">
        <ele>64</ele>
        <time>2017-11-06T18:43:33Z</time>
      </trkpt>
      <trkpt lat="62.633397218942" lon="17.966340547987">
        <ele>64.2</ele>
        <time>2017-11-06T18:43:34Z</time>
      </trkpt>
      <trkpt lat="62.633428986343" lon="17.966340799444">
        <ele>64.4</ele>
        <time>2017-11-06T18:43:35Z</time>
      </trkpt>
      <trkpt lat="62.633457233346" lon="17.966339374521">
        <ele>64.4</ele>
        <time>2017-11-06T18:43:36Z</time>
      </trkpt>
      <trkpt lat="62.633487827281" lon="17.966348510792">
        <ele>64.4</ele>
        <time>2017-11-06T18:43:37Z</time>
      </trkpt>
      <trkpt lat="62.633516661017" lon="17.966371728655">
        <ele>64.4</ele>
        <time>2017-11-06T18:43:38Z</time>
      </trkpt>
      <trkpt lat="62.633544488925" lon="17.966379272365">
        <ele>64.4</ele>
        <time>2017-11-06T18:43:39Z</time>
      </trkpt>
      <trkpt lat="62.633572735928" lon="17.966376590157">
        <ele>64.4</ele>
        <time>2017-11-06T18:43:40Z</time>
      </trkpt>
      <trkpt lat="62.633604168053" lon="17.966373405035">
        <ele>64.6</ele>
        <time>2017-11-06T18:43:41Z</time>
      </trkpt>
      <trkpt lat="62.633634175255" lon="17.966370387551">
        <ele>64.6</ele>
        <time>2017-11-06T18:43:42Z</time>
      </trkpt>
      <trkpt lat="62.633663847181" lon="17.966376087243">
        <ele>64.6</ele>
        <time>2017-11-06T18:43:43Z</time>
      </trkpt>
      <trkpt lat="62.633693016193" lon="17.966391593758">
        <ele>64.6</ele>
        <time>2017-11-06T18:43:44Z</time>
      </trkpt>
      <trkpt lat="62.633716234056" lon="17.966419505485">
        <ele>64.6</ele>
        <time>2017-11-06T18:43:45Z</time>
      </trkpt>
      <trkpt lat="62.633728974544" lon="17.966456302026">
        <ele>64.8</ele>
        <time>2017-11-06T18:43:46Z</time>
      </trkpt>
      <trkpt lat="62.633736434435" lon="17.966497540974">
        <ele>64.8</ele>
        <time>2017-11-06T18:43:47Z</time>
      </trkpt>
      <trkpt lat="62.633740290109" lon="17.966546407451">
        <ele>64.8</ele>
        <time>2017-11-06T18:43:48Z</time>
      </trkpt>
      <trkpt lat="62.633739200462" lon="17.966600386887">
        <ele>64.8</ele>
        <time>2017-11-06T18:43:49Z</time>
      </trkpt>
      <trkpt lat="62.633734255141" lon="17.966648666631">
        <ele>65</ele>
        <time>2017-11-06T18:43:50Z</time>
      </trkpt>
      <trkpt lat="62.633728890725" lon="17.966704238628">
        <ele>65.2</ele>
        <time>2017-11-06T18:43:51Z</time>
      </trkpt>
      <trkpt lat="62.633725621784" lon="17.966752183096">
        <ele>65.6</ele>
        <time>2017-11-06T18:43:52Z</time>
      </trkpt>
      <trkpt lat="62.633719754454" lon="17.966803480324">
        <ele>65.8</ele>
        <time>2017-11-06T18:43:53Z</time>
      </trkpt>
      <trkpt lat="62.633711121097" lon="17.966859303778">
        <ele>66.2</ele>
        <time>2017-11-06T18:43:54Z</time>
      </trkpt>
      <trkpt lat="62.633705505224" lon="17.966909343721">
        <ele>66.6</ele>
        <time>2017-11-06T18:43:55Z</time>
      </trkpt>
      <trkpt lat="62.633700895179" lon="17.966965334813">
        <ele>66.8</ele>
        <time>2017-11-06T18:43:56Z</time>
      </trkpt>
      <trkpt lat="62.63369326765" lon="17.967015542394">
        <ele>67</ele>
        <time>2017-11-06T18:43:57Z</time>
      </trkpt>
      <trkpt lat="62.633689411976" lon="17.967062648672">
        <ele>67.2</ele>
        <time>2017-11-06T18:43:58Z</time>
      </trkpt>
      <trkpt lat="62.633684215198" lon="17.967124171818">
        <ele>67.4</ele>
        <time>2017-11-06T18:43:59Z</time>
      </trkpt>
      <trkpt lat="62.633678850782" lon="17.967175469046">
        <ele>67.6</ele>
        <time>2017-11-06T18:44:00Z</time>
      </trkpt>
      <trkpt lat="62.633674911289" lon="17.9672312925">
        <ele>67.8</ele>
        <time>2017-11-06T18:44:01Z</time>
      </trkpt>
      <trkpt lat="62.633664936828" lon="17.967279572244">
        <ele>68</ele>
        <time>2017-11-06T18:44:02Z</time>
      </trkpt>
      <trkpt lat="62.633657476937" lon="17.967331288567">
        <ele>68.2</ele>
        <time>2017-11-06T18:44:03Z</time>
      </trkpt>
      <trkpt lat="62.633649430313" lon="17.96738551946">
        <ele>68.2</ele>
        <time>2017-11-06T18:44:04Z</time>
      </trkpt>
      <trkpt lat="62.633639120576" lon="17.967441175276">
        <ele>68.6</ele>
        <time>2017-11-06T18:44:05Z</time>
      </trkpt>
      <trkpt lat="62.633631576866" lon="17.967492640142">
        <ele>68.6</ele>
        <time>2017-11-06T18:44:06Z</time>
      </trkpt>
      <trkpt lat="62.633625038984" lon="17.967549469424">
        <ele>68.8</ele>
        <time>2017-11-06T18:44:07Z</time>
      </trkpt>
      <trkpt lat="62.633620596577" lon="17.967598084444">
        <ele>69</ele>
        <time>2017-11-06T18:44:08Z</time>
      </trkpt>
      <trkpt lat="62.633612130858" lon="17.967648375844">
        <ele>69.2</ele>
        <time>2017-11-06T18:44:09Z</time>
      </trkpt>
      <trkpt lat="62.633605341519" lon="17.96769732614">
        <ele>69.4</ele>
        <time>2017-11-06T18:44:10Z</time>
      </trkpt>
      <trkpt lat="62.633597630171" lon="17.967749461558">
        <ele>69.6</ele>
        <time>2017-11-06T18:44:11Z</time>
      </trkpt>
      <trkpt lat="62.63359017028" lon="17.967801596976">
        <ele>69.6</ele>
        <time>2017-11-06T18:44:12Z</time>
      </trkpt>
      <trkpt lat="62.63358262657" lon="17.967856833697">
        <ele>69.8</ele>
        <time>2017-11-06T18:44:13Z</time>
      </trkpt>
      <trkpt lat="62.633575753412" lon="17.96791274097">
        <ele>70.2</ele>
        <time>2017-11-06T18:44:14Z</time>
      </trkpt>
      <trkpt lat="62.633569466987" lon="17.967967390958">
        <ele>70.4</ele>
        <time>2017-11-06T18:44:15Z</time>
      </trkpt>
      <trkpt lat="62.633562258553" lon="17.968026315715">
        <ele>70.8</ele>
        <time>2017-11-06T18:44:16Z</time>
      </trkpt>
      <trkpt lat="62.633555888309" lon="17.968078367314">
        <ele>71</ele>
        <time>2017-11-06T18:44:17Z</time>
      </trkpt>
      <trkpt lat="62.633547674047" lon="17.968137459709">
        <ele>71.4</ele>
        <time>2017-11-06T18:44:18Z</time>
      </trkpt>
      <trkpt lat="62.633538370138" lon="17.968193869896">
        <ele>71.6</ele>
        <time>2017-11-06T18:44:19Z</time>
      </trkpt>
      <trkpt lat="62.633532083713" lon="17.968244831848">
        <ele>71.8</ele>
        <time>2017-11-06T18:44:20Z</time>
      </trkpt>
      <trkpt lat="62.633523366537" lon="17.96830333751">
        <ele>72</ele>
        <time>2017-11-06T18:44:21Z</time>
      </trkpt>
      <trkpt lat="62.633517750664" lon="17.968354215643">
        <ele>72.2</ele>
        <time>2017-11-06T18:44:22Z</time>
      </trkpt>
      <trkpt lat="62.633511464239" lon="17.968410374373">
        <ele>72.4</ele>
        <time>2017-11-06T18:44:23Z</time>
      </trkpt>
      <trkpt lat="62.63350299852" lon="17.968474076813">
        <ele>72.6</ele>
        <time>2017-11-06T18:44:24Z</time>
      </trkpt>
      <trkpt lat="62.633497634104" lon="17.96852713424">
        <ele>72.6</ele>
        <time>2017-11-06T18:44:25Z</time>
      </trkpt>
      <trkpt lat="62.633489838937" lon="17.968579856391">
        <ele>72.8</ele>
        <time>2017-11-06T18:44:26Z</time>
      </trkpt>
      <trkpt lat="62.633481373218" lon="17.968634087284">
        <ele>73</ele>
        <time>2017-11-06T18:44:27Z</time>
      </trkpt>
      <trkpt lat="62.633475757345" lon="17.968683372856">
        <ele>73.2</ele>
        <time>2017-11-06T18:44:28Z</time>
      </trkpt>
      <trkpt lat="62.633466369617" lon="17.968749841323">
        <ele>73.4</ele>
        <time>2017-11-06T18:44:29Z</time>
      </trkpt>
      <trkpt lat="62.633458825907" lon="17.968803401664">
        <ele>73.4</ele>
        <time>2017-11-06T18:44:30Z</time>
      </trkpt>
      <trkpt lat="62.633451114559" lon="17.968857967833">
        <ele>73.6</ele>
        <time>2017-11-06T18:44:31Z</time>
      </trkpt>
      <trkpt lat="62.633444492858" lon="17.968914461839">
        <ele>73.8</ele>
        <time>2017-11-06T18:44:32Z</time>
      </trkpt>
      <trkpt lat="62.633438709347" lon="17.968968525094">
        <ele>74</ele>
        <time>2017-11-06T18:44:33Z</time>
      </trkpt>
      <trkpt lat="62.633435608044" lon="17.969007500929">
        <ele>74</ele>
        <time>2017-11-06T18:44:34Z</time>
      </trkpt>
      <trkpt lat="62.633428231972" lon="17.969088637721">
        <ele>74.2</ele>
        <time>2017-11-06T18:44:35Z</time>
      </trkpt>
      <trkpt lat="62.63342504685" lon="17.969146891926">
        <ele>74.6</ele>
        <time>2017-11-06T18:44:36Z</time>
      </trkpt>
      <trkpt lat="62.633420436805" lon="17.969210762004">
        <ele>74.8</ele>
        <time>2017-11-06T18:44:37Z</time>
      </trkpt>
      <trkpt lat="62.633417670778" lon="17.969266753096">
        <ele>75.2</ele>
        <time>2017-11-06T18:44:38Z</time>
      </trkpt>
      <trkpt lat="62.633413060733" lon="17.969329784984">
        <ele>75.4</ele>
        <time>2017-11-06T18:44:39Z</time>
      </trkpt>
      <trkpt lat="62.633407696317" lon="17.969387033361">
        <ele>75.6</ele>
        <time>2017-11-06T18:44:40Z</time>
      </trkpt>
      <trkpt lat="62.633406019937" lon="17.969446125756">
        <ele>75.8</ele>
        <time>2017-11-06T18:44:41Z</time>
      </trkpt>
      <trkpt lat="62.633404008281" lon="17.969507397445">
        <ele>76</ele>
        <time>2017-11-06T18:44:42Z</time>
      </trkpt>
      <trkpt lat="62.633390932517" lon="17.969558527035">
        <ele>76.2</ele>
        <time>2017-11-06T18:44:43Z</time>
      </trkpt>
      <trkpt lat="62.63336637355" lon="17.969597670508">
        <ele>76.4</ele>
        <time>2017-11-06T18:44:44Z</time>
      </trkpt>
      <trkpt lat="62.63333619871" lon="17.969628432081">
        <ele>76.4</ele>
        <time>2017-11-06T18:44:45Z</time>
      </trkpt>
      <trkpt lat="62.633307951707" lon="17.969648464822">
        <ele>76.6</ele>
        <time>2017-11-06T18:44:46Z</time>
      </trkpt>
      <trkpt lat="62.633282806007" lon="17.969659277473">
        <ele>76.8</ele>
        <time>2017-11-06T18:44:47Z</time>
      </trkpt>
      <trkpt lat="62.633256738298" lon="17.969669503391">
        <ele>76.8</ele>
        <time>2017-11-06T18:44:48Z</time>
      </trkpt>
      <trkpt lat="62.633230670589" lon="17.969664977165">
        <ele>76.8</ele>
        <time>2017-11-06T18:44:49Z</time>
      </trkpt>
      <trkpt lat="62.633205943984" lon="17.969671850323">
        <ele>77</ele>
        <time>2017-11-06T18:44:50Z</time>
      </trkpt>
      <trkpt lat="62.633180043913" lon="17.969676125092">
        <ele>76.8</ele>
        <time>2017-11-06T18:44:51Z</time>
      </trkpt>
      <trkpt lat="62.63315347329" lon="17.969673442884">
        <ele>77</ele>
        <time>2017-11-06T18:44:52Z</time>
      </trkpt>
      <trkpt lat="62.633126483572" lon="17.969670760676">
        <ele>76.8</ele>
        <time>2017-11-06T18:44:53Z</time>
      </trkpt>
      <trkpt lat="62.633098320388" lon="17.969663971337">
        <ele>76.8</ele>
        <time>2017-11-06T18:44:54Z</time>
      </trkpt>
      <trkpt lat="62.633069570471" lon="17.969659864206">
        <ele>76.8</ele>
        <time>2017-11-06T18:44:55Z</time>
      </trkpt>
      <trkpt lat="62.633046520246" lon="17.969657098179">
        <ele>76.6</ele>
        <time>2017-11-06T18:44:56Z</time>
      </trkpt>
      <trkpt lat="62.633020452537" lon="17.969649135374">
        <ele>76.8</ele>
        <time>2017-11-06T18:44:57Z</time>
      </trkpt>
      <trkpt lat="62.632996396484" lon="17.969646034071">
        <ele>76.6</ele>
        <time>2017-11-06T18:44:58Z</time>
      </trkpt>
      <trkpt lat="62.632965299635" lon="17.969641843121">
        <ele>76.6</ele>
        <time>2017-11-06T18:44:59Z</time>
      </trkpt>
      <trkpt lat="62.632938142279" lon="17.96963522142">
        <ele>76.6</ele>
        <time>2017-11-06T18:45:00Z</time>
      </trkpt>
      <trkpt lat="62.632909140905" lon="17.969629018814">
        <ele>76.6</ele>
        <time>2017-11-06T18:45:01Z</time>
      </trkpt>
      <trkpt lat="62.632881815911" lon="17.969623067665">
        <ele>76.4</ele>
        <time>2017-11-06T18:45:02Z</time>
      </trkpt>
      <trkpt lat="62.632854742374" lon="17.969615775412">
        <ele>76.4</ele>
        <time>2017-11-06T18:45:03Z</time>
      </trkpt>
      <trkpt lat="62.632824818991" lon="17.96961259029">
        <ele>76.4</ele>
        <time>2017-11-06T18:45:04Z</time>
      </trkpt>
      <trkpt lat="62.632793135409" lon="17.969610997729">
        <ele>76.4</ele>
        <time>2017-11-06T18:45:05Z</time>
      </trkpt>
      <trkpt lat="62.632763379664" lon="17.969608064064">
        <ele>76.4</ele>
        <time>2017-11-06T18:45:06Z</time>
      </trkpt>
      <trkpt lat="62.632731109349" lon="17.969607728788">
        <ele>76.4</ele>
        <time>2017-11-06T18:45:07Z</time>
      </trkpt>
      <trkpt lat="62.632702359432" lon="17.9696033702">
        <ele>76.2</ele>
        <time>2017-11-06T18:45:08Z</time>
      </trkpt>
      <trkpt lat="62.63267067585" lon="17.969603789295">
        <ele>76.2</ele>
        <time>2017-11-06T18:45:09Z</time>
      </trkpt>
      <trkpt lat="62.63264217739" lon="17.969607058236">
        <ele>76.2</ele>
        <time>2017-11-06T18:45:10Z</time>
      </trkpt>
      <trkpt lat="62.632612589283" lon="17.969607728788">
        <ele>76</ele>
        <time>2017-11-06T18:45:11Z</time>
      </trkpt>
      <trkpt lat="62.632585264289" lon="17.969610830091">
        <ele>76</ele>
        <time>2017-11-06T18:45:12Z</time>
      </trkpt>
      <trkpt lat="62.632556598191" lon="17.969611668281">
        <ele>76</ele>
        <time>2017-11-06T18:45:13Z</time>
      </trkpt>
      <trkpt lat="62.632526926265" lon="17.969613763756">
        <ele>75.8</ele>
        <time>2017-11-06T18:45:14Z</time>
      </trkpt>
      <trkpt lat="62.632499014538" lon="17.969614350489">
        <ele>75.8</ele>
        <time>2017-11-06T18:45:15Z</time>
      </trkpt>
      <trkpt lat="62.632471438087" lon="17.969615188679">
        <ele>75.8</ele>
        <time>2017-11-06T18:45:16Z</time>
      </trkpt>
      <trkpt lat="62.63244268817" lon="17.969613931394">
        <ele>75.8</ele>
        <time>2017-11-06T18:45:17Z</time>
      </trkpt>
      <trkpt lat="62.632414357348" lon="17.969617535611">
        <ele>75.8</ele>
        <time>2017-11-06T18:45:18Z</time>
      </trkpt>
      <trkpt lat="62.632382757585" lon="17.969610746272">
        <ele>75.8</ele>
        <time>2017-11-06T18:45:19Z</time>
      </trkpt>
      <trkpt lat="62.632354091487" lon="17.969607980245">
        <ele>75.8</ele>
        <time>2017-11-06T18:45:20Z</time>
      </trkpt>
      <trkpt lat="62.632327185588" lon="17.969612003557">
        <ele>76</ele>
        <time>2017-11-06T18:45:21Z</time>
      </trkpt>
      <trkpt lat="62.632298854766" lon="17.969616697421">
        <ele>76</ele>
        <time>2017-11-06T18:45:22Z</time>
      </trkpt>
      <trkpt lat="62.632268596107" lon="17.969624660226">
        <ele>75.8</ele>
        <time>2017-11-06T18:45:23Z</time>
      </trkpt>
      <trkpt lat="62.632240852018" lon="17.969631784841">
        <ele>75.8</ele>
        <time>2017-11-06T18:45:24Z</time>
      </trkpt>
      <trkpt lat="62.632214029938" lon="17.969633461221">
        <ele>75.6</ele>
        <time>2017-11-06T18:45:25Z</time>
      </trkpt>
      <trkpt lat="62.632185782935" lon="17.969640334379">
        <ele>75.6</ele>
        <time>2017-11-06T18:45:26Z</time>
      </trkpt>
      <trkpt lat="62.632158457941" lon="17.969644273872">
        <ele>75.6</ele>
        <time>2017-11-06T18:45:27Z</time>
      </trkpt>
      <trkpt lat="62.632132474051" lon="17.969657936369">
        <ele>75.4</ele>
        <time>2017-11-06T18:45:28Z</time>
      </trkpt>
      <trkpt lat="62.632102299211" lon="17.969661540586">
        <ele>75.4</ele>
        <time>2017-11-06T18:45:29Z</time>
      </trkpt>
      <trkpt lat="62.632075309493" lon="17.969670173943">
        <ele>75.6</ele>
        <time>2017-11-06T18:45:30Z</time>
      </trkpt>
      <trkpt lat="62.632045134653" lon="17.969680316042">
        <ele>75.6</ele>
        <time>2017-11-06T18:45:31Z</time>
      </trkpt>
      <trkpt lat="62.632017558202" lon="17.969685848096">
        <ele>75.6</ele>
        <time>2017-11-06T18:45:32Z</time>
      </trkpt>
      <trkpt lat="62.631989897932" lon="17.96968970377">
        <ele>75.8</ele>
        <time>2017-11-06T18:45:33Z</time>
      </trkpt>
      <trkpt lat="62.631961231834" lon="17.969687608295">
        <ele>75.8</ele>
        <time>2017-11-06T18:45:34Z</time>
      </trkpt>
      <trkpt lat="62.631931979003" lon="17.969685345182">
        <ele>75.8</ele>
        <time>2017-11-06T18:45:35Z</time>
      </trkpt>
      <trkpt lat="62.631905576018" lon="17.969685009906">
        <ele>75.8</ele>
        <time>2017-11-06T18:45:36Z</time>
      </trkpt>
      <trkpt lat="62.631877412834" lon="17.969686853924">
        <ele>75.6</ele>
        <time>2017-11-06T18:45:37Z</time>
      </trkpt>
      <trkpt lat="62.631852099496" lon="17.969694900548">
        <ele>75.6</ele>
        <time>2017-11-06T18:45:38Z</time>
      </trkpt>
      <trkpt lat="62.631826367063" lon="17.969709065959">
        <ele>75.6</ele>
        <time>2017-11-06T18:45:39Z</time>
      </trkpt>
      <trkpt lat="62.631801640458" lon="17.969727170863">
        <ele>75.4</ele>
        <time>2017-11-06T18:45:40Z</time>
      </trkpt>
      <trkpt lat="62.631776746215" lon="17.969756842789">
        <ele>75.2</ele>
        <time>2017-11-06T18:45:41Z</time>
      </trkpt>
      <trkpt lat="62.631755120913" lon="17.969785089792">
        <ele>75.2</ele>
        <time>2017-11-06T18:45:42Z</time>
      </trkpt>
      <trkpt lat="62.631733914706" lon="17.969810067854">
        <ele>75</ele>
        <time>2017-11-06T18:45:43Z</time>
      </trkpt>
      <trkpt lat="62.631710445386" lon="17.969836051744">
        <ele>75.2</ele>
        <time>2017-11-06T18:45:44Z</time>
      </trkpt>
      <trkpt lat="62.631690328826" lon="17.969856000666">
        <ele>75.2</ele>
        <time>2017-11-06T18:45:45Z</time>
      </trkpt>
      <trkpt lat="62.631669122619" lon="17.969868824973">
        <ele>75.2</ele>
        <time>2017-11-06T18:45:46Z</time>
      </trkpt>
      <trkpt lat="62.631646072394" lon="17.969886007868">
        <ele>75.4</ele>
        <time>2017-11-06T18:45:47Z</time>
      </trkpt>
      <trkpt lat="62.631621848703" lon="17.969904699505">
        <ele>75.4</ele>
        <time>2017-11-06T18:45:48Z</time>
      </trkpt>
      <trkpt lat="62.631595026623" lon="17.969919703106">
        <ele>75.4</ele>
        <time>2017-11-06T18:45:49Z</time>
      </trkpt>
      <trkpt lat="62.631567869267" lon="17.969934958164">
        <ele>75.6</ele>
        <time>2017-11-06T18:45:50Z</time>
      </trkpt>
      <trkpt lat="62.631542388291" lon="17.969950297041">
        <ele>75.6</ele>
        <time>2017-11-06T18:45:51Z</time>
      </trkpt>
      <trkpt lat="62.631518332238" lon="17.96996882104">
        <ele>75.8</ele>
        <time>2017-11-06T18:45:52Z</time>
      </trkpt>
      <trkpt lat="62.631491845434" lon="17.969980136605">
        <ele>75.8</ele>
        <time>2017-11-06T18:45:53Z</time>
      </trkpt>
      <trkpt lat="62.631465526268" lon="17.96999564312">
        <ele>75.8</ele>
        <time>2017-11-06T18:45:54Z</time>
      </trkpt>
      <trkpt lat="62.63144105112" lon="17.970012658377">
        <ele>75.8</ele>
        <time>2017-11-06T18:45:55Z</time>
      </trkpt>
      <trkpt lat="62.631414145221" lon="17.97002330339">
        <ele>75.8</ele>
        <time>2017-11-06T18:45:56Z</time>
      </trkpt>
      <trkpt lat="62.63138656877" lon="17.970040737742">
        <ele>75.8</ele>
        <time>2017-11-06T18:45:57Z</time>
      </trkpt>
      <trkpt lat="62.631365697839" lon="17.970049203461">
        <ele>76</ele>
        <time>2017-11-06T18:45:58Z</time>
      </trkpt>
      <trkpt lat="62.631335606818" lon="17.970066134899">
        <ele>76</ele>
        <time>2017-11-06T18:45:59Z</time>
      </trkpt>
      <trkpt lat="62.631309790566" lon="17.970078288654">
        <ele>76.2</ele>
        <time>2017-11-06T18:46:00Z</time>
      </trkpt>
      <trkpt lat="62.631287327074" lon="17.970087592563">
        <ele>76.2</ele>
        <time>2017-11-06T18:46:01Z</time>
      </trkpt>
      <trkpt lat="62.631264528306" lon="17.970093795169">
        <ele>76.2</ele>
        <time>2017-11-06T18:46:02Z</time>
      </trkpt>
      <trkpt lat="62.631238795873" lon="17.970104440182">
        <ele>76.2</ele>
        <time>2017-11-06T18:46:03Z</time>
      </trkpt>
      <trkpt lat="62.631214907458" lon="17.97011634248">
        <ele>76.4</ele>
        <time>2017-11-06T18:46:04Z</time>
      </trkpt>
      <trkpt lat="62.631188588292" lon="17.970121623077">
        <ele>76.4</ele>
        <time>2017-11-06T18:46:05Z</time>
      </trkpt>
      <trkpt lat="62.631163023497" lon="17.970130172615">
        <ele>76.4</ele>
        <time>2017-11-06T18:46:06Z</time>
      </trkpt>
      <trkpt lat="62.631140895281" lon="17.970141739637">
        <ele>76.2</ele>
        <time>2017-11-06T18:46:07Z</time>
      </trkpt>
      <trkpt lat="62.631117090685" lon="17.970154312487">
        <ele>76.4</ele>
        <time>2017-11-06T18:46:08Z</time>
      </trkpt>
      <trkpt lat="62.631090603881" lon="17.970164035491">
        <ele>76.2</ele>
        <time>2017-11-06T18:46:09Z</time>
      </trkpt>
      <trkpt lat="62.6310487782" lon="17.970176524522">
        <ele>76.4</ele>
        <time>2017-11-06T18:46:11Z</time>
      </trkpt>
      <trkpt lat="62.631032349676" lon="17.970173004124">
        <ele>76.4</ele>
        <time>2017-11-06T18:46:12Z</time>
      </trkpt>
      <trkpt lat="62.631017178437" lon="17.970168980812">
        <ele>76.4</ele>
        <time>2017-11-06T18:46:13Z</time>
      </trkpt>
      <trkpt lat="62.631004773225" lon="17.970164203129">
        <ele>76.6</ele>
        <time>2017-11-06T18:46:14Z</time>
      </trkpt>
      <trkpt lat="62.630991446004" lon="17.970145930587">
        <ele>76.8</ele>
        <time>2017-11-06T18:46:15Z</time>
      </trkpt>
      <trkpt lat="62.630981723" lon="17.97014651732">
        <ele>77</ele>
        <time>2017-11-06T18:46:16Z</time>
      </trkpt>
      <trkpt lat="62.630968731055" lon="17.970132687185">
        <ele>77</ele>
        <time>2017-11-06T18:46:17Z</time>
      </trkpt>
      <trkpt lat="62.630957247852" lon="17.970115336652">
        <ele>77</ele>
        <time>2017-11-06T18:46:18Z</time>
      </trkpt>
      <trkpt lat="62.630946854296" lon="17.970094130445">
        <ele>77</ele>
        <time>2017-11-06T18:46:19Z</time>
      </trkpt>
      <trkpt lat="62.630938891491" lon="17.970075103532">
        <ele>77</ele>
        <time>2017-11-06T18:46:20Z</time>
      </trkpt>
      <trkpt lat="62.630931766876" lon="17.970066134899">
        <ele>77</ele>
        <time>2017-11-06T18:46:21Z</time>
      </trkpt>
      <trkpt lat="62.630925731908" lon="17.970050460746">
        <ele>76.8</ele>
        <time>2017-11-06T18:46:22Z</time>
      </trkpt>
      <trkpt lat="62.63092053513" lon="17.970026069417">
        <ele>76.6</ele>
        <time>2017-11-06T18:46:23Z</time>
      </trkpt>
      <trkpt lat="62.630919613121" lon="17.970003019192">
        <ele>76.6</ele>
        <time>2017-11-06T18:46:24Z</time>
      </trkpt>
      <trkpt lat="62.630918691112" lon="17.969979046958">
        <ele>76.4</ele>
        <time>2017-11-06T18:46:25Z</time>
      </trkpt>
      <trkpt lat="62.630917517646" lon="17.969952727792">
        <ele>76.2</ele>
        <time>2017-11-06T18:46:26Z</time>
      </trkpt>
      <trkpt lat="62.630916176542" lon="17.969934958164">
        <ele>76.2</ele>
        <time>2017-11-06T18:46:27Z</time>
      </trkpt>
      <trkpt lat="62.630915422171" lon="17.969919870744">
        <ele>76.2</ele>
        <time>2017-11-06T18:46:28Z</time>
      </trkpt>
      <trkpt lat="62.630910560669" lon="17.969952979249">
        <ele>76</ele>
        <time>2017-11-06T18:46:29Z</time>
      </trkpt>
      <trkpt lat="62.630881224019" lon="17.969597838146">
        <ele>75</ele>
        <time>2017-11-06T18:46:42Z</time>
      </trkpt>
      <trkpt lat="62.630878206535" lon="17.969575458473">
        <ele>74.8</ele>
        <time>2017-11-06T18:46:43Z</time>
      </trkpt>
      <trkpt lat="62.630873764128" lon="17.96954302052">
        <ele>74.8</ele>
        <time>2017-11-06T18:46:44Z</time>
      </trkpt>
      <trkpt lat="62.630871668653" lon="17.969516282259">
        <ele>74.6</ele>
        <time>2017-11-06T18:46:45Z</time>
      </trkpt>
      <trkpt lat="62.630868818807" lon="17.969494573138">
        <ele>74.4</ele>
        <time>2017-11-06T18:46:46Z</time>
      </trkpt>
      <trkpt lat="62.6308643764" lon="17.969468589248">
        <ele>74.4</ele>
        <time>2017-11-06T18:46:47Z</time>
      </trkpt>
      <trkpt lat="62.630861694192" lon="17.969440426064">
        <ele>74.2</ele>
        <time>2017-11-06T18:46:48Z</time>
      </trkpt>
      <trkpt lat="62.630859933993" lon="17.969412598156">
        <ele>74.2</ele>
        <time>2017-11-06T18:46:49Z</time>
      </trkpt>
      <trkpt lat="62.630855072491" lon="17.969384099696">
        <ele>74.2</ele>
        <time>2017-11-06T18:46:50Z</time>
      </trkpt>
      <trkpt lat="62.630849959532" lon="17.969358786358">
        <ele>74</ele>
        <time>2017-11-06T18:46:51Z</time>
      </trkpt>
      <trkpt lat="62.63084342165" lon="17.969326348405">
        <ele>74</ele>
        <time>2017-11-06T18:46:52Z</time>
      </trkpt>
      <trkpt lat="62.630838643967" lon="17.96929575447">
        <ele>73.8</ele>
        <time>2017-11-06T18:46:53Z</time>
      </trkpt>
      <trkpt lat="62.630833447189" lon="17.969260885766">
        <ele>73.8</ele>
        <time>2017-11-06T18:46:54Z</time>
      </trkpt>
      <trkpt lat="62.630829759153" lon="17.969232387306">
        <ele>73.8</ele>
        <time>2017-11-06T18:46:55Z</time>
      </trkpt>
      <trkpt lat="62.630826154936" lon="17.969200871362">
        <ele>73.4</ele>
        <time>2017-11-06T18:46:56Z</time>
      </trkpt>
      <trkpt lat="62.630822969814" lon="17.969169942151">
        <ele>73</ele>
        <time>2017-11-06T18:46:57Z</time>
      </trkpt>
      <trkpt lat="62.630819449416" lon="17.96914152751">
        <ele>72.8</ele>
        <time>2017-11-06T18:46:58Z</time>
      </trkpt>
      <trkpt lat="62.630814671733" lon="17.969108419005">
        <ele>72.6</ele>
        <time>2017-11-06T18:46:59Z</time>
      </trkpt>
      <trkpt lat="62.630811235154" lon="17.969075729595">
        <ele>72.4</ele>
        <time>2017-11-06T18:47:00Z</time>
      </trkpt>
      <trkpt lat="62.630806625109" lon="17.969047231135">
        <ele>72.2</ele>
        <time>2017-11-06T18:47:01Z</time>
      </trkpt>
      <trkpt lat="62.63080067396" lon="17.969025689652">
        <ele>72</ele>
        <time>2017-11-06T18:47:02Z</time>
      </trkpt>
      <trkpt lat="62.630797824114" lon="17.968998699934">
        <ele>71.8</ele>
        <time>2017-11-06T18:47:03Z</time>
      </trkpt>
      <trkpt lat="62.630796985924" lon="17.968973218958">
        <ele>71.8</ele>
        <time>2017-11-06T18:47:04Z</time>
      </trkpt>
      <trkpt lat="62.630794722811" lon="17.968946480697">
        <ele>71.6</ele>
        <time>2017-11-06T18:47:05Z</time>
      </trkpt>
      <trkpt lat="62.630792208241" lon="17.968922508463">
        <ele>71.4</ele>
        <time>2017-11-06T18:47:06Z</time>
      </trkpt>
      <trkpt lat="62.630790280404" lon="17.968899877333">
        <ele>71.4</ele>
        <time>2017-11-06T18:47:07Z</time>
      </trkpt>
      <trkpt lat="62.630787011463" lon="17.96887665947">
        <ele>71.2</ele>
        <time>2017-11-06T18:47:08Z</time>
      </trkpt>
      <trkpt lat="62.630783407246" lon="17.968851178494">
        <ele>71</ele>
        <time>2017-11-06T18:47:09Z</time>
      </trkpt>
      <trkpt lat="62.630779300115" lon="17.968816477428">
        <ele>71</ele>
        <time>2017-11-06T18:47:10Z</time>
      </trkpt>
      <trkpt lat="62.630774606251" lon="17.968788314244">
        <ele>71</ele>
        <time>2017-11-06T18:47:11Z</time>
      </trkpt>
      <trkpt lat="62.630769493292" lon="17.968771215168">
        <ele>70.8</ele>
        <time>2017-11-06T18:47:12Z</time>
      </trkpt>
      <trkpt lat="62.630762787772" lon="17.96874087269">
        <ele>70.8</ele>
        <time>2017-11-06T18:47:13Z</time>
      </trkpt>
      <trkpt lat="62.630750885474" lon="17.968725198537">
        <ele>70.8</ele>
        <time>2017-11-06T18:47:14Z</time>
      </trkpt>
      <trkpt lat="62.630743257945" lon="17.968702399769">
        <ele>70.8</ele>
        <time>2017-11-06T18:47:15Z</time>
      </trkpt>
      <trkpt lat="62.630735462778" lon="17.968678343716">
        <ele>70.6</ele>
        <time>2017-11-06T18:47:16Z</time>
      </trkpt>
      <trkpt lat="62.630727835249" lon="17.968659065346">
        <ele>70.4</ele>
        <time>2017-11-06T18:47:17Z</time>
      </trkpt>
      <trkpt lat="62.630720962091" lon="17.968638026777">
        <ele>70.2</ele>
        <time>2017-11-06T18:47:18Z</time>
      </trkpt>
      <trkpt lat="62.630714591847" lon="17.968616988208">
        <ele>69.6</ele>
        <time>2017-11-06T18:47:19Z</time>
      </trkpt>
      <trkpt lat="62.630708137784" lon="17.968597961295">
        <ele>69.4</ele>
        <time>2017-11-06T18:47:20Z</time>
      </trkpt>
      <trkpt lat="62.630701935178" lon="17.968583125332">
        <ele>69.2</ele>
        <time>2017-11-06T18:47:21Z</time>
      </trkpt>
      <trkpt lat="62.63069590021" lon="17.968568540826">
        <ele>69</ele>
        <time>2017-11-06T18:47:22Z</time>
      </trkpt>
      <trkpt lat="62.630689278509" lon="17.968554291596">
        <ele>68.8</ele>
        <time>2017-11-06T18:47:23Z</time>
      </trkpt>
      <trkpt lat="62.630681315704" lon="17.968534258855">
        <ele>68.8</ele>
        <time>2017-11-06T18:47:24Z</time>
      </trkpt>
      <trkpt lat="62.630674526365" lon="17.968517243598">
        <ele>68.6</ele>
        <time>2017-11-06T18:47:25Z</time>
      </trkpt>
      <trkpt lat="62.630664216628" lon="17.968499641608">
        <ele>68.4</ele>
        <time>2017-11-06T18:47:26Z</time>
      </trkpt>
      <trkpt lat="62.630655499452" lon="17.968480866152">
        <ele>68.2</ele>
        <time>2017-11-06T18:47:27Z</time>
      </trkpt>
      <trkpt lat="62.630645524991" lon="17.968463599438">
        <ele>68.2</ele>
        <time>2017-11-06T18:47:28Z</time>
      </trkpt>
      <trkpt lat="62.630636137263" lon="17.968443566697">
        <ele>68</ele>
        <time>2017-11-06T18:47:29Z</time>
      </trkpt>
      <trkpt lat="62.630626162802" lon="17.968420600291">
        <ele>67.8</ele>
        <time>2017-11-06T18:47:30Z</time>
      </trkpt>
      <trkpt lat="62.630617864721" lon="17.968406183423">
        <ele>67.6</ele>
        <time>2017-11-06T18:47:31Z</time>
      </trkpt>
      <trkpt lat="62.630611159201" lon="17.968388581433">
        <ele>67.6</ele>
        <time>2017-11-06T18:47:32Z</time>
      </trkpt>
      <trkpt lat="62.630603950767" lon="17.968362094629">
        <ele>67.4</ele>
        <time>2017-11-06T18:47:33Z</time>
      </trkpt>
      <trkpt lat="62.630591545555" lon="17.968342480983">
        <ele>67.4</ele>
        <time>2017-11-06T18:47:34Z</time>
      </trkpt>
      <trkpt lat="62.630585845863" lon="17.968327728839">
        <ele>67.2</ele>
        <time>2017-11-06T18:47:35Z</time>
      </trkpt>
      <trkpt lat="62.630574949393" lon="17.968306522632">
        <ele>67</ele>
        <time>2017-11-06T18:47:36Z</time>
      </trkpt>
      <trkpt lat="62.630568411511" lon="17.968287244262">
        <ele>66.8</ele>
        <time>2017-11-06T18:47:37Z</time>
      </trkpt>
      <trkpt lat="62.630561705991" lon="17.968266289512">
        <ele>66.8</ele>
        <time>2017-11-06T18:47:38Z</time>
      </trkpt>
      <trkpt lat="62.630552904996" lon="17.968241479088">
        <ele>66.6</ele>
        <time>2017-11-06T18:47:39Z</time>
      </trkpt>
      <trkpt lat="62.630544020182" lon="17.96821784213">
        <ele>66.4</ele>
        <time>2017-11-06T18:47:40Z</time>
      </trkpt>
      <trkpt lat="62.630535554463" lon="17.96819018186">
        <ele>66</ele>
        <time>2017-11-06T18:47:41Z</time>
      </trkpt>
      <trkpt lat="62.630528178391" lon="17.968160090839">
        <ele>65.8</ele>
        <time>2017-11-06T18:47:42Z</time>
      </trkpt>
      <trkpt lat="62.630520802319" lon="17.968127401429">
        <ele>65.6</ele>
        <time>2017-11-06T18:47:43Z</time>
      </trkpt>
      <trkpt lat="62.63051066022" lon="17.968095131114">
        <ele>65.4</ele>
        <time>2017-11-06T18:47:44Z</time>
      </trkpt>
      <trkpt lat="62.63050814565" lon="17.968063866627">
        <ele>65.2</ele>
        <time>2017-11-06T18:47:45Z</time>
      </trkpt>
      <trkpt lat="62.630500769578" lon="17.968033775606">
        <ele>65</ele>
        <time>2017-11-06T18:47:46Z</time>
      </trkpt>
      <trkpt lat="62.630494483153" lon="17.968001253834">
        <ele>64.8</ele>
        <time>2017-11-06T18:47:47Z</time>
      </trkpt>
      <trkpt lat="62.630490711298" lon="17.967969067338">
        <ele>64.8</ele>
        <time>2017-11-06T18:47:48Z</time>
      </trkpt>
      <trkpt lat="62.630486185072" lon="17.967935455919">
        <ele>64.6</ele>
        <time>2017-11-06T18:47:49Z</time>
      </trkpt>
      <trkpt lat="62.630482497036" lon="17.967902598871">
        <ele>64.4</ele>
        <time>2017-11-06T18:47:50Z</time>
      </trkpt>
      <trkpt lat="62.630479731009" lon="17.967869238909">
        <ele>64.4</ele>
        <time>2017-11-06T18:47:51Z</time>
      </trkpt>
      <trkpt lat="62.630478641362" lon="17.967840908087">
        <ele>64.2</ele>
        <time>2017-11-06T18:47:52Z</time>
      </trkpt>
      <trkpt lat="62.63047797081" lon="17.967809308324">
        <ele>64.2</ele>
        <time>2017-11-06T18:47:53Z</time>
      </trkpt>
      <trkpt lat="62.630475791516" lon="17.967774271982">
        <ele>64</ele>
        <time>2017-11-06T18:47:54Z</time>
      </trkpt>
      <trkpt lat="62.630473947498" lon="17.96774761754">
        <ele>64</ele>
        <time>2017-11-06T18:47:55Z</time>
      </trkpt>
      <trkpt lat="62.630472522575" lon="17.967714425216">
        <ele>64</ele>
        <time>2017-11-06T18:47:56Z</time>
      </trkpt>
      <trkpt lat="62.630473360765" lon="17.967682071082">
        <ele>63.8</ele>
        <time>2017-11-06T18:47:57Z</time>
      </trkpt>
      <trkpt lat="62.630473276946" lon="17.967652231518">
        <ele>63.6</ele>
        <time>2017-11-06T18:47:58Z</time>
      </trkpt>
      <trkpt lat="62.630472522575" lon="17.967617027538">
        <ele>63.4</ele>
        <time>2017-11-06T18:47:59Z</time>
      </trkpt>
      <trkpt lat="62.630473444584" lon="17.967586182146">
        <ele>63.2</ele>
        <time>2017-11-06T18:48:00Z</time>
      </trkpt>
      <trkpt lat="62.630474282774" lon="17.967556761677">
        <ele>63</ele>
        <time>2017-11-06T18:48:01Z</time>
      </trkpt>
      <trkpt lat="62.630472690213" lon="17.967525832466">
        <ele>62.8</ele>
        <time>2017-11-06T18:48:02Z</time>
      </trkpt>
      <trkpt lat="62.630473025489" lon="17.967494232703">
        <ele>62.6</ele>
        <time>2017-11-06T18:48:03Z</time>
      </trkpt>
      <trkpt lat="62.630475875335" lon="17.967459112542">
        <ele>62.4</ele>
        <time>2017-11-06T18:48:04Z</time>
      </trkpt>
      <trkpt lat="62.630479479552" lon="17.967427848055">
        <ele>62.2</ele>
        <time>2017-11-06T18:48:05Z</time>
      </trkpt>
      <trkpt lat="62.630482497036" lon="17.967395829197">
        <ele>62</ele>
        <time>2017-11-06T18:48:06Z</time>
      </trkpt>
      <trkpt lat="62.630483586683" lon="17.967365151443">
        <ele>61.8</ele>
        <time>2017-11-06T18:48:07Z</time>
      </trkpt>
      <trkpt lat="62.630484843968" lon="17.967333384042">
        <ele>61.6</ele>
        <time>2017-11-06T18:48:08Z</time>
      </trkpt>
      <trkpt lat="62.630485179244" lon="17.967303460659">
        <ele>61.4</ele>
        <time>2017-11-06T18:48:09Z</time>
      </trkpt>
      <trkpt lat="62.630483754321" lon="17.967273704914">
        <ele>61</ele>
        <time>2017-11-06T18:48:10Z</time>
      </trkpt>
      <trkpt lat="62.630483586683" lon="17.967239422943">
        <ele>61</ele>
        <time>2017-11-06T18:48:11Z</time>
      </trkpt>
      <trkpt lat="62.630485682158" lon="17.967202458764">
        <ele>60.8</ele>
        <time>2017-11-06T18:48:12Z</time>
      </trkpt>
      <trkpt lat="62.6304871909" lon="17.967179492358">
        <ele>60.8</ele>
        <time>2017-11-06T18:48:13Z</time>
      </trkpt>
      <trkpt lat="62.630490208384" lon="17.96715166445">
        <ele>60.6</ele>
        <time>2017-11-06T18:48:14Z</time>
      </trkpt>
      <trkpt lat="62.630493309687" lon="17.967125596741">
        <ele>60.6</ele>
        <time>2017-11-06T18:48:15Z</time>
      </trkpt>
      <trkpt lat="62.630494315515" lon="17.967095086625">
        <ele>60.4</ele>
        <time>2017-11-06T18:48:16Z</time>
      </trkpt>
      <trkpt lat="62.630496075714" lon="17.967069102735">
        <ele>60.2</ele>
        <time>2017-11-06T18:48:17Z</time>
      </trkpt>
      <trkpt lat="62.630498003551" lon="17.967039682266">
        <ele>60.2</ele>
        <time>2017-11-06T18:48:18Z</time>
      </trkpt>
      <trkpt lat="62.630498757922" lon="17.967010429435">
        <ele>60</ele>
        <time>2017-11-06T18:48:19Z</time>
      </trkpt>
      <trkpt lat="62.630499679931" lon="17.966981260423">
        <ele>59.8</ele>
        <time>2017-11-06T18:48:20Z</time>
      </trkpt>
      <trkpt lat="62.630500350483" lon="17.966948068099">
        <ele>59.8</ele>
        <time>2017-11-06T18:48:21Z</time>
      </trkpt>
      <trkpt lat="62.630501943044" lon="17.966918060897">
        <ele>59.6</ele>
        <time>2017-11-06T18:48:22Z</time>
      </trkpt>
      <trkpt lat="62.630502445958" lon="17.966886042039">
        <ele>59.2</ele>
        <time>2017-11-06T18:48:23Z</time>
      </trkpt>
      <trkpt lat="62.630502865053" lon="17.966851927706">
        <ele>59</ele>
        <time>2017-11-06T18:48:24Z</time>
      </trkpt>
      <trkpt lat="62.630505211985" lon="17.966820160305">
        <ele>58.6</ele>
        <time>2017-11-06T18:48:25Z</time>
      </trkpt>
      <trkpt lat="62.630504876709" lon="17.966785962153">
        <ele>58.6</ele>
        <time>2017-11-06T18:48:26Z</time>
      </trkpt>
      <trkpt lat="62.630504373795" lon="17.966756793141">
        <ele>58.4</ele>
        <time>2017-11-06T18:48:27Z</time>
      </trkpt>
      <trkpt lat="62.630506804546" lon="17.966725109559">
        <ele>58.2</ele>
        <time>2017-11-06T18:48:28Z</time>
      </trkpt>
      <trkpt lat="62.63050730746" lon="17.966686971914">
        <ele>58</ele>
        <time>2017-11-06T18:48:29Z</time>
      </trkpt>
      <trkpt lat="62.630508732383" lon="17.966661407119">
        <ele>58</ele>
        <time>2017-11-06T18:48:30Z</time>
      </trkpt>
      <trkpt lat="62.630512923333" lon="17.966631819012">
        <ele>57.8</ele>
        <time>2017-11-06T18:48:31Z</time>
      </trkpt>
      <trkpt lat="62.630515940817" lon="17.96659845905">
        <ele>57.6</ele>
        <time>2017-11-06T18:48:32Z</time>
      </trkpt>
      <trkpt lat="62.630515437903" lon="17.966577169024">
        <ele>57.6</ele>
        <time>2017-11-06T18:48:33Z</time>
      </trkpt>
      <trkpt lat="62.63051736574" lon="17.966556717188">
        <ele>57.4</ele>
        <time>2017-11-06T18:48:34Z</time>
      </trkpt>
      <trkpt lat="62.630520383224" lon="17.966531236212">
        <ele>57.4</ele>
        <time>2017-11-06T18:48:35Z</time>
      </trkpt>
      <trkpt lat="62.630521808147" lon="17.966505000865">
        <ele>57.2</ele>
        <time>2017-11-06T18:48:36Z</time>
      </trkpt>
      <trkpt lat="62.630524322717" lon="17.966468791057">
        <ele>57.2</ele>
        <time>2017-11-06T18:48:37Z</time>
      </trkpt>
      <trkpt lat="62.630524657993" lon="17.966445321737">
        <ele>57</ele>
        <time>2017-11-06T18:48:38Z</time>
      </trkpt>
      <trkpt lat="62.630527843115" lon="17.966414643983">
        <ele>57</ele>
        <time>2017-11-06T18:48:39Z</time>
      </trkpt>
      <trkpt lat="62.630529603314" lon="17.966384217686">
        <ele>56.8</ele>
        <time>2017-11-06T18:48:40Z</time>
      </trkpt>
      <trkpt lat="62.630534883911" lon="17.966357563244">
        <ele>56.8</ele>
        <time>2017-11-06T18:48:41Z</time>
      </trkpt>
      <trkpt lat="62.63053664411" lon="17.966326634033">
        <ele>56.8</ele>
        <time>2017-11-06T18:48:42Z</time>
      </trkpt>
      <trkpt lat="62.630539577775" lon="17.966299811953">
        <ele>56.6</ele>
        <time>2017-11-06T18:48:43Z</time>
      </trkpt>
      <trkpt lat="62.630539829232" lon="17.966262596317">
        <ele>56.4</ele>
        <time>2017-11-06T18:48:44Z</time>
      </trkpt>
      <trkpt lat="62.630541086517" lon="17.966233343486">
        <ele>56.4</ele>
        <time>2017-11-06T18:48:45Z</time>
      </trkpt>
      <trkpt lat="62.630539493956" lon="17.966211718184">
        <ele>56.2</ele>
        <time>2017-11-06T18:48:46Z</time>
      </trkpt>
      <trkpt lat="62.630539913051" lon="17.966187578312">
        <ele>56</ele>
        <time>2017-11-06T18:48:47Z</time>
      </trkpt>
      <trkpt lat="62.630542427621" lon="17.966162516431">
        <ele>56</ele>
        <time>2017-11-06T18:48:48Z</time>
      </trkpt>
      <trkpt lat="62.630544690734" lon="17.966137706007">
        <ele>56</ele>
        <time>2017-11-06T18:48:49Z</time>
      </trkpt>
      <trkpt lat="62.630546534752" lon="17.966114739601">
        <ele>55.8</ele>
        <time>2017-11-06T18:48:50Z</time>
      </trkpt>
      <trkpt lat="62.630551982987" lon="17.966088588073">
        <ele>55.8</ele>
        <time>2017-11-06T18:48:51Z</time>
      </trkpt>
      <trkpt lat="62.630553072634" lon="17.966063526192">
        <ele>55.6</ele>
        <time>2017-11-06T18:48:52Z</time>
      </trkpt>
      <trkpt lat="62.630555000471" lon="17.966037877578">
        <ele>55.4</ele>
        <time>2017-11-06T18:48:53Z</time>
      </trkpt>
      <trkpt lat="62.630556509213" lon="17.966012312783">
        <ele>55.2</ele>
        <time>2017-11-06T18:48:54Z</time>
      </trkpt>
      <trkpt lat="62.630557347403" lon="17.965984401056">
        <ele>55.2</ele>
        <time>2017-11-06T18:48:55Z</time>
      </trkpt>
      <trkpt lat="62.630558604688" lon="17.965959003899">
        <ele>55</ele>
        <time>2017-11-06T18:48:56Z</time>
      </trkpt>
      <trkpt lat="62.630559945792" lon="17.965936372769">
        <ele>54.8</ele>
        <time>2017-11-06T18:48:57Z</time>
      </trkpt>
      <trkpt lat="62.630561705991" lon="17.965915501838">
        <ele>54.8</ele>
        <time>2017-11-06T18:48:58Z</time>
      </trkpt>
      <trkpt lat="62.630563633828" lon="17.965882141876">
        <ele>54.8</ele>
        <time>2017-11-06T18:48:59Z</time>
      </trkpt>
      <trkpt lat="62.630565561665" lon="17.965846099706">
        <ele>54.8</ele>
        <time>2017-11-06T18:49:00Z</time>
      </trkpt>
      <trkpt lat="62.630567405683" lon="17.965810644269">
        <ele>54.8</ele>
        <time>2017-11-06T18:49:01Z</time>
      </trkpt>
      <trkpt lat="62.630567405683" lon="17.965775105013">
        <ele>54.8</ele>
        <time>2017-11-06T18:49:02Z</time>
      </trkpt>
      <trkpt lat="62.630568076235" lon="17.965742080327">
        <ele>54.6</ele>
        <time>2017-11-06T18:49:03Z</time>
      </trkpt>
      <trkpt lat="62.630567740959" lon="17.965704445596">
        <ele>54.6</ele>
        <time>2017-11-06T18:49:04Z</time>
      </trkpt>
      <trkpt lat="62.630568998244" lon="17.965667649055">
        <ele>54.4</ele>
        <time>2017-11-06T18:49:05Z</time>
      </trkpt>
      <trkpt lat="62.63056598076" lon="17.965630684876">
        <ele>54.4</ele>
        <time>2017-11-06T18:49:06Z</time>
      </trkpt>
      <trkpt lat="62.630566148398" lon="17.965592128136">
        <ele>54</ele>
        <time>2017-11-06T18:49:07Z</time>
      </trkpt>
      <trkpt lat="62.630567321864" lon="17.965553906672">
        <ele>53.8</ele>
        <time>2017-11-06T18:49:08Z</time>
      </trkpt>
      <trkpt lat="62.630569082063" lon="17.965512248629">
        <ele>53.6</ele>
        <time>2017-11-06T18:49:09Z</time>
      </trkpt>
      <trkpt lat="62.630573189194" lon="17.965476709373">
        <ele>53.6</ele>
        <time>2017-11-06T18:49:10Z</time>
      </trkpt>
      <trkpt lat="62.630581235818" lon="17.965431363294">
        <ele>53.4</ele>
        <time>2017-11-06T18:49:12Z</time>
      </trkpt>
      <trkpt lat="62.630582325465" lon="17.965421053557">
        <ele>53.4</ele>
        <time>2017-11-06T18:49:13Z</time>
      </trkpt>
      <trkpt lat="62.630588444252" lon="17.965419377177">
        <ele>53.4</ele>
        <time>2017-11-06T18:49:14Z</time>
      </trkpt>
      <trkpt lat="62.630588779528" lon="17.96541661115">
        <ele>53.2</ele>
        <time>2017-11-06T18:49:15Z</time>
      </trkpt>
      <trkpt lat="62.630595736505" lon="17.965421724109">
        <ele>53.2</ele>
        <time>2017-11-06T18:49:16Z</time>
      </trkpt>
      <trkpt lat="62.630833698646" lon="17.965457850098">
        <ele>53</ele>
        <time>2017-11-06T18:50:06Z</time>
      </trkpt>
      <trkpt lat="62.63086270002" lon="17.96548115178">
        <ele>53.2</ele>
        <time>2017-11-06T18:50:07Z</time>
      </trkpt>
      <trkpt lat="62.630890108833" lon="17.965499927236">
        <ele>53.2</ele>
        <time>2017-11-06T18:50:08Z</time>
      </trkpt>
      <trkpt lat="62.630919194026" lon="17.965507303308">
        <ele>53.2</ele>
        <time>2017-11-06T18:50:09Z</time>
      </trkpt>
      <trkpt lat="62.630947273391" lon="17.965508392955">
        <ele>53.4</ele>
        <time>2017-11-06T18:50:10Z</time>
      </trkpt>
      <trkpt lat="62.630977196774" lon="17.96549121006">
        <ele>53.6</ele>
        <time>2017-11-06T18:50:11Z</time>
      </trkpt>
      <trkpt lat="62.631006952519" lon="17.965472937518">
        <ele>54</ele>
        <time>2017-11-06T18:50:12Z</time>
      </trkpt>
      <trkpt lat="62.631036875902" lon="17.965455586985">
        <ele>54.2</ele>
        <time>2017-11-06T18:50:13Z</time>
      </trkpt>
      <trkpt lat="62.631061434869" lon="17.96541744934">
        <ele>54.4</ele>
        <time>2017-11-06T18:50:14Z</time>
      </trkpt>
      <trkpt lat="62.631087837854" lon="17.965382748274">
        <ele>54.6</ele>
        <time>2017-11-06T18:50:15Z</time>
      </trkpt>
      <trkpt lat="62.631114073201" lon="17.965349723588">
        <ele>54.8</ele>
        <time>2017-11-06T18:50:16Z</time>
      </trkpt>
      <trkpt lat="62.63113846453" lon="17.96531351378">
        <ele>55</ele>
        <time>2017-11-06T18:50:17Z</time>
      </trkpt>
      <trkpt lat="62.631167046809" lon="17.965286440243">
        <ele>55</ele>
        <time>2017-11-06T18:50:18Z</time>
      </trkpt>
      <trkpt lat="62.631198311296" lon="17.965283925673">
        <ele>55</ele>
        <time>2017-11-06T18:50:19Z</time>
      </trkpt>
      <trkpt lat="62.631228402317" lon="17.965298593998">
        <ele>55.2</ele>
        <time>2017-11-06T18:50:20Z</time>
      </trkpt>
      <trkpt lat="62.631256314044" lon="17.965322566232">
        <ele>55</ele>
        <time>2017-11-06T18:50:21Z</time>
      </trkpt>
      <trkpt lat="62.631282549391" lon="17.965349975045">
        <ele>55.2</ele>
        <time>2017-11-06T18:50:22Z</time>
      </trkpt>
      <trkpt lat="62.631305431978" lon="17.965379479333">
        <ele>55.2</ele>
        <time>2017-11-06T18:50:23Z</time>
      </trkpt>
      <trkpt lat="62.631324794167" lon="17.965413174571">
        <ele>55.4</ele>
        <time>2017-11-06T18:50:24Z</time>
      </trkpt>
      <trkpt lat="62.631347257659" lon="17.96544427142">
        <ele>55.6</ele>
        <time>2017-11-06T18:50:25Z</time>
      </trkpt>
      <trkpt lat="62.631370056427" lon="17.965471261138">
        <ele>55.8</ele>
        <time>2017-11-06T18:50:26Z</time>
      </trkpt>
      <trkpt lat="62.631394280118" lon="17.96549875377">
        <ele>55.8</ele>
        <time>2017-11-06T18:50:27Z</time>
      </trkpt>
      <trkpt lat="62.631418922904" lon="17.965529263886">
        <ele>55.8</ele>
        <time>2017-11-06T18:50:28Z</time>
      </trkpt>
      <trkpt lat="62.631441721672" lon="17.965553152301">
        <ele>56</ele>
        <time>2017-11-06T18:50:29Z</time>
      </trkpt>
      <trkpt lat="62.631465023354" lon="17.965582824227">
        <ele>56</ele>
        <time>2017-11-06T18:50:30Z</time>
      </trkpt>
      <trkpt lat="62.631489498502" lon="17.965608975755">
        <ele>56.2</ele>
        <time>2017-11-06T18:50:31Z</time>
      </trkpt>
      <trkpt lat="62.63151313546" lon="17.965634875826">
        <ele>56</ele>
        <time>2017-11-06T18:50:32Z</time>
      </trkpt>
      <trkpt lat="62.631537945884" lon="17.965665385942">
        <ele>56.2</ele>
        <time>2017-11-06T18:50:33Z</time>
      </trkpt>
      <trkpt lat="62.631558732996" lon="17.965683826122">
        <ele>56.4</ele>
        <time>2017-11-06T18:50:34Z</time>
      </trkpt>
      <trkpt lat="62.6315852198" lon="17.965704194139">
        <ele>56.6</ele>
        <time>2017-11-06T18:50:35Z</time>
      </trkpt>
      <trkpt lat="62.631611958061" lon="17.96572757964">
        <ele>56.8</ele>
        <time>2017-11-06T18:50:36Z</time>
      </trkpt>
      <trkpt lat="62.631636517028" lon="17.965750462227">
        <ele>57</ele>
        <time>2017-11-06T18:50:37Z</time>
      </trkpt>
      <trkpt lat="62.631660824538" lon="17.965776110841">
        <ele>57</ele>
        <time>2017-11-06T18:50:38Z</time>
      </trkpt>
      <trkpt lat="62.631684210039" lon="17.96579212027">
        <ele>57.4</ele>
        <time>2017-11-06T18:50:39Z</time>
      </trkpt>
      <trkpt lat="62.631706924988" lon="17.965811817735">
        <ele>57.4</ele>
        <time>2017-11-06T18:50:40Z</time>
      </trkpt>
      <trkpt lat="62.631732573602" lon="17.965837131073">
        <ele>57.6</ele>
        <time>2017-11-06T18:50:41Z</time>
      </trkpt>
      <trkpt lat="62.631755875284" lon="17.965859594565">
        <ele>57.8</ele>
        <time>2017-11-06T18:50:42Z</time>
      </trkpt>
      <trkpt lat="62.631780182794" lon="17.965878034745">
        <ele>57.8</ele>
        <time>2017-11-06T18:50:43Z</time>
      </trkpt>
      <trkpt lat="62.63180817834" lon="17.965896307287">
        <ele>58</ele>
        <time>2017-11-06T18:50:44Z</time>
      </trkpt>
      <trkpt lat="62.631835503334" lon="17.965913154906">
        <ele>58.2</ele>
        <time>2017-11-06T18:50:45Z</time>
      </trkpt>
      <trkpt lat="62.631862828328" lon="17.965931511267">
        <ele>58.2</ele>
        <time>2017-11-06T18:50:46Z</time>
      </trkpt>
      <trkpt lat="62.631889566589" lon="17.965948526524">
        <ele>58.4</ele>
        <time>2017-11-06T18:50:47Z</time>
      </trkpt>
      <trkpt lat="62.631913455004" lon="17.965964200677">
        <ele>58.4</ele>
        <time>2017-11-06T18:50:48Z</time>
      </trkpt>
      <trkpt lat="62.631941618188" lon="17.965987921454">
        <ele>58.6</ele>
        <time>2017-11-06T18:50:49Z</time>
      </trkpt>
      <trkpt lat="62.63196575806" lon="17.966004014702">
        <ele>58.6</ele>
        <time>2017-11-06T18:50:50Z</time>
      </trkpt>
      <trkpt lat="62.631993585968" lon="17.966018934484">
        <ele>58.8</ele>
        <time>2017-11-06T18:50:51Z</time>
      </trkpt>
      <trkpt lat="62.632017139107" lon="17.966032932257">
        <ele>58.8</ele>
        <time>2017-11-06T18:50:52Z</time>
      </trkpt>
      <trkpt lat="62.63203951878" lon="17.966048690229">
        <ele>58.8</ele>
        <time>2017-11-06T18:50:53Z</time>
      </trkpt>
      <trkpt lat="62.632064915937" lon="17.966066543676">
        <ele>59.2</ele>
        <time>2017-11-06T18:50:54Z</time>
      </trkpt>
      <trkpt lat="62.632087882343" lon="17.966083391295">
        <ele>59.4</ele>
        <time>2017-11-06T18:50:55Z</time>
      </trkpt>
      <trkpt lat="62.632111267844" lon="17.966098394896">
        <ele>59.4</ele>
        <time>2017-11-06T18:50:56Z</time>
      </trkpt>
      <trkpt lat="62.632136413544" lon="17.966109542823">
        <ele>59.6</ele>
        <time>2017-11-06T18:50:57Z</time>
      </trkpt>
      <trkpt lat="62.632160888692" lon="17.966118762913">
        <ele>59.6</ele>
        <time>2017-11-06T18:50:58Z</time>
      </trkpt>
      <trkpt lat="62.632189806247" lon="17.966131419582">
        <ele>59.8</ele>
        <time>2017-11-06T18:50:59Z</time>
      </trkpt>
      <trkpt lat="62.632215454861" lon="17.9661416455">
        <ele>60</ele>
        <time>2017-11-06T18:51:00Z</time>
      </trkpt>
      <trkpt lat="62.63224236076" lon="17.966150446495">
        <ele>60</ele>
        <time>2017-11-06T18:51:01Z</time>
      </trkpt>
      <trkpt lat="62.63226918284" lon="17.966161342965">
        <ele>60.2</ele>
        <time>2017-11-06T18:51:02Z</time>
      </trkpt>
      <trkpt lat="62.632294579997" lon="17.966171317426">
        <ele>60.2</ele>
        <time>2017-11-06T18:51:03Z</time>
      </trkpt>
      <trkpt lat="62.632319725697" lon="17.96618020224">
        <ele>60.2</ele>
        <time>2017-11-06T18:51:04Z</time>
      </trkpt>
      <trkpt lat="62.632349900537" lon="17.966190763434">
        <ele>60.2</ele>
        <time>2017-11-06T18:51:05Z</time>
      </trkpt>
      <trkpt lat="62.632377979902" lon="17.966199229153">
        <ele>60.4</ele>
        <time>2017-11-06T18:51:06Z</time>
      </trkpt>
      <trkpt lat="62.632406478362" lon="17.966205515578">
        <ele>60.4</ele>
        <time>2017-11-06T18:51:07Z</time>
      </trkpt>
      <trkpt lat="62.632434390089" lon="17.966212304917">
        <ele>60.4</ele>
        <time>2017-11-06T18:51:08Z</time>
      </trkpt>
      <trkpt lat="62.63245945197" lon="17.96622211174">
        <ele>60.6</ele>
        <time>2017-11-06T18:51:09Z</time>
      </trkpt>
      <trkpt lat="62.63248459767" lon="17.96623049364">
        <ele>60.6</ele>
        <time>2017-11-06T18:51:10Z</time>
      </trkpt>
      <trkpt lat="62.63251141975" lon="17.966232421477">
        <ele>60.6</ele>
        <time>2017-11-06T18:51:11Z</time>
      </trkpt>
      <trkpt lat="62.63253656545" lon="17.966234433133">
        <ele>60.8</ele>
        <time>2017-11-06T18:51:12Z</time>
      </trkpt>
      <trkpt lat="62.632561878788" lon="17.966236780065">
        <ele>60.8</ele>
        <time>2017-11-06T18:51:13Z</time>
      </trkpt>
      <trkpt lat="62.632589706696" lon="17.966241138653">
        <ele>60.8</ele>
        <time>2017-11-06T18:51:14Z</time>
      </trkpt>
      <trkpt lat="62.632617115509" lon="17.966242898852">
        <ele>61</ele>
        <time>2017-11-06T18:51:15Z</time>
      </trkpt>
      <trkpt lat="62.632644272865" lon="17.966246083974">
        <ele>61</ele>
        <time>2017-11-06T18:51:16Z</time>
      </trkpt>
      <trkpt lat="62.632669334746" lon="17.966250023467">
        <ele>61</ele>
        <time>2017-11-06T18:51:17Z</time>
      </trkpt>
      <trkpt lat="62.632693893713" lon="17.966252957132">
        <ele>61.2</ele>
        <time>2017-11-06T18:51:18Z</time>
      </trkpt>
      <trkpt lat="62.632722559811" lon="17.966255723159">
        <ele>61.4</ele>
        <time>2017-11-06T18:51:19Z</time>
      </trkpt>
      <trkpt lat="62.63274862752" lon="17.966256728987">
        <ele>61.4</ele>
        <time>2017-11-06T18:51:20Z</time>
      </trkpt>
      <trkpt lat="62.632773521763" lon="17.966256393711">
        <ele>61.6</ele>
        <time>2017-11-06T18:51:21Z</time>
      </trkpt>
      <trkpt lat="62.632800176205" lon="17.966257148082">
        <ele>61.6</ele>
        <time>2017-11-06T18:51:22Z</time>
      </trkpt>
      <trkpt lat="62.632822304421" lon="17.966255052607">
        <ele>61.8</ele>
        <time>2017-11-06T18:51:23Z</time>
      </trkpt>
      <trkpt lat="62.632849042682" lon="17.966258573005">
        <ele>61.8</ele>
        <time>2017-11-06T18:51:24Z</time>
      </trkpt>
      <trkpt lat="62.632875613305" lon="17.96626150667">
        <ele>61.8</ele>
        <time>2017-11-06T18:51:25Z</time>
      </trkpt>
      <trkpt lat="62.632902100109" lon="17.966264188878">
        <ele>62</ele>
        <time>2017-11-06T18:51:26Z</time>
      </trkpt>
      <trkpt lat="62.63292967656" lon="17.966263434507">
        <ele>62.2</ele>
        <time>2017-11-06T18:51:27Z</time>
      </trkpt>
      <trkpt lat="62.632958007382" lon="17.966262596317">
        <ele>62</ele>
        <time>2017-11-06T18:51:28Z</time>
      </trkpt>
      <trkpt lat="62.632982147254" lon="17.966261255213">
        <ele>62.2</ele>
        <time>2017-11-06T18:51:29Z</time>
      </trkpt>
      <trkpt lat="62.633010813352" lon="17.966260165566">
        <ele>62.4</ele>
        <time>2017-11-06T18:51:30Z</time>
      </trkpt>
      <trkpt lat="62.63303696488" lon="17.966259578833">
        <ele>62.2</ele>
        <time>2017-11-06T18:51:31Z</time>
      </trkpt>
      <trkpt lat="62.633061440028" lon="17.966258070091">
        <ele>62.4</ele>
        <time>2017-11-06T18:51:32Z</time>
      </trkpt>
      <trkpt lat="62.633088848841" lon="17.966256058435">
        <ele>62.4</ele>
        <time>2017-11-06T18:51:33Z</time>
      </trkpt>
      <trkpt lat="62.63311407836" lon="17.966257734815">
        <ele>62.6</ele>
        <time>2017-11-06T18:51:34Z</time>
      </trkpt>
      <trkpt lat="62.633143582648" lon="17.966256561349">
        <ele>62.6</ele>
        <time>2017-11-06T18:51:35Z</time>
      </trkpt>
      <trkpt lat="62.633169482719" lon="17.966255723159">
        <ele>62.6</ele>
        <time>2017-11-06T18:51:36Z</time>
      </trkpt>
      <trkpt lat="62.633195298971" lon="17.966252118942">
        <ele>62.8</ele>
        <time>2017-11-06T18:51:37Z</time>
      </trkpt>
      <trkpt lat="62.633221031404" lon="17.966248347087">
        <ele>62.8</ele>
        <time>2017-11-06T18:51:38Z</time>
      </trkpt>
      <trkpt lat="62.633247015294" lon="17.966251867485">
        <ele>63</ele>
        <time>2017-11-06T18:51:39Z</time>
      </trkpt>
      <trkpt lat="62.633272077175" lon="17.966252957132">
        <ele>63</ele>
        <time>2017-11-06T18:51:40Z</time>
      </trkpt>
      <trkpt lat="62.63329931835" lon="17.966247173621">
        <ele>63.2</ele>
        <time>2017-11-06T18:51:41Z</time>
      </trkpt>
      <trkpt lat="62.633326391887" lon="17.966243820861">
        <ele>63.2</ele>
        <time>2017-11-06T18:51:42Z</time>
      </trkpt>
      <trkpt lat="62.633353213967" lon="17.966240300463">
        <ele>63.2</ele>
        <time>2017-11-06T18:51:43Z</time>
      </trkpt>
      <trkpt lat="62.633379952228" lon="17.966240719558">
        <ele>63.4</ele>
        <time>2017-11-06T18:51:44Z</time>
      </trkpt>
      <trkpt lat="62.633406103756" lon="17.966238791721">
        <ele>63.4</ele>
        <time>2017-11-06T18:51:45Z</time>
      </trkpt>
      <trkpt lat="62.633430243628" lon="17.966235941875">
        <ele>63.4</ele>
        <time>2017-11-06T18:51:46Z</time>
      </trkpt>
      <trkpt lat="62.633455724604" lon="17.966234181676">
        <ele>63.4</ele>
        <time>2017-11-06T18:51:47Z</time>
      </trkpt>
      <trkpt lat="62.633484390702" lon="17.966232253839">
        <ele>63.6</ele>
        <time>2017-11-06T18:51:48Z</time>
      </trkpt>
      <trkpt lat="62.633512889162" lon="17.966225213043">
        <ele>63.6</ele>
        <time>2017-11-06T18:51:49Z</time>
      </trkpt>
      <trkpt lat="62.633538621595" lon="17.9662254645">
        <ele>63.6</ele>
        <time>2017-11-06T18:51:50Z</time>
      </trkpt>
      <trkpt lat="62.633564437847" lon="17.966228481984">
        <ele>63.8</ele>
        <time>2017-11-06T18:51:51Z</time>
      </trkpt>
      <trkpt lat="62.633590924651" lon="17.966231667106">
        <ele>63.8</ele>
        <time>2017-11-06T18:51:52Z</time>
      </trkpt>
      <trkpt lat="62.63361866874" lon="17.966236277151">
        <ele>63.8</ele>
        <time>2017-11-06T18:51:53Z</time>
      </trkpt>
      <trkpt lat="62.633645826096" lon="17.966236444789">
        <ele>63.8</ele>
        <time>2017-11-06T18:51:54Z</time>
      </trkpt>
      <trkpt lat="62.633673067271" lon="17.966247508897">
        <ele>63.8</ele>
        <time>2017-11-06T18:51:55Z</time>
      </trkpt>
      <trkpt lat="62.633696368953" lon="17.966269385656">
        <ele>63.8</ele>
        <time>2017-11-06T18:51:56Z</time>
      </trkpt>
      <trkpt lat="62.63371757516" lon="17.966301488333">
        <ele>63.8</ele>
        <time>2017-11-06T18:51:57Z</time>
      </trkpt>
      <trkpt lat="62.633737607901" lon="17.966337614322">
        <ele>63.8</ele>
        <time>2017-11-06T18:51:58Z</time>
      </trkpt>
      <trkpt lat="62.633748085276" lon="17.966390168835">
        <ele>63.8</ele>
        <time>2017-11-06T18:51:59Z</time>
      </trkpt>
      <trkpt lat="62.633755545167" lon="17.966445154099">
        <ele>64</ele>
        <time>2017-11-06T18:52:00Z</time>
      </trkpt>
      <trkpt lat="62.633756048081" lon="17.966496535146">
        <ele>64.2</ele>
        <time>2017-11-06T18:52:01Z</time>
      </trkpt>
      <trkpt lat="62.633750767484" lon="17.966548000012">
        <ele>64.4</ele>
        <time>2017-11-06T18:52:02Z</time>
      </trkpt>
      <trkpt lat="62.633743726688" lon="17.966597369403">
        <ele>64.6</ele>
        <time>2017-11-06T18:52:03Z</time>
      </trkpt>
      <trkpt lat="62.633734674236" lon="17.966646403518">
        <ele>64.8</ele>
        <time>2017-11-06T18:52:04Z</time>
      </trkpt>
      <trkpt lat="62.63372930982" lon="17.966700047678">
        <ele>65</ele>
        <time>2017-11-06T18:52:05Z</time>
      </trkpt>
      <trkpt lat="62.633724867413" lon="17.966751344906">
        <ele>65.2</ele>
        <time>2017-11-06T18:52:06Z</time>
      </trkpt>
      <trkpt lat="62.633720760282" lon="17.96680213922">
        <ele>65.6</ele>
        <time>2017-11-06T18:52:07Z</time>
      </trkpt>
      <trkpt lat="62.633716150237" lon="17.966843964901">
        <ele>65.8</ele>
        <time>2017-11-06T18:52:08Z</time>
      </trkpt>
      <trkpt lat="62.633710702002" lon="17.96689182555">
        <ele>66</ele>
        <time>2017-11-06T18:52:09Z</time>
      </trkpt>
      <trkpt lat="62.633705924319" lon="17.96694044057">
        <ele>66.2</ele>
        <time>2017-11-06T18:52:10Z</time>
      </trkpt>
      <trkpt lat="62.633700308446" lon="17.966993330359">
        <ele>66.2</ele>
        <time>2017-11-06T18:52:11Z</time>
      </trkpt>
      <trkpt lat="62.633695363125" lon="17.967042448293">
        <ele>66.6</ele>
        <time>2017-11-06T18:52:12Z</time>
      </trkpt>
      <trkpt lat="62.633691339813" lon="17.967085363621">
        <ele>66.6</ele>
        <time>2017-11-06T18:52:13Z</time>
      </trkpt>
      <trkpt lat="62.633686478311" lon="17.967137918134">
        <ele>66.8</ele>
        <time>2017-11-06T18:52:14Z</time>
      </trkpt>
      <trkpt lat="62.633680778619" lon="17.967189131543">
        <ele>66.8</ele>
        <time>2017-11-06T18:52:15Z</time>
      </trkpt>
      <trkpt lat="62.633675078927" lon="17.967237746563">
        <ele>67</ele>
        <time>2017-11-06T18:52:16Z</time>
      </trkpt>
      <trkpt lat="62.633667870493" lon="17.967298682976">
        <ele>67.2</ele>
        <time>2017-11-06T18:52:17Z</time>
      </trkpt>
      <trkpt lat="62.633661164973" lon="17.967353165326">
        <ele>67.2</ele>
        <time>2017-11-06T18:52:18Z</time>
      </trkpt>
      <trkpt lat="62.633651609607" lon="17.967415526662">
        <ele>67.4</ele>
        <time>2017-11-06T18:52:19Z</time>
      </trkpt>
      <trkpt lat="62.633641886603" lon="17.967471769211">
        <ele>67.6</ele>
        <time>2017-11-06T18:52:20Z</time>
      </trkpt>
      <trkpt lat="62.633634007617" lon="17.967524323724">
        <ele>68</ele>
        <time>2017-11-06T18:52:21Z</time>
      </trkpt>
      <trkpt lat="62.633626631545" lon="17.967575620952">
        <ele>68.2</ele>
        <time>2017-11-06T18:52:22Z</time>
      </trkpt>
      <trkpt lat="62.633618165826" lon="17.967632953148">
        <ele>68.4</ele>
        <time>2017-11-06T18:52:23Z</time>
      </trkpt>
      <trkpt lat="62.633608945736" lon="17.967691039715">
        <ele>68.6</ele>
        <time>2017-11-06T18:52:24Z</time>
      </trkpt>
      <trkpt lat="62.633599558008" lon="17.96775599944">
        <ele>68.8</ele>
        <time>2017-11-06T18:52:25Z</time>
      </trkpt>
      <trkpt lat="62.633591511384" lon="17.967820288613">
        <ele>69</ele>
        <time>2017-11-06T18:52:26Z</time>
      </trkpt>
      <trkpt lat="62.633583045665" lon="17.967887259994">
        <ele>69.2</ele>
        <time>2017-11-06T18:52:27Z</time>
      </trkpt>
      <trkpt lat="62.633574496127" lon="17.967954901927">
        <ele>69.4</ele>
        <time>2017-11-06T18:52:28Z</time>
      </trkpt>
      <trkpt lat="62.633564018752" lon="17.968023465869">
        <ele>69.6</ele>
        <time>2017-11-06T18:52:29Z</time>
      </trkpt>
      <trkpt lat="62.633554379567" lon="17.968090269612">
        <ele>69.8</ele>
        <time>2017-11-06T18:52:30Z</time>
      </trkpt>
      <trkpt lat="62.633545494753" lon="17.968157324812">
        <ele>70</ele>
        <time>2017-11-06T18:52:31Z</time>
      </trkpt>
      <trkpt lat="62.633537699586" lon="17.968222284537">
        <ele>70.6</ele>
        <time>2017-11-06T18:52:32Z</time>
      </trkpt>
      <trkpt lat="62.633530239695" lon="17.968284981149">
        <ele>70.8</ele>
        <time>2017-11-06T18:52:33Z</time>
      </trkpt>
      <trkpt lat="62.633523031261" lon="17.968351198159">
        <ele>71</ele>
        <time>2017-11-06T18:52:34Z</time>
      </trkpt>
      <trkpt lat="62.633515068456" lon="17.968423533956">
        <ele>71.4</ele>
        <time>2017-11-06T18:52:35Z</time>
      </trkpt>
      <trkpt lat="62.633505596909" lon="17.968494612468">
        <ele>71.6</ele>
        <time>2017-11-06T18:52:36Z</time>
      </trkpt>
      <trkpt lat="62.633495957724" lon="17.968565607161">
        <ele>71.6</ele>
        <time>2017-11-06T18:52:37Z</time>
      </trkpt>
      <trkpt lat="62.633487575824" lon="17.9686310698">
        <ele>71.8</ele>
        <time>2017-11-06T18:52:38Z</time>
      </trkpt>
      <trkpt lat="62.633479277743" lon="17.968700555751">
        <ele>72</ele>
        <time>2017-11-06T18:52:39Z</time>
      </trkpt>
      <trkpt lat="62.633473075137" lon="17.968771382806">
        <ele>72.2</ele>
        <time>2017-11-06T18:52:40Z</time>
      </trkpt>
      <trkpt lat="62.633467626902" lon="17.968845227345">
        <ele>72.6</ele>
        <time>2017-11-06T18:52:41Z</time>
      </trkpt>
      <trkpt lat="62.633460586106" lon="17.968914880934">
        <ele>72.8</ele>
        <time>2017-11-06T18:52:42Z</time>
      </trkpt>
      <trkpt lat="62.633451449835" lon="17.968977661365">
        <ele>73.2</ele>
        <time>2017-11-06T18:52:43Z</time>
      </trkpt>
      <trkpt lat="62.633439882813" lon="17.969048572239">
        <ele>73.2</ele>
        <time>2017-11-06T18:52:44Z</time>
      </trkpt>
      <trkpt lat="62.633431333275" lon="17.969112945231">
        <ele>73.4</ele>
        <time>2017-11-06T18:52:45Z</time>
      </trkpt>
      <trkpt lat="62.633424460117" lon="17.969173462549">
        <ele>73.4</ele>
        <time>2017-11-06T18:52:46Z</time>
      </trkpt>
      <trkpt lat="62.633420185348" lon="17.969244960156">
        <ele>73.6</ele>
        <time>2017-11-06T18:52:47Z</time>
      </trkpt>
      <trkpt lat="62.633416245855" lon="17.969304890741">
        <ele>74</ele>
        <time>2017-11-06T18:52:48Z</time>
      </trkpt>
      <trkpt lat="62.633412138724" lon="17.969373538502">
        <ele>74.2</ele>
        <time>2017-11-06T18:52:49Z</time>
      </trkpt>
      <trkpt lat="62.633406439032" lon="17.969436402752">
        <ele>74.4</ele>
        <time>2017-11-06T18:52:50Z</time>
      </trkpt>
      <trkpt lat="62.633395961657" lon="17.969492645301">
        <ele>74.8</ele>
        <time>2017-11-06T18:52:51Z</time>
      </trkpt>
      <trkpt lat="62.633378862581" lon="17.969534890077">
        <ele>74.8</ele>
        <time>2017-11-06T18:52:52Z</time>
      </trkpt>
      <trkpt lat="62.633356147632" lon="17.969566154564">
        <ele>75</ele>
        <time>2017-11-06T18:52:53Z</time>
      </trkpt>
      <trkpt lat="62.633329744647" lon="17.969588869513">
        <ele>75.2</ele>
        <time>2017-11-06T18:52:54Z</time>
      </trkpt>
      <trkpt lat="62.633301330006" lon="17.969609069892">
        <ele>75.4</ele>
        <time>2017-11-06T18:52:55Z</time>
      </trkpt>
      <trkpt lat="62.633277273953" lon="17.969617954706">
        <ele>75.6</ele>
        <time>2017-11-06T18:52:56Z</time>
      </trkpt>
      <trkpt lat="62.633253469357" lon="17.96962181038">
        <ele>75.8</ele>
        <time>2017-11-06T18:52:57Z</time>
      </trkpt>
      <trkpt lat="62.633231005865" lon="17.969622313294">
        <ele>75.8</ele>
        <time>2017-11-06T18:52:58Z</time>
      </trkpt>
      <trkpt lat="62.63320376469" lon="17.969625079321">
        <ele>75.8</ele>
        <time>2017-11-06T18:52:59Z</time>
      </trkpt>
      <trkpt lat="62.633178870447" lon="17.969631365746">
        <ele>75.8</ele>
        <time>2017-11-06T18:53:00Z</time>
      </trkpt>
      <trkpt lat="62.633150623444" lon="17.969631198108">
        <ele>75.8</ele>
        <time>2017-11-06T18:53:01Z</time>
      </trkpt>
      <trkpt lat="62.633123969002" lon="17.969631114289">
        <ele>75.8</ele>
        <time>2017-11-06T18:53:02Z</time>
      </trkpt>
      <trkpt lat="62.633102678976" lon="17.96963186866">
        <ele>75.6</ele>
        <time>2017-11-06T18:53:03Z</time>
      </trkpt>
      <trkpt lat="62.633078203828" lon="17.969633209764">
        <ele>75.8</ele>
        <time>2017-11-06T18:53:04Z</time>
      </trkpt>
      <trkpt lat="62.633052136119" lon="17.969630862832">
        <ele>75.6</ele>
        <time>2017-11-06T18:53:05Z</time>
      </trkpt>
      <trkpt lat="62.633029253532" lon="17.969629605547">
        <ele>75.6</ele>
        <time>2017-11-06T18:53:06Z</time>
      </trkpt>
      <trkpt lat="62.63300595185" lon="17.96962683952">
        <ele>75.4</ele>
        <time>2017-11-06T18:53:07Z</time>
      </trkpt>
      <trkpt lat="62.632984410367" lon="17.969627258615">
        <ele>75.4</ele>
        <time>2017-11-06T18:53:08Z</time>
      </trkpt>
      <trkpt lat="62.632961863056" lon="17.969628096805">
        <ele>75.4</ele>
        <time>2017-11-06T18:53:09Z</time>
      </trkpt>
      <trkpt lat="62.632937807003" lon="17.96962348676">
        <ele>75.4</ele>
        <time>2017-11-06T18:53:10Z</time>
      </trkpt>
      <trkpt lat="62.632911739294" lon="17.969618876715">
        <ele>75.4</ele>
        <time>2017-11-06T18:53:11Z</time>
      </trkpt>
      <trkpt lat="62.632887599422" lon="17.969614937222">
        <ele>75.2</ele>
        <time>2017-11-06T18:53:12Z</time>
      </trkpt>
      <trkpt lat="62.632863627188" lon="17.969615272498">
        <ele>75.2</ele>
        <time>2017-11-06T18:53:13Z</time>
      </trkpt>
      <trkpt lat="62.632836050737" lon="17.969617284154">
        <ele>75.2</ele>
        <time>2017-11-06T18:53:14Z</time>
      </trkpt>
      <trkpt lat="62.632810905037" lon="17.969615523955">
        <ele>75</ele>
        <time>2017-11-06T18:53:15Z</time>
      </trkpt>
      <trkpt lat="62.632787687174" lon="17.96961342848">
        <ele>75</ele>
        <time>2017-11-06T18:53:16Z</time>
      </trkpt>
      <trkpt lat="62.632760865094" lon="17.969611081548">
        <ele>75</ele>
        <time>2017-11-06T18:53:17Z</time>
      </trkpt>
      <trkpt lat="62.632737982507" lon="17.969606974417">
        <ele>75</ele>
        <time>2017-11-06T18:53:18Z</time>
      </trkpt>
      <trkpt lat="62.632712669169" lon="17.969603034924">
        <ele>75</ele>
        <time>2017-11-06T18:53:19Z</time>
      </trkpt>
      <trkpt lat="62.632687607288" lon="17.969598760155">
        <ele>74.8</ele>
        <time>2017-11-06T18:53:20Z</time>
      </trkpt>
      <trkpt lat="62.632663802692" lon="17.969596077947">
        <ele>74.8</ele>
        <time>2017-11-06T18:53:21Z</time>
      </trkpt>
      <trkpt lat="62.632640836286" lon="17.969594820662">
        <ele>74.8</ele>
        <time>2017-11-06T18:53:22Z</time>
      </trkpt>
      <trkpt lat="62.632615020034" lon="17.969593479558">
        <ele>74.6</ele>
        <time>2017-11-06T18:53:23Z</time>
      </trkpt>
      <trkpt lat="62.632589119963" lon="17.969591551721">
        <ele>74.6</ele>
        <time>2017-11-06T18:53:24Z</time>
      </trkpt>
      <trkpt lat="62.632564644815" lon="17.969591300264">
        <ele>74.6</ele>
        <time>2017-11-06T18:53:25Z</time>
      </trkpt>
      <trkpt lat="62.632538325649" lon="17.969588701875">
        <ele>74.6</ele>
        <time>2017-11-06T18:53:26Z</time>
      </trkpt>
      <trkpt lat="62.632512174121" lon="17.969585432934">
        <ele>74.6</ele>
        <time>2017-11-06T18:53:27Z</time>
      </trkpt>
      <trkpt lat="62.632487363697" lon="17.969579649423">
        <ele>74.6</ele>
        <time>2017-11-06T18:53:28Z</time>
      </trkpt>
      <trkpt lat="62.63246280473" lon="17.969579565604">
        <ele>74.6</ele>
        <time>2017-11-06T18:53:29Z</time>
      </trkpt>
      <trkpt lat="62.632437156116" lon="17.969573279179">
        <ele>74.6</ele>
        <time>2017-11-06T18:53:30Z</time>
      </trkpt>
      <trkpt lat="62.632410669312" lon="17.969568417677">
        <ele>74.6</ele>
        <time>2017-11-06T18:53:31Z</time>
      </trkpt>
      <trkpt lat="62.632384350146" lon="17.969566154564">
        <ele>74.6</ele>
        <time>2017-11-06T18:53:32Z</time>
      </trkpt>
      <trkpt lat="62.632357863342" lon="17.969564981098">
        <ele>74.6</ele>
        <time>2017-11-06T18:53:33Z</time>
      </trkpt>
      <trkpt lat="62.632330789805" lon="17.969564645822">
        <ele>74.4</ele>
        <time>2017-11-06T18:53:34Z</time>
      </trkpt>
      <trkpt lat="62.632302207526" lon="17.969570848428">
        <ele>74.6</ele>
        <time>2017-11-06T18:53:35Z</time>
      </trkpt>
      <trkpt lat="62.632275301627" lon="17.969575542292">
        <ele>74.4</ele>
        <time>2017-11-06T18:53:36Z</time>
      </trkpt>
      <trkpt lat="62.632251497031" lon="17.969575207016">
        <ele>74.4</ele>
        <time>2017-11-06T18:53:37Z</time>
      </trkpt>
      <trkpt lat="62.632229536453" lon="17.969576715758">
        <ele>74.4</ele>
        <time>2017-11-06T18:53:38Z</time>
      </trkpt>
      <trkpt lat="62.632203971658" lon="17.969580906708">
        <ele>74.4</ele>
        <time>2017-11-06T18:53:39Z</time>
      </trkpt>
      <trkpt lat="62.632179999424" lon="17.969584259468">
        <ele>74.4</ele>
        <time>2017-11-06T18:53:40Z</time>
      </trkpt>
      <trkpt lat="62.632151752421" lon="17.969589540065">
        <ele>74.4</ele>
        <time>2017-11-06T18:53:41Z</time>
      </trkpt>
      <trkpt lat="62.632123673056" lon="17.969590042979">
        <ele>74.4</ele>
        <time>2017-11-06T18:53:42Z</time>
      </trkpt>
      <trkpt lat="62.632095761329" lon="17.969589875341">
        <ele>74.4</ele>
        <time>2017-11-06T18:53:43Z</time>
      </trkpt>
      <trkpt lat="62.632066508498" lon="17.969590378255">
        <ele>74.4</ele>
        <time>2017-11-06T18:53:44Z</time>
      </trkpt>
      <trkpt lat="62.632040859884" lon="17.969590210617">
        <ele>74.4</ele>
        <time>2017-11-06T18:53:45Z</time>
      </trkpt>
      <trkpt lat="62.632015630365" lon="17.969591300264">
        <ele>74.4</ele>
        <time>2017-11-06T18:53:46Z</time>
      </trkpt>
      <trkpt lat="62.631986880448" lon="17.969590629712">
        <ele>74.4</ele>
        <time>2017-11-06T18:53:47Z</time>
      </trkpt>
      <trkpt lat="62.631959723092" lon="17.969591300264">
        <ele>74.4</ele>
        <time>2017-11-06T18:53:48Z</time>
      </trkpt>
      <trkpt lat="62.6319288777" lon="17.969592641368">
        <ele>74.4</ele>
        <time>2017-11-06T18:53:49Z</time>
      </trkpt>
      <trkpt lat="62.631901552706" lon="17.969595072119">
        <ele>74.4</ele>
        <time>2017-11-06T18:53:50Z</time>
      </trkpt>
      <trkpt lat="62.63187439535" lon="17.969597586689">
        <ele>74.4</ele>
        <time>2017-11-06T18:53:51Z</time>
      </trkpt>
      <trkpt lat="62.631848914374" lon="17.969600185078">
        <ele>74.4</ele>
        <time>2017-11-06T18:53:52Z</time>
      </trkpt>
      <trkpt lat="62.631823768674" lon="17.969612087376">
        <ele>74.2</ele>
        <time>2017-11-06T18:53:53Z</time>
      </trkpt>
      <trkpt lat="62.631796695137" lon="17.969632790669">
        <ele>74.2</ele>
        <time>2017-11-06T18:53:54Z</time>
      </trkpt>
      <trkpt lat="62.631769537781" lon="17.96966455807">
        <ele>74</ele>
        <time>2017-11-06T18:53:55Z</time>
      </trkpt>
      <trkpt lat="62.631744727357" lon="17.96969976205">
        <ele>74</ele>
        <time>2017-11-06T18:53:56Z</time>
      </trkpt>
      <trkpt lat="62.631721258037" lon="17.969731529451">
        <ele>74</ele>
        <time>2017-11-06T18:53:57Z</time>
      </trkpt>
      <trkpt lat="62.631698626907" lon="17.96976011173">
        <ele>74</ele>
        <time>2017-11-06T18:53:58Z</time>
      </trkpt>
      <trkpt lat="62.631673397388" lon="17.969785592706">
        <ele>74</ele>
        <time>2017-11-06T18:53:59Z</time>
      </trkpt>
      <trkpt lat="62.631650179525" lon="17.969806631275">
        <ele>74</ele>
        <time>2017-11-06T18:54:00Z</time>
      </trkpt>
      <trkpt lat="62.631623860359" lon="17.969824233265">
        <ele>74</ele>
        <time>2017-11-06T18:54:01Z</time>
      </trkpt>
      <trkpt lat="62.631598044107" lon="17.969837309029">
        <ele>74.2</ele>
        <time>2017-11-06T18:54:02Z</time>
      </trkpt>
      <trkpt lat="62.631573233683" lon="17.969849546603">
        <ele>74.2</ele>
        <time>2017-11-06T18:54:03Z</time>
      </trkpt>
      <trkpt lat="62.631545573413" lon="17.969862035634">
        <ele>74.4</ele>
        <time>2017-11-06T18:54:04Z</time>
      </trkpt>
      <trkpt lat="62.631516655858" lon="17.969875446674">
        <ele>74.4</ele>
        <time>2017-11-06T18:54:05Z</time>
      </trkpt>
      <trkpt lat="62.631490001416" lon="17.969887097515">
        <ele>74.6</ele>
        <time>2017-11-06T18:54:06Z</time>
      </trkpt>
      <trkpt lat="62.631462508784" lon="17.969901346745">
        <ele>74.6</ele>
        <time>2017-11-06T18:54:07Z</time>
      </trkpt>
      <trkpt lat="62.63143769836" lon="17.969912243215">
        <ele>74.8</ele>
        <time>2017-11-06T18:54:08Z</time>
      </trkpt>
      <trkpt lat="62.631410205728" lon="17.969921463305">
        <ele>74.8</ele>
        <time>2017-11-06T18:54:09Z</time>
      </trkpt>
      <trkpt lat="62.631383970381" lon="17.96993194068">
        <ele>74.8</ele>
        <time>2017-11-06T18:54:10Z</time>
      </trkpt>
      <trkpt lat="62.631355471921" lon="17.969946441367">
        <ele>75</ele>
        <time>2017-11-06T18:54:11Z</time>
      </trkpt>
      <trkpt lat="62.631329990945" lon="17.9699637919">
        <ele>75</ele>
        <time>2017-11-06T18:54:12Z</time>
      </trkpt>
      <trkpt lat="62.631305012883" lon="17.9699805557">
        <ele>75.2</ele>
        <time>2017-11-06T18:54:13Z</time>
      </trkpt>
      <trkpt lat="62.631277268794" lon="17.969996565129">
        <ele>75</ele>
        <time>2017-11-06T18:54:14Z</time>
      </trkpt>
      <trkpt lat="62.631250949628" lon="17.970013664205">
        <ele>75</ele>
        <time>2017-11-06T18:54:15Z</time>
      </trkpt>
      <trkpt lat="62.631224881919" lon="17.970028248711">
        <ele>75.2</ele>
        <time>2017-11-06T18:54:16Z</time>
      </trkpt>
      <trkpt lat="62.63119713783" lon="17.970042665579">
        <ele>75.2</ele>
        <time>2017-11-06T18:54:17Z</time>
      </trkpt>
      <trkpt lat="62.63117283032" lon="17.970057250085">
        <ele>75</ele>
        <time>2017-11-06T18:54:18Z</time>
      </trkpt>
      <trkpt lat="62.631145002412" lon="17.970069320021">
        <ele>75.2</ele>
        <time>2017-11-06T18:54:19Z</time>
      </trkpt>
      <trkpt lat="62.631120108169" lon="17.970078875387">
        <ele>75.2</ele>
        <time>2017-11-06T18:54:20Z</time>
      </trkpt>
      <trkpt lat="62.631095884478" lon="17.970091783513">
        <ele>75.2</ele>
        <time>2017-11-06T18:54:21Z</time>
      </trkpt>
      <trkpt lat="62.631070822597" lon="17.970098908128">
        <ele>75.2</ele>
        <time>2017-11-06T18:54:22Z</time>
      </trkpt>
      <trkpt lat="62.631024386871" lon="17.970101506517">
        <ele>75.4</ele>
        <time>2017-11-06T18:54:24Z</time>
      </trkpt>
      <trkpt lat="62.631009886184" lon="17.970093459893">
        <ele>75.6</ele>
        <time>2017-11-06T18:54:25Z</time>
      </trkpt>
      <trkpt lat="62.630997229515" lon="17.970092202608">
        <ele>75.6</ele>
        <time>2017-11-06T18:54:26Z</time>
      </trkpt>
      <trkpt lat="62.630986249226" lon="17.970088263115">
        <ele>75.8</ele>
        <time>2017-11-06T18:54:27Z</time>
      </trkpt>
      <trkpt lat="62.630976190946" lon="17.970078540111">
        <ele>75.8</ele>
        <time>2017-11-06T18:54:28Z</time>
      </trkpt>
      <trkpt lat="62.630963953372" lon="17.970079881215">
        <ele>75.8</ele>
        <time>2017-11-06T18:54:29Z</time>
      </trkpt>
      <trkpt lat="62.630954314187" lon="17.970079713577">
        <ele>75.8</ele>
        <time>2017-11-06T18:54:30Z</time>
      </trkpt>
      <trkpt lat="62.630943082441" lon="17.970083066337">
        <ele>75.8</ele>
        <time>2017-11-06T18:54:31Z</time>
      </trkpt>
      <trkpt lat="62.630932018333" lon="17.970088095477">
        <ele>75.8</ele>
        <time>2017-11-06T18:54:32Z</time>
      </trkpt>
      <trkpt lat="62.630928749392" lon="17.970081725233">
        <ele>75.6</ele>
        <time>2017-11-06T18:54:33Z</time>
      </trkpt>
      <trkpt lat="62.63093059341" lon="17.970066470175">
        <ele>75.6</ele>
        <time>2017-11-06T18:54:34Z</time>
      </trkpt>
      <trkpt lat="62.630922127691" lon="17.970053813506">
        <ele>75.8</ele>
        <time>2017-11-06T18:54:35Z</time>
      </trkpt>
      <trkpt lat="62.630878374173" lon="17.969595742671">
        <ele>74.2</ele>
        <time>2017-11-06T18:55:18Z</time>
      </trkpt>
      <trkpt lat="62.630874602318" lon="17.969574201188">
        <ele>74.2</ele>
        <time>2017-11-06T18:55:19Z</time>
      </trkpt>
      <trkpt lat="62.630872339205" lon="17.969551067144">
        <ele>74</ele>
        <time>2017-11-06T18:55:20Z</time>
      </trkpt>
      <trkpt lat="62.630870076092" lon="17.969526675815">
        <ele>74</ele>
        <time>2017-11-06T18:55:21Z</time>
      </trkpt>
      <trkpt lat="62.630866304237" lon="17.969503290314">
        <ele>73.8</ele>
        <time>2017-11-06T18:55:22Z</time>
      </trkpt>
      <trkpt lat="62.630863370572" lon="17.969477557881">
        <ele>73.8</ele>
        <time>2017-11-06T18:55:23Z</time>
      </trkpt>
      <trkpt lat="62.63086018545" lon="17.96945165781">
        <ele>73.6</ele>
        <time>2017-11-06T18:55:24Z</time>
      </trkpt>
      <trkpt lat="62.63085683269" lon="17.969427769395">
        <ele>73.4</ele>
        <time>2017-11-06T18:55:25Z</time>
      </trkpt>
      <trkpt lat="62.630855743043" lon="17.96940807193">
        <ele>73.2</ele>
        <time>2017-11-06T18:55:26Z</time>
      </trkpt>
      <trkpt lat="62.630855575405" lon="17.969387452456">
        <ele>73</ele>
        <time>2017-11-06T18:55:27Z</time>
      </trkpt>
      <trkpt lat="62.630854401939" lon="17.969365910973">
        <ele>72.8</ele>
        <time>2017-11-06T18:55:28Z</time>
      </trkpt>
      <trkpt lat="62.630850630084" lon="17.96933850216">
        <ele>72.8</ele>
        <time>2017-11-06T18:55:29Z</time>
      </trkpt>
      <trkpt lat="62.63084677441" lon="17.96931335646">
        <ele>72.8</ele>
        <time>2017-11-06T18:55:30Z</time>
      </trkpt>
      <trkpt lat="62.630844511297" lon="17.969286953475">
        <ele>72.6</ele>
        <time>2017-11-06T18:55:31Z</time>
      </trkpt>
      <trkpt lat="62.630842667279" lon="17.969260801947">
        <ele>72.6</ele>
        <time>2017-11-06T18:55:32Z</time>
      </trkpt>
      <trkpt lat="62.630840320347" lon="17.969238841369">
        <ele>72.4</ele>
        <time>2017-11-06T18:55:33Z</time>
      </trkpt>
      <trkpt lat="62.630838308691" lon="17.96921864099">
        <ele>72.4</ele>
        <time>2017-11-06T18:55:34Z</time>
      </trkpt>
      <trkpt lat="62.630834620655" lon="17.969193746747">
        <ele>72.2</ele>
        <time>2017-11-06T18:55:35Z</time>
      </trkpt>
      <trkpt lat="62.630832860456" lon="17.969170109789">
        <ele>72</ele>
        <time>2017-11-06T18:55:36Z</time>
      </trkpt>
      <trkpt lat="62.630830932619" lon="17.969144461175">
        <ele>71.8</ele>
        <time>2017-11-06T18:55:37Z</time>
      </trkpt>
      <trkpt lat="62.630828585687" lon="17.96911805819">
        <ele>71.6</ele>
        <time>2017-11-06T18:55:38Z</time>
      </trkpt>
      <trkpt lat="62.630826154936" lon="17.969091571386">
        <ele>71.6</ele>
        <time>2017-11-06T18:55:39Z</time>
      </trkpt>
      <trkpt lat="62.630825149108" lon="17.969068521161">
        <ele>71.6</ele>
        <time>2017-11-06T18:55:40Z</time>
      </trkpt>
      <trkpt lat="62.630821880167" lon="17.969045806212">
        <ele>71.4</ele>
        <time>2017-11-06T18:55:41Z</time>
      </trkpt>
      <trkpt lat="62.63081827595" lon="17.969026444023">
        <ele>71.2</ele>
        <time>2017-11-06T18:55:42Z</time>
      </trkpt>
      <trkpt lat="62.630815677561" lon="17.969007920024">
        <ele>71.2</ele>
        <time>2017-11-06T18:55:43Z</time>
      </trkpt>
      <trkpt lat="62.630813162991" lon="17.968983612514">
        <ele>71</ele>
        <time>2017-11-06T18:55:44Z</time>
      </trkpt>
      <trkpt lat="62.630811738068" lon="17.968961568117">
        <ele>70.8</ele>
        <time>2017-11-06T18:55:45Z</time>
      </trkpt>
      <trkpt lat="62.630807630937" lon="17.968936254779">
        <ele>70.6</ele>
        <time>2017-11-06T18:55:46Z</time>
      </trkpt>
      <trkpt lat="62.630803104711" lon="17.968907923957">
        <ele>70.6</ele>
        <time>2017-11-06T18:55:47Z</time>
      </trkpt>
      <trkpt lat="62.630799416675" lon="17.968880263687">
        <ele>70.4</ele>
        <time>2017-11-06T18:55:48Z</time>
      </trkpt>
      <trkpt lat="62.630797153562" lon="17.968857297281">
        <ele>70.4</ele>
        <time>2017-11-06T18:55:49Z</time>
      </trkpt>
      <trkpt lat="62.630793800802" lon="17.968836510169">
        <ele>70.2</ele>
        <time>2017-11-06T18:55:50Z</time>
      </trkpt>
      <trkpt lat="62.630790364223" lon="17.968817818532">
        <ele>70.2</ele>
        <time>2017-11-06T18:55:51Z</time>
      </trkpt>
      <trkpt lat="62.63078558654" lon="17.968797534334">
        <ele>70</ele>
        <time>2017-11-06T18:55:52Z</time>
      </trkpt>
      <trkpt lat="62.630780976495" lon="17.968773394462">
        <ele>69.8</ele>
        <time>2017-11-06T18:55:53Z</time>
      </trkpt>
      <trkpt lat="62.630775192984" lon="17.968748584038">
        <ele>69.6</ele>
        <time>2017-11-06T18:55:54Z</time>
      </trkpt>
      <trkpt lat="62.630768487464" lon="17.968725701451">
        <ele>69.6</ele>
        <time>2017-11-06T18:55:55Z</time>
      </trkpt>
      <trkpt lat="62.630761530487" lon="17.968704914339">
        <ele>69.4</ele>
        <time>2017-11-06T18:55:56Z</time>
      </trkpt>
      <trkpt lat="62.630754824967" lon="17.968686893254">
        <ele>69.2</ele>
        <time>2017-11-06T18:55:57Z</time>
      </trkpt>
      <trkpt lat="62.63074870618" lon="17.968672476386">
        <ele>69.2</ele>
        <time>2017-11-06T18:55:58Z</time>
      </trkpt>
      <trkpt lat="62.630741833022" lon="17.968652527464">
        <ele>69</ele>
        <time>2017-11-06T18:55:59Z</time>
      </trkpt>
      <trkpt lat="62.630734876045" lon="17.968632578542">
        <ele>68.8</ele>
        <time>2017-11-06T18:56:00Z</time>
      </trkpt>
      <trkpt lat="62.630727164697" lon="17.968613383991">
        <ele>68.8</ele>
        <time>2017-11-06T18:56:01Z</time>
      </trkpt>
      <trkpt lat="62.630719034254" lon="17.968595530544">
        <ele>68.8</ele>
        <time>2017-11-06T18:56:02Z</time>
      </trkpt>
      <trkpt lat="62.630711406725" lon="17.96857658745">
        <ele>68.8</ele>
        <time>2017-11-06T18:56:03Z</time>
      </trkpt>
      <trkpt lat="62.630705455576" lon="17.968557644356">
        <ele>68.6</ele>
        <time>2017-11-06T18:56:04Z</time>
      </trkpt>
      <trkpt lat="62.630700510255" lon="17.968540461461">
        <ele>68.6</ele>
        <time>2017-11-06T18:56:05Z</time>
      </trkpt>
      <trkpt lat="62.630692715088" lon="17.968521099272">
        <ele>68.4</ele>
        <time>2017-11-06T18:56:06Z</time>
      </trkpt>
      <trkpt lat="62.630685171378" lon="17.968499306332">
        <ele>68.2</ele>
        <time>2017-11-06T18:56:07Z</time>
      </trkpt>
      <trkpt lat="62.630676118926" lon="17.968482626351">
        <ele>68</ele>
        <time>2017-11-06T18:56:08Z</time>
      </trkpt>
      <trkpt lat="62.630661450601" lon="17.968462258334">
        <ele>67.8</ele>
        <time>2017-11-06T18:56:09Z</time>
      </trkpt>
      <trkpt lat="62.630650051217" lon="17.968436944996">
        <ele>67.6</ele>
        <time>2017-11-06T18:56:10Z</time>
      </trkpt>
      <trkpt lat="62.630641250222" lon="17.968415738789">
        <ele>67.6</ele>
        <time>2017-11-06T18:56:11Z</time>
      </trkpt>
      <trkpt lat="62.630629850838" lon="17.968394448763">
        <ele>67.2</ele>
        <time>2017-11-06T18:56:12Z</time>
      </trkpt>
      <trkpt lat="62.630619289644" lon="17.968380786266">
        <ele>67</ele>
        <time>2017-11-06T18:56:13Z</time>
      </trkpt>
      <trkpt lat="62.630610237192" lon="17.968356646394">
        <ele>66.8</ele>
        <time>2017-11-06T18:56:14Z</time>
      </trkpt>
      <trkpt lat="62.630598921627" lon="17.968339044404">
        <ele>66.4</ele>
        <time>2017-11-06T18:56:15Z</time>
      </trkpt>
      <trkpt lat="62.630589114804" lon="17.968315658903">
        <ele>66.2</ele>
        <time>2017-11-06T18:56:16Z</time>
      </trkpt>
      <trkpt lat="62.630578050696" lon="17.968286992805">
        <ele>66</ele>
        <time>2017-11-06T18:56:17Z</time>
      </trkpt>
      <trkpt lat="62.630570087891" lon="17.968263439666">
        <ele>65.8</ele>
        <time>2017-11-06T18:56:18Z</time>
      </trkpt>
      <trkpt lat="62.630559442878" lon="17.9682371205">
        <ele>65.8</ele>
        <time>2017-11-06T18:56:19Z</time>
      </trkpt>
      <trkpt lat="62.630547959675" lon="17.968207280936">
        <ele>65.6</ele>
        <time>2017-11-06T18:56:20Z</time>
      </trkpt>
      <trkpt lat="62.630537649938" lon="17.968175764992">
        <ele>65.8</ele>
        <time>2017-11-06T18:56:21Z</time>
      </trkpt>
      <trkpt lat="62.6305291004" lon="17.968145925428">
        <ele>65.6</ele>
        <time>2017-11-06T18:56:22Z</time>
      </trkpt>
      <trkpt lat="62.630517868654" lon="17.968108961249">
        <ele>65.6</ele>
        <time>2017-11-06T18:56:23Z</time>
      </trkpt>
      <trkpt lat="62.630510073487" lon="17.968069147224">
        <ele>65.6</ele>
        <time>2017-11-06T18:56:24Z</time>
      </trkpt>
      <trkpt lat="62.630503200329" lon="17.968037044547">
        <ele>65.2</ele>
        <time>2017-11-06T18:56:25Z</time>
      </trkpt>
      <trkpt lat="62.630497668275" lon="17.968004690413">
        <ele>65.2</ele>
        <time>2017-11-06T18:56:26Z</time>
      </trkpt>
      <trkpt lat="62.630492052402" lon="17.967966720406">
        <ele>65</ele>
        <time>2017-11-06T18:56:27Z</time>
      </trkpt>
      <trkpt lat="62.630487442357" lon="17.967933779539">
        <ele>64.6</ele>
        <time>2017-11-06T18:56:28Z</time>
      </trkpt>
      <trkpt lat="62.630483335226" lon="17.96789430079">
        <ele>64.2</ele>
        <time>2017-11-06T18:56:29Z</time>
      </trkpt>
      <trkpt lat="62.630479982466" lon="17.967854319127">
        <ele>63.8</ele>
        <time>2017-11-06T18:56:30Z</time>
      </trkpt>
      <trkpt lat="62.630476797344" lon="17.967814756559">
        <ele>63.4</ele>
        <time>2017-11-06T18:56:31Z</time>
      </trkpt>
      <trkpt lat="62.630474869507" lon="17.967780055493">
        <ele>63.4</ele>
        <time>2017-11-06T18:56:32Z</time>
      </trkpt>
      <trkpt lat="62.630472857851" lon="17.967744013323">
        <ele>63</ele>
        <time>2017-11-06T18:56:33Z</time>
      </trkpt>
      <trkpt lat="62.630472187299" lon="17.967703947841">
        <ele>63</ele>
        <time>2017-11-06T18:56:34Z</time>
      </trkpt>
      <trkpt lat="62.630472019661" lon="17.967667235119">
        <ele>62.8</ele>
        <time>2017-11-06T18:56:35Z</time>
      </trkpt>
      <trkpt lat="62.630472187299" lon="17.967630103302">
        <ele>62.6</ele>
        <time>2017-11-06T18:56:36Z</time>
      </trkpt>
      <trkpt lat="62.630472522575" lon="17.967592971485">
        <ele>62.6</ele>
        <time>2017-11-06T18:56:37Z</time>
      </trkpt>
      <trkpt lat="62.630473360765" lon="17.967558270419">
        <ele>62.2</ele>
        <time>2017-11-06T18:56:38Z</time>
      </trkpt>
      <trkpt lat="62.630473276946" lon="17.967522814982">
        <ele>62</ele>
        <time>2017-11-06T18:56:39Z</time>
      </trkpt>
      <trkpt lat="62.630474366593" lon="17.967487694821">
        <ele>61.8</ele>
        <time>2017-11-06T18:56:40Z</time>
      </trkpt>
      <trkpt lat="62.630474198955" lon="17.967450227728">
        <ele>61.6</ele>
        <time>2017-11-06T18:56:41Z</time>
      </trkpt>
      <trkpt lat="62.630473947498" lon="17.967416197214">
        <ele>61.4</ele>
        <time>2017-11-06T18:56:42Z</time>
      </trkpt>
      <trkpt lat="62.630473863679" lon="17.967382418157">
        <ele>61.2</ele>
        <time>2017-11-06T18:56:43Z</time>
      </trkpt>
      <trkpt lat="62.63047545624" lon="17.967338329363">
        <ele>61</ele>
        <time>2017-11-06T18:56:44Z</time>
      </trkpt>
      <trkpt lat="62.630476881163" lon="17.967302119555">
        <ele>61</ele>
        <time>2017-11-06T18:56:45Z</time>
      </trkpt>
      <trkpt lat="62.630477300258" lon="17.967265323014">
        <ele>61</ele>
        <time>2017-11-06T18:56:46Z</time>
      </trkpt>
      <trkpt lat="62.630479479552" lon="17.967225844265">
        <ele>60.6</ele>
        <time>2017-11-06T18:56:47Z</time>
      </trkpt>
      <trkpt lat="62.630480736837" lon="17.967186114059">
        <ele>60.6</ele>
        <time>2017-11-06T18:56:48Z</time>
      </trkpt>
      <trkpt lat="62.63048132357" lon="17.967145378025">
        <ele>60.4</ele>
        <time>2017-11-06T18:56:49Z</time>
      </trkpt>
      <trkpt lat="62.630482329398" lon="17.967106066914">
        <ele>60.2</ele>
        <time>2017-11-06T18:56:50Z</time>
      </trkpt>
      <trkpt lat="62.630484843968" lon="17.967065833794">
        <ele>59.8</ele>
        <time>2017-11-06T18:56:51Z</time>
      </trkpt>
      <trkpt lat="62.630487274719" lon="17.96703096509">
        <ele>59.6</ele>
        <time>2017-11-06T18:56:52Z</time>
      </trkpt>
      <trkpt lat="62.630490124565" lon="17.967000874069">
        <ele>59.4</ele>
        <time>2017-11-06T18:56:53Z</time>
      </trkpt>
      <trkpt lat="62.63049222004" lon="17.966958796931">
        <ele>59.2</ele>
        <time>2017-11-06T18:56:54Z</time>
      </trkpt>
      <trkpt lat="62.630494818429" lon="17.966919821096">
        <ele>59</ele>
        <time>2017-11-06T18:56:55Z</time>
      </trkpt>
      <trkpt lat="62.630498003551" lon="17.966881264356">
        <ele>58.8</ele>
        <time>2017-11-06T18:56:56Z</time>
      </trkpt>
      <trkpt lat="62.630500182845" lon="17.966845138367">
        <ele>58.6</ele>
        <time>2017-11-06T18:56:57Z</time>
      </trkpt>
      <trkpt lat="62.630500685759" lon="17.966816723726">
        <ele>58.4</ele>
        <time>2017-11-06T18:56:58Z</time>
      </trkpt>
      <trkpt lat="62.630503451786" lon="17.966777747891">
        <ele>58.2</ele>
        <time>2017-11-06T18:56:59Z</time>
      </trkpt>
      <trkpt lat="62.630506804546" lon="17.966739945522">
        <ele>58</ele>
        <time>2017-11-06T18:57:00Z</time>
      </trkpt>
      <trkpt lat="62.630511414591" lon="17.966700466773">
        <ele>57.6</ele>
        <time>2017-11-06T18:57:01Z</time>
      </trkpt>
      <trkpt lat="62.630515102627" lon="17.966662245309">
        <ele>57.4</ele>
        <time>2017-11-06T18:57:02Z</time>
      </trkpt>
      <trkpt lat="62.630517617197" lon="17.96662192837">
        <ele>57.2</ele>
        <time>2017-11-06T18:57:03Z</time>
      </trkpt>
      <trkpt lat="62.630519377396" lon="17.966584628915">
        <ele>57.2</ele>
        <time>2017-11-06T18:57:04Z</time>
      </trkpt>
      <trkpt lat="62.630522813975" lon="17.966545401623">
        <ele>57</ele>
        <time>2017-11-06T18:57:05Z</time>
      </trkpt>
      <trkpt lat="62.630525580002" lon="17.966511035833">
        <ele>57</ele>
        <time>2017-11-06T18:57:06Z</time>
      </trkpt>
      <trkpt lat="62.630528094572" lon="17.966479771346">
        <ele>56.8</ele>
        <time>2017-11-06T18:57:07Z</time>
      </trkpt>
      <trkpt lat="62.630530609142" lon="17.966450015601">
        <ele>56.6</ele>
        <time>2017-11-06T18:57:08Z</time>
      </trkpt>
      <trkpt lat="62.630531698789" lon="17.96641321906">
        <ele>56.6</ele>
        <time>2017-11-06T18:57:09Z</time>
      </trkpt>
      <trkpt lat="62.63053329135" lon="17.966380110555">
        <ele>56.4</ele>
        <time>2017-11-06T18:57:10Z</time>
      </trkpt>
      <trkpt lat="62.630536225015" lon="17.966348929887">
        <ele>56.2</ele>
        <time>2017-11-06T18:57:11Z</time>
      </trkpt>
      <trkpt lat="62.630537649938" lon="17.966318419771">
        <ele>56</ele>
        <time>2017-11-06T18:57:12Z</time>
      </trkpt>
      <trkpt lat="62.630539745413" lon="17.966285395085">
        <ele>55.8</ele>
        <time>2017-11-06T18:57:13Z</time>
      </trkpt>
      <trkpt lat="62.630542762897" lon="17.966255890797">
        <ele>55.6</ele>
        <time>2017-11-06T18:57:14Z</time>
      </trkpt>
      <trkpt lat="62.63054251144" lon="17.96622797907">
        <ele>55.4</ele>
        <time>2017-11-06T18:57:15Z</time>
      </trkpt>
      <trkpt lat="62.630541840888" lon="17.966199145334">
        <ele>55.2</ele>
        <time>2017-11-06T18:57:16Z</time>
      </trkpt>
      <trkpt lat="62.630540583603" lon="17.96616343844">
        <ele>55</ele>
        <time>2017-11-06T18:57:17Z</time>
      </trkpt>
      <trkpt lat="62.630539326318" lon="17.966131335763">
        <ele>54.8</ele>
        <time>2017-11-06T18:57:18Z</time>
      </trkpt>
      <trkpt lat="62.630538739585" lon="17.96610057419">
        <ele>54.6</ele>
        <time>2017-11-06T18:57:19Z</time>
      </trkpt>
      <trkpt lat="62.630540415965" lon="17.966069393522">
        <ele>54.4</ele>
        <time>2017-11-06T18:57:20Z</time>
      </trkpt>
      <trkpt lat="62.63054083506" lon="17.966033938085">
        <ele>54.4</ele>
        <time>2017-11-06T18:57:21Z</time>
      </trkpt>
      <trkpt lat="62.630541254155" lon="17.966003092693">
        <ele>54.2</ele>
        <time>2017-11-06T18:57:22Z</time>
      </trkpt>
      <trkpt lat="62.630540751241" lon="17.965970068007">
        <ele>54</ele>
        <time>2017-11-06T18:57:23Z</time>
      </trkpt>
      <trkpt lat="62.630544606915" lon="17.965936372769">
        <ele>54</ele>
        <time>2017-11-06T18:57:24Z</time>
      </trkpt>
      <trkpt lat="62.630546870028" lon="17.965903264264">
        <ele>53.8</ele>
        <time>2017-11-06T18:57:25Z</time>
      </trkpt>
      <trkpt lat="62.630548714046" lon="17.965869569026">
        <ele>53.8</ele>
        <time>2017-11-06T18:57:26Z</time>
      </trkpt>
      <trkpt lat="62.630551228616" lon="17.965834951779">
        <ele>53.6</ele>
        <time>2017-11-06T18:57:27Z</time>
      </trkpt>
      <trkpt lat="62.630551396254" lon="17.965800418351">
        <ele>53.6</ele>
        <time>2017-11-06T18:57:28Z</time>
      </trkpt>
      <trkpt lat="62.630551060978" lon="17.965759849955">
        <ele>53.6</ele>
        <time>2017-11-06T18:57:29Z</time>
      </trkpt>
      <trkpt lat="62.630550558064" lon="17.96572590326">
        <ele>53.4</ele>
        <time>2017-11-06T18:57:30Z</time>
      </trkpt>
      <trkpt lat="62.630549300779" lon="17.965691034556">
        <ele>53.2</ele>
        <time>2017-11-06T18:57:31Z</time>
      </trkpt>
      <trkpt lat="62.630548714046" lon="17.965660859716">
        <ele>52.8</ele>
        <time>2017-11-06T18:57:32Z</time>
      </trkpt>
      <trkpt lat="62.630547959675" lon="17.965632277437">
        <ele>52.8</ele>
        <time>2017-11-06T18:57:33Z</time>
      </trkpt>
      <trkpt lat="62.630549468417" lon="17.965605036262">
        <ele>52.6</ele>
        <time>2017-11-06T18:57:34Z</time>
      </trkpt>
      <trkpt lat="62.630551899168" lon="17.965584165331">
        <ele>52.4</ele>
        <time>2017-11-06T18:57:35Z</time>
      </trkpt>
      <trkpt lat="62.63056178981" lon="17.965553487577">
        <ele>52.2</ele>
        <time>2017-11-06T18:57:37Z</time>
      </trkpt>
      <trkpt lat="62.630567824778" lon="17.965542172012">
        <ele>52.2</ele>
        <time>2017-11-06T18:57:38Z</time>
      </trkpt>
      <trkpt lat="62.630571093719" lon="17.965529096248">
        <ele>52.2</ele>
        <time>2017-11-06T18:57:39Z</time>
      </trkpt>
      <trkpt lat="62.630574111203" lon="17.96553647232">
        <ele>52.2</ele>
        <time>2017-11-06T18:57:40Z</time>
      </trkpt>
      <trkpt lat="62.630760357021" lon="17.965441589212">
        <ele>52.2</ele>
        <time>2017-11-06T18:58:14Z</time>
      </trkpt>
      <trkpt lat="62.630785754178" lon="17.965456425175">
        <ele>52.4</ele>
        <time>2017-11-06T18:58:15Z</time>
      </trkpt>
      <trkpt lat="62.63081995233" lon="17.965484253083">
        <ele>52.6</ele>
        <time>2017-11-06T18:58:16Z</time>
      </trkpt>
      <trkpt lat="62.630852809378" lon="17.965510572249">
        <ele>53</ele>
        <time>2017-11-06T18:58:17Z</time>
      </trkpt>
      <trkpt lat="62.630878541811" lon="17.965523731832">
        <ele>53.2</ele>
        <time>2017-11-06T18:58:18Z</time>
      </trkpt>
      <trkpt lat="62.6309146678" lon="17.965528509515">
        <ele>53.2</ele>
        <time>2017-11-06T18:58:19Z</time>
      </trkpt>
      <trkpt lat="62.630945094097" lon="17.965520462891">
        <ele>53.4</ele>
        <time>2017-11-06T18:58:20Z</time>
      </trkpt>
      <trkpt lat="62.630978873154" lon="17.965500011055">
        <ele>53.4</ele>
        <time>2017-11-06T18:58:21Z</time>
      </trkpt>
      <trkpt lat="62.631005946691" lon="17.965470674405">
        <ele>53.4</ele>
        <time>2017-11-06T18:58:22Z</time>
      </trkpt>
      <trkpt lat="62.631035283341" lon="17.96543840409">
        <ele>53.4</ele>
        <time>2017-11-06T18:58:23Z</time>
      </trkpt>
      <trkpt lat="62.631060848136" lon="17.965403451567">
        <ele>53.4</ele>
        <time>2017-11-06T18:58:24Z</time>
      </trkpt>
      <trkpt lat="62.631087754035" lon="17.965364056637">
        <ele>53.4</ele>
        <time>2017-11-06T18:58:25Z</time>
      </trkpt>
      <trkpt lat="62.631119353798" lon="17.965327260096">
        <ele>53.6</ele>
        <time>2017-11-06T18:58:26Z</time>
      </trkpt>
      <trkpt lat="62.631149193362" lon="17.965303204043">
        <ele>53.8</ele>
        <time>2017-11-06T18:58:27Z</time>
      </trkpt>
      <trkpt lat="62.631177105089" lon="17.965291217926">
        <ele>54</ele>
        <time>2017-11-06T18:58:28Z</time>
      </trkpt>
      <trkpt lat="62.631207447567" lon="17.96529758817">
        <ele>54</ele>
        <time>2017-11-06T18:58:29Z</time>
      </trkpt>
      <trkpt lat="62.631232677086" lon="17.965321811861">
        <ele>54</ele>
        <time>2017-11-06T18:58:30Z</time>
      </trkpt>
      <trkpt lat="62.631257319872" lon="17.965350310321">
        <ele>54</ele>
        <time>2017-11-06T18:58:31Z</time>
      </trkpt>
      <trkpt lat="62.63128011864" lon="17.96537805441">
        <ele>54</ele>
        <time>2017-11-06T18:58:32Z</time>
      </trkpt>
      <trkpt lat="62.63130358796" lon="17.965410408544">
        <ele>54.2</ele>
        <time>2017-11-06T18:58:33Z</time>
      </trkpt>
      <trkpt lat="62.631323033968" lon="17.965433207312">
        <ele>54.4</ele>
        <time>2017-11-06T18:58:34Z</time>
      </trkpt>
      <trkpt lat="62.631354466093" lon="17.965468243654">
        <ele>54.6</ele>
        <time>2017-11-06T18:58:35Z</time>
      </trkpt>
      <trkpt lat="62.631380282345" lon="17.965494646639">
        <ele>54.8</ele>
        <time>2017-11-06T18:58:36Z</time>
      </trkpt>
      <trkpt lat="62.631405176588" lon="17.965518451235">
        <ele>54.8</ele>
        <time>2017-11-06T18:58:37Z</time>
      </trkpt>
      <trkpt lat="62.631427304804" lon="17.965540914727">
        <ele>55</ele>
        <time>2017-11-06T18:58:38Z</time>
      </trkpt>
      <trkpt lat="62.631453372513" lon="17.965572346852">
        <ele>55.2</ele>
        <time>2017-11-06T18:58:39Z</time>
      </trkpt>
      <trkpt lat="62.631473321435" lon="17.965590284118">
        <ele>55.2</ele>
        <time>2017-11-06T18:58:40Z</time>
      </trkpt>
      <trkpt lat="62.631501149343" lon="17.965614591628">
        <ele>55.4</ele>
        <time>2017-11-06T18:58:41Z</time>
      </trkpt>
      <trkpt lat="62.63152822288" lon="17.965640743156">
        <ele>55.6</ele>
        <time>2017-11-06T18:58:42Z</time>
      </trkpt>
      <trkpt lat="62.631551273105" lon="17.965660440621">
        <ele>55.6</ele>
        <time>2017-11-06T18:58:43Z</time>
      </trkpt>
      <trkpt lat="62.631577005538" lon="17.965683742303">
        <ele>55.8</ele>
        <time>2017-11-06T18:58:44Z</time>
      </trkpt>
      <trkpt lat="62.631602486514" lon="17.965715174428">
        <ele>56</ele>
        <time>2017-11-06T18:58:45Z</time>
      </trkpt>
      <trkpt lat="62.631623944178" lon="17.965736212997">
        <ele>56</ele>
        <time>2017-11-06T18:58:46Z</time>
      </trkpt>
      <trkpt lat="62.631652610276" lon="17.965762364525">
        <ele>56</ele>
        <time>2017-11-06T18:58:47Z</time>
      </trkpt>
      <trkpt lat="62.631677001605" lon="17.965785498569">
        <ele>56.2</ele>
        <time>2017-11-06T18:58:48Z</time>
      </trkpt>
      <trkpt lat="62.631701141477" lon="17.965805112215">
        <ele>56.4</ele>
        <time>2017-11-06T18:58:49Z</time>
      </trkpt>
      <trkpt lat="62.631727544462" lon="17.965826988974">
        <ele>56.6</ele>
        <time>2017-11-06T18:58:50Z</time>
      </trkpt>
      <trkpt lat="62.631751013782" lon="17.965849871561">
        <ele>56.6</ele>
        <time>2017-11-06T18:58:51Z</time>
      </trkpt>
      <trkpt lat="62.631774399283" lon="17.965862360592">
        <ele>57</ele>
        <time>2017-11-06T18:58:52Z</time>
      </trkpt>
      <trkpt lat="62.631803065381" lon="17.965879375849">
        <ele>57</ele>
        <time>2017-11-06T18:58:53Z</time>
      </trkpt>
      <trkpt lat="62.63182997128" lon="17.965899827685">
        <ele>57.2</ele>
        <time>2017-11-06T18:58:54Z</time>
      </trkpt>
      <trkpt lat="62.631853189143" lon="17.965916256209">
        <ele>57.2</ele>
        <time>2017-11-06T18:58:55Z</time>
      </trkpt>
      <trkpt lat="62.63188110087" lon="17.96593712714">
        <ele>57.4</ele>
        <time>2017-11-06T18:58:56Z</time>
      </trkpt>
      <trkpt lat="62.631905156923" lon="17.965953555664">
        <ele>57.4</ele>
        <time>2017-11-06T18:58:57Z</time>
      </trkpt>
      <trkpt lat="62.631929380614" lon="17.965969565093">
        <ele>57.6</ele>
        <time>2017-11-06T18:58:58Z</time>
      </trkpt>
      <trkpt lat="62.631960980377" lon="17.965994207879">
        <ele>57.8</ele>
        <time>2017-11-06T18:58:59Z</time>
      </trkpt>
      <trkpt lat="62.63198503643" lon="17.966009379118">
        <ele>57.8</ele>
        <time>2017-11-06T18:59:00Z</time>
      </trkpt>
      <trkpt lat="62.632010685044" lon="17.966028406031">
        <ele>58</ele>
        <time>2017-11-06T18:59:01Z</time>
      </trkpt>
      <trkpt lat="62.632037339486" lon="17.966040895062">
        <ele>58.2</ele>
        <time>2017-11-06T18:59:02Z</time>
      </trkpt>
      <trkpt lat="62.632060724987" lon="17.966057155948">
        <ele>58.4</ele>
        <time>2017-11-06T18:59:03Z</time>
      </trkpt>
      <trkpt lat="62.63208478104" lon="17.966079703259">
        <ele>58.4</ele>
        <time>2017-11-06T18:59:04Z</time>
      </trkpt>
      <trkpt lat="62.632110681111" lon="17.966098143439">
        <ele>58.4</ele>
        <time>2017-11-06T18:59:05Z</time>
      </trkpt>
      <trkpt lat="62.632135994449" lon="17.966122199492">
        <ele>58.6</ele>
        <time>2017-11-06T18:59:06Z</time>
      </trkpt>
      <trkpt lat="62.632159212312" lon="17.96615170378">
        <ele>58.6</ele>
        <time>2017-11-06T18:59:07Z</time>
      </trkpt>
      <trkpt lat="62.632179328872" lon="17.966186488665">
        <ele>58.8</ele>
        <time>2017-11-06T18:59:08Z</time>
      </trkpt>
      <trkpt lat="62.632197433776" lon="17.966240468101">
        <ele>58.8</ele>
        <time>2017-11-06T18:59:09Z</time>
      </trkpt>
      <trkpt lat="62.632205564219" lon="17.966289753673">
        <ele>58.8</ele>
        <time>2017-11-06T18:59:10Z</time>
      </trkpt>
      <trkpt lat="62.632213610843" lon="17.96635789852">
        <ele>58.8</ele>
        <time>2017-11-06T18:59:11Z</time>
      </trkpt>
      <trkpt lat="62.632214532852" lon="17.966421517141">
        <ele>59</ele>
        <time>2017-11-06T18:59:12Z</time>
      </trkpt>
      <trkpt lat="62.6322138623" lon="17.966480525717">
        <ele>59.2</ele>
        <time>2017-11-06T18:59:13Z</time>
      </trkpt>
      <trkpt lat="62.632209168436" lon="17.966554956989">
        <ele>59.4</ele>
        <time>2017-11-06T18:59:14Z</time>
      </trkpt>
      <trkpt lat="62.632204306934" lon="17.966619665257">
        <ele>59.6</ele>
        <time>2017-11-06T18:59:15Z</time>
      </trkpt>
      <trkpt lat="62.632197433776" lon="17.966688313018">
        <ele>60</ele>
        <time>2017-11-06T18:59:16Z</time>
      </trkpt>
      <trkpt lat="62.632189470971" lon="17.966761654643">
        <ele>60.2</ele>
        <time>2017-11-06T18:59:17Z</time>
      </trkpt>
      <trkpt lat="62.632182178718" lon="17.966826530549">
        <ele>60.4</ele>
        <time>2017-11-06T18:59:18Z</time>
      </trkpt>
      <trkpt lat="62.632174718827" lon="17.966898111975">
        <ele>60.6</ele>
        <time>2017-11-06T18:59:19Z</time>
      </trkpt>
      <trkpt lat="62.632166839841" lon="17.966964915718">
        <ele>60.8</ele>
        <time>2017-11-06T18:59:20Z</time>
      </trkpt>
      <trkpt lat="62.632158374122" lon="17.967033060565">
        <ele>61</ele>
        <time>2017-11-06T18:59:21Z</time>
      </trkpt>
      <trkpt lat="62.632149656946" lon="17.967093326426">
        <ele>61.4</ele>
        <time>2017-11-06T18:59:22Z</time>
      </trkpt>
      <trkpt lat="62.632139095752" lon="17.967157364142">
        <ele>61.4</ele>
        <time>2017-11-06T18:59:23Z</time>
      </trkpt>
      <trkpt lat="62.632126439083" lon="17.967220898944">
        <ele>61.6</ele>
        <time>2017-11-06T18:59:24Z</time>
      </trkpt>
      <trkpt lat="62.632113195681" lon="17.967276890036">
        <ele>61.8</ele>
        <time>2017-11-06T18:59:25Z</time>
      </trkpt>
      <trkpt lat="62.632095426053" lon="17.9673402572">
        <ele>62</ele>
        <time>2017-11-06T18:59:26Z</time>
      </trkpt>
      <trkpt lat="62.632079165167" lon="17.967394068998">
        <ele>62.4</ele>
        <time>2017-11-06T18:59:27Z</time>
      </trkpt>
      <trkpt lat="62.632063155738" lon="17.967442851656">
        <ele>62.6</ele>
        <time>2017-11-06T18:59:28Z</time>
      </trkpt>
      <trkpt lat="62.632044799377" lon="17.96750370425">
        <ele>62.8</ele>
        <time>2017-11-06T18:59:29Z</time>
      </trkpt>
      <trkpt lat="62.632027197387" lon="17.96756153936">
        <ele>63.2</ele>
        <time>2017-11-06T18:59:30Z</time>
      </trkpt>
      <trkpt lat="62.632010349768" lon="17.96761434533">
        <ele>63.4</ele>
        <time>2017-11-06T18:59:31Z</time>
      </trkpt>
      <trkpt lat="62.63199258014" lon="17.967669330594">
        <ele>63.6</ele>
        <time>2017-11-06T18:59:32Z</time>
      </trkpt>
      <trkpt lat="62.631978750005" lon="17.967719454356">
        <ele>63.8</ele>
        <time>2017-11-06T18:59:33Z</time>
      </trkpt>
      <trkpt lat="62.631961315653" lon="17.967778127656">
        <ele>64</ele>
        <time>2017-11-06T18:59:34Z</time>
      </trkpt>
      <trkpt lat="62.631945306224" lon="17.967836298042">
        <ele>64.2</ele>
        <time>2017-11-06T18:59:35Z</time>
      </trkpt>
      <trkpt lat="62.631925692578" lon="17.967895641894">
        <ele>64.4</ele>
        <time>2017-11-06T18:59:36Z</time>
      </trkpt>
      <trkpt lat="62.631910269882" lon="17.967950794796">
        <ele>64.8</ele>
        <time>2017-11-06T18:59:37Z</time>
      </trkpt>
      <trkpt lat="62.631891494426" lon="17.96800494187">
        <ele>65.4</ele>
        <time>2017-11-06T18:59:38Z</time>
      </trkpt>
      <trkpt lat="62.631872048418" lon="17.968061771152">
        <ele>65.8</ele>
        <time>2017-11-06T18:59:39Z</time>
      </trkpt>
      <trkpt lat="62.631854781704" lon="17.968107620145">
        <ele>66</ele>
        <time>2017-11-06T18:59:40Z</time>
      </trkpt>
      <trkpt lat="62.63183919137" lon="17.968166963997">
        <ele>66.2</ele>
        <time>2017-11-06T18:59:41Z</time>
      </trkpt>
      <trkpt lat="62.63182661852" lon="17.968233097188">
        <ele>66.6</ele>
        <time>2017-11-06T18:59:42Z</time>
      </trkpt>
      <trkpt lat="62.631814632403" lon="17.968290261746">
        <ele>66.6</ele>
        <time>2017-11-06T18:59:43Z</time>
      </trkpt>
      <trkpt lat="62.631795773128" lon="17.96834859977">
        <ele>66.8</ele>
        <time>2017-11-06T18:59:44Z</time>
      </trkpt>
      <trkpt lat="62.631778087319" lon="17.968402663025">
        <ele>66.8</ele>
        <time>2017-11-06T18:59:45Z</time>
      </trkpt>
      <trkpt lat="62.631764508641" lon="17.968454882262">
        <ele>67</ele>
        <time>2017-11-06T18:59:46Z</time>
      </trkpt>
      <trkpt lat="62.631747241927" lon="17.968508274965">
        <ele>67.2</ele>
        <time>2017-11-06T18:59:47Z</time>
      </trkpt>
      <trkpt lat="62.631732908878" lon="17.968556973804">
        <ele>67.4</ele>
        <time>2017-11-06T18:59:48Z</time>
      </trkpt>
      <trkpt lat="62.631719414019" lon="17.968616736751">
        <ele>67.6</ele>
        <time>2017-11-06T18:59:49Z</time>
      </trkpt>
      <trkpt lat="62.631707846997" lon="17.968671470558">
        <ele>67.8</ele>
        <time>2017-11-06T18:59:50Z</time>
      </trkpt>
      <trkpt lat="62.631702314943" lon="17.968738022844">
        <ele>68</ele>
        <time>2017-11-06T18:59:51Z</time>
      </trkpt>
      <trkpt lat="62.631698878364" lon="17.968797115239">
        <ele>68.4</ele>
        <time>2017-11-06T18:59:52Z</time>
      </trkpt>
      <trkpt lat="62.631695106509" lon="17.968858470747">
        <ele>68.6</ele>
        <time>2017-11-06T18:59:53Z</time>
      </trkpt>
      <trkpt lat="62.631696196156" lon="17.968925023033">
        <ele>69</ele>
        <time>2017-11-06T18:59:54Z</time>
      </trkpt>
      <trkpt lat="62.631697788717" lon="17.968981349401">
        <ele>69.4</ele>
        <time>2017-11-06T18:59:55Z</time>
      </trkpt>
      <trkpt lat="62.631702482581" lon="17.969054942483">
        <ele>69.8</ele>
        <time>2017-11-06T18:59:56Z</time>
      </trkpt>
      <trkpt lat="62.631710193929" lon="17.969116549448">
        <ele>70</ele>
        <time>2017-11-06T18:59:57Z</time>
      </trkpt>
      <trkpt lat="62.631717150906" lon="17.969173797825">
        <ele>70.4</ele>
        <time>2017-11-06T18:59:58Z</time>
      </trkpt>
      <trkpt lat="62.631727544462" lon="17.969244960156">
        <ele>70.6</ele>
        <time>2017-11-06T18:59:59Z</time>
      </trkpt>
      <trkpt lat="62.631736764552" lon="17.969311260985">
        <ele>70.8</ele>
        <time>2017-11-06T19:00:00Z</time>
      </trkpt>
      <trkpt lat="62.631746655194" lon="17.969368257905">
        <ele>71</ele>
        <time>2017-11-06T19:00:01Z</time>
      </trkpt>
      <trkpt lat="62.631756042922" lon="17.969434642553">
        <ele>71.4</ele>
        <time>2017-11-06T19:00:02Z</time>
      </trkpt>
      <trkpt lat="62.631761491157" lon="17.969498764088">
        <ele>71.8</ele>
        <time>2017-11-06T19:00:03Z</time>
      </trkpt>
      <trkpt lat="62.631760988243" lon="17.969565567831">
        <ele>72</ele>
        <time>2017-11-06T19:00:04Z</time>
      </trkpt>
      <trkpt lat="62.631745062633" lon="17.969637987447">
        <ele>72.4</ele>
        <time>2017-11-06T19:00:05Z</time>
      </trkpt>
      <trkpt lat="62.631726203358" lon="17.969685429001">
        <ele>72.6</ele>
        <time>2017-11-06T19:00:06Z</time>
      </trkpt>
      <trkpt lat="62.631699968011" lon="17.96971820223">
        <ele>72.6</ele>
        <time>2017-11-06T19:00:07Z</time>
      </trkpt>
      <trkpt lat="62.631675660501" lon="17.969749801993">
        <ele>72.6</ele>
        <time>2017-11-06T19:00:08Z</time>
      </trkpt>
      <trkpt lat="62.631650011887" lon="17.969782910498">
        <ele>72.8</ele>
        <time>2017-11-06T19:00:09Z</time>
      </trkpt>
      <trkpt lat="62.631622435436" lon="17.969804451981">
        <ele>72.8</ele>
        <time>2017-11-06T19:00:10Z</time>
      </trkpt>
      <trkpt lat="62.631591841501" lon="17.969824233265">
        <ele>73</ele>
        <time>2017-11-06T19:00:11Z</time>
      </trkpt>
      <trkpt lat="62.631562337213" lon="17.969835129735">
        <ele>73.2</ele>
        <time>2017-11-06T19:00:12Z</time>
      </trkpt>
      <trkpt lat="62.631533503477" lon="17.969850133336">
        <ele>73.2</ele>
        <time>2017-11-06T19:00:13Z</time>
      </trkpt>
      <trkpt lat="62.631501736076" lon="17.969870920448">
        <ele>73.4</ele>
        <time>2017-11-06T19:00:14Z</time>
      </trkpt>
      <trkpt lat="62.631471728874" lon="17.969889863542">
        <ele>73.8</ele>
        <time>2017-11-06T19:00:15Z</time>
      </trkpt>
      <trkpt lat="62.631442643681" lon="17.969905705333">
        <ele>74</ele>
        <time>2017-11-06T19:00:16Z</time>
      </trkpt>
      <trkpt lat="62.63141422904" lon="17.969921714762">
        <ele>74.2</ele>
        <time>2017-11-06T19:00:17Z</time>
      </trkpt>
      <trkpt lat="62.63138656877" lon="17.969936383087">
        <ele>74.2</ele>
        <time>2017-11-06T19:00:18Z</time>
      </trkpt>
      <trkpt lat="62.631355974835" lon="17.969953314525">
        <ele>74.4</ele>
        <time>2017-11-06T19:00:19Z</time>
      </trkpt>
      <trkpt lat="62.631326973461" lon="17.969971838524">
        <ele>74.4</ele>
        <time>2017-11-06T19:00:20Z</time>
      </trkpt>
      <trkpt lat="62.631297050078" lon="17.969983657003">
        <ele>74.4</ele>
        <time>2017-11-06T19:00:21Z</time>
      </trkpt>
      <trkpt lat="62.631269892722" lon="17.970000588441">
        <ele>74.4</ele>
        <time>2017-11-06T19:00:22Z</time>
      </trkpt>
      <trkpt lat="62.631240053158" lon="17.970009808531">
        <ele>74.4</ele>
        <time>2017-11-06T19:00:23Z</time>
      </trkpt>
      <trkpt lat="62.631206190282" lon="17.970034618955">
        <ele>74.6</ele>
        <time>2017-11-06T19:00:24Z</time>
      </trkpt>
      <trkpt lat="62.631181882772" lon="17.970047107986">
        <ele>74.4</ele>
        <time>2017-11-06T19:00:25Z</time>
      </trkpt>
      <trkpt lat="62.631147852258" lon="17.970065129071">
        <ele>74.4</ele>
        <time>2017-11-06T19:00:26Z</time>
      </trkpt>
      <trkpt lat="62.631119940531" lon="17.970075354989">
        <ele>74.6</ele>
        <time>2017-11-06T19:00:27Z</time>
      </trkpt>
      <trkpt lat="62.631095046288" lon="17.970078707749">
        <ele>74.6</ele>
        <time>2017-11-06T19:00:28Z</time>
      </trkpt>
      <trkpt lat="62.631038552282" lon="17.970102763802">
        <ele>74.4</ele>
        <time>2017-11-06T19:00:30Z</time>
      </trkpt>
      <trkpt lat="62.631024805966" lon="17.970104524001">
        <ele>74.4</ele>
        <time>2017-11-06T19:00:31Z</time>
      </trkpt>
      <trkpt lat="62.631010975831" lon="17.970111900073">
        <ele>74.8</ele>
        <time>2017-11-06T19:00:32Z</time>
      </trkpt>
      <trkpt lat="62.631001336646" lon="17.970115671928">
        <ele>74.8</ele>
        <time>2017-11-06T19:00:33Z</time>
      </trkpt>
      <trkpt lat="62.63099345766" lon="17.970105865105">
        <ele>74.8</ele>
        <time>2017-11-06T19:00:34Z</time>
      </trkpt>
      <trkpt lat="62.630979040792" lon="17.9700979023">
        <ele>75.2</ele>
        <time>2017-11-06T19:00:35Z</time>
      </trkpt>
      <trkpt lat="62.630968563417" lon="17.970091699694">
        <ele>75.4</ele>
        <time>2017-11-06T19:00:36Z</time>
      </trkpt>
      <trkpt lat="62.630958924232" lon="17.970089268943">
        <ele>75.2</ele>
        <time>2017-11-06T19:00:37Z</time>
      </trkpt>
      <trkpt lat="62.630951631979" lon="17.970092789341">
        <ele>75.2</ele>
        <time>2017-11-06T19:00:38Z</time>
      </trkpt>
      <trkpt lat="62.630942579527" lon="17.970096812653">
        <ele>75</ele>
        <time>2017-11-06T19:00:39Z</time>
      </trkpt>
      <trkpt lat="62.630939394405" lon="17.970109888417">
        <ele>75</ele>
        <time>2017-11-06T19:00:40Z</time>
      </trkpt>
      <trkpt lat="62.630939394405" lon="17.970126233122">
        <ele>75</ele>
        <time>2017-11-06T19:00:41Z</time>
      </trkpt>
      <trkpt lat="62.630942998622" lon="17.970131765176">
        <ele>74.8</ele>
        <time>2017-11-06T19:00:42Z</time>
      </trkpt>
      <trkpt lat="62.630948949771" lon="17.970132100452">
        <ele>74.8</ele>
        <time>2017-11-06T19:00:43Z</time>
      </trkpt>
      <trkpt lat="62.630956493481" lon="17.970129250606">
        <ele>74.8</ele>
        <time>2017-11-06T19:00:44Z</time>
      </trkpt>
      <trkpt lat="62.630966551761" lon="17.970129418244">
        <ele>74.8</ele>
        <time>2017-11-06T19:00:45Z</time>
      </trkpt>
      <trkpt lat="62.630974766023" lon="17.970132016633">
        <ele>74.6</ele>
        <time>2017-11-06T19:00:46Z</time>
      </trkpt>
      <trkpt lat="62.630982477371" lon="17.97013394447">
        <ele>74.6</ele>
        <time>2017-11-06T19:00:47Z</time>
      </trkpt>
      <trkpt lat="62.630989937262" lon="17.970136626678">
        <ele>74.6</ele>
        <time>2017-11-06T19:00:48Z</time>
      </trkpt>
      <trkpt lat="62.630997313334" lon="17.970142242551">
        <ele>74.6</ele>
        <time>2017-11-06T19:00:49Z</time>
      </trkpt>
      <trkpt lat="62.631004018854" lon="17.970144086569">
        <ele>74.8</ele>
        <time>2017-11-06T19:00:50Z</time>
      </trkpt>
      <trkpt lat="62.631010808193" lon="17.970144757121">
        <ele>74.8</ele>
        <time>2017-11-06T19:00:51Z</time>
      </trkpt>
      <trkpt lat="62.631017597532" lon="17.970146014406">
        <ele>74.8</ele>
        <time>2017-11-06T19:00:52Z</time>
      </trkpt>
      <trkpt lat="62.631024386871" lon="17.970142242551">
        <ele>74.8</ele>
        <time>2017-11-06T19:00:53Z</time>
      </trkpt>
      <trkpt lat="62.631030589477" lon="17.97013729723">
        <ele>74.8</ele>
        <time>2017-11-06T19:00:54Z</time>
      </trkpt>
      <trkpt lat="62.631034780427" lon="17.970133776832">
        <ele>74.8</ele>
        <time>2017-11-06T19:00:55Z</time>
      </trkpt>
      <trkpt lat="62.631034864246" lon="17.970135285574">
        <ele>74.8</ele>
        <time>2017-11-06T19:00:56Z</time>
      </trkpt>
      <trkpt lat="62.630971245625" lon="17.970454719783">
        <ele>74.6</ele>
        <time>2017-11-06T19:02:03Z</time>
      </trkpt>
      <trkpt lat="62.630976107127" lon="17.970492019238">
        <ele>74.6</ele>
        <time>2017-11-06T19:02:04Z</time>
      </trkpt>
      <trkpt lat="62.630982645009" lon="17.970537784412">
        <ele>74.8</ele>
        <time>2017-11-06T19:02:05Z</time>
      </trkpt>
      <trkpt lat="62.630986416864" lon="17.970582292301">
        <ele>74.8</ele>
        <time>2017-11-06T19:02:06Z</time>
      </trkpt>
      <trkpt lat="62.630989182891" lon="17.970625207629">
        <ele>75</ele>
        <time>2017-11-06T19:02:07Z</time>
      </trkpt>
      <trkpt lat="62.630992535651" lon="17.97065697503">
        <ele>75</ele>
        <time>2017-11-06T19:02:08Z</time>
      </trkpt>
      <trkpt lat="62.6309984868" lon="17.970708020801">
        <ele>75.2</ele>
        <time>2017-11-06T19:02:09Z</time>
      </trkpt>
      <trkpt lat="62.63100267775" lon="17.970741883677">
        <ele>75.2</ele>
        <time>2017-11-06T19:02:10Z</time>
      </trkpt>
      <trkpt lat="62.631005359958" lon="17.970793264724">
        <ele>75.2</ele>
        <time>2017-11-06T19:02:11Z</time>
      </trkpt>
      <trkpt lat="62.631007790709" lon="17.970843304667">
        <ele>75.4</ele>
        <time>2017-11-06T19:02:12Z</time>
      </trkpt>
      <trkpt lat="62.63101189784" lon="17.970886471452">
        <ele>75.6</ele>
        <time>2017-11-06T19:02:13Z</time>
      </trkpt>
      <trkpt lat="62.631020950292" lon="17.970935421748">
        <ele>75.6</ele>
        <time>2017-11-06T19:02:14Z</time>
      </trkpt>
      <trkpt lat="62.631027152898" lon="17.970986802795">
        <ele>75.8</ele>
        <time>2017-11-06T19:02:15Z</time>
      </trkpt>
      <trkpt lat="62.631031427667" lon="17.971028544657">
        <ele>75.8</ele>
        <time>2017-11-06T19:02:16Z</time>
      </trkpt>
      <trkpt lat="62.631037630273" lon="17.971074812745">
        <ele>76</ele>
        <time>2017-11-06T19:02:17Z</time>
      </trkpt>
      <trkpt lat="62.63104374906" lon="17.971122254299">
        <ele>75.8</ele>
        <time>2017-11-06T19:02:18Z</time>
      </trkpt>
      <trkpt lat="62.631050035485" lon="17.971172042785">
        <ele>76</ele>
        <time>2017-11-06T19:02:19Z</time>
      </trkpt>
      <trkpt lat="62.631058585023" lon="17.97121688595">
        <ele>76</ele>
        <time>2017-11-06T19:02:20Z</time>
      </trkpt>
      <trkpt lat="62.631064284715" lon="17.971265920065">
        <ele>76</ele>
        <time>2017-11-06T19:02:21Z</time>
      </trkpt>
      <trkpt lat="62.631065458181" lon="17.97127723563">
        <ele>76</ele>
        <time>2017-11-06T19:02:22Z</time>
      </trkpt>
      <trkpt lat="62.631072834253" lon="17.971337836767">
        <ele>76.2</ele>
        <time>2017-11-06T19:02:23Z</time>
      </trkpt>
      <trkpt lat="62.631078785402" lon="17.97140296413">
        <ele>76.2</ele>
        <time>2017-11-06T19:02:24Z</time>
      </trkpt>
      <trkpt lat="62.631088508406" lon="17.971445460363">
        <ele>76.4</ele>
        <time>2017-11-06T19:02:25Z</time>
      </trkpt>
      <trkpt lat="62.631095884478" lon="17.971491979908">
        <ele>76.4</ele>
        <time>2017-11-06T19:02:26Z</time>
      </trkpt>
      <trkpt lat="62.631100578342" lon="17.971535230512">
        <ele>76.4</ele>
        <time>2017-11-06T19:02:27Z</time>
      </trkpt>
      <trkpt lat="62.631106026577" lon="17.971559035108">
        <ele>76.6</ele>
        <time>2017-11-06T19:02:28Z</time>
      </trkpt>
      <trkpt lat="62.631116168676" lon="17.97162005534">
        <ele>76.6</ele>
        <time>2017-11-06T19:02:29Z</time>
      </trkpt>
      <trkpt lat="62.631125556404" lon="17.971665401419">
        <ele>76.8</ele>
        <time>2017-11-06T19:02:30Z</time>
      </trkpt>
      <trkpt lat="62.631133016295" lon="17.971706472729">
        <ele>76.8</ele>
        <time>2017-11-06T19:02:31Z</time>
      </trkpt>
      <trkpt lat="62.631142487842" lon="17.971747711677">
        <ele>76.8</ele>
        <time>2017-11-06T19:02:32Z</time>
      </trkpt>
      <trkpt lat="62.631151372656" lon="17.971792051928">
        <ele>77</ele>
        <time>2017-11-06T19:02:33Z</time>
      </trkpt>
      <trkpt lat="62.63115941928" lon="17.971837565645">
        <ele>77</ele>
        <time>2017-11-06T19:02:34Z</time>
      </trkpt>
      <trkpt lat="62.631158664909" lon="17.971818119637">
        <ele>77</ele>
        <time>2017-11-06T19:02:35Z</time>
      </trkpt>
      <trkpt lat="62.631174171424" lon="17.97186229225">
        <ele>77</ele>
        <time>2017-11-06T19:02:36Z</time>
      </trkpt>
      <trkpt lat="62.631190599948" lon="17.971930688554">
        <ele>77.2</ele>
        <time>2017-11-06T19:02:37Z</time>
      </trkpt>
      <trkpt lat="62.631205687368" lon="17.971988356026">
        <ele>77.4</ele>
        <time>2017-11-06T19:02:38Z</time>
      </trkpt>
      <trkpt lat="62.631218846951" lon="17.972036719589">
        <ele>77.6</ele>
        <time>2017-11-06T19:02:39Z</time>
      </trkpt>
      <trkpt lat="62.631226558299" lon="17.972067900257">
        <ele>77.6</ele>
        <time>2017-11-06T19:02:40Z</time>
      </trkpt>
      <trkpt lat="62.631241058986" lon="17.972111402318">
        <ele>77.8</ele>
        <time>2017-11-06T19:02:41Z</time>
      </trkpt>
      <trkpt lat="62.631255475854" lon="17.972157586587">
        <ele>77.8</ele>
        <time>2017-11-06T19:02:42Z</time>
      </trkpt>
      <trkpt lat="62.631265617953" lon="17.972190946549">
        <ele>78</ele>
        <time>2017-11-06T19:02:43Z</time>
      </trkpt>
      <trkpt lat="62.631275173319" lon="17.972230341479">
        <ele>78</ele>
        <time>2017-11-06T19:02:44Z</time>
      </trkpt>
      <trkpt lat="62.631288835816" lon="17.972274765549">
        <ele>78.2</ele>
        <time>2017-11-06T19:02:45Z</time>
      </trkpt>
      <trkpt lat="62.631301660123" lon="17.972306868226">
        <ele>78.2</ele>
        <time>2017-11-06T19:02:46Z</time>
      </trkpt>
      <trkpt lat="62.631313981516" lon="17.972351459934">
        <ele>78.4</ele>
        <time>2017-11-06T19:02:47Z</time>
      </trkpt>
      <trkpt lat="62.631326722004" lon="17.97239621928">
        <ele>78.4</ele>
        <time>2017-11-06T19:02:48Z</time>
      </trkpt>
      <trkpt lat="62.631341977062" lon="17.97243477602">
        <ele>78.4</ele>
        <time>2017-11-06T19:02:49Z</time>
      </trkpt>
      <trkpt lat="62.63135723212" lon="17.972478529538">
        <ele>78.6</ele>
        <time>2017-11-06T19:02:50Z</time>
      </trkpt>
      <trkpt lat="62.631372906273" lon="17.97252194778">
        <ele>78.6</ele>
        <time>2017-11-06T19:02:51Z</time>
      </trkpt>
      <trkpt lat="62.631386736408" lon="17.972554888647">
        <ele>78.8</ele>
        <time>2017-11-06T19:02:52Z</time>
      </trkpt>
      <trkpt lat="62.63139914162" lon="17.972601743468">
        <ele>78.8</ele>
        <time>2017-11-06T19:02:53Z</time>
      </trkpt>
      <trkpt lat="62.631410708642" lon="17.972644407339">
        <ele>79</ele>
        <time>2017-11-06T19:02:54Z</time>
      </trkpt>
      <trkpt lat="62.631423281492" lon="17.972672235247">
        <ele>79</ele>
        <time>2017-11-06T19:02:55Z</time>
      </trkpt>
      <trkpt lat="62.631441470215" lon="17.972720934086">
        <ele>79.2</ele>
        <time>2017-11-06T19:02:56Z</time>
      </trkpt>
      <trkpt lat="62.631454797436" lon="17.972759574645">
        <ele>79.4</ele>
        <time>2017-11-06T19:02:57Z</time>
      </trkpt>
      <trkpt lat="62.63146871139" lon="17.972789833304">
        <ele>79.6</ele>
        <time>2017-11-06T19:02:58Z</time>
      </trkpt>
      <trkpt lat="62.631485559009" lon="17.972840124704">
        <ele>79.6</ele>
        <time>2017-11-06T19:02:59Z</time>
      </trkpt>
      <trkpt lat="62.631500478791" lon="17.972872814114">
        <ele>79.8</ele>
        <time>2017-11-06T19:03:00Z</time>
      </trkpt>
      <trkpt lat="62.631518667514" lon="17.972911957587">
        <ele>80</ele>
        <time>2017-11-06T19:03:01Z</time>
      </trkpt>
      <trkpt lat="62.631534760762" lon="17.972949173223">
        <ele>80.2</ele>
        <time>2017-11-06T19:03:02Z</time>
      </trkpt>
      <trkpt lat="62.631547333612" lon="17.972981527357">
        <ele>80.2</ele>
        <time>2017-11-06T19:03:03Z</time>
      </trkpt>
      <trkpt lat="62.631553955313" lon="17.972998542614">
        <ele>80.2</ele>
        <time>2017-11-06T19:03:04Z</time>
      </trkpt>
      <trkpt lat="62.631576670262" lon="17.973054952801">
        <ele>80.4</ele>
        <time>2017-11-06T19:03:05Z</time>
      </trkpt>
      <trkpt lat="62.631595613356" lon="17.973095102102">
        <ele>80.4</ele>
        <time>2017-11-06T19:03:06Z</time>
      </trkpt>
      <trkpt lat="62.63161120369" lon="17.973136508688">
        <ele>80.6</ele>
        <time>2017-11-06T19:03:07Z</time>
      </trkpt>
      <trkpt lat="62.631625620558" lon="17.973168862822">
        <ele>80.6</ele>
        <time>2017-11-06T19:03:08Z</time>
      </trkpt>
      <trkpt lat="62.631642049082" lon="17.973200797861">
        <ele>80.8</ele>
        <time>2017-11-06T19:03:09Z</time>
      </trkpt>
      <trkpt lat="62.631658309968" lon="17.973233151995">
        <ele>81</ele>
        <time>2017-11-06T19:03:10Z</time>
      </trkpt>
      <trkpt lat="62.631682868935" lon="17.973270367631">
        <ele>81</ele>
        <time>2017-11-06T19:03:11Z</time>
      </trkpt>
      <trkpt lat="62.631701979667" lon="17.973299871919">
        <ele>81.2</ele>
        <time>2017-11-06T19:03:12Z</time>
      </trkpt>
      <trkpt lat="62.631719162562" lon="17.973331471682">
        <ele>81.2</ele>
        <time>2017-11-06T19:03:13Z</time>
      </trkpt>
      <trkpt lat="62.631741374597" lon="17.973367178576">
        <ele>81.6</ele>
        <time>2017-11-06T19:03:14Z</time>
      </trkpt>
      <trkpt lat="62.631759982415" lon="17.973397688692">
        <ele>81.6</ele>
        <time>2017-11-06T19:03:15Z</time>
      </trkpt>
      <trkpt lat="62.631779847518" lon="17.973421158012">
        <ele>81.6</ele>
        <time>2017-11-06T19:03:16Z</time>
      </trkpt>
      <trkpt lat="62.631800718449" lon="17.973447728635">
        <ele>81.6</ele>
        <time>2017-11-06T19:03:17Z</time>
      </trkpt>
      <trkpt lat="62.631820583552" lon="17.973478406389">
        <ele>81.6</ele>
        <time>2017-11-06T19:03:18Z</time>
      </trkpt>
      <trkpt lat="62.631842041216" lon="17.973523417192">
        <ele>81.6</ele>
        <time>2017-11-06T19:03:19Z</time>
      </trkpt>
      <trkpt lat="62.631860900491" lon="17.97356130338">
        <ele>81.6</ele>
        <time>2017-11-06T19:03:20Z</time>
      </trkpt>
      <trkpt lat="62.631884872725" lon="17.97358812546">
        <ele>81.6</ele>
        <time>2017-11-06T19:03:21Z</time>
      </trkpt>
      <trkpt lat="62.631906749484" lon="17.973614779902">
        <ele>81.8</ele>
        <time>2017-11-06T19:03:22Z</time>
      </trkpt>
      <trkpt lat="62.631927620415" lon="17.973647217855">
        <ele>81.6</ele>
        <time>2017-11-06T19:03:23Z</time>
      </trkpt>
      <trkpt lat="62.631946898785" lon="17.973681080731">
        <ele>81.8</ele>
        <time>2017-11-06T19:03:24Z</time>
      </trkpt>
      <trkpt lat="62.631968691725" lon="17.973714356874">
        <ele>81.8</ele>
        <time>2017-11-06T19:03:25Z</time>
      </trkpt>
      <trkpt lat="62.631989646475" lon="17.97374235242">
        <ele>81.8</ele>
        <time>2017-11-06T19:03:26Z</time>
      </trkpt>
      <trkpt lat="62.632008254293" lon="17.973771353794">
        <ele>81.8</ele>
        <time>2017-11-06T19:03:27Z</time>
      </trkpt>
      <trkpt lat="62.632026862111" lon="17.973792392363">
        <ele>81.8</ele>
        <time>2017-11-06T19:03:28Z</time>
      </trkpt>
      <trkpt lat="62.632052259268" lon="17.973824578859">
        <ele>82</ele>
        <time>2017-11-06T19:03:29Z</time>
      </trkpt>
      <trkpt lat="62.632069609801" lon="17.973850898025">
        <ele>81.8</ele>
        <time>2017-11-06T19:03:30Z</time>
      </trkpt>
      <trkpt lat="62.632095006958" lon="17.973878642114">
        <ele>81.8</ele>
        <time>2017-11-06T19:03:31Z</time>
      </trkpt>
      <trkpt lat="62.632122164314" lon="17.973898339579">
        <ele>81.8</ele>
        <time>2017-11-06T19:03:32Z</time>
      </trkpt>
      <trkpt lat="62.632143873435" lon="17.973925245478">
        <ele>81.8</ele>
        <time>2017-11-06T19:03:33Z</time>
      </trkpt>
      <trkpt lat="62.632163319443" lon="17.973951816101">
        <ele>81.8</ele>
        <time>2017-11-06T19:03:34Z</time>
      </trkpt>
      <trkpt lat="62.632187794591" lon="17.973975872154">
        <ele>81.8</ele>
        <time>2017-11-06T19:03:35Z</time>
      </trkpt>
      <trkpt lat="62.632212018282" lon="17.973998754741">
        <ele>81.8</ele>
        <time>2017-11-06T19:03:36Z</time>
      </trkpt>
      <trkpt lat="62.63223649343" lon="17.974012836333">
        <ele>81.8</ele>
        <time>2017-11-06T19:03:37Z</time>
      </trkpt>
      <trkpt lat="62.632257029085" lon="17.974022726975">
        <ele>81.8</ele>
        <time>2017-11-06T19:03:38Z</time>
      </trkpt>
      <trkpt lat="62.632281420414" lon="17.974041670069">
        <ele>81.8</ele>
        <time>2017-11-06T19:03:39Z</time>
      </trkpt>
      <trkpt lat="62.6322976813" lon="17.974052817996">
        <ele>81.8</ele>
        <time>2017-11-06T19:03:40Z</time>
      </trkpt>
      <trkpt lat="62.632321821172" lon="17.974071425814">
        <ele>82</ele>
        <time>2017-11-06T19:03:41Z</time>
      </trkpt>
      <trkpt lat="62.632346044863" lon="17.974099756636">
        <ele>82</ele>
        <time>2017-11-06T19:03:42Z</time>
      </trkpt>
      <trkpt lat="62.632364987957" lon="17.974125572888">
        <ele>82</ele>
        <time>2017-11-06T19:03:43Z</time>
      </trkpt>
      <trkpt lat="62.63238652944" lon="17.974155244814">
        <ele>82</ele>
        <time>2017-11-06T19:03:44Z</time>
      </trkpt>
      <trkpt lat="62.632407232733" lon="17.974185503473">
        <ele>82</ele>
        <time>2017-11-06T19:03:45Z</time>
      </trkpt>
      <trkpt lat="62.632426092008" lon="17.974206793499">
        <ele>82.2</ele>
        <time>2017-11-06T19:03:46Z</time>
      </trkpt>
      <trkpt lat="62.632449561328" lon="17.974229424629">
        <ele>82.2</ele>
        <time>2017-11-06T19:03:47Z</time>
      </trkpt>
      <trkpt lat="62.632472779191" lon="17.974253480682">
        <ele>82.2</ele>
        <time>2017-11-06T19:03:48Z</time>
      </trkpt>
      <trkpt lat="62.63249633233" lon="17.974280135124">
        <ele>82.2</ele>
        <time>2017-11-06T19:03:49Z</time>
      </trkpt>
      <trkpt lat="62.632521142754" lon="17.974294132897">
        <ele>82.4</ele>
        <time>2017-11-06T19:03:50Z</time>
      </trkpt>
      <trkpt lat="62.632543187151" lon="17.974312489258">
        <ele>82.4</ele>
        <time>2017-11-06T19:03:51Z</time>
      </trkpt>
      <trkpt lat="62.632565566824" lon="17.974328498687">
        <ele>82.4</ele>
        <time>2017-11-06T19:03:52Z</time>
      </trkpt>
      <trkpt lat="62.632585599565" lon="17.974352051826">
        <ele>82.4</ele>
        <time>2017-11-06T19:03:53Z</time>
      </trkpt>
      <trkpt lat="62.632608985066" lon="17.974376191698">
        <ele>82.4</ele>
        <time>2017-11-06T19:03:54Z</time>
      </trkpt>
      <trkpt lat="62.632630526549" lon="17.974397900819">
        <ele>82.4</ele>
        <time>2017-11-06T19:03:55Z</time>
      </trkpt>
      <trkpt lat="62.632650810747" lon="17.974417011551">
        <ele>82.6</ele>
        <time>2017-11-06T19:03:56Z</time>
      </trkpt>
      <trkpt lat="62.632675285895" lon="17.974441235242">
        <ele>82.6</ele>
        <time>2017-11-06T19:03:57Z</time>
      </trkpt>
      <trkpt lat="62.632683500157" lon="17.974448862771">
        <ele>82.6</ele>
        <time>2017-11-06T19:03:58Z</time>
      </trkpt>
      <trkpt lat="62.632715016101" lon="17.974481049267">
        <ele>82.6</ele>
        <time>2017-11-06T19:03:59Z</time>
      </trkpt>
      <trkpt lat="62.632745358579" lon="17.974514073953">
        <ele>82.6</ele>
        <time>2017-11-06T19:04:00Z</time>
      </trkpt>
      <trkpt lat="62.632765978053" lon="17.974523713138">
        <ele>82.6</ele>
        <time>2017-11-06T19:04:01Z</time>
      </trkpt>
      <trkpt lat="62.632788609183" lon="17.974525892432">
        <ele>82.8</ele>
        <time>2017-11-06T19:04:02Z</time>
      </trkpt>
      <trkpt lat="62.632813754883" lon="17.974512565211">
        <ele>82.6</ele>
        <time>2017-11-06T19:04:03Z</time>
      </trkpt>
      <trkpt lat="62.632838732945" lon="17.974481803638">
        <ele>82.6</ele>
        <time>2017-11-06T19:04:04Z</time>
      </trkpt>
      <trkpt lat="62.632860274428" lon="17.974448611314">
        <ele>82.6</ele>
        <time>2017-11-06T19:04:05Z</time>
      </trkpt>
      <trkpt lat="62.632883659929" lon="17.974420699587">
        <ele>82.4</ele>
        <time>2017-11-06T19:04:06Z</time>
      </trkpt>
      <trkpt lat="62.632900423729" lon="17.974379041544">
        <ele>82.4</ele>
        <time>2017-11-06T19:04:07Z</time>
      </trkpt>
      <trkpt lat="62.632912577484" lon="17.974337215863">
        <ele>82.4</ele>
        <time>2017-11-06T19:04:08Z</time>
      </trkpt>
      <trkpt lat="62.632923725411" lon="17.974282817332">
        <ele>82.4</ele>
        <time>2017-11-06T19:04:09Z</time>
      </trkpt>
      <trkpt lat="62.632933280777" lon="17.974245853153">
        <ele>82.4</ele>
        <time>2017-11-06T19:04:10Z</time>
      </trkpt>
      <trkpt lat="62.632941327401" lon="17.974190532613">
        <ele>82.4</ele>
        <time>2017-11-06T19:04:11Z</time>
      </trkpt>
      <trkpt lat="62.632949290206" lon="17.974137391367">
        <ele>82.4</ele>
        <time>2017-11-06T19:04:12Z</time>
      </trkpt>
      <trkpt lat="62.632960354314" lon="17.974091542374">
        <ele>82.2</ele>
        <time>2017-11-06T19:04:13Z</time>
      </trkpt>
      <trkpt lat="62.63297074787" lon="17.97404242444">
        <ele>82.2</ele>
        <time>2017-11-06T19:04:14Z</time>
      </trkpt>
      <trkpt lat="62.632982231073" lon="17.973993557963">
        <ele>82.2</ele>
        <time>2017-11-06T19:04:15Z</time>
      </trkpt>
      <trkpt lat="62.632990361516" lon="17.97394687078">
        <ele>82.2</ele>
        <time>2017-11-06T19:04:16Z</time>
      </trkpt>
      <trkpt lat="62.632999665425" lon="17.973898758674">
        <ele>82.2</ele>
        <time>2017-11-06T19:04:17Z</time>
      </trkpt>
      <trkpt lat="62.6330101428" lon="17.973855759527">
        <ele>82</ele>
        <time>2017-11-06T19:04:18Z</time>
      </trkpt>
      <trkpt lat="62.633019195252" lon="17.973801360996">
        <ele>82</ele>
        <time>2017-11-06T19:04:19Z</time>
      </trkpt>
      <trkpt lat="62.633029002075" lon="17.973752243062">
        <ele>82</ele>
        <time>2017-11-06T19:04:20Z</time>
      </trkpt>
      <trkpt lat="62.633042245477" lon="17.973705974974">
        <ele>82</ele>
        <time>2017-11-06T19:04:21Z</time>
      </trkpt>
      <trkpt lat="62.63305037592" lon="17.97365685704">
        <ele>82</ele>
        <time>2017-11-06T19:04:22Z</time>
      </trkpt>
      <trkpt lat="62.633060350381" lon="17.973612097694">
        <ele>81.8</ele>
        <time>2017-11-06T19:04:23Z</time>
      </trkpt>
      <trkpt lat="62.633072336498" lon="17.973548479073">
        <ele>81.8</ele>
        <time>2017-11-06T19:04:24Z</time>
      </trkpt>
      <trkpt lat="62.63308390352" lon="17.973515370568">
        <ele>81.6</ele>
        <time>2017-11-06T19:04:25Z</time>
      </trkpt>
      <trkpt lat="62.633093710343" lon="17.973456864906">
        <ele>81.6</ele>
        <time>2017-11-06T19:04:26Z</time>
      </trkpt>
      <trkpt lat="62.633103936261" lon="17.973398023968">
        <ele>81.4</ele>
        <time>2017-11-06T19:04:27Z</time>
      </trkpt>
      <trkpt lat="62.633105528822" lon="17.973383690919">
        <ele>81.4</ele>
        <time>2017-11-06T19:04:28Z</time>
      </trkpt>
      <trkpt lat="62.633120700061" lon="17.973309930199">
        <ele>81.2</ele>
        <time>2017-11-06T19:04:29Z</time>
      </trkpt>
      <trkpt lat="62.633134781653" lon="17.9732494967">
        <ele>81</ele>
        <time>2017-11-06T19:04:30Z</time>
      </trkpt>
      <trkpt lat="62.633145175209" lon="17.973197780377">
        <ele>81</ele>
        <time>2017-11-06T19:04:31Z</time>
      </trkpt>
      <trkpt lat="62.633155652584" lon="17.973143633303">
        <ele>81</ele>
        <time>2017-11-06T19:04:32Z</time>
      </trkpt>
      <trkpt lat="62.633167219606" lon="17.973097281396">
        <ele>80.8</ele>
        <time>2017-11-06T19:04:33Z</time>
      </trkpt>
      <trkpt lat="62.633177110248" lon="17.973044391607">
        <ele>80.8</ele>
        <time>2017-11-06T19:04:34Z</time>
      </trkpt>
      <trkpt lat="62.633189934555" lon="17.972990579809">
        <ele>80.6</ele>
        <time>2017-11-06T19:04:35Z</time>
      </trkpt>
      <trkpt lat="62.633202675043" lon="17.972935846002">
        <ele>80.6</ele>
        <time>2017-11-06T19:04:36Z</time>
      </trkpt>
      <trkpt lat="62.633212398047" lon="17.972890499923">
        <ele>80.4</ele>
        <time>2017-11-06T19:04:37Z</time>
      </trkpt>
      <trkpt lat="62.633219019748" lon="17.972839202695">
        <ele>80.4</ele>
        <time>2017-11-06T19:04:38Z</time>
      </trkpt>
      <trkpt lat="62.633231508779" lon="17.972774913522">
        <ele>80.4</ele>
        <time>2017-11-06T19:04:39Z</time>
      </trkpt>
      <trkpt lat="62.633239723041" lon="17.972735099497">
        <ele>80.4</ele>
        <time>2017-11-06T19:04:40Z</time>
      </trkpt>
      <trkpt lat="62.63325237971" lon="17.972674749817">
        <ele>80.4</ele>
        <time>2017-11-06T19:04:41Z</time>
      </trkpt>
      <trkpt lat="62.633263946732" lon="17.972621776209">
        <ele>80.4</ele>
        <time>2017-11-06T19:04:42Z</time>
      </trkpt>
      <trkpt lat="62.6332699817" lon="17.97258229746">
        <ele>80.2</ele>
        <time>2017-11-06T19:04:43Z</time>
      </trkpt>
      <trkpt lat="62.633279117971" lon="17.972518678839">
        <ele>80.2</ele>
        <time>2017-11-06T19:04:44Z</time>
      </trkpt>
      <trkpt lat="62.633289679165" lon="17.972466291964">
        <ele>80.2</ele>
        <time>2017-11-06T19:04:45Z</time>
      </trkpt>
      <trkpt lat="62.633295714133" lon="17.972426645577">
        <ele>80</ele>
        <time>2017-11-06T19:04:46Z</time>
      </trkpt>
      <trkpt lat="62.633302587291" lon="17.972369481019">
        <ele>79.8</ele>
        <time>2017-11-06T19:04:47Z</time>
      </trkpt>
      <trkpt lat="62.633312813209" lon="17.972322290922">
        <ele>79.8</ele>
        <time>2017-11-06T19:04:48Z</time>
      </trkpt>
      <trkpt lat="62.633317926168" lon="17.9722688144">
        <ele>79.6</ele>
        <time>2017-11-06T19:04:49Z</time>
      </trkpt>
      <trkpt lat="62.633322368575" lon="17.972218942095">
        <ele>79.4</ele>
        <time>2017-11-06T19:04:50Z</time>
      </trkpt>
      <trkpt lat="62.633328068267" lon="17.972165884668">
        <ele>79.2</ele>
        <time>2017-11-06T19:04:51Z</time>
      </trkpt>
      <trkpt lat="62.633332510674" lon="17.972115593268">
        <ele>79.2</ele>
        <time>2017-11-06T19:04:52Z</time>
      </trkpt>
      <trkpt lat="62.633337539814" lon="17.972064463678">
        <ele>79</ele>
        <time>2017-11-06T19:04:53Z</time>
      </trkpt>
      <trkpt lat="62.633344999705" lon="17.972001180333">
        <ele>79</ele>
        <time>2017-11-06T19:04:54Z</time>
      </trkpt>
      <trkpt lat="62.633349525931" lon="17.971953319684">
        <ele>79</ele>
        <time>2017-11-06T19:04:55Z</time>
      </trkpt>
      <trkpt lat="62.633353465424" lon="17.971894646384">
        <ele>78.8</ele>
        <time>2017-11-06T19:04:56Z</time>
      </trkpt>
      <trkpt lat="62.633358746021" lon="17.971836224541">
        <ele>78.8</ele>
        <time>2017-11-06T19:04:57Z</time>
      </trkpt>
      <trkpt lat="62.633361176772" lon="17.971792471023">
        <ele>78.8</ele>
        <time>2017-11-06T19:04:58Z</time>
      </trkpt>
      <trkpt lat="62.633367379378" lon="17.971733294809">
        <ele>78.6</ele>
        <time>2017-11-06T19:04:59Z</time>
      </trkpt>
      <trkpt lat="62.633374001079" lon="17.971687445816">
        <ele>78.6</ele>
        <time>2017-11-06T19:05:00Z</time>
      </trkpt>
      <trkpt lat="62.633376348011" lon="17.971622989005">
        <ele>78.4</ele>
        <time>2017-11-06T19:05:01Z</time>
      </trkpt>
      <trkpt lat="62.633381125694" lon="17.971568171379">
        <ele>78.4</ele>
        <time>2017-11-06T19:05:02Z</time>
      </trkpt>
      <trkpt lat="62.633384310816" lon="17.97152031073">
        <ele>78.2</ele>
        <time>2017-11-06T19:05:03Z</time>
      </trkpt>
      <trkpt lat="62.633384729911" lon="17.971461888887">
        <ele>78.2</ele>
        <time>2017-11-06T19:05:04Z</time>
      </trkpt>
      <trkpt lat="62.633388920861" lon="17.971390056004">
        <ele>78</ele>
        <time>2017-11-06T19:05:05Z</time>
      </trkpt>
      <trkpt lat="62.633388753223" lon="17.971335573654">
        <ele>78</ele>
        <time>2017-11-06T19:05:06Z</time>
      </trkpt>
      <trkpt lat="62.633391100155" lon="17.971281342761">
        <ele>78</ele>
        <time>2017-11-06T19:05:07Z</time>
      </trkpt>
      <trkpt lat="62.633391183974" lon="17.971226692773">
        <ele>77.8</ele>
        <time>2017-11-06T19:05:08Z</time>
      </trkpt>
      <trkpt lat="62.633393530906" lon="17.971167265102">
        <ele>77.8</ele>
        <time>2017-11-06T19:05:09Z</time>
      </trkpt>
      <trkpt lat="62.633393866182" lon="17.971128373086">
        <ele>77.8</ele>
        <time>2017-11-06T19:05:10Z</time>
      </trkpt>
      <trkpt lat="62.633396296933" lon="17.971059641506">
        <ele>77.6</ele>
        <time>2017-11-06T19:05:11Z</time>
      </trkpt>
      <trkpt lat="62.633396716028" lon="17.971007422269">
        <ele>77.6</ele>
        <time>2017-11-06T19:05:12Z</time>
      </trkpt>
      <trkpt lat="62.633396129295" lon="17.970956125041">
        <ele>77.4</ele>
        <time>2017-11-06T19:05:13Z</time>
      </trkpt>
      <trkpt lat="62.633395961657" lon="17.97089334461">
        <ele>77.2</ele>
        <time>2017-11-06T19:05:14Z</time>
      </trkpt>
      <trkpt lat="62.633395291105" lon="17.970839532812">
        <ele>77</ele>
        <time>2017-11-06T19:05:15Z</time>
      </trkpt>
      <trkpt lat="62.633392692716" lon="17.970797958588">
        <ele>77</ele>
        <time>2017-11-06T19:05:16Z</time>
      </trkpt>
      <trkpt lat="62.633391351612" lon="17.970733501777">
        <ele>77</ele>
        <time>2017-11-06T19:05:17Z</time>
      </trkpt>
      <trkpt lat="62.633390848698" lon="17.970686814594">
        <ele>77</ele>
        <time>2017-11-06T19:05:18Z</time>
      </trkpt>
      <trkpt lat="62.633388837042" lon="17.970631494054">
        <ele>77</ele>
        <time>2017-11-06T19:05:19Z</time>
      </trkpt>
      <trkpt lat="62.633387244481" lon="17.970574161858">
        <ele>77</ele>
        <time>2017-11-06T19:05:20Z</time>
      </trkpt>
      <trkpt lat="62.633383053531" lon="17.970519260413">
        <ele>76.8</ele>
        <time>2017-11-06T19:05:21Z</time>
      </trkpt>
      <trkpt lat="62.633378611124" lon="17.970475674533">
        <ele>76.6</ele>
        <time>2017-11-06T19:05:22Z</time>
      </trkpt>
      <trkpt lat="62.633376264192" lon="17.970418258518">
        <ele>76.6</ele>
        <time>2017-11-06T19:05:23Z</time>
      </trkpt>
      <trkpt lat="62.633372743794" lon="17.970359082304">
        <ele>76.4</ele>
        <time>2017-11-06T19:05:24Z</time>
      </trkpt>
      <trkpt lat="62.633369391034" lon="17.970316250795">
        <ele>76.2</ele>
        <time>2017-11-06T19:05:25Z</time>
      </trkpt>
      <trkpt lat="62.633367966111" lon="17.970260846436">
        <ele>76</ele>
        <time>2017-11-06T19:05:26Z</time>
      </trkpt>
      <trkpt lat="62.633364361894" lon="17.970207118457">
        <ele>75.8</ele>
        <time>2017-11-06T19:05:27Z</time>
      </trkpt>
      <trkpt lat="62.633360590039" lon="17.97015909017">
        <ele>75.6</ele>
        <time>2017-11-06T19:05:28Z</time>
      </trkpt>
      <trkpt lat="62.633358075469" lon="17.970095806825">
        <ele>75.4</ele>
        <time>2017-11-06T19:05:29Z</time>
      </trkpt>
      <trkpt lat="62.633356147632" lon="17.970041827389">
        <ele>75.4</ele>
        <time>2017-11-06T19:05:30Z</time>
      </trkpt>
      <trkpt lat="62.633353633062" lon="17.969988853781">
        <ele>75.4</ele>
        <time>2017-11-06T19:05:31Z</time>
      </trkpt>
      <trkpt lat="62.633351202311" lon="17.969932108318">
        <ele>75.4</ele>
        <time>2017-11-06T19:05:32Z</time>
      </trkpt>
      <trkpt lat="62.63335212432" lon="17.969882655108">
        <ele>75.4</ele>
        <time>2017-11-06T19:05:33Z</time>
      </trkpt>
      <trkpt lat="62.633351369949" lon="17.969830938785">
        <ele>75.2</ele>
        <time>2017-11-06T19:05:34Z</time>
      </trkpt>
      <trkpt lat="62.633347849551" lon="17.969769164182">
        <ele>75.2</ele>
        <time>2017-11-06T19:05:35Z</time>
      </trkpt>
      <trkpt lat="62.633347514275" lon="17.969712083443">
        <ele>75</ele>
        <time>2017-11-06T19:05:36Z</time>
      </trkpt>
      <trkpt lat="62.633348184827" lon="17.96965785255">
        <ele>75</ele>
        <time>2017-11-06T19:05:37Z</time>
      </trkpt>
      <trkpt lat="62.633348436284" lon="17.969606220046">
        <ele>75</ele>
        <time>2017-11-06T19:05:38Z</time>
      </trkpt>
      <trkpt lat="62.633347430456" lon="17.969544529262">
        <ele>74.8</ele>
        <time>2017-11-06T19:05:39Z</time>
      </trkpt>
      <trkpt lat="62.633349274474" lon="17.969499686097">
        <ele>74.8</ele>
        <time>2017-11-06T19:05:40Z</time>
      </trkpt>
      <trkpt lat="62.633350950854" lon="17.969433636725">
        <ele>74.6</ele>
        <time>2017-11-06T19:05:41Z</time>
      </trkpt>
      <trkpt lat="62.633354471252" lon="17.969374711968">
        <ele>74.6</ele>
        <time>2017-11-06T19:05:42Z</time>
      </trkpt>
      <trkpt lat="62.633356818184" lon="17.969329114432">
        <ele>74.4</ele>
        <time>2017-11-06T19:05:43Z</time>
      </trkpt>
      <trkpt lat="62.63335882984" lon="17.969268345657">
        <ele>74.4</ele>
        <time>2017-11-06T19:05:44Z</time>
      </trkpt>
      <trkpt lat="62.63336302079" lon="17.96920355357">
        <ele>74.2</ele>
        <time>2017-11-06T19:05:45Z</time>
      </trkpt>
      <trkpt lat="62.633364194256" lon="17.969160135328">
        <ele>74.2</ele>
        <time>2017-11-06T19:05:46Z</time>
      </trkpt>
      <trkpt lat="62.633367463197" lon="17.969100875295">
        <ele>74</ele>
        <time>2017-11-06T19:05:47Z</time>
      </trkpt>
      <trkpt lat="62.633372073242" lon="17.969049997162">
        <ele>73.8</ele>
        <time>2017-11-06T19:05:48Z</time>
      </trkpt>
      <trkpt lat="62.633377940572" lon="17.968991156224">
        <ele>73.6</ele>
        <time>2017-11-06T19:05:49Z</time>
      </trkpt>
      <trkpt lat="62.633381041875" lon="17.968934829856">
        <ele>73.4</ele>
        <time>2017-11-06T19:05:50Z</time>
      </trkpt>
      <trkpt lat="62.633389423775" lon="17.968878671126">
        <ele>73.2</ele>
        <time>2017-11-06T19:05:51Z</time>
      </trkpt>
      <trkpt lat="62.633396380752" lon="17.968830307563">
        <ele>73</ele>
        <time>2017-11-06T19:05:52Z</time>
      </trkpt>
      <trkpt lat="62.633400655521" lon="17.968775741394">
        <ele>72.8</ele>
        <time>2017-11-06T19:05:53Z</time>
      </trkpt>
      <trkpt lat="62.633411468172" lon="17.968711452221">
        <ele>72.6</ele>
        <time>2017-11-06T19:05:54Z</time>
      </trkpt>
      <trkpt lat="62.63341750314" lon="17.96866795016">
        <ele>72.4</ele>
        <time>2017-11-06T19:05:55Z</time>
      </trkpt>
      <trkpt lat="62.633423621927" lon="17.968599134761">
        <ele>72.2</ele>
        <time>2017-11-06T19:05:56Z</time>
      </trkpt>
      <trkpt lat="62.633432422922" lon="17.968545490601">
        <ele>72.2</ele>
        <time>2017-11-06T19:05:57Z</time>
      </trkpt>
      <trkpt lat="62.633437116786" lon="17.968501066531">
        <ele>72</ele>
        <time>2017-11-06T19:05:58Z</time>
      </trkpt>
      <trkpt lat="62.633445498686" lon="17.968433089322">
        <ele>71.8</ele>
        <time>2017-11-06T19:05:59Z</time>
      </trkpt>
      <trkpt lat="62.633452288025" lon="17.968377014411">
        <ele>71.6</ele>
        <time>2017-11-06T19:06:00Z</time>
      </trkpt>
      <trkpt lat="62.633460669925" lon="17.968329991952">
        <ele>71.4</ele>
        <time>2017-11-06T19:06:01Z</time>
      </trkpt>
      <trkpt lat="62.633467710721" lon="17.968274168498">
        <ele>71.2</ele>
        <time>2017-11-06T19:06:02Z</time>
      </trkpt>
      <trkpt lat="62.633474164784" lon="17.968227565134">
        <ele>71</ele>
        <time>2017-11-06T19:06:03Z</time>
      </trkpt>
      <trkpt lat="62.633481959951" lon="17.968174759164">
        <ele>70.8</ele>
        <time>2017-11-06T19:06:04Z</time>
      </trkpt>
      <trkpt lat="62.633489168385" lon="17.968118265158">
        <ele>70.6</ele>
        <time>2017-11-06T19:06:05Z</time>
      </trkpt>
      <trkpt lat="62.633499394303" lon="17.968062944618">
        <ele>70.4</ele>
        <time>2017-11-06T19:06:06Z</time>
      </trkpt>
      <trkpt lat="62.633507943841" lon="17.968013826684">
        <ele>70.4</ele>
        <time>2017-11-06T19:06:07Z</time>
      </trkpt>
      <trkpt lat="62.633511967153" lon="17.967966804225">
        <ele>70.2</ele>
        <time>2017-11-06T19:06:08Z</time>
      </trkpt>
      <trkpt lat="62.633520265234" lon="17.967905616355">
        <ele>70</ele>
        <time>2017-11-06T19:06:09Z</time>
      </trkpt>
      <trkpt lat="62.63352479146" lon="17.967862952484">
        <ele>69.6</ele>
        <time>2017-11-06T19:06:10Z</time>
      </trkpt>
      <trkpt lat="62.63353401155" lon="17.967805704107">
        <ele>69.4</ele>
        <time>2017-11-06T19:06:11Z</time>
      </trkpt>
      <trkpt lat="62.633545410934" lon="17.967757927277">
        <ele>69</ele>
        <time>2017-11-06T19:06:12Z</time>
      </trkpt>
      <trkpt lat="62.633551362083" lon="17.967712245922">
        <ele>68.6</ele>
        <time>2017-11-06T19:06:13Z</time>
      </trkpt>
      <trkpt lat="62.633556977956" lon="17.967653153527">
        <ele>68.4</ele>
        <time>2017-11-06T19:06:14Z</time>
      </trkpt>
      <trkpt lat="62.633563934933" lon="17.967594144951">
        <ele>68.2</ele>
        <time>2017-11-06T19:06:15Z</time>
      </trkpt>
      <trkpt lat="62.633571562462" lon="17.96754896651">
        <ele>68</ele>
        <time>2017-11-06T19:06:16Z</time>
      </trkpt>
      <trkpt lat="62.633577345973" lon="17.967487946278">
        <ele>67.8</ele>
        <time>2017-11-06T19:06:17Z</time>
      </trkpt>
      <trkpt lat="62.633584386769" lon="17.967437654878">
        <ele>67.6</ele>
        <time>2017-11-06T19:06:18Z</time>
      </trkpt>
      <trkpt lat="62.633593103945" lon="17.96738049032">
        <ele>67.4</ele>
        <time>2017-11-06T19:06:19Z</time>
      </trkpt>
      <trkpt lat="62.633597462533" lon="17.967334306051">
        <ele>67.2</ele>
        <time>2017-11-06T19:06:20Z</time>
      </trkpt>
      <trkpt lat="62.633609364831" lon="17.967289379067">
        <ele>67.2</ele>
        <time>2017-11-06T19:06:21Z</time>
      </trkpt>
      <trkpt lat="62.633616657084" lon="17.967238333296">
        <ele>67</ele>
        <time>2017-11-06T19:06:22Z</time>
      </trkpt>
      <trkpt lat="62.633626296269" lon="17.967192651941">
        <ele>66.8</ele>
        <time>2017-11-06T19:06:23Z</time>
      </trkpt>
      <trkpt lat="62.633634510531" lon="17.967133643365">
        <ele>66.8</ele>
        <time>2017-11-06T19:06:24Z</time>
      </trkpt>
      <trkpt lat="62.633638701481" lon="17.967086704725">
        <ele>66.6</ele>
        <time>2017-11-06T19:06:25Z</time>
      </trkpt>
      <trkpt lat="62.633646748105" lon="17.967031468004">
        <ele>66.4</ele>
        <time>2017-11-06T19:06:26Z</time>
      </trkpt>
      <trkpt lat="62.633649430313" lon="17.966976315102">
        <ele>66.2</ele>
        <time>2017-11-06T19:06:27Z</time>
      </trkpt>
      <trkpt lat="62.633657644575" lon="17.966932226308">
        <ele>66</ele>
        <time>2017-11-06T19:06:28Z</time>
      </trkpt>
      <trkpt lat="62.633666194113" lon="17.966869362058">
        <ele>65.8</ele>
        <time>2017-11-06T19:06:29Z</time>
      </trkpt>
      <trkpt lat="62.633670720339" lon="17.966819154477">
        <ele>65.6</ele>
        <time>2017-11-06T19:06:30Z</time>
      </trkpt>
      <trkpt lat="62.633674240737" lon="17.966769785086">
        <ele>65.4</ele>
        <time>2017-11-06T19:06:31Z</time>
      </trkpt>
      <trkpt lat="62.633675917117" lon="17.96671832022">
        <ele>65.2</ele>
        <time>2017-11-06T19:06:32Z</time>
      </trkpt>
      <trkpt lat="62.633680275705" lon="17.966677416548">
        <ele>64.8</ele>
        <time>2017-11-06T19:06:33Z</time>
      </trkpt>
      <trkpt lat="62.633687316501" lon="17.966620000533">
        <ele>64.6</ele>
        <time>2017-11-06T19:06:34Z</time>
      </trkpt>
      <trkpt lat="62.633697207143" lon="17.966556633369">
        <ele>64.4</ele>
        <time>2017-11-06T19:06:35Z</time>
      </trkpt>
      <trkpt lat="62.633705756681" lon="17.966503575942">
        <ele>64.2</ele>
        <time>2017-11-06T19:06:36Z</time>
      </trkpt>
      <trkpt lat="62.633711204916" lon="17.96644423209">
        <ele>64</ele>
        <time>2017-11-06T19:06:37Z</time>
      </trkpt>
      <trkpt lat="62.633720508825" lon="17.966389498283">
        <ele>63.8</ele>
        <time>2017-11-06T19:06:38Z</time>
      </trkpt>
      <trkpt lat="62.633728639268" lon="17.966332249906">
        <ele>63.6</ele>
        <time>2017-11-06T19:06:39Z</time>
      </trkpt>
      <trkpt lat="62.633734506598" lon="17.966290927139">
        <ele>63.4</ele>
        <time>2017-11-06T19:06:40Z</time>
      </trkpt>
      <trkpt lat="62.633744229602" lon="17.966227727613">
        <ele>63.2</ele>
        <time>2017-11-06T19:06:41Z</time>
      </trkpt>
      <trkpt lat="62.633751773312" lon="17.966167294114">
        <ele>63</ele>
        <time>2017-11-06T19:06:42Z</time>
      </trkpt>
      <trkpt lat="62.633755796624" lon="17.966117673266">
        <ele>62.8</ele>
        <time>2017-11-06T19:06:43Z</time>
      </trkpt>
      <trkpt lat="62.633762753601" lon="17.966062101269">
        <ele>62.6</ele>
        <time>2017-11-06T19:06:44Z</time>
      </trkpt>
      <trkpt lat="62.633775158813" lon="17.966015246448">
        <ele>62.4</ele>
        <time>2017-11-06T19:06:45Z</time>
      </trkpt>
      <trkpt lat="62.633787061111" lon="17.965976102975">
        <ele>62.2</ele>
        <time>2017-11-06T19:06:46Z</time>
      </trkpt>
      <trkpt lat="62.633800975065" lon="17.965927571774">
        <ele>62.2</ele>
        <time>2017-11-06T19:06:47Z</time>
      </trkpt>
      <trkpt lat="62.633811620078" lon="17.96588599755">
        <ele>62</ele>
        <time>2017-11-06T19:06:48Z</time>
      </trkpt>
      <trkpt lat="62.633823019462" lon="17.965831012286">
        <ele>61.8</ele>
        <time>2017-11-06T19:06:49Z</time>
      </trkpt>
      <trkpt lat="62.633834502665" lon="17.965784325103">
        <ele>61.6</ele>
        <time>2017-11-06T19:06:50Z</time>
      </trkpt>
      <trkpt lat="62.633846740239" lon="17.965730764762">
        <ele>61.4</ele>
        <time>2017-11-06T19:06:51Z</time>
      </trkpt>
      <trkpt lat="62.63385000918" lon="17.965688939081">
        <ele>61.2</ele>
        <time>2017-11-06T19:06:52Z</time>
      </trkpt>
      <trkpt lat="62.63385168556" lon="17.965642503355">
        <ele>61</ele>
        <time>2017-11-06T19:06:53Z</time>
      </trkpt>
      <trkpt lat="62.63385252375" lon="17.96558257277">
        <ele>60.8</ele>
        <time>2017-11-06T19:06:54Z</time>
      </trkpt>
      <trkpt lat="62.63385000918" lon="17.96553898689">
        <ele>60.6</ele>
        <time>2017-11-06T19:06:55Z</time>
      </trkpt>
      <trkpt lat="62.633846740239" lon="17.965485510368">
        <ele>60.4</ele>
        <time>2017-11-06T19:06:56Z</time>
      </trkpt>
      <trkpt lat="62.633842633108" lon="17.965425244507">
        <ele>60.2</ele>
        <time>2017-11-06T19:06:57Z</time>
      </trkpt>
      <trkpt lat="62.633840034719" lon="17.965387609776">
        <ele>60</ele>
        <time>2017-11-06T19:06:58Z</time>
      </trkpt>
      <trkpt lat="62.633831485181" lon="17.965328517381">
        <ele>60</ele>
        <time>2017-11-06T19:06:59Z</time>
      </trkpt>
      <trkpt lat="62.633828300059" lon="17.965273951212">
        <ele>59.8</ele>
        <time>2017-11-06T19:07:00Z</time>
      </trkpt>
      <trkpt lat="62.63382486348" lon="17.965211086962">
        <ele>59.6</ele>
        <time>2017-11-06T19:07:01Z</time>
      </trkpt>
      <trkpt lat="62.633822935643" lon="17.965161130838">
        <ele>59.4</ele>
        <time>2017-11-06T19:07:02Z</time>
      </trkpt>
      <trkpt lat="62.633821762177" lon="17.965108241049">
        <ele>59.2</ele>
        <time>2017-11-06T19:07:03Z</time>
      </trkpt>
      <trkpt lat="62.633822935643" lon="17.965051244129">
        <ele>59.2</ele>
        <time>2017-11-06T19:07:04Z</time>
      </trkpt>
      <trkpt lat="62.633832742466" lon="17.96498997244">
        <ele>58.8</ele>
        <time>2017-11-06T19:07:05Z</time>
      </trkpt>
      <trkpt lat="62.633843974212" lon="17.964941105963">
        <ele>58.6</ele>
        <time>2017-11-06T19:07:06Z</time>
      </trkpt>
      <trkpt lat="62.633869036093" lon="17.964903555051">
        <ele>58.4</ele>
        <time>2017-11-06T19:07:07Z</time>
      </trkpt>
      <trkpt lat="62.633894936164" lon="17.964880085731">
        <ele>58.2</ele>
        <time>2017-11-06T19:07:08Z</time>
      </trkpt>
      <trkpt lat="62.633930307782" lon="17.96488771326">
        <ele>58</ele>
        <time>2017-11-06T19:07:09Z</time>
      </trkpt>
      <trkpt lat="62.633948245048" lon="17.964878325532">
        <ele>57.8</ele>
        <time>2017-11-06T19:07:10Z</time>
      </trkpt>
      <trkpt lat="62.633980599182" lon="17.964860639723">
        <ele>57.6</ele>
        <time>2017-11-06T19:07:11Z</time>
      </trkpt>
      <trkpt lat="62.634010522565" lon="17.96485418566">
        <ele>57.6</ele>
        <time>2017-11-06T19:07:12Z</time>
      </trkpt>
      <trkpt lat="62.634038182835" lon="17.964859382438">
        <ele>57.4</ele>
        <time>2017-11-06T19:07:13Z</time>
      </trkpt>
      <trkpt lat="62.63406710039" lon="17.964857622239">
        <ele>57.2</ele>
        <time>2017-11-06T19:07:14Z</time>
      </trkpt>
      <trkpt lat="62.63409224609" lon="17.964856951687">
        <ele>57</ele>
        <time>2017-11-06T19:07:15Z</time>
      </trkpt>
      <trkpt lat="62.634117810885" lon="17.964855442945">
        <ele>56.8</ele>
        <time>2017-11-06T19:07:16Z</time>
      </trkpt>
      <trkpt lat="62.634146141707" lon="17.964849324158">
        <ele>56.6</ele>
        <time>2017-11-06T19:07:17Z</time>
      </trkpt>
      <trkpt lat="62.634174137253" lon="17.964843875923">
        <ele>56.6</ele>
        <time>2017-11-06T19:07:18Z</time>
      </trkpt>
      <trkpt lat="62.634205820835" lon="17.964844881751">
        <ele>56.6</ele>
        <time>2017-11-06T19:07:19Z</time>
      </trkpt>
      <trkpt lat="62.634231301811" lon="17.964843205371">
        <ele>56.6</ele>
        <time>2017-11-06T19:07:20Z</time>
      </trkpt>
      <trkpt lat="62.634255609321" lon="17.964839768792">
        <ele>56.6</ele>
        <time>2017-11-06T19:07:21Z</time>
      </trkpt>
      <trkpt lat="62.63428083884" lon="17.964841193715">
        <ele>56.6</ele>
        <time>2017-11-06T19:07:22Z</time>
      </trkpt>
      <trkpt lat="62.634308331472" lon="17.964840439344">
        <ele>56.6</ele>
        <time>2017-11-06T19:07:23Z</time>
      </trkpt>
      <trkpt lat="62.634336662294" lon="17.964838595326">
        <ele>56.6</ele>
        <time>2017-11-06T19:07:24Z</time>
      </trkpt>
      <trkpt lat="62.634366082763" lon="17.964836667489">
        <ele>56.6</ele>
        <time>2017-11-06T19:07:25Z</time>
      </trkpt>
      <trkpt lat="62.634394497404" lon="17.964832644177">
        <ele>56.6</ele>
        <time>2017-11-06T19:07:26Z</time>
      </trkpt>
      <trkpt lat="62.634420565113" lon="17.964827866494">
        <ele>56.6</ele>
        <time>2017-11-06T19:07:27Z</time>
      </trkpt>
      <trkpt lat="62.634440681673" lon="17.964828117951">
        <ele>56.6</ele>
        <time>2017-11-06T19:07:28Z</time>
      </trkpt>
      <trkpt lat="62.634477394395" lon="17.964827279761">
        <ele>56.6</ele>
        <time>2017-11-06T19:07:29Z</time>
      </trkpt>
      <trkpt lat="62.634500193163" lon="17.964824429915">
        <ele>56.4</ele>
        <time>2017-11-06T19:07:30Z</time>
      </trkpt>
      <trkpt lat="62.634528021071" lon="17.964826022476">
        <ele>56.4</ele>
        <time>2017-11-06T19:07:31Z</time>
      </trkpt>
      <trkpt lat="62.634554424056" lon="17.964823675544">
        <ele>56.2</ele>
        <time>2017-11-06T19:07:32Z</time>
      </trkpt>
      <trkpt lat="62.634577725738" lon="17.964818646404">
        <ele>56.2</ele>
        <time>2017-11-06T19:07:33Z</time>
      </trkpt>
      <trkpt lat="62.634604044904" lon="17.964817640576">
        <ele>56.2</ele>
        <time>2017-11-06T19:07:34Z</time>
      </trkpt>
      <trkpt lat="62.634631956631" lon="17.964814455454">
        <ele>56.2</ele>
        <time>2017-11-06T19:07:35Z</time>
      </trkpt>
      <trkpt lat="62.634653498114" lon="17.964810013047">
        <ele>56.2</ele>
        <time>2017-11-06T19:07:36Z</time>
      </trkpt>
      <trkpt lat="62.634680068737" lon="17.964811521789">
        <ele>56.2</ele>
        <time>2017-11-06T19:07:37Z</time>
      </trkpt>
      <trkpt lat="62.634705298256" lon="17.964807414658">
        <ele>56</ele>
        <time>2017-11-06T19:07:38Z</time>
      </trkpt>
      <trkpt lat="62.634731701241" lon="17.96480221788">
        <ele>56</ele>
        <time>2017-11-06T19:07:39Z</time>
      </trkpt>
      <trkpt lat="62.634740418417" lon="17.96480389426">
        <ele>56.2</ele>
        <time>2017-11-06T19:07:40Z</time>
      </trkpt>
      <trkpt lat="62.63478626741" lon="17.964802888432">
        <ele>56</ele>
        <time>2017-11-06T19:07:41Z</time>
      </trkpt>
      <trkpt lat="62.634813005671" lon="17.964797440197">
        <ele>56</ele>
        <time>2017-11-06T19:07:42Z</time>
      </trkpt>
      <trkpt lat="62.63483655881" lon="17.964792578695">
        <ele>56</ele>
        <time>2017-11-06T19:07:43Z</time>
      </trkpt>
      <trkpt lat="62.634849299298" lon="17.964795428541">
        <ele>56</ele>
        <time>2017-11-06T19:07:44Z</time>
      </trkpt>
      <trkpt lat="62.634891460255" lon="17.964790399401">
        <ele>56</ele>
        <time>2017-11-06T19:07:45Z</time>
      </trkpt>
      <trkpt lat="62.63491199591" lon="17.964787717193">
        <ele>56</ele>
        <time>2017-11-06T19:07:46Z</time>
      </trkpt>
      <trkpt lat="62.634942589845" lon="17.964786962822">
        <ele>55.8</ele>
        <time>2017-11-06T19:07:47Z</time>
      </trkpt>
      <trkpt lat="62.634965891527" lon="17.964777742732">
        <ele>55.8</ele>
        <time>2017-11-06T19:07:48Z</time>
      </trkpt>
      <trkpt lat="62.634995563453" lon="17.964778664741">
        <ele>55.6</ele>
        <time>2017-11-06T19:07:49Z</time>
      </trkpt>
      <trkpt lat="62.635020876791" lon="17.964777323637">
        <ele>55.6</ele>
        <time>2017-11-06T19:07:50Z</time>
      </trkpt>
      <trkpt lat="62.63504275355" lon="17.964775228162">
        <ele>55.6</ele>
        <time>2017-11-06T19:07:51Z</time>
      </trkpt>
      <trkpt lat="62.635064714128" lon="17.964771288669">
        <ele>55.6</ele>
        <time>2017-11-06T19:07:52Z</time>
      </trkpt>
      <trkpt lat="62.635090781837" lon="17.964761733303">
        <ele>55.6</ele>
        <time>2017-11-06T19:07:53Z</time>
      </trkpt>
      <trkpt lat="62.635116430451" lon="17.964753351403">
        <ele>55.6</ele>
        <time>2017-11-06T19:07:54Z</time>
      </trkpt>
      <trkpt lat="62.635137971934" lon="17.96474522096">
        <ele>55.6</ele>
        <time>2017-11-06T19:07:55Z</time>
      </trkpt>
      <trkpt lat="62.635163033815" lon="17.964735749413">
        <ele>55.6</ele>
        <time>2017-11-06T19:07:56Z</time>
      </trkpt>
      <trkpt lat="62.63518692223" lon="17.96473264811">
        <ele>55.6</ele>
        <time>2017-11-06T19:07:57Z</time>
      </trkpt>
      <trkpt lat="62.635208882808" lon="17.964725020581">
        <ele>55.4</ele>
        <time>2017-11-06T19:07:58Z</time>
      </trkpt>
      <trkpt lat="62.635239560562" lon="17.964715213758">
        <ele>55.4</ele>
        <time>2017-11-06T19:07:59Z</time>
      </trkpt>
      <trkpt lat="62.635263448977" lon="17.964703814374">
        <ele>55.2</ele>
        <time>2017-11-06T19:08:00Z</time>
      </trkpt>
      <trkpt lat="62.635284487546" lon="17.964689313687">
        <ele>55.2</ele>
        <time>2017-11-06T19:08:01Z</time>
      </trkpt>
      <trkpt lat="62.635309717065" lon="17.964672717525">
        <ele>55</ele>
        <time>2017-11-06T19:08:02Z</time>
      </trkpt>
      <trkpt lat="62.635331174729" lon="17.964659557942">
        <ele>55</ele>
        <time>2017-11-06T19:08:03Z</time>
      </trkpt>
      <trkpt lat="62.635352464755" lon="17.964644889617">
        <ele>55</ele>
        <time>2017-11-06T19:08:04Z</time>
      </trkpt>
      <trkpt lat="62.635380292663" lon="17.964635334251">
        <ele>55</ele>
        <time>2017-11-06T19:08:05Z</time>
      </trkpt>
      <trkpt lat="62.635405354544" lon="17.964622761401">
        <ele>55</ele>
        <time>2017-11-06T19:08:06Z</time>
      </trkpt>
      <trkpt lat="62.63542915914" lon="17.964611026741">
        <ele>54.8</ele>
        <time>2017-11-06T19:08:07Z</time>
      </trkpt>
      <trkpt lat="62.635454891573" lon="17.964597783339">
        <ele>54.8</ele>
        <time>2017-11-06T19:08:08Z</time>
      </trkpt>
      <trkpt lat="62.635484312042" lon="17.96458177391">
        <ele>54.8</ele>
        <time>2017-11-06T19:08:09Z</time>
      </trkpt>
      <trkpt lat="62.635505769706" lon="17.964568781965">
        <ele>54.8</ele>
        <time>2017-11-06T19:08:10Z</time>
      </trkpt>
      <trkpt lat="62.635534687261" lon="17.964554868011">
        <ele>54.6</ele>
        <time>2017-11-06T19:08:11Z</time>
      </trkpt>
      <trkpt lat="62.635561341703" lon="17.96454154079">
        <ele>54.6</ele>
        <time>2017-11-06T19:08:12Z</time>
      </trkpt>
      <trkpt lat="62.6355833861" lon="17.964528213569">
        <ele>54.4</ele>
        <time>2017-11-06T19:08:13Z</time>
      </trkpt>
      <trkpt lat="62.635610040542" lon="17.964511114493">
        <ele>54.4</ele>
        <time>2017-11-06T19:08:14Z</time>
      </trkpt>
      <trkpt lat="62.635636275889" lon="17.964491836123">
        <ele>54.4</ele>
        <time>2017-11-06T19:08:15Z</time>
      </trkpt>
      <trkpt lat="62.635659158476" lon="17.96447616197">
        <ele>54.4</ele>
        <time>2017-11-06T19:08:16Z</time>
      </trkpt>
      <trkpt lat="62.635685812918" lon="17.964460068722">
        <ele>54.4</ele>
        <time>2017-11-06T19:08:17Z</time>
      </trkpt>
      <trkpt lat="62.635710455704" lon="17.964446238587">
        <ele>54.4</ele>
        <time>2017-11-06T19:08:18Z</time>
      </trkpt>
      <trkpt lat="62.6357342603" lon="17.96442754695">
        <ele>54.4</ele>
        <time>2017-11-06T19:08:19Z</time>
      </trkpt>
      <trkpt lat="62.635757478163" lon="17.964405083458">
        <ele>54.2</ele>
        <time>2017-11-06T19:08:20Z</time>
      </trkpt>
      <trkpt lat="62.635783964967" lon="17.964386978554">
        <ele>54.2</ele>
        <time>2017-11-06T19:08:21Z</time>
      </trkpt>
      <trkpt lat="62.635805254993" lon="17.964369041288">
        <ele>54.2</ele>
        <time>2017-11-06T19:08:22Z</time>
      </trkpt>
      <trkpt lat="62.635830903607" lon="17.964346661615">
        <ele>54</ele>
        <time>2017-11-06T19:08:23Z</time>
      </trkpt>
      <trkpt lat="62.635858731515" lon="17.964326461236">
        <ele>53.8</ele>
        <time>2017-11-06T19:08:24Z</time>
      </trkpt>
      <trkpt lat="62.635878177523" lon="17.964306093219">
        <ele>53.8</ele>
        <time>2017-11-06T19:08:25Z</time>
      </trkpt>
      <trkpt lat="62.63590357468" lon="17.964285976659">
        <ele>53.6</ele>
        <time>2017-11-06T19:08:26Z</time>
      </trkpt>
      <trkpt lat="62.635929139475" lon="17.964262842615">
        <ele>53.6</ele>
        <time>2017-11-06T19:08:27Z</time>
      </trkpt>
      <trkpt lat="62.635947328198" lon="17.964243061331">
        <ele>53.6</ele>
        <time>2017-11-06T19:08:28Z</time>
      </trkpt>
      <trkpt lat="62.635971551889" lon="17.96421548488">
        <ele>53.6</ele>
        <time>2017-11-06T19:08:29Z</time>
      </trkpt>
      <trkpt lat="62.635998373969" lon="17.964194613949">
        <ele>53.6</ele>
        <time>2017-11-06T19:08:30Z</time>
      </trkpt>
      <trkpt lat="62.636021005099" lon="17.964173407742">
        <ele>53.6</ele>
        <time>2017-11-06T19:08:31Z</time>
      </trkpt>
      <trkpt lat="62.636042043668" lon="17.964151363345">
        <ele>53.6</ele>
        <time>2017-11-06T19:08:32Z</time>
      </trkpt>
      <trkpt lat="62.63606785992" lon="17.964135605373">
        <ele>53.6</ele>
        <time>2017-11-06T19:08:33Z</time>
      </trkpt>
      <trkpt lat="62.636090658688" lon="17.964112052234">
        <ele>53.6</ele>
        <time>2017-11-06T19:08:34Z</time>
      </trkpt>
      <trkpt lat="62.63611563675" lon="17.964087828543">
        <ele>53.6</ele>
        <time>2017-11-06T19:08:35Z</time>
      </trkpt>
      <trkpt lat="62.636144302848" lon="17.964057988979">
        <ele>53.6</ele>
        <time>2017-11-06T19:08:36Z</time>
      </trkpt>
      <trkpt lat="62.636166347245" lon="17.964032256546">
        <ele>53.6</ele>
        <time>2017-11-06T19:08:37Z</time>
      </trkpt>
      <trkpt lat="62.636187888728" lon="17.96400761376">
        <ele>53.4</ele>
        <time>2017-11-06T19:08:38Z</time>
      </trkpt>
      <trkpt lat="62.636213872618" lon="17.96398246806">
        <ele>53.4</ele>
        <time>2017-11-06T19:08:39Z</time>
      </trkpt>
      <trkpt lat="62.636233737721" lon="17.963963105871">
        <ele>53.4</ele>
        <time>2017-11-06T19:08:40Z</time>
      </trkpt>
      <trkpt lat="62.636258548145" lon="17.96393385304">
        <ele>53.2</ele>
        <time>2017-11-06T19:08:41Z</time>
      </trkpt>
      <trkpt lat="62.63628327475" lon="17.963901498906">
        <ele>53.2</ele>
        <time>2017-11-06T19:08:42Z</time>
      </trkpt>
      <trkpt lat="62.636305822061" lon="17.963874760645">
        <ele>53</ele>
        <time>2017-11-06T19:08:43Z</time>
      </trkpt>
      <trkpt lat="62.636315796522" lon="17.963858164483">
        <ele>53</ele>
        <time>2017-11-06T19:08:44Z</time>
      </trkpt>
      <trkpt lat="62.636348318294" lon="17.963811225843">
        <ele>53</ele>
        <time>2017-11-06T19:08:45Z</time>
      </trkpt>
      <trkpt lat="62.63636960832" lon="17.963786499238">
        <ele>52.8</ele>
        <time>2017-11-06T19:08:46Z</time>
      </trkpt>
      <trkpt lat="62.636390982165" lon="17.963766801773">
        <ele>52.8</ele>
        <time>2017-11-06T19:08:47Z</time>
      </trkpt>
      <trkpt lat="62.636411936915" lon="17.963737046028">
        <ele>52.6</ele>
        <time>2017-11-06T19:08:48Z</time>
      </trkpt>
      <trkpt lat="62.636435657692" lon="17.963708799025">
        <ele>52.6</ele>
        <time>2017-11-06T19:08:49Z</time>
      </trkpt>
      <trkpt lat="62.636455690433" lon="17.963683904782">
        <ele>52.4</ele>
        <time>2017-11-06T19:08:50Z</time>
      </trkpt>
      <trkpt lat="62.636475387898" lon="17.963674097959">
        <ele>52.4</ele>
        <time>2017-11-06T19:08:51Z</time>
      </trkpt>
      <trkpt lat="62.636498438123" lon="17.963652807933">
        <ele>52.4</ele>
        <time>2017-11-06T19:08:52Z</time>
      </trkpt>
      <trkpt lat="62.636525344022" lon="17.963645348042">
        <ele>52.4</ele>
        <time>2017-11-06T19:08:53Z</time>
      </trkpt>
      <trkpt lat="62.636551411731" lon="17.963659429634">
        <ele>52.2</ele>
        <time>2017-11-06T19:08:54Z</time>
      </trkpt>
      <trkpt lat="62.636567588798" lon="17.963693460148">
        <ele>52.4</ele>
        <time>2017-11-06T19:08:55Z</time>
      </trkpt>
      <trkpt lat="62.636584939331" lon="17.963736459295">
        <ele>52.4</ele>
        <time>2017-11-06T19:08:56Z</time>
      </trkpt>
      <trkpt lat="62.636603295692" lon="17.963775099854">
        <ele>52.4</ele>
        <time>2017-11-06T19:08:57Z</time>
      </trkpt>
      <trkpt lat="62.636620562406" lon="17.96381231549">
        <ele>52.6</ele>
        <time>2017-11-06T19:08:58Z</time>
      </trkpt>
      <trkpt lat="62.636639840776" lon="17.963859170311">
        <ele>52.6</ele>
        <time>2017-11-06T19:08:59Z</time>
      </trkpt>
      <trkpt lat="62.636655347291" lon="17.963897727051">
        <ele>52.6</ele>
        <time>2017-11-06T19:09:00Z</time>
      </trkpt>
      <trkpt lat="62.636672111091" lon="17.963944414234">
        <ele>52.8</ele>
        <time>2017-11-06T19:09:01Z</time>
      </trkpt>
      <trkpt lat="62.636687785244" lon="17.96399001177">
        <ele>52.8</ele>
        <time>2017-11-06T19:09:02Z</time>
      </trkpt>
      <trkpt lat="62.636702034474" lon="17.964028903786">
        <ele>52.8</ele>
        <time>2017-11-06T19:09:03Z</time>
      </trkpt>
      <trkpt lat="62.636719552645" lon="17.96407047801">
        <ele>52.8</ele>
        <time>2017-11-06T19:09:04Z</time>
      </trkpt>
      <trkpt lat="62.636739920662" lon="17.964112136053">
        <ele>52.8</ele>
        <time>2017-11-06T19:09:05Z</time>
      </trkpt>
      <trkpt lat="62.636764311991" lon="17.964138706676">
        <ele>52.8</ele>
        <time>2017-11-06T19:09:06Z</time>
      </trkpt>
      <trkpt lat="62.636787446035" lon="17.964169719706">
        <ele>52.8</ele>
        <time>2017-11-06T19:09:07Z</time>
      </trkpt>
      <trkpt lat="62.636809238975" lon="17.964197296157">
        <ele>52.8</ele>
        <time>2017-11-06T19:09:08Z</time>
      </trkpt>
      <trkpt lat="62.636833378847" lon="17.964214981966">
        <ele>53</ele>
        <time>2017-11-06T19:09:09Z</time>
      </trkpt>
      <trkpt lat="62.636855507063" lon="17.964233589784">
        <ele>53</ele>
        <time>2017-11-06T19:09:10Z</time>
      </trkpt>
      <trkpt lat="62.636880149849" lon="17.964258064932">
        <ele>53</ele>
        <time>2017-11-06T19:09:11Z</time>
      </trkpt>
      <trkpt lat="62.636902613341" lon="17.96426829085">
        <ele>53</ele>
        <time>2017-11-06T19:09:12Z</time>
      </trkpt>
      <trkpt lat="62.636931530896" lon="17.964262172063">
        <ele>52.8</ele>
        <time>2017-11-06T19:09:13Z</time>
      </trkpt>
      <trkpt lat="62.636959191166" lon="17.964232667775">
        <ele>52.8</ele>
        <time>2017-11-06T19:09:14Z</time>
      </trkpt>
      <trkpt lat="62.63698232521" lon="17.96420458841">
        <ele>52.8</ele>
        <time>2017-11-06T19:09:15Z</time>
      </trkpt>
      <trkpt lat="62.63700076539" lon="17.964177347235">
        <ele>52.8</ele>
        <time>2017-11-06T19:09:16Z</time>
      </trkpt>
      <trkpt lat="62.637024067072" lon="17.964150357517">
        <ele>52.6</ele>
        <time>2017-11-06T19:09:17Z</time>
      </trkpt>
      <trkpt lat="62.637040579415" lon="17.964120434134">
        <ele>52.4</ele>
        <time>2017-11-06T19:09:18Z</time>
      </trkpt>
      <trkpt lat="62.637060612156" lon="17.964090007837">
        <ele>52.4</ele>
        <time>2017-11-06T19:09:19Z</time>
      </trkpt>
      <trkpt lat="62.637081734544" lon="17.964059749178">
        <ele>52.4</ele>
        <time>2017-11-06T19:09:20Z</time>
      </trkpt>
      <trkpt lat="62.63710051" lon="17.964023707008">
        <ele>52.2</ele>
        <time>2017-11-06T19:09:21Z</time>
      </trkpt>
      <trkpt lat="62.637117860533" lon="17.963992693978">
        <ele>52.2</ele>
        <time>2017-11-06T19:09:22Z</time>
      </trkpt>
      <trkpt lat="62.637139821111" lon="17.963961680948">
        <ele>52.2</ele>
        <time>2017-11-06T19:09:23Z</time>
      </trkpt>
      <trkpt lat="62.637165218268" lon="17.963938546904">
        <ele>52.2</ele>
        <time>2017-11-06T19:09:24Z</time>
      </trkpt>
      <trkpt lat="62.637186173018" lon="17.963926728425">
        <ele>52</ele>
        <time>2017-11-06T19:09:25Z</time>
      </trkpt>
      <trkpt lat="62.63721618022" lon="17.963925890235">
        <ele>52</ele>
        <time>2017-11-06T19:09:26Z</time>
      </trkpt>
      <trkpt lat="62.637239733359" lon="17.963953299048">
        <ele>51.8</ele>
        <time>2017-11-06T19:09:27Z</time>
      </trkpt>
      <trkpt lat="62.637260101376" lon="17.963979618214">
        <ele>51.6</ele>
        <time>2017-11-06T19:09:28Z</time>
      </trkpt>
      <trkpt lat="62.637282229592" lon="17.964015241289">
        <ele>51.8</ele>
        <time>2017-11-06T19:09:29Z</time>
      </trkpt>
      <trkpt lat="62.637310644233" lon="17.964031166899">
        <ele>51.8</ele>
        <time>2017-11-06T19:09:30Z</time>
      </trkpt>
      <trkpt lat="62.637333443001" lon="17.964034352021">
        <ele>51.8</ele>
        <time>2017-11-06T19:09:31Z</time>
      </trkpt>
      <trkpt lat="62.637358588701" lon="17.964035944582">
        <ele>51.8</ele>
        <time>2017-11-06T19:09:32Z</time>
      </trkpt>
      <trkpt lat="62.637380046365" lon="17.964030580166">
        <ele>51.6</ele>
        <time>2017-11-06T19:09:33Z</time>
      </trkpt>
      <trkpt lat="62.637402761314" lon="17.964022617361">
        <ele>51.4</ele>
        <time>2017-11-06T19:09:34Z</time>
      </trkpt>
      <trkpt lat="62.6374274041" lon="17.964015325108">
        <ele>51.4</ele>
        <time>2017-11-06T19:09:35Z</time>
      </trkpt>
      <trkpt lat="62.637449616135" lon="17.964024880474">
        <ele>51.2</ele>
        <time>2017-11-06T19:09:36Z</time>
      </trkpt>
      <trkpt lat="62.637471409075" lon="17.964032088908">
        <ele>51</ele>
        <time>2017-11-06T19:09:37Z</time>
      </trkpt>
      <trkpt lat="62.637489346341" lon="17.964043488292">
        <ele>50.8</ele>
        <time>2017-11-06T19:09:38Z</time>
      </trkpt>
      <trkpt lat="62.637513067118" lon="17.964062515205">
        <ele>50.6</ele>
        <time>2017-11-06T19:09:39Z</time>
      </trkpt>
      <trkpt lat="62.637526897253" lon="17.964071735295">
        <ele>50.6</ele>
        <time>2017-11-06T19:09:40Z</time>
      </trkpt>
      <trkpt lat="62.637542655225" lon="17.964080284833">
        <ele>50.6</ele>
        <time>2017-11-06T19:09:41Z</time>
      </trkpt>
      <trkpt lat="62.637553048781" lon="17.964100233755">
        <ele>50.4</ele>
        <time>2017-11-06T19:09:42Z</time>
      </trkpt>
      <trkpt lat="62.637563526156" lon="17.964113560976">
        <ele>50.4</ele>
        <time>2017-11-06T19:09:43Z</time>
      </trkpt>
      <trkpt lat="62.637572913884" lon="17.96412663674">
        <ele>50.4</ele>
        <time>2017-11-06T19:09:44Z</time>
      </trkpt>
      <trkpt lat="62.637578697395" lon="17.964145412196">
        <ele>50.4</ele>
        <time>2017-11-06T19:09:45Z</time>
      </trkpt>
      <trkpt lat="62.637582720707" lon="17.964159158512">
        <ele>50.6</ele>
        <time>2017-11-06T19:09:46Z</time>
      </trkpt>
      <trkpt lat="62.637584900001" lon="17.964170306439">
        <ele>50.8</ele>
        <time>2017-11-06T19:09:47Z</time>
      </trkpt>
      <trkpt lat="62.637582050155" lon="17.964163684738">
        <ele>51</ele>
        <time>2017-11-06T19:09:48Z</time>
      </trkpt>
    </trkseg>
  </trk>
</gpx>